<?xml version='1.0' encoding='UTF-8'?><gpx version="1.1" creator="JPX - https://github.com/jenetics/jpx" xmlns="http://www.topografix.com/GPX/1/1"><trk><trkseg><trkpt lat="14.558475316736653" lon="120.99533181468253"><ele>9.0</ele><time>2026-05-03T05:45:04.884Z</time></trkpt><trkpt lat="14.558565862174522" lon="120.99521744965244"><ele>9.0</ele><time>2026-05-03T05:45:09Z</time></trkpt><trkpt lat="14.55866155096683" lon="120.99516213107255"><ele>9.0</ele><time>2026-05-03T05:45:11Z</time></trkpt><trkpt lat="14.558633101864018" lon="120.99524936079494"><ele>9.0</ele><time>2026-05-03T05:45:17Z</time></trkpt><trkpt lat="14.558673055865345" lon="120.99531287505059"><ele>9.0</ele><time>2026-05-03T05:45:25Z</time></trkpt><trkpt lat="14.558627784852655" lon="120.99536531072215"><ele>9.0</ele><time>2026-05-03T05:45:29Z</time></trkpt><trkpt lat="14.558617526883046" lon="120.99545282757128"><ele>9.0</ele><time>2026-05-03T05:45:31Z</time></trkpt><trkpt lat="14.55865721769843" lon="120.99553556970537"><ele>9.0</ele><time>2026-05-03T05:45:33Z</time></trkpt><trkpt lat="14.558643042438298" lon="120.99562218781811"><ele>9.0</ele><time>2026-05-03T05:45:36Z</time></trkpt><trkpt lat="14.55863285373094" lon="120.99570571305593"><ele>9.0</ele><time>2026-05-03T05:45:39.039Z</time></trkpt><trkpt lat="14.558168203366717" lon="120.99602127503475"><ele>9.0</ele><time>2026-05-03T05:46:48Z</time></trkpt><trkpt lat="14.558153574364262" lon="120.99610640520615"><ele>9.0</ele><time>2026-05-03T05:46:53Z</time></trkpt><trkpt lat="14.558222262041177" lon="120.99608090504569"><ele>9.0</ele><time>2026-05-03T05:47:02.999Z</time></trkpt><trkpt lat="14.558300259646069" lon="120.99606013495668"><ele>9.0</ele><time>2026-05-03T05:47:03.999Z</time></trkpt><trkpt lat="14.558386569508787" lon="120.996048705932"><ele>9.0</ele><time>2026-05-03T05:47:04.999Z</time></trkpt><trkpt lat="14.558465850929215" lon="120.99603810018945"><ele>9.0</ele><time>2026-05-03T05:47:05.999Z</time></trkpt><trkpt lat="14.558580985157336" lon="120.99613801525277"><ele>9.0</ele><time>2026-05-03T05:47:06.999Z</time></trkpt><trkpt lat="14.558671701837685" lon="120.99611690932586"><ele>9.0</ele><time>2026-05-03T05:47:07.999Z</time></trkpt><trkpt lat="14.558765084864147" lon="120.99609518305897"><ele>9.0</ele><time>2026-05-03T05:47:08.999Z</time></trkpt><trkpt lat="14.558865684263122" lon="120.99607212754324"><ele>9.0</ele><time>2026-05-03T05:47:09.999Z</time></trkpt><trkpt lat="14.558963856208267" lon="120.99604923667019"><ele>9.0</ele><time>2026-05-03T05:47:10.999Z</time></trkpt><trkpt lat="14.559068555158731" lon="120.99602527642162"><ele>9.0</ele><time>2026-05-03T05:47:11.999Z</time></trkpt><trkpt lat="14.559171973602172" lon="120.99600146296405"><ele>9.0</ele><time>2026-05-03T05:47:12.999Z</time></trkpt><trkpt lat="14.55927601968926" lon="120.99597750498252"><ele>9.0</ele><time>2026-05-03T05:47:13.999Z</time></trkpt><trkpt lat="14.559374939450088" lon="120.99595472741021"><ele>9.0</ele><time>2026-05-03T05:47:14.999Z</time></trkpt><trkpt lat="14.559476921753165" lon="120.9959312446445"><ele>9.0</ele><time>2026-05-03T05:47:15.999Z</time></trkpt><trkpt lat="14.559578860885992" lon="120.9959077718212"><ele>8.75</ele><time>2026-05-03T05:47:16.999Z</time></trkpt><trkpt lat="14.559675958303073" lon="120.99588529882523"><ele>8.5</ele><time>2026-05-03T05:47:18Z</time></trkpt><trkpt lat="14.559754754019298" lon="120.9958670902383"><ele>8.25</ele><time>2026-05-03T05:47:19Z</time></trkpt><trkpt lat="14.559819027833559" lon="120.99585223746818"><ele>8.0</ele><time>2026-05-03T05:47:21Z</time></trkpt><trkpt lat="14.560019708545502" lon="120.99580412101184"><ele>7.800000000000001</ele><time>2026-05-03T05:47:23Z</time></trkpt><trkpt lat="14.56011449599754" lon="120.9958126440891"><ele>7.6000000000000005</ele><time>2026-05-03T05:47:24Z</time></trkpt><trkpt lat="14.560222842042489" lon="120.99577485320546"><ele>7.3999999999999995</ele><time>2026-05-03T05:47:25Z</time></trkpt><trkpt lat="14.560330255784628" lon="120.9957470092516"><ele>7.199999999999999</ele><time>2026-05-03T05:47:26Z</time></trkpt><trkpt lat="14.560441460262409" lon="120.99572347761912"><ele>7.0</ele><time>2026-05-03T05:47:27Z</time></trkpt><trkpt lat="14.560554500470495" lon="120.99569033961822"><ele>7.0</ele><time>2026-05-03T05:47:28Z</time></trkpt><trkpt lat="14.56068115101669" lon="120.99566355073256"><ele>7.0</ele><time>2026-05-03T05:47:29Z</time></trkpt><trkpt lat="14.560809231725301" lon="120.9956424279905"><ele>7.0</ele><time>2026-05-03T05:47:30Z</time></trkpt><trkpt lat="14.560940456143005" lon="120.9956235072453"><ele>7.0</ele><time>2026-05-03T05:47:31Z</time></trkpt><trkpt lat="14.561078786842364" lon="120.99559952573554"><ele>7.5</ele><time>2026-05-03T05:47:32Z</time></trkpt><trkpt lat="14.561214650254712" lon="120.99557176855623"><ele>8.0</ele><time>2026-05-03T05:47:33Z</time></trkpt><trkpt lat="14.56135481959433" lon="120.99554027224319"><ele>8.5</ele><time>2026-05-03T05:47:34Z</time></trkpt><trkpt lat="14.561490139304105" lon="120.99551108885429"><ele>9.0</ele><time>2026-05-03T05:47:35Z</time></trkpt><trkpt lat="14.56161621356764" lon="120.99547890008688"><ele>9.0</ele><time>2026-05-03T05:47:36Z</time></trkpt><trkpt lat="14.561730732569746" lon="120.99544196959992"><ele>9.0</ele><time>2026-05-03T05:47:37Z</time></trkpt><trkpt lat="14.561838057713402" lon="120.99541317377967"><ele>9.0</ele><time>2026-05-03T05:47:38Z</time></trkpt><trkpt lat="14.561922255103417" lon="120.99539331846714"><ele>9.0</ele><time>2026-05-03T05:47:39Z</time></trkpt><trkpt lat="14.562014059469572" lon="120.99537341992604"><ele>9.0</ele><time>2026-05-03T05:47:40Z</time></trkpt><trkpt lat="14.562096240915729" lon="120.99535129375722"><ele>9.166666666666666</ele><time>2026-05-03T05:47:41Z</time></trkpt><trkpt lat="14.562204933551762" lon="120.99532996060465"><ele>9.333333333333334</ele><time>2026-05-03T05:47:43Z</time></trkpt><trkpt lat="14.562272236674554" lon="120.9953062567291"><ele>9.5</ele><time>2026-05-03T05:47:46Z</time></trkpt><trkpt lat="14.562365228745687" lon="120.99531495897378"><ele>9.666666666666668</ele><time>2026-05-03T05:48:13Z</time></trkpt><trkpt lat="14.562438032871173" lon="120.99526542786515"><ele>9.833333333333334</ele><time>2026-05-03T05:48:18Z</time></trkpt><trkpt lat="14.562510735385931" lon="120.99526585944281"><ele>10.0</ele><time>2026-05-03T05:48:21Z</time></trkpt><trkpt lat="14.56259960665217" lon="120.99526176274522"><ele>10.0</ele><time>2026-05-03T05:48:24Z</time></trkpt><trkpt lat="14.562675625421507" lon="120.99536357220865"><ele>10.0</ele><time>2026-05-03T05:48:26Z</time></trkpt><trkpt lat="14.562745910165452" lon="120.99548315743334"><ele>10.0</ele><time>2026-05-03T05:48:28Z</time></trkpt><trkpt lat="14.562779153393446" lon="120.99556271403043"><ele>10.0</ele><time>2026-05-03T05:48:29Z</time></trkpt><trkpt lat="14.562821040240111" lon="120.99562502181841"><ele>10.0</ele><time>2026-05-03T05:48:31Z</time></trkpt><trkpt lat="14.562842134574458" lon="120.99570285902567"><ele>9.8</ele><time>2026-05-03T05:48:34Z</time></trkpt><trkpt lat="14.562898993674724" lon="120.99581012521693"><ele>9.6</ele><time>2026-05-03T05:48:36Z</time></trkpt><trkpt lat="14.562931271750879" lon="120.99587118888728"><ele>9.4</ele><time>2026-05-03T05:48:37Z</time></trkpt><trkpt lat="14.562963573331274" lon="120.99593520603102"><ele>9.2</ele><time>2026-05-03T05:48:38Z</time></trkpt><trkpt lat="14.563020476013927" lon="120.99603935449554"><ele>9.0</ele><time>2026-05-03T05:48:40Z</time></trkpt><trkpt lat="14.56306165852042" lon="120.9961415367637"><ele>9.0</ele><time>2026-05-03T05:48:42Z</time></trkpt><trkpt lat="14.563109710102312" lon="120.99623902429559"><ele>9.0</ele><time>2026-05-03T05:48:44Z</time></trkpt><trkpt lat="14.563145440624126" lon="120.99630156968041"><ele>9.0</ele><time>2026-05-03T05:48:45Z</time></trkpt><trkpt lat="14.563185079558101" lon="120.99637216244045"><ele>9.0</ele><time>2026-05-03T05:48:46Z</time></trkpt><trkpt lat="14.563209571149047" lon="120.9964514934099"><ele>9.0</ele><time>2026-05-03T05:48:47Z</time></trkpt><trkpt lat="14.563246581921284" lon="120.996542915644"><ele>9.0</ele><time>2026-05-03T05:48:48Z</time></trkpt><trkpt lat="14.563281064840057" lon="120.99663557686775"><ele>8.666666666666666</ele><time>2026-05-03T05:48:49Z</time></trkpt><trkpt lat="14.56331510407299" lon="120.99672303487503"><ele>8.333333333333334</ele><time>2026-05-03T05:48:50Z</time></trkpt><trkpt lat="14.563340385037728" lon="120.99679059652449"><ele>8.0</ele><time>2026-05-03T05:48:51Z</time></trkpt><trkpt lat="14.563395125878701" lon="120.99691248104776"><ele>7.666666666666667</ele><time>2026-05-03T05:48:53Z</time></trkpt><trkpt lat="14.56342423349332" lon="120.99699085139974"><ele>7.333333333333334</ele><time>2026-05-03T05:48:54Z</time></trkpt><trkpt lat="14.56346336078016" lon="120.99704638515075"><ele>7.0</ele><time>2026-05-03T05:48:55Z</time></trkpt><trkpt lat="14.563487146603944" lon="120.997112019277"><ele>7.000000000000001</ele><time>2026-05-03T05:48:56Z</time></trkpt><trkpt lat="14.563516547986891" lon="120.99717341617375"><ele>7.0</ele><time>2026-05-03T05:48:57Z</time></trkpt><trkpt lat="14.563561639683886" lon="120.99726462400295"><ele>7.0</ele><time>2026-05-03T05:48:59Z</time></trkpt><trkpt lat="14.563592440117507" lon="120.9973385809424"><ele>7.0</ele><time>2026-05-03T05:49:01Z</time></trkpt><trkpt lat="14.563628942126273" lon="120.99740045683302"><ele>7.000000000000001</ele><time>2026-05-03T05:49:02.999Z</time></trkpt><trkpt lat="14.563683383691341" lon="120.99750599693905"><ele>7.0</ele><time>2026-05-03T05:49:04.999Z</time></trkpt><trkpt lat="14.563740296169387" lon="120.99761666339634"><ele>7.000000000000001</ele><time>2026-05-03T05:49:06.999Z</time></trkpt><trkpt lat="14.56377298031749" lon="120.99768999316825"><ele>7.0</ele><time>2026-05-03T05:49:07.999Z</time></trkpt><trkpt lat="14.563804918564221" lon="120.99776306620423"><ele>7.0</ele><time>2026-05-03T05:49:08.999Z</time></trkpt><trkpt lat="14.563836275614548" lon="120.99784720060096"><ele>7.0</ele><time>2026-05-03T05:49:09.999Z</time></trkpt><trkpt lat="14.563865709179108" lon="120.99792072261707"><ele>7.000000000000001</ele><time>2026-05-03T05:49:11Z</time></trkpt><trkpt lat="14.563899683345912" lon="120.99798942873355"><ele>7.0</ele><time>2026-05-03T05:49:12Z</time></trkpt><trkpt lat="14.563926737538697" lon="120.99804998579158"><ele>7.0</ele><time>2026-05-03T05:49:13Z</time></trkpt><trkpt lat="14.563973918709255" lon="120.99815820625228"><ele>6.999999999999999</ele><time>2026-05-03T05:49:15Z</time></trkpt><trkpt lat="14.564010750184746" lon="120.99822800220579"><ele>6.999999999999999</ele><time>2026-05-03T05:49:17Z</time></trkpt><trkpt lat="14.563890976845656" lon="120.99830678985103"><ele>7.0</ele><time>2026-05-03T05:49:20Z</time></trkpt><trkpt lat="14.563816825861482" lon="120.99830679473777"><ele>7.0</ele><time>2026-05-03T05:49:21Z</time></trkpt><trkpt lat="14.56374452211901" lon="120.99832011200978"><ele>7.000000000000001</ele><time>2026-05-03T05:49:22Z</time></trkpt><trkpt lat="14.56367771976937" lon="120.99834381381783"><ele>7.0</ele><time>2026-05-03T05:49:23Z</time></trkpt><trkpt lat="14.563593076885116" lon="120.9983683587981"><ele>7.0</ele><time>2026-05-03T05:49:24Z</time></trkpt><trkpt lat="14.563509064615584" lon="120.9983980141411"><ele>7.0</ele><time>2026-05-03T05:49:25Z</time></trkpt><trkpt lat="14.563429250868971" lon="120.9984287052097"><ele>7.000000000000001</ele><time>2026-05-03T05:49:26Z</time></trkpt><trkpt lat="14.563346157453191" lon="120.99846047387399"><ele>7.0</ele><time>2026-05-03T05:49:27Z</time></trkpt><trkpt lat="14.563266610687343" lon="120.9984837755941"><ele>7.000000000000001</ele><time>2026-05-03T05:49:28Z</time></trkpt><trkpt lat="14.563193793803231" lon="120.99850799713947"><ele>7.0</ele><time>2026-05-03T05:49:29Z</time></trkpt><trkpt lat="14.563113800687855" lon="120.99853704649833"><ele>7.0</ele><time>2026-05-03T05:49:30Z</time></trkpt><trkpt lat="14.563043781675454" lon="120.99855720078789"><ele>7.0</ele><time>2026-05-03T05:49:31Z</time></trkpt><trkpt lat="14.5629624796685" lon="120.99857985544533"><ele>7.000000000000001</ele><time>2026-05-03T05:49:32Z</time></trkpt><trkpt lat="14.562882626501123" lon="120.9985961673745"><ele>7.0</ele><time>2026-05-03T05:49:33Z</time></trkpt><trkpt lat="14.562805223380652" lon="120.99862268301804"><ele>7.333333333333334</ele><time>2026-05-03T05:49:34Z</time></trkpt><trkpt lat="14.562725346522837" lon="120.99864404623482"><ele>7.666666666666667</ele><time>2026-05-03T05:49:35Z</time></trkpt><trkpt lat="14.56265323787091" lon="120.99866712170892"><ele>8.0</ele><time>2026-05-03T05:49:36Z</time></trkpt><trkpt lat="14.562575696604052" lon="120.99870218580199"><ele>8.333333333333334</ele><time>2026-05-03T05:49:37Z</time></trkpt><trkpt lat="14.562501264394381" lon="120.99874257109886"><ele>8.666666666666666</ele><time>2026-05-03T05:49:38Z</time></trkpt><trkpt lat="14.562433670976281" lon="120.99877520609391"><ele>9.0</ele><time>2026-05-03T05:49:39Z</time></trkpt><trkpt lat="14.562370298043497" lon="120.9988077680076"><ele>9.0</ele><time>2026-05-03T05:49:40Z</time></trkpt><trkpt lat="14.562303632368833" lon="120.99884352662592"><ele>9.0</ele><time>2026-05-03T05:49:41Z</time></trkpt><trkpt lat="14.562229178208897" lon="120.9988741591231"><ele>9.0</ele><time>2026-05-03T05:49:42Z</time></trkpt><trkpt lat="14.562158556310056" lon="120.99889365375981"><ele>9.0</ele><time>2026-05-03T05:49:43Z</time></trkpt><trkpt lat="14.562081180210564" lon="120.9989270557849"><ele>9.0</ele><time>2026-05-03T05:49:44Z</time></trkpt><trkpt lat="14.562025229168537" lon="120.99896392412556"><ele>9.0</ele><time>2026-05-03T05:49:45Z</time></trkpt><trkpt lat="14.56195629165536" lon="120.99900636476593"><ele>8.833333333333334</ele><time>2026-05-03T05:49:47Z</time></trkpt><trkpt lat="14.561990577714935" lon="120.99911947496183"><ele>8.666666666666666</ele><time>2026-05-03T05:49:51Z</time></trkpt><trkpt lat="14.562050344864044" lon="120.9991674820875"><ele>8.5</ele><time>2026-05-03T05:49:52Z</time></trkpt><trkpt lat="14.562111650633717" lon="120.99922703818348"><ele>8.333333333333332</ele><time>2026-05-03T05:49:53Z</time></trkpt><trkpt lat="14.562165168641659" lon="120.99928751830114"><ele>8.166666666666666</ele><time>2026-05-03T05:49:54Z</time></trkpt><trkpt lat="14.562230535758115" lon="120.99934731505333"><ele>8.0</ele><time>2026-05-03T05:49:55Z</time></trkpt><trkpt lat="14.56230276281311" lon="120.99940870649914"><ele>8.0</ele><time>2026-05-03T05:49:56Z</time></trkpt><trkpt lat="14.562377172259602" lon="120.99947998565793"><ele>8.0</ele><time>2026-05-03T05:49:57Z</time></trkpt><trkpt lat="14.562451968092054" lon="120.9995495200108"><ele>8.0</ele><time>2026-05-03T05:49:58Z</time></trkpt><trkpt lat="14.562527782676575" lon="120.99961735569578"><ele>8.0</ele><time>2026-05-03T05:49:59Z</time></trkpt><trkpt lat="14.562605728800355" lon="120.99969194567926"><ele>8.0</ele><time>2026-05-03T05:50:00Z</time></trkpt><trkpt lat="14.562665056365006" lon="120.99977166523486"><ele>8.0</ele><time>2026-05-03T05:50:01Z</time></trkpt><trkpt lat="14.562714108134887" lon="120.99983754486836"><ele>8.0</ele><time>2026-05-03T05:50:02Z</time></trkpt><trkpt lat="14.562767894583011" lon="120.99989102219972"><ele>8.0</ele><time>2026-05-03T05:50:03Z</time></trkpt><trkpt lat="14.562862666076233" lon="121.00001050817525"><ele>8.0</ele><time>2026-05-03T05:50:04Z</time></trkpt><trkpt lat="14.562942972153525" lon="121.00009183062723"><ele>8.0</ele><time>2026-05-03T05:50:05Z</time></trkpt><trkpt lat="14.563027588412552" lon="121.00017010384589"><ele>7.75</ele><time>2026-05-03T05:50:06Z</time></trkpt><trkpt lat="14.563105360691383" lon="121.00025050489957"><ele>7.5</ele><time>2026-05-03T05:50:07Z</time></trkpt><trkpt lat="14.56319899924812" lon="121.00032243704557"><ele>7.25</ele><time>2026-05-03T05:50:08Z</time></trkpt><trkpt lat="14.563282186285035" lon="121.00041588064515"><ele>7.0</ele><time>2026-05-03T05:50:09Z</time></trkpt><trkpt lat="14.563366793546576" lon="121.00049340846556"><ele>7.0</ele><time>2026-05-03T05:50:10Z</time></trkpt><trkpt lat="14.56345122185299" lon="121.00057800170002"><ele>6.999999999999999</ele><time>2026-05-03T05:50:11Z</time></trkpt><trkpt lat="14.563537387999117" lon="121.00065704701018"><ele>6.999999999999999</ele><time>2026-05-03T05:50:12Z</time></trkpt><trkpt lat="14.563611810360285" lon="121.00073649108236"><ele>7.0</ele><time>2026-05-03T05:50:13Z</time></trkpt><trkpt lat="14.56368538038332" lon="121.0008017462684"><ele>7.0</ele><time>2026-05-03T05:50:14Z</time></trkpt><trkpt lat="14.563757671314534" lon="121.0008719624623"><ele>7.199999999999999</ele><time>2026-05-03T05:50:15Z</time></trkpt><trkpt lat="14.563826922847332" lon="121.00095243714368"><ele>7.3999999999999995</ele><time>2026-05-03T05:50:16Z</time></trkpt><trkpt lat="14.563903053466973" lon="121.00102089526695"><ele>7.6000000000000005</ele><time>2026-05-03T05:50:17Z</time></trkpt><trkpt lat="14.563978784143206" lon="121.00109545631521"><ele>7.800000000000001</ele><time>2026-05-03T05:50:18Z</time></trkpt><trkpt lat="14.564043559172067" lon="121.00117888091594"><ele>8.0</ele><time>2026-05-03T05:50:19Z</time></trkpt><trkpt lat="14.564123965617142" lon="121.00124919305863"><ele>8.0</ele><time>2026-05-03T05:50:20Z</time></trkpt><trkpt lat="14.56420311364532" lon="121.00133344932883"><ele>8.0</ele><time>2026-05-03T05:50:21Z</time></trkpt><trkpt lat="14.564283565870555" lon="121.00140410027473"><ele>8.0</ele><time>2026-05-03T05:50:22Z</time></trkpt><trkpt lat="14.56435985963207" lon="121.00149250149187"><ele>8.0</ele><time>2026-05-03T05:50:23Z</time></trkpt><trkpt lat="14.564439720752098" lon="121.0015645792115"><ele>8.0</ele><time>2026-05-03T05:50:24Z</time></trkpt><trkpt lat="14.564520684211637" lon="121.00164227163874"><ele>7.6000000000000005</ele><time>2026-05-03T05:50:25Z</time></trkpt><trkpt lat="14.564596362995875" lon="121.00171213794819"><ele>7.200000000000001</ele><time>2026-05-03T05:50:26Z</time></trkpt><trkpt lat="14.564665664838882" lon="121.00178629928996"><ele>6.8</ele><time>2026-05-03T05:50:27Z</time></trkpt><trkpt lat="14.564740335656273" lon="121.00185867460677"><ele>6.4</ele><time>2026-05-03T05:50:28Z</time></trkpt><trkpt lat="14.564814578839353" lon="121.00193072030659"><ele>6.0</ele><time>2026-05-03T05:50:29Z</time></trkpt><trkpt lat="14.564886513932858" lon="121.00201081098815"><ele>6.0</ele><time>2026-05-03T05:50:30Z</time></trkpt><trkpt lat="14.564957686486482" lon="121.00209193045369"><ele>6.0</ele><time>2026-05-03T05:50:31Z</time></trkpt><trkpt lat="14.565034024006284" lon="121.00216976047847"><ele>6.0</ele><time>2026-05-03T05:50:32Z</time></trkpt><trkpt lat="14.565105033499236" lon="121.00224494962785"><ele>6.0</ele><time>2026-05-03T05:50:33Z</time></trkpt><trkpt lat="14.56516778138549" lon="121.00231092975336"><ele>6.0</ele><time>2026-05-03T05:50:34Z</time></trkpt><trkpt lat="14.565229622571543" lon="121.0023766054744"><ele>6.0</ele><time>2026-05-03T05:50:35Z</time></trkpt><trkpt lat="14.565299707099555" lon="121.0024502526644"><ele>6.0</ele><time>2026-05-03T05:50:36Z</time></trkpt><trkpt lat="14.565381803508517" lon="121.00250644125848"><ele>6.0</ele><time>2026-05-03T05:50:37Z</time></trkpt><trkpt lat="14.565454841879435" lon="121.0025767180648"><ele>6.0</ele><time>2026-05-03T05:50:38Z</time></trkpt><trkpt lat="14.565513338375395" lon="121.00262858152662"><ele>6.0</ele><time>2026-05-03T05:50:39Z</time></trkpt><trkpt lat="14.565566691655501" lon="121.00267748484009"><ele>6.0</ele><time>2026-05-03T05:50:40.001Z</time></trkpt><trkpt lat="14.565625541122579" lon="121.00273142592172"><ele>6.5</ele><time>2026-05-03T05:50:41.001Z</time></trkpt><trkpt lat="14.565713737619179" lon="121.0028122663233"><ele>7.0</ele><time>2026-05-03T05:50:43.001Z</time></trkpt><trkpt lat="14.565772531731179" lon="121.00286615665432"><ele>7.5</ele><time>2026-05-03T05:50:45.001Z</time></trkpt><trkpt lat="14.565775477585246" lon="121.00300302838906"><ele>8.0</ele><time>2026-05-03T05:50:48.001Z</time></trkpt><trkpt lat="14.565713565836043" lon="121.00311963047945"><ele>8.0</ele><time>2026-05-03T05:50:49.001Z</time></trkpt><trkpt lat="14.565617473735049" lon="121.00318017348394"><ele>8.0</ele><time>2026-05-03T05:50:51.001Z</time></trkpt><trkpt lat="14.56554920892822" lon="121.00322318386411"><ele>8.0</ele><time>2026-05-03T05:50:52.001Z</time></trkpt><trkpt lat="14.565486521610959" lon="121.00326260033376"><ele>8.0</ele><time>2026-05-03T05:50:53.001Z</time></trkpt><trkpt lat="14.565418350611084" lon="121.00330518990174"><ele>8.0</ele><time>2026-05-03T05:50:54.001Z</time></trkpt><trkpt lat="14.565305876478323" lon="121.0033807284944"><ele>7.5</ele><time>2026-05-03T05:50:55.001Z</time></trkpt><trkpt lat="14.565248070716553" lon="121.00342120586244"><ele>7.0</ele><time>2026-05-03T05:50:56.001Z</time></trkpt><trkpt lat="14.56514886395245" lon="121.00351268250574"><ele>6.5</ele><time>2026-05-03T05:50:57.001Z</time></trkpt><trkpt lat="14.565052184746698" lon="121.00359975630836"><ele>6.0</ele><time>2026-05-03T05:50:58.001Z</time></trkpt><trkpt lat="14.56494099246169" lon="121.00368616318454"><ele>6.0</ele><time>2026-05-03T05:50:59.001Z</time></trkpt><trkpt lat="14.564844531679748" lon="121.00375813079012"><ele>6.0</ele><time>2026-05-03T05:51:00.001Z</time></trkpt><trkpt lat="14.564748708280577" lon="121.00381520478156"><ele>6.0</ele><time>2026-05-03T05:51:01.001Z</time></trkpt><trkpt lat="14.564622487114518" lon="121.0038148466529"><ele>6.0</ele><time>2026-05-03T05:51:02.001Z</time></trkpt><trkpt lat="14.564500237826133" lon="121.00388138734505"><ele>6.0</ele><time>2026-05-03T05:51:03.001Z</time></trkpt><trkpt lat="14.564375605001576" lon="121.00395550153215"><ele>6.0</ele><time>2026-05-03T05:51:04.001Z</time></trkpt><trkpt lat="14.564216144115205" lon="121.00402042999436"><ele>6.0</ele><time>2026-05-03T05:51:05.001Z</time></trkpt><trkpt lat="14.564065876973983" lon="121.0040961198451"><ele>6.0</ele><time>2026-05-03T05:51:06.001Z</time></trkpt><trkpt lat="14.563936586214421" lon="121.00416261168235"><ele>6.0</ele><time>2026-05-03T05:51:07.001Z</time></trkpt><trkpt lat="14.563810822846435" lon="121.00423054140886"><ele>6.0</ele><time>2026-05-03T05:51:08Z</time></trkpt><trkpt lat="14.563676599617205" lon="121.00429948060716"><ele>6.0</ele><time>2026-05-03T05:51:09Z</time></trkpt><trkpt lat="14.563546703569285" lon="121.00436076659507"><ele>6.25</ele><time>2026-05-03T05:51:10Z</time></trkpt><trkpt lat="14.56342929935667" lon="121.00443039791972"><ele>6.5</ele><time>2026-05-03T05:51:11Z</time></trkpt><trkpt lat="14.563307921027338" lon="121.00449575213975"><ele>6.75</ele><time>2026-05-03T05:51:12Z</time></trkpt><trkpt lat="14.563189410208846" lon="121.00456292187317"><ele>7.0</ele><time>2026-05-03T05:51:13Z</time></trkpt><trkpt lat="14.563058914299758" lon="121.00463114217956"><ele>7.0</ele><time>2026-05-03T05:51:14Z</time></trkpt><trkpt lat="14.562910524207519" lon="121.00466643825023"><ele>7.0</ele><time>2026-05-03T05:51:15Z</time></trkpt><trkpt lat="14.562805247139828" lon="121.00473189671888"><ele>7.0</ele><time>2026-05-03T05:51:16Z</time></trkpt><trkpt lat="14.562708556358892" lon="121.00473530987664"><ele>7.0</ele><time>2026-05-03T05:51:17Z</time></trkpt><trkpt lat="14.562610397336776" lon="121.00476572297669"><ele>6.6</ele><time>2026-05-03T05:51:18Z</time></trkpt><trkpt lat="14.56250144617727" lon="121.00482571812161"><ele>6.199999999999999</ele><time>2026-05-03T05:51:19Z</time></trkpt><trkpt lat="14.562400375181248" lon="121.00487109952404"><ele>5.8</ele><time>2026-05-03T05:51:20Z</time></trkpt><trkpt lat="14.562299295259756" lon="121.00492365401001"><ele>5.4</ele><time>2026-05-03T05:51:21Z</time></trkpt><trkpt lat="14.56222797253792" lon="121.00497238738986"><ele>5.0</ele><time>2026-05-03T05:51:22Z</time></trkpt><trkpt lat="14.562159276369675" lon="121.00501817836724"><ele>5.0</ele><time>2026-05-03T05:51:23Z</time></trkpt><trkpt lat="14.562059135958735" lon="121.00507395857966"><ele>5.0</ele><time>2026-05-03T05:51:24Z</time></trkpt><trkpt lat="14.561919156582523" lon="121.00514407220948"><ele>5.0</ele><time>2026-05-03T05:51:25Z</time></trkpt><trkpt lat="14.561788527126817" lon="121.00521452198603"><ele>5.0</ele><time>2026-05-03T05:51:26Z</time></trkpt><trkpt lat="14.561628489833181" lon="121.00530368379735"><ele>5.25</ele><time>2026-05-03T05:51:27Z</time></trkpt><trkpt lat="14.561492793336896" lon="121.0053774053823"><ele>5.5</ele><time>2026-05-03T05:51:28Z</time></trkpt><trkpt lat="14.561363719761644" lon="121.00545370118797"><ele>5.75</ele><time>2026-05-03T05:51:29Z</time></trkpt><trkpt lat="14.561251000316632" lon="121.00552030623956"><ele>6.0</ele><time>2026-05-03T05:51:30Z</time></trkpt><trkpt lat="14.561118610599362" lon="121.0055895790292"><ele>6.25</ele><time>2026-05-03T05:51:31Z</time></trkpt><trkpt lat="14.56098316029044" lon="121.00566568340457"><ele>6.5</ele><time>2026-05-03T05:51:32Z</time></trkpt><trkpt lat="14.560855704143933" lon="121.00572040083851"><ele>6.75</ele><time>2026-05-03T05:51:33Z</time></trkpt><trkpt lat="14.56073726608703" lon="121.00579137855338"><ele>7.0</ele><time>2026-05-03T05:51:34Z</time></trkpt><trkpt lat="14.560625843317563" lon="121.00585101784196"><ele>6.75</ele><time>2026-05-03T05:51:35Z</time></trkpt><trkpt lat="14.560502577045476" lon="121.00591414332224"><ele>6.5</ele><time>2026-05-03T05:51:36Z</time></trkpt><trkpt lat="14.560378716387914" lon="121.00597262983636"><ele>6.25</ele><time>2026-05-03T05:51:37Z</time></trkpt><trkpt lat="14.56027070978985" lon="121.00603229674529"><ele>6.0</ele><time>2026-05-03T05:51:38Z</time></trkpt><trkpt lat="14.560171721849526" lon="121.00609013944421"><ele>6.0</ele><time>2026-05-03T05:51:39Z</time></trkpt><trkpt lat="14.560076511338224" lon="121.00614325530421"><ele>6.0</ele><time>2026-05-03T05:51:40Z</time></trkpt><trkpt lat="14.559983182973198" lon="121.00619884350176"><ele>6.0</ele><time>2026-05-03T05:51:41Z</time></trkpt><trkpt lat="14.559887736310781" lon="121.0062398498026"><ele>6.0</ele><time>2026-05-03T05:51:42Z</time></trkpt><trkpt lat="14.559795897002452" lon="121.00628671454568"><ele>6.0</ele><time>2026-05-03T05:51:43Z</time></trkpt><trkpt lat="14.559710474896628" lon="121.00633882165481"><ele>6.0</ele><time>2026-05-03T05:51:44Z</time></trkpt><trkpt lat="14.559616897419794" lon="121.00639060992849"><ele>6.0</ele><time>2026-05-03T05:51:45Z</time></trkpt><trkpt lat="14.559520154787506" lon="121.00645280572269"><ele>6.0</ele><time>2026-05-03T05:51:46Z</time></trkpt><trkpt lat="14.559432559061126" lon="121.00650251952516"><ele>6.0</ele><time>2026-05-03T05:51:47Z</time></trkpt><trkpt lat="14.559359078151191" lon="121.00653744488429"><ele>6.0</ele><time>2026-05-03T05:51:48Z</time></trkpt><trkpt lat="14.559275037465815" lon="121.00657848612187"><ele>6.199999999999999</ele><time>2026-05-03T05:51:49Z</time></trkpt><trkpt lat="14.559194010765758" lon="121.00662367164495"><ele>6.3999999999999995</ele><time>2026-05-03T05:51:50Z</time></trkpt><trkpt lat="14.559101681345519" lon="121.00667611272854"><ele>6.6</ele><time>2026-05-03T05:51:51Z</time></trkpt><trkpt lat="14.55900863415342" lon="121.00671965154908"><ele>6.8</ele><time>2026-05-03T05:51:52Z</time></trkpt><trkpt lat="14.558926042098063" lon="121.00676519224895"><ele>7.0</ele><time>2026-05-03T05:51:53Z</time></trkpt><trkpt lat="14.55884525393173" lon="121.00680478685925"><ele>7.0</ele><time>2026-05-03T05:51:54Z</time></trkpt><trkpt lat="14.558752066748307" lon="121.00686088877737"><ele>7.0</ele><time>2026-05-03T05:51:55Z</time></trkpt><trkpt lat="14.558665689863133" lon="121.00691676465065"><ele>7.0</ele><time>2026-05-03T05:51:56Z</time></trkpt><trkpt lat="14.558559939027978" lon="121.00697594115341"><ele>7.0</ele><time>2026-05-03T05:51:57Z</time></trkpt><trkpt lat="14.558448073875182" lon="121.00703445325478"><ele>7.5</ele><time>2026-05-03T05:51:58Z</time></trkpt><trkpt lat="14.558315412290321" lon="121.0071039868877"><ele>8.0</ele><time>2026-05-03T05:51:59Z</time></trkpt><trkpt lat="14.558184991472398" lon="121.00718958726291"><ele>8.5</ele><time>2026-05-03T05:52:00Z</time></trkpt><trkpt lat="14.558092650811592" lon="121.00724252636067"><ele>9.0</ele><time>2026-05-03T05:52:01Z</time></trkpt><trkpt lat="14.557975101202759" lon="121.00731242574379"><ele>8.666666666666666</ele><time>2026-05-03T05:52:02Z</time></trkpt><trkpt lat="14.557837381111108" lon="121.00737570150788"><ele>8.333333333333332</ele><time>2026-05-03T05:52:03Z</time></trkpt><trkpt lat="14.557698054049574" lon="121.00745811873347"><ele>8.0</ele><time>2026-05-03T05:52:04Z</time></trkpt><trkpt lat="14.557554529735159" lon="121.0075363997323"><ele>7.666666666666666</ele><time>2026-05-03T05:52:05Z</time></trkpt><trkpt lat="14.557422242755706" lon="121.0076117466247"><ele>7.333333333333334</ele><time>2026-05-03T05:52:06Z</time></trkpt><trkpt lat="14.557284307969843" lon="121.00768721826434"><ele>7.0</ele><time>2026-05-03T05:52:07Z</time></trkpt><trkpt lat="14.557150919824588" lon="121.00776108206657"><ele>6.333333333333334</ele><time>2026-05-03T05:52:08Z</time></trkpt><trkpt lat="14.557008865202047" lon="121.00783230160596"><ele>5.666666666666667</ele><time>2026-05-03T05:52:09Z</time></trkpt><trkpt lat="14.55687113526444" lon="121.00791167010568"><ele>5.0</ele><time>2026-05-03T05:52:10Z</time></trkpt><trkpt lat="14.55673163531147" lon="121.00799585992391"><ele>5.0</ele><time>2026-05-03T05:52:11Z</time></trkpt><trkpt lat="14.556588412052696" lon="121.00806896948454"><ele>5.0</ele><time>2026-05-03T05:52:12Z</time></trkpt><trkpt lat="14.55646668326091" lon="121.00814565843166"><ele>5.0</ele><time>2026-05-03T05:52:13Z</time></trkpt><trkpt lat="14.556350935141113" lon="121.00820987325851"><ele>5.0</ele><time>2026-05-03T05:52:14Z</time></trkpt><trkpt lat="14.556210751320585" lon="121.00827366694546"><ele>6.0</ele><time>2026-05-03T05:52:15Z</time></trkpt><trkpt lat="14.556077324049221" lon="121.00835714064418"><ele>7.0</ele><time>2026-05-03T05:52:16Z</time></trkpt><trkpt lat="14.555945459994232" lon="121.00842498600852"><ele>8.0</ele><time>2026-05-03T05:52:17Z</time></trkpt><trkpt lat="14.5558062781929" lon="121.00849506083466"><ele>8.0</ele><time>2026-05-03T05:52:18Z</time></trkpt><trkpt lat="14.555671089635277" lon="121.00855991312214"><ele>8.0</ele><time>2026-05-03T05:52:19.001Z</time></trkpt><trkpt lat="14.555534239130466" lon="121.00862501602263"><ele>8.0</ele><time>2026-05-03T05:52:20.001Z</time></trkpt><trkpt lat="14.555387404318365" lon="121.00870070510041"><ele>7.0</ele><time>2026-05-03T05:52:21.001Z</time></trkpt><trkpt lat="14.555244227816697" lon="121.00877790725177"><ele>6.0</ele><time>2026-05-03T05:52:22.001Z</time></trkpt><trkpt lat="14.555107607219984" lon="121.00884078319734"><ele>5.0</ele><time>2026-05-03T05:52:23.001Z</time></trkpt><trkpt lat="14.554963885553775" lon="121.00891641523705"><ele>5.0</ele><time>2026-05-03T05:52:24.001Z</time></trkpt><trkpt lat="14.554822561763082" lon="121.00900051487216"><ele>5.0</ele><time>2026-05-03T05:52:25.001Z</time></trkpt><trkpt lat="14.554672448475412" lon="121.00908083414673"><ele>5.0</ele><time>2026-05-03T05:52:26.001Z</time></trkpt><trkpt lat="14.554532786895692" lon="121.00916569665846"><ele>5.666666666666667</ele><time>2026-05-03T05:52:27.001Z</time></trkpt><trkpt lat="14.55439535004623" lon="121.00923814353186"><ele>6.333333333333334</ele><time>2026-05-03T05:52:28.001Z</time></trkpt><trkpt lat="14.554247628244742" lon="121.00933241528244"><ele>7.0</ele><time>2026-05-03T05:52:29.001Z</time></trkpt><trkpt lat="14.554102830942336" lon="121.00941249371577"><ele>7.0</ele><time>2026-05-03T05:52:30.001Z</time></trkpt><trkpt lat="14.553958185668607" lon="121.00949526481028"><ele>7.0</ele><time>2026-05-03T05:52:31.001Z</time></trkpt><trkpt lat="14.553809670528128" lon="121.00956955470802"><ele>7.0</ele><time>2026-05-03T05:52:32.001Z</time></trkpt><trkpt lat="14.55366688587695" lon="121.00964608434857"><ele>7.0</ele><time>2026-05-03T05:52:33.001Z</time></trkpt><trkpt lat="14.553517542686231" lon="121.0097258559771"><ele>7.0</ele><time>2026-05-03T05:52:34.001Z</time></trkpt><trkpt lat="14.553374342140254" lon="121.0098040000902"><ele>7.0</ele><time>2026-05-03T05:52:35.001Z</time></trkpt><trkpt lat="14.553227138149289" lon="121.00988229266639"><ele>7.0</ele><time>2026-05-03T05:52:36.001Z</time></trkpt><trkpt lat="14.553080334695139" lon="121.00997657870914"><ele>7.0</ele><time>2026-05-03T05:52:37.001Z</time></trkpt><trkpt lat="14.55294796550019" lon="121.01004286019645"><ele>7.0</ele><time>2026-05-03T05:52:38.001Z</time></trkpt><trkpt lat="14.552818947180219" lon="121.01011198768941"><ele>7.0</ele><time>2026-05-03T05:52:39.001Z</time></trkpt><trkpt lat="14.552671889320244" lon="121.01019186783923"><ele>7.0</ele><time>2026-05-03T05:52:40.001Z</time></trkpt><trkpt lat="14.552532436146462" lon="121.01026362246486"><ele>7.0</ele><time>2026-05-03T05:52:41.001Z</time></trkpt><trkpt lat="14.5523870042476" lon="121.01034978910909"><ele>7.0</ele><time>2026-05-03T05:52:42.001Z</time></trkpt><trkpt lat="14.55224260537832" lon="121.01042893323944"><ele>7.0</ele><time>2026-05-03T05:52:43.001Z</time></trkpt><trkpt lat="14.552091179410958" lon="121.01051382316702"><ele>7.0</ele><time>2026-05-03T05:52:44.001Z</time></trkpt><trkpt lat="14.551960558884607" lon="121.01057728597425"><ele>7.25</ele><time>2026-05-03T05:52:45.001Z</time></trkpt><trkpt lat="14.551831142622957" lon="121.01065979225716"><ele>7.5</ele><time>2026-05-03T05:52:46.001Z</time></trkpt><trkpt lat="14.551717276474468" lon="121.01072210427488"><ele>7.75</ele><time>2026-05-03T05:52:47.001Z</time></trkpt><trkpt lat="14.551616668320529" lon="121.01080357123286"><ele>8.0</ele><time>2026-05-03T05:52:50.001Z</time></trkpt><trkpt lat="14.551488983421772" lon="121.01084684041254"><ele>8.0</ele><time>2026-05-03T05:52:52.001Z</time></trkpt><trkpt lat="14.551412926240491" lon="121.01088585845514"><ele>8.0</ele><time>2026-05-03T05:52:54.001Z</time></trkpt><trkpt lat="14.551478950940348" lon="121.01082350990701"><ele>8.0</ele><time>2026-05-03T05:52:57.001Z</time></trkpt><trkpt lat="14.55142598686727" lon="121.01076192406613"><ele>8.0</ele><time>2026-05-03T05:53:02.001Z</time></trkpt><trkpt lat="14.551227421484173" lon="121.01086460775963"><ele>8.166666666666666</ele><time>2026-05-03T05:53:34Z</time></trkpt><trkpt lat="14.551166741447803" lon="121.01089821858038"><ele>8.333333333333332</ele><time>2026-05-03T05:53:35Z</time></trkpt><trkpt lat="14.551086624536826" lon="121.01095834341288"><ele>8.5</ele><time>2026-05-03T05:53:37Z</time></trkpt><trkpt lat="14.551006389198328" lon="121.01100287616305"><ele>8.666666666666666</ele><time>2026-05-03T05:53:39Z</time></trkpt><trkpt lat="14.550892442741663" lon="121.01102688045518"><ele>8.833333333333334</ele><time>2026-05-03T05:53:41Z</time></trkpt><trkpt lat="14.550841263742223" lon="121.01107699147096"><ele>9.0</ele><time>2026-05-03T05:53:42Z</time></trkpt><trkpt lat="14.550735571056364" lon="121.01116084785193"><ele>9.0</ele><time>2026-05-03T05:53:43Z</time></trkpt><trkpt lat="14.550636224569551" lon="121.01123016599428"><ele>9.0</ele><time>2026-05-03T05:53:44Z</time></trkpt><trkpt lat="14.550543190547897" lon="121.01128982917746"><ele>9.0</ele><time>2026-05-03T05:53:45Z</time></trkpt><trkpt lat="14.550459648400295" lon="121.01134112800207"><ele>9.0</ele><time>2026-05-03T05:53:46Z</time></trkpt><trkpt lat="14.550381304467143" lon="121.01139081853914"><ele>9.0</ele><time>2026-05-03T05:53:47Z</time></trkpt><trkpt lat="14.550292726746873" lon="121.01144274148592"><ele>8.75</ele><time>2026-05-03T05:53:48Z</time></trkpt><trkpt lat="14.550198671905507" lon="121.01150262872443"><ele>8.5</ele><time>2026-05-03T05:53:49Z</time></trkpt><trkpt lat="14.550090724652945" lon="121.01157699645486"><ele>8.25</ele><time>2026-05-03T05:53:50Z</time></trkpt><trkpt lat="14.549985833407527" lon="121.01164353740636"><ele>8.0</ele><time>2026-05-03T05:53:51Z</time></trkpt><trkpt lat="14.549872152113101" lon="121.01171165320339"><ele>8.5</ele><time>2026-05-03T05:53:52Z</time></trkpt><trkpt lat="14.549758710406278" lon="121.0117771811943"><ele>9.0</ele><time>2026-05-03T05:53:53Z</time></trkpt><trkpt lat="14.549649219593947" lon="121.01183275807459"><ele>9.5</ele><time>2026-05-03T05:53:54Z</time></trkpt><trkpt lat="14.549548206438594" lon="121.01186752157383"><ele>10.0</ele><time>2026-05-03T05:53:55Z</time></trkpt><trkpt lat="14.549426643638224" lon="121.01194268910139"><ele>10.0</ele><time>2026-05-03T05:53:56Z</time></trkpt><trkpt lat="14.549303689044088" lon="121.01201427563404"><ele>10.0</ele><time>2026-05-03T05:53:57Z</time></trkpt><trkpt lat="14.549185368630912" lon="121.01206703091988"><ele>10.0</ele><time>2026-05-03T05:53:58Z</time></trkpt><trkpt lat="14.549086053612935" lon="121.01213446370937"><ele>10.0</ele><time>2026-05-03T05:53:59Z</time></trkpt><trkpt lat="14.548975705003329" lon="121.01218825845348"><ele>10.0</ele><time>2026-05-03T05:54:00Z</time></trkpt><trkpt lat="14.548867290035897" lon="121.01224332549423"><ele>10.0</ele><time>2026-05-03T05:54:01Z</time></trkpt><trkpt lat="14.548754921205656" lon="121.01229654992615"><ele>10.0</ele><time>2026-05-03T05:54:02Z</time></trkpt><trkpt lat="14.548658180944486" lon="121.01235614087594"><ele>10.0</ele><time>2026-05-03T05:54:03Z</time></trkpt><trkpt lat="14.548566694778192" lon="121.01240653520193"><ele>9.333333333333334</ele><time>2026-05-03T05:54:04Z</time></trkpt><trkpt lat="14.548462284696079" lon="121.01247891280617"><ele>8.666666666666666</ele><time>2026-05-03T05:54:05Z</time></trkpt><trkpt lat="14.548321522162867" lon="121.01267950966411"><ele>8.0</ele><time>2026-05-03T05:54:06Z</time></trkpt><trkpt lat="14.54820183367229" lon="121.01275038162754"><ele>8.0</ele><time>2026-05-03T05:54:07Z</time></trkpt><trkpt lat="14.548084076117444" lon="121.01284582551882"><ele>8.0</ele><time>2026-05-03T05:54:08Z</time></trkpt><trkpt lat="14.547971215926308" lon="121.01293375262232"><ele>8.0</ele><time>2026-05-03T05:54:09Z</time></trkpt><trkpt lat="14.54781190538177" lon="121.01290640293935"><ele>8.333333333333332</ele><time>2026-05-03T05:54:10Z</time></trkpt><trkpt lat="14.547620910838628" lon="121.01301131678817"><ele>8.666666666666666</ele><time>2026-05-03T05:54:11Z</time></trkpt><trkpt lat="14.54752533063089" lon="121.01319690194264"><ele>9.0</ele><time>2026-05-03T05:54:12Z</time></trkpt><trkpt lat="14.547245137448085" lon="121.01311509775245"><ele>9.0</ele><time>2026-05-03T05:54:13Z</time></trkpt><trkpt lat="14.547049594788412" lon="121.01314766577762"><ele>9.0</ele><time>2026-05-03T05:54:14Z</time></trkpt><trkpt lat="14.546854646217412" lon="121.01323734460206"><ele>9.0</ele><time>2026-05-03T05:54:15.001Z</time></trkpt><trkpt lat="14.546642981993914" lon="121.01332979243428"><ele>10.333333333333332</ele><time>2026-05-03T05:54:16.001Z</time></trkpt><trkpt lat="14.546507000838478" lon="121.01340459018307"><ele>11.666666666666666</ele><time>2026-05-03T05:54:17.001Z</time></trkpt><trkpt lat="14.5463676790547" lon="121.01351943274857"><ele>13.0</ele><time>2026-05-03T05:54:18.001Z</time></trkpt><trkpt lat="14.546229207135854" lon="121.01360011318731"><ele>12.0</ele><time>2026-05-03T05:54:19.001Z</time></trkpt><trkpt lat="14.546099313561038" lon="121.01366943346981"><ele>11.0</ele><time>2026-05-03T05:54:20.001Z</time></trkpt><trkpt lat="14.54597538450163" lon="121.01373960097978"><ele>10.0</ele><time>2026-05-03T05:54:21.001Z</time></trkpt><trkpt lat="14.545808704298103" lon="121.01383071563639"><ele>10.0</ele><time>2026-05-03T05:54:22.001Z</time></trkpt><trkpt lat="14.54568125833323" lon="121.01389674754807"><ele>10.0</ele><time>2026-05-03T05:54:23.001Z</time></trkpt><trkpt lat="14.545543320764326" lon="121.01395905661437"><ele>10.0</ele><time>2026-05-03T05:54:24.001Z</time></trkpt><trkpt lat="14.545411327838755" lon="121.01402679917942"><ele>10.0</ele><time>2026-05-03T05:54:25.001Z</time></trkpt><trkpt lat="14.545287034226535" lon="121.01409188520427"><ele>10.666666666666668</ele><time>2026-05-03T05:54:26.001Z</time></trkpt><trkpt lat="14.545156432863408" lon="121.01417670577109"><ele>11.333333333333334</ele><time>2026-05-03T05:54:27.001Z</time></trkpt><trkpt lat="14.545019193703986" lon="121.01423483487554"><ele>12.0</ele><time>2026-05-03T05:54:28.001Z</time></trkpt><trkpt lat="14.544883895042123" lon="121.01430304114854"><ele>12.0</ele><time>2026-05-03T05:54:29.001Z</time></trkpt><trkpt lat="14.544747584042874" lon="121.01438565144636"><ele>12.0</ele><time>2026-05-03T05:54:30.001Z</time></trkpt><trkpt lat="14.544584893365396" lon="121.01447010448152"><ele>12.0</ele><time>2026-05-03T05:54:31.001Z</time></trkpt><trkpt lat="14.544455661880487" lon="121.01455028973268"><ele>12.0</ele><time>2026-05-03T05:54:32.001Z</time></trkpt><trkpt lat="14.544307093478732" lon="121.01462833754454"><ele>12.0</ele><time>2026-05-03T05:54:33.001Z</time></trkpt><trkpt lat="14.544142682530671" lon="121.01472550273779"><ele>12.0</ele><time>2026-05-03T05:54:34.001Z</time></trkpt><trkpt lat="14.543982546149834" lon="121.01482574670875"><ele>12.0</ele><time>2026-05-03T05:54:35.001Z</time></trkpt><trkpt lat="14.54381956436707" lon="121.01492062251431"><ele>12.0</ele><time>2026-05-03T05:54:36.001Z</time></trkpt><trkpt lat="14.543658692123545" lon="121.01500783494187"><ele>12.0</ele><time>2026-05-03T05:54:37.001Z</time></trkpt><trkpt lat="14.54347252010638" lon="121.01511233183138"><ele>12.0</ele><time>2026-05-03T05:54:38.001Z</time></trkpt><trkpt lat="14.543301980386259" lon="121.01520559616861"><ele>12.0</ele><time>2026-05-03T05:54:39.001Z</time></trkpt><trkpt lat="14.54315070959895" lon="121.0152735721031"><ele>12.0</ele><time>2026-05-03T05:54:40.001Z</time></trkpt><trkpt lat="14.543004335627552" lon="121.01534034027635"><ele>13.666666666666668</ele><time>2026-05-03T05:54:41.001Z</time></trkpt><trkpt lat="14.54285748546125" lon="121.01542013090085"><ele>15.333333333333334</ele><time>2026-05-03T05:54:42.001Z</time></trkpt><trkpt lat="14.542715487537446" lon="121.01548817447905"><ele>17.0</ele><time>2026-05-03T05:54:43.001Z</time></trkpt><trkpt lat="14.542563067776568" lon="121.01556958216683"><ele>17.0</ele><time>2026-05-03T05:54:44.001Z</time></trkpt><trkpt lat="14.542415644966177" lon="121.01564464854053"><ele>17.0</ele><time>2026-05-03T05:54:45.001Z</time></trkpt><trkpt lat="14.542272032208224" lon="121.01572209662152"><ele>17.0</ele><time>2026-05-03T05:54:46.001Z</time></trkpt><trkpt lat="14.54213422173158" lon="121.01579232167728"><ele>15.0</ele><time>2026-05-03T05:54:47.001Z</time></trkpt><trkpt lat="14.541993322398284" lon="121.01586348178837"><ele>13.0</ele><time>2026-05-03T05:54:48.001Z</time></trkpt><trkpt lat="14.541854449620214" lon="121.01592205099789"><ele>11.0</ele><time>2026-05-03T05:54:49.001Z</time></trkpt><trkpt lat="14.541723571424114" lon="121.01599773206617"><ele>11.0</ele><time>2026-05-03T05:54:50.001Z</time></trkpt><trkpt lat="14.541587633061646" lon="121.01606746053358"><ele>11.0</ele><time>2026-05-03T05:54:51.001Z</time></trkpt><trkpt lat="14.541456552246517" lon="121.01613469732291"><ele>11.0</ele><time>2026-05-03T05:54:52.001Z</time></trkpt><trkpt lat="14.541323895453665" lon="121.01620274252065"><ele>11.0</ele><time>2026-05-03T05:54:53.001Z</time></trkpt><trkpt lat="14.541186486005358" lon="121.01627326822168"><ele>11.25</ele><time>2026-05-03T05:54:54.001Z</time></trkpt><trkpt lat="14.541056007380803" lon="121.01634028782064"><ele>11.5</ele><time>2026-05-03T05:54:55.001Z</time></trkpt><trkpt lat="14.540933549920378" lon="121.01640527650197"><ele>11.75</ele><time>2026-05-03T05:54:56.001Z</time></trkpt><trkpt lat="14.54081425360064" lon="121.01646958846753"><ele>12.0</ele><time>2026-05-03T05:54:57.001Z</time></trkpt><trkpt lat="14.540690967101103" lon="121.01653606350001"><ele>12.0</ele><time>2026-05-03T05:54:58.001Z</time></trkpt><trkpt lat="14.540580652636114" lon="121.01659554402602"><ele>12.0</ele><time>2026-05-03T05:54:59.001Z</time></trkpt><trkpt lat="14.540457128708546" lon="121.01666198231088"><ele>12.0</ele><time>2026-05-03T05:55:00.001Z</time></trkpt><trkpt lat="14.540327402802042" lon="121.01673099809193"><ele>12.0</ele><time>2026-05-03T05:55:01.001Z</time></trkpt><trkpt lat="14.5402003669045" lon="121.01679956882347"><ele>11.75</ele><time>2026-05-03T05:55:02.001Z</time></trkpt><trkpt lat="14.540070030907195" lon="121.01686958386087"><ele>11.5</ele><time>2026-05-03T05:55:03.001Z</time></trkpt><trkpt lat="14.53995064884721" lon="121.01693371451653"><ele>11.25</ele><time>2026-05-03T05:55:04.001Z</time></trkpt><trkpt lat="14.539833353052169" lon="121.01699672444322"><ele>11.0</ele><time>2026-05-03T05:55:05.001Z</time></trkpt><trkpt lat="14.539719584271905" lon="121.01705726402622"><ele>11.0</ele><time>2026-05-03T05:55:06.001Z</time></trkpt><trkpt lat="14.539604168867806" lon="121.01712052831333"><ele>11.0</ele><time>2026-05-03T05:55:07.001Z</time></trkpt><trkpt lat="14.539505808317266" lon="121.017174401023"><ele>11.0</ele><time>2026-05-03T05:55:08.001Z</time></trkpt><trkpt lat="14.539406203000516" lon="121.01723005881847"><ele>11.0</ele><time>2026-05-03T05:55:09.001Z</time></trkpt><trkpt lat="14.539315084667178" lon="121.01728097416293"><ele>10.75</ele><time>2026-05-03T05:55:10.001Z</time></trkpt><trkpt lat="14.539205504588544" lon="121.0173316067347"><ele>10.5</ele><time>2026-05-03T05:55:11.001Z</time></trkpt><trkpt lat="14.539115186205123" lon="121.01740180999055"><ele>10.25</ele><time>2026-05-03T05:55:12.001Z</time></trkpt><trkpt lat="14.539028450023181" lon="121.01747357511188"><ele>10.0</ele><time>2026-05-03T05:55:13.001Z</time></trkpt><trkpt lat="14.538939256495514" lon="121.01754143916486"><ele>10.0</ele><time>2026-05-03T05:55:14.001Z</time></trkpt><trkpt lat="14.538840097779476" lon="121.017602714832"><ele>10.0</ele><time>2026-05-03T05:55:15.001Z</time></trkpt><trkpt lat="14.538728173649286" lon="121.01767000014091"><ele>10.0</ele><time>2026-05-03T05:55:16.001Z</time></trkpt><trkpt lat="14.53860990271994" lon="121.01774053597723"><ele>10.0</ele><time>2026-05-03T05:55:17.001Z</time></trkpt><trkpt lat="14.538486873678043" lon="121.01781006214182"><ele>10.333333333333334</ele><time>2026-05-03T05:55:18.001Z</time></trkpt><trkpt lat="14.538353809668122" lon="121.0178866765128"><ele>10.666666666666666</ele><time>2026-05-03T05:55:19.001Z</time></trkpt><trkpt lat="14.538221391922722" lon="121.01795573920178"><ele>11.0</ele><time>2026-05-03T05:55:20Z</time></trkpt><trkpt lat="14.538082653151987" lon="121.01802972891474"><ele>11.0</ele><time>2026-05-03T05:55:21Z</time></trkpt><trkpt lat="14.537939266102782" lon="121.01811328270345"><ele>11.0</ele><time>2026-05-03T05:55:22Z</time></trkpt><trkpt lat="14.537791754829728" lon="121.0181979587388"><ele>11.0</ele><time>2026-05-03T05:55:23Z</time></trkpt><trkpt lat="14.537645669686707" lon="121.01828025043486"><ele>11.0</ele><time>2026-05-03T05:55:24Z</time></trkpt><trkpt lat="14.537495101456107" lon="121.01836312180453"><ele>11.0</ele><time>2026-05-03T05:55:25Z</time></trkpt><trkpt lat="14.537338934765101" lon="121.01845473094171"><ele>11.0</ele><time>2026-05-03T05:55:26Z</time></trkpt><trkpt lat="14.537176578313673" lon="121.01854286040677"><ele>11.0</ele><time>2026-05-03T05:55:27Z</time></trkpt><trkpt lat="14.537010686001503" lon="121.01863456281357"><ele>11.0</ele><time>2026-05-03T05:55:28Z</time></trkpt><trkpt lat="14.53684217180187" lon="121.01872598054847"><ele>11.0</ele><time>2026-05-03T05:55:29Z</time></trkpt><trkpt lat="14.536669618654043" lon="121.01882418743206"><ele>11.0</ele><time>2026-05-03T05:55:30Z</time></trkpt><trkpt lat="14.536500210101853" lon="121.0189190270406"><ele>11.0</ele><time>2026-05-03T05:55:31Z</time></trkpt><trkpt lat="14.536317123072982" lon="121.01900964251955"><ele>11.0</ele><time>2026-05-03T05:55:32Z</time></trkpt><trkpt lat="14.536139311026123" lon="121.01910967937386"><ele>12.333333333333332</ele><time>2026-05-03T05:55:33Z</time></trkpt><trkpt lat="14.535956531587749" lon="121.01920594300944"><ele>13.666666666666666</ele><time>2026-05-03T05:55:34Z</time></trkpt><trkpt lat="14.535775004866558" lon="121.01930373433262"><ele>15.0</ele><time>2026-05-03T05:55:35Z</time></trkpt><trkpt lat="14.535591928931023" lon="121.01940460325915"><ele>15.0</ele><time>2026-05-03T05:55:36Z</time></trkpt><trkpt lat="14.535404147530748" lon="121.01950465346512"><ele>15.0</ele><time>2026-05-03T05:55:37Z</time></trkpt><trkpt lat="14.535217153795905" lon="121.0196041635951"><ele>15.0</ele><time>2026-05-03T05:55:38Z</time></trkpt><trkpt lat="14.535032064031446" lon="121.01972259842282"><ele>15.333333333333332</ele><time>2026-05-03T05:55:39Z</time></trkpt><trkpt lat="14.534847045755296" lon="121.01980713042755"><ele>15.666666666666666</ele><time>2026-05-03T05:55:40Z</time></trkpt><trkpt lat="14.534659815854935" lon="121.01990865832207"><ele>16.0</ele><time>2026-05-03T05:55:41Z</time></trkpt><trkpt lat="14.534462115600904" lon="121.02001110090647"><ele>16.0</ele><time>2026-05-03T05:55:42Z</time></trkpt><trkpt lat="14.534268987203875" lon="121.02011885868919"><ele>16.0</ele><time>2026-05-03T05:55:43Z</time></trkpt><trkpt lat="14.534067896192745" lon="121.02023189583028"><ele>16.0</ele><time>2026-05-03T05:55:44Z</time></trkpt><trkpt lat="14.53387597119791" lon="121.02033669980904"><ele>16.5</ele><time>2026-05-03T05:55:45Z</time></trkpt><trkpt lat="14.533684788481647" lon="121.02045001076822"><ele>17.0</ele><time>2026-05-03T05:55:46Z</time></trkpt><trkpt lat="14.533481942942041" lon="121.02056315051051"><ele>17.0</ele><time>2026-05-03T05:55:47Z</time></trkpt><trkpt lat="14.533285069197307" lon="121.02067669824916"><ele>17.0</ele><time>2026-05-03T05:55:48Z</time></trkpt><trkpt lat="14.533087442835404" lon="121.02079137010764"><ele>14.5</ele><time>2026-05-03T05:55:49Z</time></trkpt><trkpt lat="14.532884689975756" lon="121.02089428752187"><ele>12.0</ele><time>2026-05-03T05:55:50Z</time></trkpt><trkpt lat="14.532679166553358" lon="121.0210024397392"><ele>12.0</ele><time>2026-05-03T05:55:51Z</time></trkpt><trkpt lat="14.532499599714907" lon="121.02110249177363"><ele>12.0</ele><time>2026-05-03T05:55:52Z</time></trkpt><trkpt lat="14.532285212870395" lon="121.02121749050107"><ele>12.0</ele><time>2026-05-03T05:55:53Z</time></trkpt><trkpt lat="14.532074059656745" lon="121.02133036729846"><ele>10.0</ele><time>2026-05-03T05:55:54Z</time></trkpt><trkpt lat="14.531859323554237" lon="121.02144337377389"><ele>8.0</ele><time>2026-05-03T05:55:55Z</time></trkpt><trkpt lat="14.53164982536162" lon="121.02153590710434"><ele>8.0</ele><time>2026-05-03T05:55:56Z</time></trkpt><trkpt lat="14.53143995509635" lon="121.02163922878938"><ele>8.0</ele><time>2026-05-03T05:55:57Z</time></trkpt><trkpt lat="14.531241166186007" lon="121.02174478441741"><ele>8.333333333333332</ele><time>2026-05-03T05:55:58Z</time></trkpt><trkpt lat="14.53104174184792" lon="121.02185056203861"><ele>8.666666666666666</ele><time>2026-05-03T05:55:59Z</time></trkpt><trkpt lat="14.530837505413691" lon="121.02194819786327"><ele>9.0</ele><time>2026-05-03T05:56:00Z</time></trkpt><trkpt lat="14.530650385887183" lon="121.02207115986816"><ele>9.0</ele><time>2026-05-03T05:56:01Z</time></trkpt><trkpt lat="14.530468179700113" lon="121.02217431616924"><ele>9.0</ele><time>2026-05-03T05:56:02Z</time></trkpt><trkpt lat="14.530301720467472" lon="121.02225057382984"><ele>9.0</ele><time>2026-05-03T05:56:03Z</time></trkpt><trkpt lat="14.530128935812842" lon="121.0223430331023"><ele>8.666666666666666</ele><time>2026-05-03T05:56:04Z</time></trkpt><trkpt lat="14.529942298866274" lon="121.02243580954263"><ele>8.333333333333332</ele><time>2026-05-03T05:56:05Z</time></trkpt><trkpt lat="14.529781468530432" lon="121.02252835907879"><ele>8.0</ele><time>2026-05-03T05:56:06Z</time></trkpt><trkpt lat="14.529607233328136" lon="121.02261915636548"><ele>8.666666666666666</ele><time>2026-05-03T05:56:07Z</time></trkpt><trkpt lat="14.529426051165892" lon="121.02270658872894"><ele>9.333333333333334</ele><time>2026-05-03T05:56:08Z</time></trkpt><trkpt lat="14.529245864380568" lon="121.02279410197282"><ele>10.0</ele><time>2026-05-03T05:56:09Z</time></trkpt><trkpt lat="14.529073695323051" lon="121.02288030995125"><ele>10.0</ele><time>2026-05-03T05:56:10Z</time></trkpt><trkpt lat="14.528902751117004" lon="121.02296988596517"><ele>10.0</ele><time>2026-05-03T05:56:11Z</time></trkpt><trkpt lat="14.528733966079482" lon="121.02305584758469"><ele>10.0</ele><time>2026-05-03T05:56:12.001Z</time></trkpt><trkpt lat="14.5285619988481" lon="121.02314889282438"><ele>10.0</ele><time>2026-05-03T05:56:13.001Z</time></trkpt><trkpt lat="14.52839009046266" lon="121.02324090492576"><ele>10.0</ele><time>2026-05-03T05:56:14.001Z</time></trkpt><trkpt lat="14.52822371545211" lon="121.02333103452354"><ele>10.0</ele><time>2026-05-03T05:56:15.001Z</time></trkpt><trkpt lat="14.528042435286798" lon="121.02342889816438"><ele>10.333333333333334</ele><time>2026-05-03T05:56:16.001Z</time></trkpt><trkpt lat="14.527880284483656" lon="121.02351629080464"><ele>10.666666666666666</ele><time>2026-05-03T05:56:17.001Z</time></trkpt><trkpt lat="14.527725254648233" lon="121.0236102854109"><ele>11.0</ele><time>2026-05-03T05:56:18.001Z</time></trkpt><trkpt lat="14.5275677890361" lon="121.0237017105979"><ele>11.0</ele><time>2026-05-03T05:56:19.001Z</time></trkpt><trkpt lat="14.527401129325144" lon="121.02378714104476"><ele>11.0</ele><time>2026-05-03T05:56:20.001Z</time></trkpt><trkpt lat="14.527224985943008" lon="121.02386777634462"><ele>11.0</ele><time>2026-05-03T05:56:21.001Z</time></trkpt><trkpt lat="14.52710082043438" lon="121.02392677473821"><ele>11.333333333333332</ele><time>2026-05-03T05:56:22.001Z</time></trkpt><trkpt lat="14.52695715122603" lon="121.02400381185176"><ele>11.666666666666666</ele><time>2026-05-03T05:56:23.001Z</time></trkpt><trkpt lat="14.526817769501061" lon="121.02407905761527"><ele>12.0</ele><time>2026-05-03T05:56:24.001Z</time></trkpt><trkpt lat="14.526679864227624" lon="121.02415097499686"><ele>12.0</ele><time>2026-05-03T05:56:25.001Z</time></trkpt><trkpt lat="14.526533579434023" lon="121.02423357526763"><ele>12.0</ele><time>2026-05-03T05:56:26.001Z</time></trkpt><trkpt lat="14.526383056467193" lon="121.02429977971235"><ele>12.0</ele><time>2026-05-03T05:56:27.001Z</time></trkpt><trkpt lat="14.52623112809782" lon="121.02437115720707"><ele>10.333333333333334</ele><time>2026-05-03T05:56:28.001Z</time></trkpt><trkpt lat="14.526074684651398" lon="121.02444918796047"><ele>8.666666666666668</ele><time>2026-05-03T05:56:29.001Z</time></trkpt><trkpt lat="14.52592432115353" lon="121.02453332571065"><ele>7.0</ele><time>2026-05-03T05:56:30.001Z</time></trkpt><trkpt lat="14.525776567728386" lon="121.02461125312585"><ele>7.0</ele><time>2026-05-03T05:56:31.001Z</time></trkpt><trkpt lat="14.52563033053921" lon="121.02469875292623"><ele>7.0</ele><time>2026-05-03T05:56:32.001Z</time></trkpt><trkpt lat="14.525490475534813" lon="121.02477289304919"><ele>7.0</ele><time>2026-05-03T05:56:33.001Z</time></trkpt><trkpt lat="14.5253602735298" lon="121.02485394347993"><ele>8.0</ele><time>2026-05-03T05:56:34.001Z</time></trkpt><trkpt lat="14.525229953730852" lon="121.02492599305536"><ele>9.0</ele><time>2026-05-03T05:56:35.001Z</time></trkpt><trkpt lat="14.525098223172636" lon="121.02499549872748"><ele>10.0</ele><time>2026-05-03T05:56:36.001Z</time></trkpt><trkpt lat="14.524962547320179" lon="121.0250643488512"><ele>11.0</ele><time>2026-05-03T05:56:37.001Z</time></trkpt><trkpt lat="14.524827925216941" lon="121.02513517327327"><ele>11.0</ele><time>2026-05-03T05:56:38.001Z</time></trkpt><trkpt lat="14.524690315571759" lon="121.02520822164966"><ele>11.0</ele><time>2026-05-03T05:56:39.001Z</time></trkpt><trkpt lat="14.524556158862755" lon="121.02527970615365"><ele>11.0</ele><time>2026-05-03T05:56:40.001Z</time></trkpt><trkpt lat="14.524431679971736" lon="121.02534790843308"><ele>11.0</ele><time>2026-05-03T05:56:41.001Z</time></trkpt><trkpt lat="14.524317994461322" lon="121.02541196921216"><ele>12.0</ele><time>2026-05-03T05:56:42.001Z</time></trkpt><trkpt lat="14.524206174105586" lon="121.02547262054827"><ele>13.0</ele><time>2026-05-03T05:56:43.001Z</time></trkpt><trkpt lat="14.524092355257695" lon="121.02552715258899"><ele>14.0</ele><time>2026-05-03T05:56:44.001Z</time></trkpt><trkpt lat="14.52398256132394" lon="121.02557733680412"><ele>15.0</ele><time>2026-05-03T05:56:45.001Z</time></trkpt><trkpt lat="14.523877808281615" lon="121.02562226521971"><ele>15.0</ele><time>2026-05-03T05:56:46.001Z</time></trkpt><trkpt lat="14.523773380412356" lon="121.02563882083959"><ele>15.0</ele><time>2026-05-03T05:56:47.001Z</time></trkpt><trkpt lat="14.523684118144352" lon="121.02566493998732"><ele>15.0</ele><time>2026-05-03T05:56:48.001Z</time></trkpt><trkpt lat="14.523589939340608" lon="121.02568402439461"><ele>15.0</ele><time>2026-05-03T05:56:49.001Z</time></trkpt><trkpt lat="14.523527233415496" lon="121.02572862733933"><ele>15.0</ele><time>2026-05-03T05:56:50.001Z</time></trkpt><trkpt lat="14.523465777892739" lon="121.02576674236671"><ele>15.0</ele><time>2026-05-03T05:56:51.001Z</time></trkpt><trkpt lat="14.523353651259814" lon="121.0258414404356"><ele>15.2</ele><time>2026-05-03T05:56:53.001Z</time></trkpt><trkpt lat="14.523235663534667" lon="121.02585057894485"><ele>15.4</ele><time>2026-05-03T05:56:55.001Z</time></trkpt><trkpt lat="14.523175756151785" lon="121.02581446946019"><ele>15.600000000000001</ele><time>2026-05-03T05:56:56.001Z</time></trkpt><trkpt lat="14.523129771665385" lon="121.02572466806197"><ele>15.8</ele><time>2026-05-03T05:56:58.001Z</time></trkpt><trkpt lat="14.523159776714405" lon="121.02560865489126"><ele>16.0</ele><time>2026-05-03T05:57:00.001Z</time></trkpt><trkpt lat="14.523193355680345" lon="121.02552794638083"><ele>16.400000000000002</ele><time>2026-05-03T05:57:01.001Z</time></trkpt><trkpt lat="14.523244791013608" lon="121.02546563967913"><ele>16.8</ele><time>2026-05-03T05:57:02.001Z</time></trkpt><trkpt lat="14.523297500805722" lon="121.02540616842491"><ele>17.200000000000003</ele><time>2026-05-03T05:57:03.001Z</time></trkpt><trkpt lat="14.523419043654663" lon="121.02533674707541"><ele>17.6</ele><time>2026-05-03T05:57:05.001Z</time></trkpt><trkpt lat="14.523490998432324" lon="121.0253009433803"><ele>18.0</ele><time>2026-05-03T05:57:06.001Z</time></trkpt><trkpt lat="14.523569437487122" lon="121.02529753640951"><ele>18.0</ele><time>2026-05-03T05:57:07.001Z</time></trkpt><trkpt lat="14.523644336372048" lon="121.02531423860783"><ele>18.0</ele><time>2026-05-03T05:57:08.001Z</time></trkpt><trkpt lat="14.523718383149964" lon="121.0253569766205"><ele>18.0</ele><time>2026-05-03T05:57:09.001Z</time></trkpt><trkpt lat="14.523799556692314" lon="121.02539901150163"><ele>18.0</ele><time>2026-05-03T05:57:10.001Z</time></trkpt><trkpt lat="14.523880354686087" lon="121.02544882827185"><ele>18.0</ele><time>2026-05-03T05:57:11.001Z</time></trkpt><trkpt lat="14.523960517958782" lon="121.02550937883827"><ele>18.0</ele><time>2026-05-03T05:57:12.001Z</time></trkpt><trkpt lat="14.524034764030645" lon="121.02556292421681"><ele>17.833333333333332</ele><time>2026-05-03T05:57:13.001Z</time></trkpt><trkpt lat="14.52410868800564" lon="121.0256142740467"><ele>17.666666666666668</ele><time>2026-05-03T05:57:14.001Z</time></trkpt><trkpt lat="14.524176557946616" lon="121.02567046603508"><ele>17.5</ele><time>2026-05-03T05:57:15.001Z</time></trkpt><trkpt lat="14.524231412622996" lon="121.02572101918817"><ele>17.333333333333336</ele><time>2026-05-03T05:57:16.001Z</time></trkpt><trkpt lat="14.52432854099142" lon="121.02579744925683"><ele>17.166666666666668</ele><time>2026-05-03T05:57:18.001Z</time></trkpt><trkpt lat="14.524385787294076" lon="121.0258378462637"><ele>17.0</ele><time>2026-05-03T05:57:19.001Z</time></trkpt><trkpt lat="14.524437509680176" lon="121.0258804717701"><ele>17.0</ele><time>2026-05-03T05:57:20.001Z</time></trkpt><trkpt lat="14.524511145709527" lon="121.02595580263042"><ele>17.0</ele><time>2026-05-03T05:57:22.001Z</time></trkpt><trkpt lat="14.524562275662776" lon="121.02601074416992"><ele>17.0</ele><time>2026-05-03T05:57:25.001Z</time></trkpt><trkpt lat="14.524619129146933" lon="121.02604300661793"><ele>17.0</ele><time>2026-05-03T05:57:27Z</time></trkpt><trkpt lat="14.52468213467705" lon="121.02607697179495"><ele>17.0</ele><time>2026-05-03T05:57:29Z</time></trkpt><trkpt lat="14.5247520745569" lon="121.02612043276986"><ele>17.0</ele><time>2026-05-03T05:57:32Z</time></trkpt><trkpt lat="14.52480133786059" lon="121.0261715845371"><ele>16.2</ele><time>2026-05-03T05:57:34Z</time></trkpt><trkpt lat="14.524853854076035" lon="121.02623984503681"><ele>15.399999999999999</ele><time>2026-05-03T05:57:36Z</time></trkpt><trkpt lat="14.524905141228011" lon="121.0262982130889"><ele>14.600000000000001</ele><time>2026-05-03T05:57:38Z</time></trkpt><trkpt lat="14.524894896152597" lon="121.02642601551977"><ele>13.8</ele><time>2026-05-03T05:57:40Z</time></trkpt><trkpt lat="14.524863492348079" lon="121.02654559027543"><ele>13.0</ele><time>2026-05-03T05:57:42Z</time></trkpt><trkpt lat="14.524812560917837" lon="121.0265912104849"><ele>13.0</ele><time>2026-05-03T05:57:43Z</time></trkpt><trkpt lat="14.52475621263083" lon="121.02662704069714"><ele>13.0</ele><time>2026-05-03T05:57:44Z</time></trkpt><trkpt lat="14.524642861829133" lon="121.02666308343947"><ele>13.0</ele><time>2026-05-03T05:57:46Z</time></trkpt><trkpt lat="14.524527401892787" lon="121.0266613238576"><ele>13.0</ele><time>2026-05-03T05:57:48Z</time></trkpt><trkpt lat="14.524439142501427" lon="121.02662647909237"><ele>13.0</ele><time>2026-05-03T05:57:50Z</time></trkpt><trkpt lat="14.524363186174575" lon="121.02658305757262"><ele>13.666666666666666</ele><time>2026-05-03T05:57:52Z</time></trkpt><trkpt lat="14.524273748699672" lon="121.0265233249796"><ele>14.333333333333332</ele><time>2026-05-03T05:57:54Z</time></trkpt><trkpt lat="14.524199088725304" lon="121.0264674953899"><ele>15.0</ele><time>2026-05-03T05:57:56Z</time></trkpt><trkpt lat="14.524139489877415" lon="121.02642365737397"><ele>15.666666666666668</ele><time>2026-05-03T05:57:58Z</time></trkpt><trkpt lat="14.52408522694838" lon="121.02638089744296"><ele>16.333333333333336</ele><time>2026-05-03T05:58:00Z</time></trkpt><trkpt lat="14.524026885499145" lon="121.02634071466787"><ele>17.0</ele><time>2026-05-03T05:58:02Z</time></trkpt><trkpt lat="14.523960261331139" lon="121.02632478313897"><ele>17.0</ele><time>2026-05-03T05:58:05Z</time></trkpt><trkpt lat="14.52389775852353" lon="121.02637290253776"><ele>17.0</ele><time>2026-05-03T05:58:11.001Z</time></trkpt><trkpt lat="14.523792073870153" lon="121.02642957052495"><ele>17.0</ele><time>2026-05-03T05:58:13.001Z</time></trkpt><trkpt lat="14.52371783074376" lon="121.02646926024309"><ele>17.0</ele><time>2026-05-03T05:58:14.001Z</time></trkpt><trkpt lat="14.523633320465848" lon="121.02651458801661"><ele>17.0</ele><time>2026-05-03T05:58:15.001Z</time></trkpt><trkpt lat="14.523545009357871" lon="121.02656206277747"><ele>16.75</ele><time>2026-05-03T05:58:16.001Z</time></trkpt><trkpt lat="14.523437703947328" lon="121.02661966123135"><ele>16.5</ele><time>2026-05-03T05:58:17.001Z</time></trkpt><trkpt lat="14.523316543108816" lon="121.02668438821846"><ele>16.25</ele><time>2026-05-03T05:58:18.001Z</time></trkpt><trkpt lat="14.52320588222318" lon="121.02674350588809"><ele>16.0</ele><time>2026-05-03T05:58:19.001Z</time></trkpt><trkpt lat="14.523068563659187" lon="121.02681686472906"><ele>15.75</ele><time>2026-05-03T05:58:20.001Z</time></trkpt><trkpt lat="14.52293623593626" lon="121.02688759417697"><ele>15.5</ele><time>2026-05-03T05:58:21.001Z</time></trkpt><trkpt lat="14.522815577143977" lon="121.0269520940577"><ele>15.25</ele><time>2026-05-03T05:58:22.001Z</time></trkpt><trkpt lat="14.522694941332968" lon="121.02701658164904"><ele>15.0</ele><time>2026-05-03T05:58:23.001Z</time></trkpt><trkpt lat="14.522566958914634" lon="121.02708499645429"><ele>15.666666666666668</ele><time>2026-05-03T05:58:24.001Z</time></trkpt><trkpt lat="14.522438890097833" lon="121.02716000849799"><ele>16.333333333333336</ele><time>2026-05-03T05:58:25.001Z</time></trkpt><trkpt lat="14.522304109943088" lon="121.02723753839776"><ele>17.0</ele><time>2026-05-03T05:58:26.001Z</time></trkpt><trkpt lat="14.522166879778055" lon="121.02731647761985"><ele>17.0</ele><time>2026-05-03T05:58:27.001Z</time></trkpt><trkpt lat="14.522026608328492" lon="121.02739722430206"><ele>17.0</ele><time>2026-05-03T05:58:28.001Z</time></trkpt><trkpt lat="14.521879225043936" lon="121.02748264216767"><ele>17.0</ele><time>2026-05-03T05:58:29.001Z</time></trkpt><trkpt lat="14.521730844420793" lon="121.02756863805797"><ele>17.0</ele><time>2026-05-03T05:58:30.001Z</time></trkpt><trkpt lat="14.521579249381519" lon="121.02765744319328"><ele>17.0</ele><time>2026-05-03T05:58:31.001Z</time></trkpt><trkpt lat="14.52142977006282" lon="121.02774618055147"><ele>17.0</ele><time>2026-05-03T05:58:32.001Z</time></trkpt><trkpt lat="14.52127414634039" lon="121.02783856548717"><ele>16.666666666666668</ele><time>2026-05-03T05:58:33.001Z</time></trkpt><trkpt lat="14.521114611417902" lon="121.02793553762461"><ele>16.333333333333332</ele><time>2026-05-03T05:58:34.001Z</time></trkpt><trkpt lat="14.520973342371164" lon="121.02806369927757"><ele>16.0</ele><time>2026-05-03T05:58:35.001Z</time></trkpt><trkpt lat="14.520813526459268" lon="121.02818532626122"><ele>16.0</ele><time>2026-05-03T05:58:36.001Z</time></trkpt><trkpt lat="14.520651746852913" lon="121.02827830108137"><ele>16.0</ele><time>2026-05-03T05:58:37.001Z</time></trkpt><trkpt lat="14.520482922152926" lon="121.02837330758707"><ele>16.0</ele><time>2026-05-03T05:58:38.001Z</time></trkpt><trkpt lat="14.52031077381119" lon="121.02846318057803"><ele>16.666666666666664</ele><time>2026-05-03T05:58:39.001Z</time></trkpt><trkpt lat="14.520135383770135" lon="121.02855142704442"><ele>17.333333333333332</ele><time>2026-05-03T05:58:40.001Z</time></trkpt><trkpt lat="14.519961807422636" lon="121.02864160437551"><ele>18.0</ele><time>2026-05-03T05:58:41.001Z</time></trkpt><trkpt lat="14.519789493119298" lon="121.02873483847551"><ele>18.0</ele><time>2026-05-03T05:58:42.001Z</time></trkpt><trkpt lat="14.519610985485375" lon="121.02882878973998"><ele>18.0</ele><time>2026-05-03T05:58:43.001Z</time></trkpt><trkpt lat="14.519444597007034" lon="121.02891814204764"><ele>18.0</ele><time>2026-05-03T05:58:44.001Z</time></trkpt><trkpt lat="14.519275621964706" lon="121.02899922409719"><ele>18.333333333333332</ele><time>2026-05-03T05:58:45.001Z</time></trkpt><trkpt lat="14.519091615149424" lon="121.02910708249986"><ele>18.666666666666664</ele><time>2026-05-03T05:58:46.001Z</time></trkpt><trkpt lat="14.518913097002029" lon="121.0292011534563"><ele>19.0</ele><time>2026-05-03T05:58:47.001Z</time></trkpt><trkpt lat="14.518734593067594" lon="121.02929687232321"><ele>19.0</ele><time>2026-05-03T05:58:48.001Z</time></trkpt><trkpt lat="14.518556291000541" lon="121.02939129884541"><ele>19.0</ele><time>2026-05-03T05:58:49.001Z</time></trkpt><trkpt lat="14.518376351633897" lon="121.02948891507694"><ele>19.0</ele><time>2026-05-03T05:58:50.001Z</time></trkpt><trkpt lat="14.518197766149475" lon="121.02957745594267"><ele>19.0</ele><time>2026-05-03T05:58:51.001Z</time></trkpt><trkpt lat="14.518017307094278" lon="121.02967174442725"><ele>19.0</ele><time>2026-05-03T05:58:52.001Z</time></trkpt><trkpt lat="14.517837647396673" lon="121.0297641626568"><ele>19.0</ele><time>2026-05-03T05:58:53.001Z</time></trkpt><trkpt lat="14.517658931012203" lon="121.02986089775317"><ele>19.0</ele><time>2026-05-03T05:58:54.001Z</time></trkpt><trkpt lat="14.517480888631317" lon="121.02995880760707"><ele>19.0</ele><time>2026-05-03T05:58:55.001Z</time></trkpt><trkpt lat="14.517302072876959" lon="121.03005489101866"><ele>19.0</ele><time>2026-05-03T05:58:56.001Z</time></trkpt><trkpt lat="14.517125727484451" lon="121.03014994263087"><ele>20.333333333333332</ele><time>2026-05-03T05:58:57.001Z</time></trkpt><trkpt lat="14.516948385570496" lon="121.0302508180522"><ele>21.666666666666668</ele><time>2026-05-03T05:58:58.001Z</time></trkpt><trkpt lat="14.516770913537295" lon="121.03035122803479"><ele>23.0</ele><time>2026-05-03T05:58:59.001Z</time></trkpt><trkpt lat="14.516590614824905" lon="121.03045253512177"><ele>23.0</ele><time>2026-05-03T05:59:00.001Z</time></trkpt><trkpt lat="14.516415483400856" lon="121.03054900939779"><ele>23.0</ele><time>2026-05-03T05:59:01.001Z</time></trkpt><trkpt lat="14.516237670964736" lon="121.03064132082575"><ele>23.0</ele><time>2026-05-03T05:59:02.001Z</time></trkpt><trkpt lat="14.516056691930924" lon="121.03073246838233"><ele>22.333333333333336</ele><time>2026-05-03T05:59:03.001Z</time></trkpt><trkpt lat="14.515873707949615" lon="121.03082150991092"><ele>21.666666666666668</ele><time>2026-05-03T05:59:04.001Z</time></trkpt><trkpt lat="14.515694538709909" lon="121.03091220489897"><ele>21.0</ele><time>2026-05-03T05:59:05.001Z</time></trkpt><trkpt lat="14.515515207446276" lon="121.03100777370656"><ele>22.0</ele><time>2026-05-03T05:59:06.001Z</time></trkpt><trkpt lat="14.515335114126284" lon="121.03110506398406"><ele>23.0</ele><time>2026-05-03T05:59:07.001Z</time></trkpt><trkpt lat="14.515159772615926" lon="121.03120180676838"><ele>24.0</ele><time>2026-05-03T05:59:08.001Z</time></trkpt><trkpt lat="14.514983321052934" lon="121.03129818902413"><ele>24.0</ele><time>2026-05-03T05:59:09.001Z</time></trkpt><trkpt lat="14.514806941825114" lon="121.03139456738128"><ele>24.0</ele><time>2026-05-03T05:59:10.001Z</time></trkpt><trkpt lat="14.514626844279253" lon="121.03148914441925"><ele>24.0</ele><time>2026-05-03T05:59:11.001Z</time></trkpt><trkpt lat="14.51445452238598" lon="121.03158272277497"><ele>23.666666666666668</ele><time>2026-05-03T05:59:12.001Z</time></trkpt><trkpt lat="14.514277531055951" lon="121.03167778144429"><ele>23.333333333333336</ele><time>2026-05-03T05:59:13.001Z</time></trkpt><trkpt lat="14.51410982216052" lon="121.03178186869779"><ele>23.0</ele><time>2026-05-03T05:59:14.001Z</time></trkpt><trkpt lat="14.51394764552956" lon="121.03189393691137"><ele>23.0</ele><time>2026-05-03T05:59:15.001Z</time></trkpt><trkpt lat="14.513810489451602" lon="121.03201686709379"><ele>23.0</ele><time>2026-05-03T05:59:16.001Z</time></trkpt><trkpt lat="14.513696819871472" lon="121.03212683730011"><ele>23.0</ele><time>2026-05-03T05:59:17.001Z</time></trkpt><trkpt lat="14.513607104917007" lon="121.03221134106187"><ele>23.166666666666668</ele><time>2026-05-03T05:59:18.001Z</time></trkpt><trkpt lat="14.513548373994864" lon="121.03227767039309"><ele>23.333333333333336</ele><time>2026-05-03T05:59:19.001Z</time></trkpt><trkpt lat="14.51349520370656" lon="121.03232195452588"><ele>23.5</ele><time>2026-05-03T05:59:20.001Z</time></trkpt><trkpt lat="14.513417519383296" lon="121.03238671493973"><ele>23.666666666666668</ele><time>2026-05-03T05:59:22.001Z</time></trkpt><trkpt lat="14.513361570061361" lon="121.03243844238519"><ele>23.833333333333332</ele><time>2026-05-03T05:59:28.001Z</time></trkpt><trkpt lat="14.513295070286244" lon="121.03249531019061"><ele>24.0</ele><time>2026-05-03T05:59:33Z</time></trkpt><trkpt lat="14.513240883319648" lon="121.03253318609977"><ele>24.4</ele><time>2026-05-03T05:59:35Z</time></trkpt><trkpt lat="14.5131721142404" lon="121.03258299549479"><ele>24.799999999999997</ele><time>2026-05-03T05:59:37Z</time></trkpt><trkpt lat="14.513086886716987" lon="121.03264054411682"><ele>25.200000000000003</ele><time>2026-05-03T05:59:40Z</time></trkpt><trkpt lat="14.512989053452511" lon="121.03270302339668"><ele>25.6</ele><time>2026-05-03T05:59:42Z</time></trkpt><trkpt lat="14.512924615271176" lon="121.03274218551711"><ele>26.0</ele><time>2026-05-03T05:59:43Z</time></trkpt><trkpt lat="14.512848916119752" lon="121.0327856140016"><ele>26.200000000000003</ele><time>2026-05-03T05:59:44Z</time></trkpt><trkpt lat="14.512761481145397" lon="121.0328281318196"><ele>26.400000000000002</ele><time>2026-05-03T05:59:45Z</time></trkpt><trkpt lat="14.51266613701755" lon="121.03287064416024"><ele>26.6</ele><time>2026-05-03T05:59:46Z</time></trkpt><trkpt lat="14.512570580301935" lon="121.03292132249285"><ele>26.8</ele><time>2026-05-03T05:59:47Z</time></trkpt><trkpt lat="14.512473350212517" lon="121.03297572415681"><ele>27.0</ele><time>2026-05-03T05:59:48Z</time></trkpt><trkpt lat="14.51237666869485" lon="121.03303046146011"><ele>27.0</ele><time>2026-05-03T05:59:49Z</time></trkpt><trkpt lat="14.512275828370202" lon="121.03309006651719"><ele>27.0</ele><time>2026-05-03T05:59:50Z</time></trkpt><trkpt lat="14.512171596182364" lon="121.03315299445129"><ele>27.0</ele><time>2026-05-03T05:59:51Z</time></trkpt><trkpt lat="14.512068274990726" lon="121.0332137206823"><ele>27.0</ele><time>2026-05-03T05:59:52Z</time></trkpt><trkpt lat="14.511961658511627" lon="121.03327072032903"><ele>27.0</ele><time>2026-05-03T05:59:53Z</time></trkpt><trkpt lat="14.511859398525758" lon="121.03333120071743"><ele>27.0</ele><time>2026-05-03T05:59:54Z</time></trkpt><trkpt lat="14.511746544388036" lon="121.03339066884475"><ele>27.0</ele><time>2026-05-03T05:59:55Z</time></trkpt><trkpt lat="14.511627937463906" lon="121.03344045171845"><ele>27.0</ele><time>2026-05-03T05:59:56Z</time></trkpt><trkpt lat="14.511501547276671" lon="121.03347823290933"><ele>27.0</ele><time>2026-05-03T05:59:57Z</time></trkpt><trkpt lat="14.511373059106258" lon="121.03352150893664"><ele>27.0</ele><time>2026-05-03T05:59:58Z</time></trkpt><trkpt lat="14.511246625327143" lon="121.03356390908853"><ele>27.0</ele><time>2026-05-03T05:59:59Z</time></trkpt><trkpt lat="14.511146056512395" lon="121.03360849414794"><ele>27.0</ele><time>2026-05-03T06:00:00Z</time></trkpt><trkpt lat="14.51104653088507" lon="121.03364591560039"><ele>27.0</ele><time>2026-05-03T06:00:01Z</time></trkpt><trkpt lat="14.510944925760775" lon="121.0336878338022"><ele>27.0</ele><time>2026-05-03T06:00:02Z</time></trkpt><trkpt lat="14.510837574939371" lon="121.03373544045236"><ele>27.0</ele><time>2026-05-03T06:00:03Z</time></trkpt><trkpt lat="14.510723380433022" lon="121.0337906766206"><ele>27.0</ele><time>2026-05-03T06:00:04Z</time></trkpt><trkpt lat="14.510613250980148" lon="121.03384309226868"><ele>27.0</ele><time>2026-05-03T06:00:05Z</time></trkpt><trkpt lat="14.510492365349702" lon="121.03390912851684"><ele>27.0</ele><time>2026-05-03T06:00:06Z</time></trkpt><trkpt lat="14.510376243154811" lon="121.03397123769243"><ele>27.0</ele><time>2026-05-03T06:00:07Z</time></trkpt><trkpt lat="14.510247727922978" lon="121.03404889508481"><ele>27.0</ele><time>2026-05-03T06:00:08Z</time></trkpt><trkpt lat="14.510120455545563" lon="121.03411316718815"><ele>26.75</ele><time>2026-05-03T06:00:09Z</time></trkpt><trkpt lat="14.509995673404406" lon="121.0341863445494"><ele>26.5</ele><time>2026-05-03T06:00:10Z</time></trkpt><trkpt lat="14.50987415788573" lon="121.03426022795311"><ele>26.25</ele><time>2026-05-03T06:00:11Z</time></trkpt><trkpt lat="14.50973214831547" lon="121.03432971123794"><ele>26.0</ele><time>2026-05-03T06:00:12Z</time></trkpt><trkpt lat="14.509586467294545" lon="121.03440214887772"><ele>25.666666666666664</ele><time>2026-05-03T06:00:13Z</time></trkpt><trkpt lat="14.509438383296" lon="121.03449773548594"><ele>25.333333333333336</ele><time>2026-05-03T06:00:14Z</time></trkpt><trkpt lat="14.50927239922473" lon="121.03459105160866"><ele>25.0</ele><time>2026-05-03T06:00:15Z</time></trkpt><trkpt lat="14.509070227966363" lon="121.03466134097717"><ele>25.0</ele><time>2026-05-03T06:00:16Z</time></trkpt><trkpt lat="14.508869362079752" lon="121.03470937015659"><ele>25.0</ele><time>2026-05-03T06:00:17Z</time></trkpt><trkpt lat="14.508751037487396" lon="121.03474320097223"><ele>25.0</ele><time>2026-05-03T06:00:18Z</time></trkpt><trkpt lat="14.508613231121183" lon="121.03476602289986"><ele>23.5</ele><time>2026-05-03T06:00:19Z</time></trkpt><trkpt lat="14.50849438274681" lon="121.03479653889373"><ele>22.0</ele><time>2026-05-03T06:00:20Z</time></trkpt><trkpt lat="14.508353662463916" lon="121.0348156812921"><ele>20.5</ele><time>2026-05-03T06:00:21Z</time></trkpt><trkpt lat="14.508192923940765" lon="121.03487421179659"><ele>19.0</ele><time>2026-05-03T06:00:22Z</time></trkpt><trkpt lat="14.508036203173868" lon="121.03491758094658"><ele>18.666666666666664</ele><time>2026-05-03T06:00:23.001Z</time></trkpt><trkpt lat="14.507882465385997" lon="121.0349593853486"><ele>18.333333333333332</ele><time>2026-05-03T06:00:24.001Z</time></trkpt><trkpt lat="14.507736970726967" lon="121.03502267222656"><ele>18.0</ele><time>2026-05-03T06:00:25.001Z</time></trkpt><trkpt lat="14.507600682964135" lon="121.03511077571898"><ele>19.0</ele><time>2026-05-03T06:00:26.001Z</time></trkpt><trkpt lat="14.507460800588406" lon="121.03519522535898"><ele>20.0</ele><time>2026-05-03T06:00:27.001Z</time></trkpt><trkpt lat="14.507329172425253" lon="121.03526470027715"><ele>21.0</ele><time>2026-05-03T06:00:28.001Z</time></trkpt><trkpt lat="14.5071903882253" lon="121.03533705696589"><ele>20.333333333333332</ele><time>2026-05-03T06:00:29.001Z</time></trkpt><trkpt lat="14.507053158973301" lon="121.03540639868844"><ele>19.666666666666664</ele><time>2026-05-03T06:00:30.001Z</time></trkpt><trkpt lat="14.50691280525899" lon="121.03547809490865"><ele>19.0</ele><time>2026-05-03T06:00:31.001Z</time></trkpt><trkpt lat="14.506771121532697" lon="121.03554606707469"><ele>19.0</ele><time>2026-05-03T06:00:32.001Z</time></trkpt><trkpt lat="14.50662815296479" lon="121.03561934702972"><ele>19.0</ele><time>2026-05-03T06:00:33.001Z</time></trkpt><trkpt lat="14.506483978105635" lon="121.03569577042907"><ele>19.0</ele><time>2026-05-03T06:00:34.001Z</time></trkpt><trkpt lat="14.50634170401384" lon="121.03577711266409"><ele>19.5</ele><time>2026-05-03T06:00:35.001Z</time></trkpt><trkpt lat="14.50621047083003" lon="121.03584983818904"><ele>20.0</ele><time>2026-05-03T06:00:36.001Z</time></trkpt><trkpt lat="14.506080191991705" lon="121.0359243178629"><ele>20.5</ele><time>2026-05-03T06:00:37.001Z</time></trkpt><trkpt lat="14.505966341125403" lon="121.03598480318749"><ele>21.0</ele><time>2026-05-03T06:00:38.001Z</time></trkpt><trkpt lat="14.505863163573723" lon="121.03603970250408"><ele>21.0</ele><time>2026-05-03T06:00:39.001Z</time></trkpt><trkpt lat="14.505762451540274" lon="121.03609267425848"><ele>21.0</ele><time>2026-05-03T06:00:40.001Z</time></trkpt><trkpt lat="14.505658913691535" lon="121.03614668432843"><ele>21.0</ele><time>2026-05-03T06:00:41.001Z</time></trkpt><trkpt lat="14.505554959112256" lon="121.0362031982803"><ele>21.0</ele><time>2026-05-03T06:00:42.001Z</time></trkpt><trkpt lat="14.505458716142215" lon="121.03625352003328"><ele>20.6</ele><time>2026-05-03T06:00:43.001Z</time></trkpt><trkpt lat="14.505367177528546" lon="121.03629947754362"><ele>20.200000000000003</ele><time>2026-05-03T06:00:44.001Z</time></trkpt><trkpt lat="14.505280395279884" lon="121.03634686645088"><ele>19.799999999999997</ele><time>2026-05-03T06:00:45.001Z</time></trkpt><trkpt lat="14.505200958081966" lon="121.03639144367826"><ele>19.4</ele><time>2026-05-03T06:00:46.001Z</time></trkpt><trkpt lat="14.505124960025512" lon="121.0364352424095"><ele>19.0</ele><time>2026-05-03T06:00:47.001Z</time></trkpt><trkpt lat="14.505048132049847" lon="121.03647898781438"><ele>19.0</ele><time>2026-05-03T06:00:48.001Z</time></trkpt><trkpt lat="14.50497116380274" lon="121.03652017046072"><ele>19.0</ele><time>2026-05-03T06:00:49.001Z</time></trkpt><trkpt lat="14.504891107350915" lon="121.03656019516578"><ele>19.0</ele><time>2026-05-03T06:00:50.001Z</time></trkpt><trkpt lat="14.50481983680078" lon="121.03659745064155"><ele>19.0</ele><time>2026-05-03T06:00:51.001Z</time></trkpt><trkpt lat="14.504746702751206" lon="121.0366353205118"><ele>19.0</ele><time>2026-05-03T06:00:52.001Z</time></trkpt><trkpt lat="14.504668108373558" lon="121.03667537965255"><ele>19.0</ele><time>2026-05-03T06:00:53.001Z</time></trkpt><trkpt lat="14.504579480079059" lon="121.0367256880214"><ele>20.25</ele><time>2026-05-03T06:00:54.001Z</time></trkpt><trkpt lat="14.504480042725469" lon="121.0367872806255"><ele>21.5</ele><time>2026-05-03T06:00:55.001Z</time></trkpt><trkpt lat="14.504373457688898" lon="121.036844730068"><ele>22.75</ele><time>2026-05-03T06:00:56.001Z</time></trkpt><trkpt lat="14.504248684500887" lon="121.0369015096581"><ele>24.0</ele><time>2026-05-03T06:00:57.001Z</time></trkpt><trkpt lat="14.50413095748279" lon="121.03694910274805"><ele>24.0</ele><time>2026-05-03T06:00:58.001Z</time></trkpt><trkpt lat="14.504019369567919" lon="121.03699597798416"><ele>24.0</ele><time>2026-05-03T06:00:59.001Z</time></trkpt><trkpt lat="14.503908866377477" lon="121.03706161731321"><ele>24.0</ele><time>2026-05-03T06:01:00.001Z</time></trkpt><trkpt lat="14.503809007762285" lon="121.03713143990346"><ele>24.0</ele><time>2026-05-03T06:01:01.001Z</time></trkpt><trkpt lat="14.503702569990525" lon="121.03719949843622"><ele>23.75</ele><time>2026-05-03T06:01:02.001Z</time></trkpt><trkpt lat="14.503583200835116" lon="121.03725367048342"><ele>23.5</ele><time>2026-05-03T06:01:03.001Z</time></trkpt><trkpt lat="14.503460372803586" lon="121.03729560287411"><ele>23.25</ele><time>2026-05-03T06:01:04.001Z</time></trkpt><trkpt lat="14.503340696650698" lon="121.03734483469412"><ele>23.0</ele><time>2026-05-03T06:01:05.001Z</time></trkpt><trkpt lat="14.503220283282339" lon="121.0374168644968"><ele>23.25</ele><time>2026-05-03T06:01:06.001Z</time></trkpt><trkpt lat="14.503090439348716" lon="121.03748340365416"><ele>23.5</ele><time>2026-05-03T06:01:07.001Z</time></trkpt><trkpt lat="14.502944945779586" lon="121.03755072264323"><ele>23.75</ele><time>2026-05-03T06:01:08.001Z</time></trkpt><trkpt lat="14.502837199520394" lon="121.03761345423247"><ele>24.0</ele><time>2026-05-03T06:01:09.001Z</time></trkpt><trkpt lat="14.502717753627723" lon="121.03768428053172"><ele>24.0</ele><time>2026-05-03T06:01:10.001Z</time></trkpt><trkpt lat="14.502598840544225" lon="121.0377537489754"><ele>24.0</ele><time>2026-05-03T06:01:11.001Z</time></trkpt><trkpt lat="14.502475046482601" lon="121.03781729096994"><ele>24.0</ele><time>2026-05-03T06:01:12.001Z</time></trkpt><trkpt lat="14.502347472128179" lon="121.03788907894801"><ele>24.0</ele><time>2026-05-03T06:01:13.001Z</time></trkpt><trkpt lat="14.502236712151657" lon="121.03795279210175"><ele>24.0</ele><time>2026-05-03T06:01:14.001Z</time></trkpt><trkpt lat="14.502134833140692" lon="121.03800573539262"><ele>24.0</ele><time>2026-05-03T06:01:15.001Z</time></trkpt><trkpt lat="14.502034305048186" lon="121.0380635279615"><ele>24.0</ele><time>2026-05-03T06:01:16.001Z</time></trkpt><trkpt lat="14.501933357937975" lon="121.03811912250741"><ele>24.0</ele><time>2026-05-03T06:01:17.001Z</time></trkpt><trkpt lat="14.50182700998744" lon="121.03817749179558"><ele>24.25</ele><time>2026-05-03T06:01:18.001Z</time></trkpt><trkpt lat="14.501722745718181" lon="121.03823261238642"><ele>24.5</ele><time>2026-05-03T06:01:19.001Z</time></trkpt><trkpt lat="14.501614325091799" lon="121.03828683360844"><ele>24.75</ele><time>2026-05-03T06:01:20.001Z</time></trkpt><trkpt lat="14.501505840464505" lon="121.03833960246389"><ele>25.0</ele><time>2026-05-03T06:01:21.001Z</time></trkpt><trkpt lat="14.501400636102291" lon="121.0383958528425"><ele>25.0</ele><time>2026-05-03T06:01:22.001Z</time></trkpt><trkpt lat="14.501295646321132" lon="121.03845738556498"><ele>25.0</ele><time>2026-05-03T06:01:23.001Z</time></trkpt><trkpt lat="14.501182486195383" lon="121.03849446896032"><ele>25.0</ele><time>2026-05-03T06:01:24.001Z</time></trkpt><trkpt lat="14.501076907000902" lon="121.03855063483893"><ele>25.0</ele><time>2026-05-03T06:01:25.001Z</time></trkpt><trkpt lat="14.500978788014416" lon="121.03862197372625"><ele>25.5</ele><time>2026-05-03T06:01:26.001Z</time></trkpt><trkpt lat="14.500868659769376" lon="121.03867671620925"><ele>26.0</ele><time>2026-05-03T06:01:27.001Z</time></trkpt><trkpt lat="14.500751494502913" lon="121.03874258491163"><ele>26.5</ele><time>2026-05-03T06:01:28.001Z</time></trkpt><trkpt lat="14.500632718037098" lon="121.03880880363573"><ele>27.0</ele><time>2026-05-03T06:01:29.001Z</time></trkpt><trkpt lat="14.500509046451093" lon="121.03887362772211"><ele>26.75</ele><time>2026-05-03T06:01:30.001Z</time></trkpt><trkpt lat="14.500378317210249" lon="121.03893869365552"><ele>26.5</ele><time>2026-05-03T06:01:31.001Z</time></trkpt><trkpt lat="14.50024696874658" lon="121.03900619426057"><ele>26.25</ele><time>2026-05-03T06:01:32.001Z</time></trkpt><trkpt lat="14.5001142875887" lon="121.03907560363604"><ele>26.0</ele><time>2026-05-03T06:01:33.001Z</time></trkpt><trkpt lat="14.499980398964523" lon="121.03914801509653"><ele>25.666666666666664</ele><time>2026-05-03T06:01:34.001Z</time></trkpt><trkpt lat="14.499844716207043" lon="121.03922041161937"><ele>25.333333333333336</ele><time>2026-05-03T06:01:35.001Z</time></trkpt><trkpt lat="14.499706721842953" lon="121.03929295036453"><ele>25.0</ele><time>2026-05-03T06:01:36.001Z</time></trkpt><trkpt lat="14.499563663368997" lon="121.0393674695101"><ele>26.0</ele><time>2026-05-03T06:01:37.001Z</time></trkpt><trkpt lat="14.49942849414112" lon="121.03944520344906"><ele>27.0</ele><time>2026-05-03T06:01:38Z</time></trkpt><trkpt lat="14.499286436152795" lon="121.03952018256098"><ele>28.0</ele><time>2026-05-03T06:01:39Z</time></trkpt><trkpt lat="14.499155641324403" lon="121.03959202989385"><ele>28.0</ele><time>2026-05-03T06:01:40Z</time></trkpt><trkpt lat="14.49903798092798" lon="121.03965855194005"><ele>28.0</ele><time>2026-05-03T06:01:41Z</time></trkpt><trkpt lat="14.49892785218525" lon="121.03972200842277"><ele>28.0</ele><time>2026-05-03T06:01:42Z</time></trkpt><trkpt lat="14.498816856774857" lon="121.0397852191958"><ele>28.0</ele><time>2026-05-03T06:01:43Z</time></trkpt><trkpt lat="14.498707399688065" lon="121.03984510200402"><ele>28.75</ele><time>2026-05-03T06:01:44Z</time></trkpt><trkpt lat="14.49859185123733" lon="121.03990857435049"><ele>29.5</ele><time>2026-05-03T06:01:45Z</time></trkpt><trkpt lat="14.498468480553909" lon="121.0399683659383"><ele>30.25</ele><time>2026-05-03T06:01:46Z</time></trkpt><trkpt lat="14.498340747554913" lon="121.04003066143588"><ele>31.0</ele><time>2026-05-03T06:01:47Z</time></trkpt><trkpt lat="14.498208142650014" lon="121.04009814636727"><ele>31.333333333333336</ele><time>2026-05-03T06:01:48Z</time></trkpt><trkpt lat="14.498075261486735" lon="121.04016764926455"><ele>31.666666666666664</ele><time>2026-05-03T06:01:49Z</time></trkpt><trkpt lat="14.497940294431274" lon="121.040240805325"><ele>32.0</ele><time>2026-05-03T06:01:50Z</time></trkpt><trkpt lat="14.497806921513503" lon="121.0403149605542"><ele>32.0</ele><time>2026-05-03T06:01:51Z</time></trkpt><trkpt lat="14.497669935855912" lon="121.04039020018224"><ele>32.0</ele><time>2026-05-03T06:01:52Z</time></trkpt><trkpt lat="14.497530207090987" lon="121.04046781127735"><ele>32.0</ele><time>2026-05-03T06:01:53Z</time></trkpt><trkpt lat="14.497394246302736" lon="121.04053794539185"><ele>32.0</ele><time>2026-05-03T06:01:54Z</time></trkpt><trkpt lat="14.497251280690442" lon="121.04061578794585"><ele>32.0</ele><time>2026-05-03T06:01:55Z</time></trkpt><trkpt lat="14.497105107075614" lon="121.0406950421959"><ele>32.0</ele><time>2026-05-03T06:01:56Z</time></trkpt><trkpt lat="14.496956410387382" lon="121.04077609417742"><ele>31.333333333333332</ele><time>2026-05-03T06:01:57Z</time></trkpt><trkpt lat="14.49681494807178" lon="121.04085033562285"><ele>30.666666666666664</ele><time>2026-05-03T06:01:58Z</time></trkpt><trkpt lat="14.496682692290218" lon="121.04092344717554"><ele>30.0</ele><time>2026-05-03T06:01:59Z</time></trkpt><trkpt lat="14.496551337613518" lon="121.04099394628065"><ele>30.0</ele><time>2026-05-03T06:02:00Z</time></trkpt><trkpt lat="14.49642237158429" lon="121.0410647517249"><ele>30.0</ele><time>2026-05-03T06:02:01Z</time></trkpt><trkpt lat="14.496288982643446" lon="121.04113607840003"><ele>30.0</ele><time>2026-05-03T06:02:02Z</time></trkpt><trkpt lat="14.496154960870221" lon="121.0412095269816"><ele>30.0</ele><time>2026-05-03T06:02:03Z</time></trkpt><trkpt lat="14.496016595349888" lon="121.04128717481407"><ele>29.666666666666664</ele><time>2026-05-03T06:02:04Z</time></trkpt><trkpt lat="14.495880521376286" lon="121.04136132690384"><ele>29.333333333333332</ele><time>2026-05-03T06:02:05Z</time></trkpt><trkpt lat="14.49573656686736" lon="121.0414455635392"><ele>29.0</ele><time>2026-05-03T06:02:06Z</time></trkpt><trkpt lat="14.49560099343466" lon="121.04151934442272"><ele>29.0</ele><time>2026-05-03T06:02:07Z</time></trkpt><trkpt lat="14.49546128754617" lon="121.04159642425027"><ele>29.0</ele><time>2026-05-03T06:02:08Z</time></trkpt><trkpt lat="14.495324750997765" lon="121.0416716719505"><ele>29.0</ele><time>2026-05-03T06:02:09Z</time></trkpt><trkpt lat="14.49519360580875" lon="121.04174371038167"><ele>28.75</ele><time>2026-05-03T06:02:10Z</time></trkpt><trkpt lat="14.495060771879587" lon="121.04181837500003"><ele>28.5</ele><time>2026-05-03T06:02:11Z</time></trkpt><trkpt lat="14.494929996831358" lon="121.04188408432647"><ele>28.25</ele><time>2026-05-03T06:02:12Z</time></trkpt><trkpt lat="14.494799100370413" lon="121.0419571696026"><ele>28.0</ele><time>2026-05-03T06:02:13Z</time></trkpt><trkpt lat="14.494673922951502" lon="121.04201922752803"><ele>27.75</ele><time>2026-05-03T06:02:14Z</time></trkpt><trkpt lat="14.494556281859145" lon="121.04208375705991"><ele>27.5</ele><time>2026-05-03T06:02:15Z</time></trkpt><trkpt lat="14.494439318041595" lon="121.0421461508441"><ele>27.25</ele><time>2026-05-03T06:02:16Z</time></trkpt><trkpt lat="14.494324243257026" lon="121.0422020454982"><ele>27.0</ele><time>2026-05-03T06:02:17Z</time></trkpt><trkpt lat="14.494213186148171" lon="121.04225871484111"><ele>27.0</ele><time>2026-05-03T06:02:18Z</time></trkpt><trkpt lat="14.494103053996794" lon="121.0423205777781"><ele>27.0</ele><time>2026-05-03T06:02:19Z</time></trkpt><trkpt lat="14.493995334793583" lon="121.04238104535936"><ele>27.0</ele><time>2026-05-03T06:02:20Z</time></trkpt><trkpt lat="14.493884918152522" lon="121.04244512978589"><ele>27.0</ele><time>2026-05-03T06:02:21Z</time></trkpt><trkpt lat="14.493780352157703" lon="121.04249957115712"><ele>27.666666666666668</ele><time>2026-05-03T06:02:22Z</time></trkpt><trkpt lat="14.49368163159921" lon="121.042559812681"><ele>28.333333333333336</ele><time>2026-05-03T06:02:23Z</time></trkpt><trkpt lat="14.493600689744987" lon="121.04260640598565"><ele>29.0</ele><time>2026-05-03T06:02:24Z</time></trkpt><trkpt lat="14.493533624234082" lon="121.04264208035147"><ele>29.666666666666668</ele><time>2026-05-03T06:02:25Z</time></trkpt><trkpt lat="14.493473011954592" lon="121.04267361913432"><ele>30.333333333333336</ele><time>2026-05-03T06:02:26Z</time></trkpt><trkpt lat="14.493409892759136" lon="121.0427089352854"><ele>31.0</ele><time>2026-05-03T06:02:27Z</time></trkpt><trkpt lat="14.493343115340107" lon="121.04274677754107"><ele>31.000000000000004</ele><time>2026-05-03T06:02:28Z</time></trkpt><trkpt lat="14.493272852918956" lon="121.04278253733206"><ele>31.0</ele><time>2026-05-03T06:02:29Z</time></trkpt><trkpt lat="14.493202166416584" lon="121.04282272864566"><ele>31.0</ele><time>2026-05-03T06:02:30Z</time></trkpt><trkpt lat="14.493130918589184" lon="121.04286288822615"><ele>31.0</ele><time>2026-05-03T06:02:31Z</time></trkpt><trkpt lat="14.493044264220524" lon="121.0428914563648"><ele>31.000000000000004</ele><time>2026-05-03T06:02:32Z</time></trkpt><trkpt lat="14.492955516564727" lon="121.04293831207265"><ele>31.0</ele><time>2026-05-03T06:02:33Z</time></trkpt><trkpt lat="14.49286772309914" lon="121.04298465989102"><ele>32.5</ele><time>2026-05-03T06:02:34Z</time></trkpt><trkpt lat="14.49277382894968" lon="121.04305320347824"><ele>34.0</ele><time>2026-05-03T06:02:35Z</time></trkpt><trkpt lat="14.492665445690415" lon="121.04310772668562"><ele>35.5</ele><time>2026-05-03T06:02:36Z</time></trkpt><trkpt lat="14.492548134717799" lon="121.04316910832671"><ele>37.0</ele><time>2026-05-03T06:02:37Z</time></trkpt><trkpt lat="14.492429083620129" lon="121.04323711258942"><ele>36.5</ele><time>2026-05-03T06:02:38Z</time></trkpt><trkpt lat="14.49230098099063" lon="121.04330534290992"><ele>36.0</ele><time>2026-05-03T06:02:39Z</time></trkpt><trkpt lat="14.492169515122509" lon="121.04337501212923"><ele>35.5</ele><time>2026-05-03T06:02:40Z</time></trkpt><trkpt lat="14.492039307270625" lon="121.04344769032568"><ele>35.0</ele><time>2026-05-03T06:02:41Z</time></trkpt><trkpt lat="14.491895712124837" lon="121.04350470382302"><ele>35.0</ele><time>2026-05-03T06:02:42Z</time></trkpt><trkpt lat="14.491743809076072" lon="121.0435833110005"><ele>35.0</ele><time>2026-05-03T06:02:43.001Z</time></trkpt><trkpt lat="14.491609707638563" lon="121.04365483914606"><ele>35.0</ele><time>2026-05-03T06:02:44.001Z</time></trkpt><trkpt lat="14.491485396169518" lon="121.04372298097833"><ele>35.0</ele><time>2026-05-03T06:02:45.001Z</time></trkpt><trkpt lat="14.49135848617023" lon="121.04379254718843"><ele>35.0</ele><time>2026-05-03T06:02:46.001Z</time></trkpt><trkpt lat="14.491244192268748" lon="121.0438551978455"><ele>35.0</ele><time>2026-05-03T06:02:47.001Z</time></trkpt><trkpt lat="14.491138404721829" lon="121.0439131857223"><ele>35.0</ele><time>2026-05-03T06:02:48.001Z</time></trkpt><trkpt lat="14.49103741223629" lon="121.04396854515545"><ele>35.25</ele><time>2026-05-03T06:02:49.001Z</time></trkpt><trkpt lat="14.490942727279506" lon="121.04403474312645"><ele>35.5</ele><time>2026-05-03T06:02:50.001Z</time></trkpt><trkpt lat="14.490841454204507" lon="121.0440891403054"><ele>35.75</ele><time>2026-05-03T06:02:51.001Z</time></trkpt><trkpt lat="14.49073369980067" lon="121.04414483604147"><ele>36.0</ele><time>2026-05-03T06:02:52.001Z</time></trkpt><trkpt lat="14.490627246513343" lon="121.04420094245168"><ele>36.25</ele><time>2026-05-03T06:02:53.001Z</time></trkpt><trkpt lat="14.490523239993832" lon="121.0442558718878"><ele>36.5</ele><time>2026-05-03T06:02:54.001Z</time></trkpt><trkpt lat="14.490411434426434" lon="121.04431217213534"><ele>36.75</ele><time>2026-05-03T06:02:55.001Z</time></trkpt><trkpt lat="14.490300329708809" lon="121.04437630361681"><ele>37.0</ele><time>2026-05-03T06:02:56.001Z</time></trkpt><trkpt lat="14.490178281082509" lon="121.04444928825765"><ele>37.0</ele><time>2026-05-03T06:02:57.001Z</time></trkpt><trkpt lat="14.490054390325392" lon="121.04449943792717"><ele>37.0</ele><time>2026-05-03T06:02:58.001Z</time></trkpt><trkpt lat="14.489966627701532" lon="121.0445617615783"><ele>37.0</ele><time>2026-05-03T06:02:59.001Z</time></trkpt><trkpt lat="14.489875526776377" lon="121.04461274683861"><ele>37.0</ele><time>2026-05-03T06:03:00.001Z</time></trkpt><trkpt lat="14.489785745388733" lon="121.04466089420967"><ele>37.0</ele><time>2026-05-03T06:03:01.001Z</time></trkpt><trkpt lat="14.489711325038542" lon="121.0447026693522"><ele>37.0</ele><time>2026-05-03T06:03:02.001Z</time></trkpt><trkpt lat="14.489640494447569" lon="121.04473873242506"><ele>37.0</ele><time>2026-05-03T06:03:03.001Z</time></trkpt><trkpt lat="14.489551907295954" lon="121.0448264696517"><ele>37.0</ele><time>2026-05-03T06:03:05.001Z</time></trkpt><trkpt lat="14.4895299130464" lon="121.04489482309035"><ele>37.0</ele><time>2026-05-03T06:03:06.001Z</time></trkpt><trkpt lat="14.489518740056758" lon="121.04498500202308"><ele>37.0</ele><time>2026-05-03T06:03:07.001Z</time></trkpt><trkpt lat="14.489514383966299" lon="121.04507780657961"><ele>37.0</ele><time>2026-05-03T06:03:08.001Z</time></trkpt><trkpt lat="14.489506911100063" lon="121.04518465171888"><ele>36.4</ele><time>2026-05-03T06:03:09.001Z</time></trkpt><trkpt lat="14.489493149999584" lon="121.04528949398431"><ele>35.800000000000004</ele><time>2026-05-03T06:03:10.001Z</time></trkpt><trkpt lat="14.48947883142963" lon="121.04540453749625"><ele>35.2</ele><time>2026-05-03T06:03:11.001Z</time></trkpt><trkpt lat="14.489465306496927" lon="121.04552081791701"><ele>34.6</ele><time>2026-05-03T06:03:12.001Z</time></trkpt><trkpt lat="14.48945258261273" lon="121.04563741276567"><ele>34.0</ele><time>2026-05-03T06:03:13.001Z</time></trkpt><trkpt lat="14.489440278468349" lon="121.04575711570834"><ele>34.5</ele><time>2026-05-03T06:03:14.001Z</time></trkpt><trkpt lat="14.489426099911105" lon="121.04587449094998"><ele>35.0</ele><time>2026-05-03T06:03:15.001Z</time></trkpt><trkpt lat="14.489408808650373" lon="121.04599722576398"><ele>35.5</ele><time>2026-05-03T06:03:16.001Z</time></trkpt><trkpt lat="14.48939559216359" lon="121.04610430199402"><ele>36.0</ele><time>2026-05-03T06:03:17.001Z</time></trkpt><trkpt lat="14.489379409430724" lon="121.04622298231762"><ele>36.0</ele><time>2026-05-03T06:03:18.001Z</time></trkpt><trkpt lat="14.489363990825817" lon="121.04632508099435"><ele>36.0</ele><time>2026-05-03T06:03:19.001Z</time></trkpt><trkpt lat="14.489350870327682" lon="121.04641494615674"><ele>36.0</ele><time>2026-05-03T06:03:20.001Z</time></trkpt><trkpt lat="14.489339463632525" lon="121.04650996704342"><ele>36.0</ele><time>2026-05-03T06:03:21.001Z</time></trkpt><trkpt lat="14.489329616709776" lon="121.04659499422849"><ele>36.0</ele><time>2026-05-03T06:03:22.001Z</time></trkpt><trkpt lat="14.489320996037907" lon="121.04666720948215"><ele>36.0</ele><time>2026-05-03T06:03:23.001Z</time></trkpt><trkpt lat="14.489305992816421" lon="121.04673937450276"><ele>36.166666666666664</ele><time>2026-05-03T06:03:24.001Z</time></trkpt><trkpt lat="14.489286678889375" lon="121.04680603000469"><ele>36.333333333333336</ele><time>2026-05-03T06:03:25.001Z</time></trkpt><trkpt lat="14.489255784367645" lon="121.04686919291174"><ele>36.5</ele><time>2026-05-03T06:03:26.001Z</time></trkpt><trkpt lat="14.48921409193682" lon="121.046923388867"><ele>36.66666666666667</ele><time>2026-05-03T06:03:27.001Z</time></trkpt><trkpt lat="14.489158936880996" lon="121.04696357033913"><ele>36.833333333333336</ele><time>2026-05-03T06:03:28.001Z</time></trkpt><trkpt lat="14.48906145200521" lon="121.04700634337398"><ele>37.0</ele><time>2026-05-03T06:03:30.001Z</time></trkpt><trkpt lat="14.488976945193693" lon="121.04702128248206"><ele>37.0</ele><time>2026-05-03T06:03:32.001Z</time></trkpt><trkpt lat="14.488881079831769" lon="121.04702055827492"><ele>37.0</ele><time>2026-05-03T06:03:34.001Z</time></trkpt><trkpt lat="14.488771207012645" lon="121.04698160065888"><ele>37.0</ele><time>2026-05-03T06:03:36.001Z</time></trkpt><trkpt lat="14.488699016663615" lon="121.04696048443682"><ele>37.0</ele><time>2026-05-03T06:03:37.001Z</time></trkpt><trkpt lat="14.488614204636658" lon="121.04693567628189"><ele>37.0</ele><time>2026-05-03T06:03:38.001Z</time></trkpt><trkpt lat="14.488523547212607" lon="121.0469091582925"><ele>37.5</ele><time>2026-05-03T06:03:39.001Z</time></trkpt><trkpt lat="14.488420089621426" lon="121.04687889617323"><ele>38.0</ele><time>2026-05-03T06:03:40.001Z</time></trkpt><trkpt lat="14.488294657363463" lon="121.04687276808907"><ele>38.5</ele><time>2026-05-03T06:03:41.001Z</time></trkpt><trkpt lat="14.488184993149703" lon="121.04684205678869"><ele>39.0</ele><time>2026-05-03T06:03:42.001Z</time></trkpt><trkpt lat="14.488074899009575" lon="121.04681042374963"><ele>39.0</ele><time>2026-05-03T06:03:43.001Z</time></trkpt><trkpt lat="14.48796925030094" lon="121.04678376010636"><ele>39.0</ele><time>2026-05-03T06:03:44Z</time></trkpt><trkpt lat="14.487856935241078" lon="121.04675568335047"><ele>39.0</ele><time>2026-05-03T06:03:45Z</time></trkpt><trkpt lat="14.487738332054793" lon="121.04672271755099"><ele>39.0</ele><time>2026-05-03T06:03:46Z</time></trkpt><trkpt lat="14.487672460221907" lon="121.04670455263287"><ele>39.0</ele><time>2026-05-03T06:03:47Z</time></trkpt><trkpt lat="14.487587733965736" lon="121.04667847278427"><ele>38.666666666666664</ele><time>2026-05-03T06:03:48Z</time></trkpt><trkpt lat="14.487534925286301" lon="121.0466129812034"><ele>38.333333333333336</ele><time>2026-05-03T06:03:49Z</time></trkpt><trkpt lat="14.48749860046576" lon="121.04655039163754"><ele>38.0</ele><time>2026-05-03T06:03:50Z</time></trkpt><trkpt lat="14.487448973508716" lon="121.04648972762715"><ele>37.66666666666667</ele><time>2026-05-03T06:03:51Z</time></trkpt><trkpt lat="14.487451633807124" lon="121.04640112606276"><ele>37.333333333333336</ele><time>2026-05-03T06:03:52Z</time></trkpt><trkpt lat="14.487419826504215" lon="121.04631193017998"><ele>37.0</ele><time>2026-05-03T06:03:53Z</time></trkpt><trkpt lat="14.487386993680767" lon="121.04621991253136"><ele>37.0</ele><time>2026-05-03T06:03:54Z</time></trkpt><trkpt lat="14.48735295748208" lon="121.04612452305918"><ele>37.0</ele><time>2026-05-03T06:03:55Z</time></trkpt><trkpt lat="14.487301197552068" lon="121.0460404512305"><ele>37.0</ele><time>2026-05-03T06:03:56Z</time></trkpt><trkpt lat="14.48727230466059" lon="121.0459538722887"><ele>37.0</ele><time>2026-05-03T06:03:57Z</time></trkpt><trkpt lat="14.487239167454197" lon="121.04587283756774"><ele>37.0</ele><time>2026-05-03T06:03:58Z</time></trkpt><trkpt lat="14.487210773979115" lon="121.04579692116056"><ele>37.0</ele><time>2026-05-03T06:03:59Z</time></trkpt><trkpt lat="14.487170848066002" lon="121.04568770452931"><ele>36.6</ele><time>2026-05-03T06:04:01Z</time></trkpt><trkpt lat="14.487139293781583" lon="121.04558156697658"><ele>36.2</ele><time>2026-05-03T06:04:03Z</time></trkpt><trkpt lat="14.487114043741878" lon="121.0455167825237"><ele>35.8</ele><time>2026-05-03T06:04:05Z</time></trkpt><trkpt lat="14.486986144144051" lon="121.04553174112517"><ele>35.4</ele><time>2026-05-03T06:04:06Z</time></trkpt><trkpt lat="14.48691484117551" lon="121.0455424860767"><ele>35.0</ele><time>2026-05-03T06:04:08Z</time></trkpt><trkpt lat="14.486836719066043" lon="121.04552459826678"><ele>34.83333333333333</ele><time>2026-05-03T06:04:10Z</time></trkpt><trkpt lat="14.48677297627168" lon="121.04552261981225"><ele>34.666666666666664</ele><time>2026-05-03T06:04:11Z</time></trkpt><trkpt lat="14.486700385180646" lon="121.04552098766197"><ele>34.5</ele><time>2026-05-03T06:04:12Z</time></trkpt><trkpt lat="14.486572687604108" lon="121.04551598003734"><ele>34.333333333333336</ele><time>2026-05-03T06:04:14Z</time></trkpt><trkpt lat="14.486462885834188" lon="121.04550582082982"><ele>34.16666666666667</ele><time>2026-05-03T06:04:16Z</time></trkpt><trkpt lat="14.48638883263068" lon="121.04549809593834"><ele>34.0</ele><time>2026-05-03T06:04:17Z</time></trkpt><trkpt lat="14.486303186969112" lon="121.04548916177167"><ele>34.2</ele><time>2026-05-03T06:04:18Z</time></trkpt><trkpt lat="14.486216996771253" lon="121.04548017080269"><ele>34.4</ele><time>2026-05-03T06:04:19Z</time></trkpt><trkpt lat="14.486124340443288" lon="121.04546796254306"><ele>34.6</ele><time>2026-05-03T06:04:20Z</time></trkpt><trkpt lat="14.4860230819816" lon="121.04545429367053"><ele>34.8</ele><time>2026-05-03T06:04:21Z</time></trkpt><trkpt lat="14.485910684676849" lon="121.04543912116289"><ele>35.0</ele><time>2026-05-03T06:04:22Z</time></trkpt><trkpt lat="14.485796499955557" lon="121.04542370737504"><ele>35.0</ele><time>2026-05-03T06:04:23Z</time></trkpt><trkpt lat="14.485677876533758" lon="121.04541042494898"><ele>35.0</ele><time>2026-05-03T06:04:24Z</time></trkpt><trkpt lat="14.485565517693098" lon="121.04539897011685"><ele>35.0</ele><time>2026-05-03T06:04:25Z</time></trkpt><trkpt lat="14.485471043871321" lon="121.04538933863576"><ele>35.0</ele><time>2026-05-03T06:04:26Z</time></trkpt><trkpt lat="14.485369087929671" lon="121.0453789443603"><ele>35.0</ele><time>2026-05-03T06:04:27Z</time></trkpt><trkpt lat="14.485275052515506" lon="121.0453696905903"><ele>34.0</ele><time>2026-05-03T06:04:28Z</time></trkpt><trkpt lat="14.48518393862731" lon="121.04535677214884"><ele>33.0</ele><time>2026-05-03T06:04:29Z</time></trkpt><trkpt lat="14.485089093931151" lon="121.04534370249385"><ele>32.0</ele><time>2026-05-03T06:04:30Z</time></trkpt><trkpt lat="14.48499208601743" lon="121.04533033474476"><ele>31.0</ele><time>2026-05-03T06:04:31Z</time></trkpt><trkpt lat="14.484888653520663" lon="121.04531791378518"><ele>30.0</ele><time>2026-05-03T06:04:32Z</time></trkpt><trkpt lat="14.48478673960924" lon="121.04531137385617"><ele>30.0</ele><time>2026-05-03T06:04:33Z</time></trkpt><trkpt lat="14.484685940180995" lon="121.04530474659695"><ele>30.0</ele><time>2026-05-03T06:04:34Z</time></trkpt><trkpt lat="14.484580395621359" lon="121.04529755491666"><ele>30.0</ele><time>2026-05-03T06:04:35Z</time></trkpt><trkpt lat="14.484470002798245" lon="121.04529706837397"><ele>30.0</ele><time>2026-05-03T06:04:36Z</time></trkpt><trkpt lat="14.484369527341306" lon="121.04529751603033"><ele>30.0</ele><time>2026-05-03T06:04:37Z</time></trkpt><trkpt lat="14.48426605088207" lon="121.04529797705852"><ele>30.166666666666668</ele><time>2026-05-03T06:04:38Z</time></trkpt><trkpt lat="14.484184996279348" lon="121.04529833818685"><ele>30.333333333333336</ele><time>2026-05-03T06:04:39Z</time></trkpt><trkpt lat="14.484095515184121" lon="121.04529873685946"><ele>30.5</ele><time>2026-05-03T06:04:40Z</time></trkpt><trkpt lat="14.484012579619803" lon="121.04529910636897"><ele>30.666666666666668</ele><time>2026-05-03T06:04:41Z</time></trkpt><trkpt lat="14.4839266009378" lon="121.04529948943704"><ele>30.833333333333336</ele><time>2026-05-03T06:04:42Z</time></trkpt><trkpt lat="14.483834022666436" lon="121.04529990190869"><ele>31.0</ele><time>2026-05-03T06:04:43Z</time></trkpt><trkpt lat="14.483744218756065" lon="121.04530030201967"><ele>31.200000000000003</ele><time>2026-05-03T06:04:44Z</time></trkpt><trkpt lat="14.483649992826887" lon="121.04530072183206"><ele>31.400000000000002</ele><time>2026-05-03T06:04:45Z</time></trkpt><trkpt lat="14.483557258978152" lon="121.04530113499688"><ele>31.6</ele><time>2026-05-03T06:04:46Z</time></trkpt><trkpt lat="14.483460473926895" lon="121.04530156621082"><ele>31.8</ele><time>2026-05-03T06:04:47Z</time></trkpt><trkpt lat="14.483358057561505" lon="121.04530202251448"><ele>32.0</ele><time>2026-05-03T06:04:48Z</time></trkpt><trkpt lat="14.483256051960188" lon="121.04530247698813"><ele>32.0</ele><time>2026-05-03T06:04:49Z</time></trkpt><trkpt lat="14.483153746045803" lon="121.04530293279917"><ele>32.0</ele><time>2026-05-03T06:04:50Z</time></trkpt><trkpt lat="14.483053752210648" lon="121.04530337831038"><ele>32.0</ele><time>2026-05-03T06:04:51Z</time></trkpt><trkpt lat="14.482960335872997" lon="121.04530489680806"><ele>32.0</ele><time>2026-05-03T06:04:52Z</time></trkpt><trkpt lat="14.482868915727858" lon="121.04530552363302"><ele>32.0</ele><time>2026-05-03T06:04:53Z</time></trkpt><trkpt lat="14.48277381582241" lon="121.04530617569574"><ele>32.2</ele><time>2026-05-03T06:04:54Z</time></trkpt><trkpt lat="14.482690096753014" lon="121.04530603905172"><ele>32.400000000000006</ele><time>2026-05-03T06:04:55Z</time></trkpt><trkpt lat="14.482593663001207" lon="121.04530680725449"><ele>32.599999999999994</ele><time>2026-05-03T06:04:56Z</time></trkpt><trkpt lat="14.482496791061406" lon="121.04530739716603"><ele>32.8</ele><time>2026-05-03T06:04:57Z</time></trkpt><trkpt lat="14.482413505408262" lon="121.04530766903652"><ele>33.0</ele><time>2026-05-03T06:04:58Z</time></trkpt><trkpt lat="14.482322241382846" lon="121.04530794341972"><ele>33.0</ele><time>2026-05-03T06:04:59Z</time></trkpt><trkpt lat="14.482233209933236" lon="121.0453082110906"><ele>33.0</ele><time>2026-05-03T06:05:00Z</time></trkpt><trkpt lat="14.482145902492809" lon="121.04530847357888"><ele>33.0</ele><time>2026-05-03T06:05:01Z</time></trkpt><trkpt lat="14.482060407679889" lon="121.04530873061712"><ele>33.0</ele><time>2026-05-03T06:05:02Z</time></trkpt><trkpt lat="14.481985336790196" lon="121.04531033903207"><ele>33.0</ele><time>2026-05-03T06:05:03Z</time></trkpt><trkpt lat="14.481918354015013" lon="121.04531105800199"><ele>33.0</ele><time>2026-05-03T06:05:04Z</time></trkpt><trkpt lat="14.481816241491094" lon="121.04531234934487"><ele>33.0</ele><time>2026-05-03T06:05:06Z</time></trkpt><trkpt lat="14.481734827413984" lon="121.04531337892982"><ele>33.0</ele><time>2026-05-03T06:05:09.001Z</time></trkpt><trkpt lat="14.481641770951319" lon="121.04531455574643"><ele>33.0</ele><time>2026-05-03T06:05:12.001Z</time></trkpt><trkpt lat="14.48153703123246" lon="121.04531588031435"><ele>33.0</ele><time>2026-05-03T06:05:14.001Z</time></trkpt><trkpt lat="14.481461328014406" lon="121.04531683767839"><ele>33.0</ele><time>2026-05-03T06:05:16.001Z</time></trkpt><trkpt lat="14.481378266332987" lon="121.04531851931138"><ele>33.0</ele><time>2026-05-03T06:05:19.001Z</time></trkpt><trkpt lat="14.481301504791382" lon="121.0453200244396"><ele>32.8</ele><time>2026-05-03T06:05:21.001Z</time></trkpt><trkpt lat="14.481160533095903" lon="121.04532295514483"><ele>32.599999999999994</ele><time>2026-05-03T06:05:23.001Z</time></trkpt><trkpt lat="14.481063078233213" lon="121.04532502959222"><ele>32.400000000000006</ele><time>2026-05-03T06:05:24.001Z</time></trkpt><trkpt lat="14.480956180546267" lon="121.04532730504127"><ele>32.2</ele><time>2026-05-03T06:05:25.001Z</time></trkpt><trkpt lat="14.480859425923692" lon="121.04532936458209"><ele>32.0</ele><time>2026-05-03T06:05:26.001Z</time></trkpt><trkpt lat="14.480760473450331" lon="121.04533053867709"><ele>32.0</ele><time>2026-05-03T06:05:27.001Z</time></trkpt><trkpt lat="14.480677053029515" lon="121.04533096919047"><ele>32.0</ele><time>2026-05-03T06:05:28.001Z</time></trkpt><trkpt lat="14.480593629970166" lon="121.04533139971822"><ele>32.0</ele><time>2026-05-03T06:05:29.001Z</time></trkpt><trkpt lat="14.480505471108723" lon="121.04532883372434"><ele>32.0</ele><time>2026-05-03T06:05:30.001Z</time></trkpt><trkpt lat="14.480406828638174" lon="121.04532779188168"><ele>32.0</ele><time>2026-05-03T06:05:31.001Z</time></trkpt><trkpt lat="14.480291456923112" lon="121.0453282149652"><ele>32.2</ele><time>2026-05-03T06:05:32.001Z</time></trkpt><trkpt lat="14.4801754100033" lon="121.0453286405254"><ele>32.400000000000006</ele><time>2026-05-03T06:05:33.001Z</time></trkpt><trkpt lat="14.480065150594582" lon="121.04532904486916"><ele>32.599999999999994</ele><time>2026-05-03T06:05:34.001Z</time></trkpt><trkpt lat="14.479953449774742" lon="121.04532560814478"><ele>32.8</ele><time>2026-05-03T06:05:35.001Z</time></trkpt><trkpt lat="14.479852343026998" lon="121.04532300347613"><ele>33.0</ele><time>2026-05-03T06:05:36.001Z</time></trkpt><trkpt lat="14.479757311474177" lon="121.04532124112268"><ele>33.0</ele><time>2026-05-03T06:05:37.001Z</time></trkpt><trkpt lat="14.479662200077032" lon="121.04532121541025"><ele>33.0</ele><time>2026-05-03T06:05:38.001Z</time></trkpt><trkpt lat="14.479578926365651" lon="121.04532164279337"><ele>33.0</ele><time>2026-05-03T06:05:39.001Z</time></trkpt><trkpt lat="14.479486961790194" lon="121.04537754385258"><ele>33.0</ele><time>2026-05-03T06:05:40.001Z</time></trkpt><trkpt lat="14.479409736817676" lon="121.04536799498885"><ele>33.0</ele><time>2026-05-03T06:05:41.001Z</time></trkpt><trkpt lat="14.479310974315514" lon="121.04536958129444"><ele>33.333333333333336</ele><time>2026-05-03T06:05:42.001Z</time></trkpt><trkpt lat="14.479237367737076" lon="121.04537316887738"><ele>33.666666666666664</ele><time>2026-05-03T06:05:43.001Z</time></trkpt><trkpt lat="14.479155611982113" lon="121.04537312023344"><ele>34.0</ele><time>2026-05-03T06:05:44.001Z</time></trkpt><trkpt lat="14.479074481128402" lon="121.04537258962117"><ele>34.33333333333333</ele><time>2026-05-03T06:05:45.001Z</time></trkpt><trkpt lat="14.47898621491112" lon="121.04537272704086"><ele>34.666666666666664</ele><time>2026-05-03T06:05:46.001Z</time></trkpt><trkpt lat="14.478897443435706" lon="121.0453734799697"><ele>35.0</ele><time>2026-05-03T06:05:47.001Z</time></trkpt><trkpt lat="14.478807048472838" lon="121.04537219322752"><ele>35.0</ele><time>2026-05-03T06:05:48.001Z</time></trkpt><trkpt lat="14.478714337944252" lon="121.04537110563295"><ele>35.0</ele><time>2026-05-03T06:05:49.001Z</time></trkpt><trkpt lat="14.478620191822861" lon="121.04532083943495"><ele>35.0</ele><time>2026-05-03T06:05:50Z</time></trkpt><trkpt lat="14.478526334528139" lon="121.0453211421961"><ele>35.0</ele><time>2026-05-03T06:05:51Z</time></trkpt><trkpt lat="14.47843603013426" lon="121.04532135689198"><ele>35.0</ele><time>2026-05-03T06:05:52Z</time></trkpt><trkpt lat="14.478352700910532" lon="121.04532155500432"><ele>35.0</ele><time>2026-05-03T06:05:53Z</time></trkpt><trkpt lat="14.478270427037113" lon="121.04532175060777"><ele>35.0</ele><time>2026-05-03T06:05:54Z</time></trkpt><trkpt lat="14.478198287706277" lon="121.04532192211599"><ele>35.0</ele><time>2026-05-03T06:05:55Z</time></trkpt><trkpt lat="14.47811792623772" lon="121.04532211317306"><ele>35.0</ele><time>2026-05-03T06:05:56Z</time></trkpt><trkpt lat="14.478034522152932" lon="121.04532351249486"><ele>35.0</ele><time>2026-05-03T06:05:57Z</time></trkpt><trkpt lat="14.477960176465132" lon="121.04532492591028"><ele>35.0</ele><time>2026-05-03T06:05:58Z</time></trkpt><trkpt lat="14.477884863793719" lon="121.04532635771099"><ele>34.714285714285715</ele><time>2026-05-03T06:05:59Z</time></trkpt><trkpt lat="14.477809069981143" lon="121.04532761007196"><ele>34.42857142857143</ele><time>2026-05-03T06:06:00Z</time></trkpt><trkpt lat="14.477734932637784" lon="121.04532811699585"><ele>34.14285714285714</ele><time>2026-05-03T06:06:01Z</time></trkpt><trkpt lat="14.477671519935484" lon="121.04532858379483"><ele>33.85714285714286</ele><time>2026-05-03T06:06:02Z</time></trkpt><trkpt lat="14.477601307175929" lon="121.04532896314309"><ele>33.57142857142857</ele><time>2026-05-03T06:06:03Z</time></trkpt><trkpt lat="14.477527577713348" lon="121.04532921952902"><ele>33.285714285714285</ele><time>2026-05-03T06:06:04Z</time></trkpt><trkpt lat="14.477452229346197" lon="121.04532948154475"><ele>33.0</ele><time>2026-05-03T06:06:05Z</time></trkpt><trkpt lat="14.47737074549733" lon="121.04532976489719"><ele>33.0</ele><time>2026-05-03T06:06:06Z</time></trkpt><trkpt lat="14.477289637615131" lon="121.0453300469423"><ele>33.0</ele><time>2026-05-03T06:06:07Z</time></trkpt><trkpt lat="14.477209818368605" lon="121.04533023981983"><ele>33.0</ele><time>2026-05-03T06:06:08Z</time></trkpt><trkpt lat="14.477132658747346" lon="121.04533023982064"><ele>33.0</ele><time>2026-05-03T06:06:09Z</time></trkpt><trkpt lat="14.477057325286482" lon="121.04533023982128"><ele>33.0</ele><time>2026-05-03T06:06:10Z</time></trkpt><trkpt lat="14.476983231767358" lon="121.04533023982144"><ele>33.0</ele><time>2026-05-03T06:06:11Z</time></trkpt><trkpt lat="14.476908941549961" lon="121.04533023982202"><ele>33.5</ele><time>2026-05-03T06:06:12Z</time></trkpt><trkpt lat="14.47683445014387" lon="121.04533082893605"><ele>34.0</ele><time>2026-05-03T06:06:13Z</time></trkpt><trkpt lat="14.476758964022656" lon="121.0453311940097"><ele>34.5</ele><time>2026-05-03T06:06:14Z</time></trkpt><trkpt lat="14.476679680960066" lon="121.04537716554648"><ele>35.0</ele><time>2026-05-03T06:06:15Z</time></trkpt><trkpt lat="14.47660792221895" lon="121.04537732839883"><ele>35.5</ele><time>2026-05-03T06:06:16Z</time></trkpt><trkpt lat="14.47652768104831" lon="121.04538051789375"><ele>36.0</ele><time>2026-05-03T06:06:17Z</time></trkpt><trkpt lat="14.476439412510178" lon="121.04538076370251"><ele>36.0</ele><time>2026-05-03T06:06:18Z</time></trkpt><trkpt lat="14.476335442570061" lon="121.0453350491869"><ele>36.0</ele><time>2026-05-03T06:06:19Z</time></trkpt><trkpt lat="14.476223586257122" lon="121.04533616444684"><ele>36.0</ele><time>2026-05-03T06:06:20Z</time></trkpt><trkpt lat="14.476099759919224" lon="121.0453373127102"><ele>36.0</ele><time>2026-05-03T06:06:21Z</time></trkpt><trkpt lat="14.475968198981455" lon="121.04533837745444"><ele>36.25</ele><time>2026-05-03T06:06:22Z</time></trkpt><trkpt lat="14.475843614810183" lon="121.0453393857397"><ele>36.5</ele><time>2026-05-03T06:06:23Z</time></trkpt><trkpt lat="14.475712123586215" lon="121.04534044992307"><ele>36.75</ele><time>2026-05-03T06:06:24Z</time></trkpt><trkpt lat="14.475590039704203" lon="121.04534143797076"><ele>37.0</ele><time>2026-05-03T06:06:25Z</time></trkpt><trkpt lat="14.475486938366599" lon="121.04534227238923"><ele>36.85714285714286</ele><time>2026-05-03T06:06:26Z</time></trkpt><trkpt lat="14.47540121487194" lon="121.04534296616485"><ele>36.714285714285715</ele><time>2026-05-03T06:06:27Z</time></trkpt><trkpt lat="14.475320554926059" lon="121.04534361896208"><ele>36.57142857142857</ele><time>2026-05-03T06:06:28Z</time></trkpt><trkpt lat="14.475250146239548" lon="121.04534418879243"><ele>36.42857142857143</ele><time>2026-05-03T06:06:29Z</time></trkpt><trkpt lat="14.47517855374215" lon="121.04534476820456"><ele>36.285714285714285</ele><time>2026-05-03T06:06:30Z</time></trkpt><trkpt lat="14.475114342691791" lon="121.0453452878763"><ele>36.142857142857146</ele><time>2026-05-03T06:06:31Z</time></trkpt><trkpt lat="14.475046722139075" lon="121.04534583514257"><ele>36.0</ele><time>2026-05-03T06:06:32Z</time></trkpt><trkpt lat="14.474976911113792" lon="121.04534640013622"><ele>36.00000000000001</ele><time>2026-05-03T06:06:33Z</time></trkpt><trkpt lat="14.474900431756298" lon="121.04534701909903"><ele>36.0</ele><time>2026-05-03T06:06:34Z</time></trkpt><trkpt lat="14.474835784037168" lon="121.04534754230569"><ele>36.0</ele><time>2026-05-03T06:06:35Z</time></trkpt><trkpt lat="14.474760791214566" lon="121.04534814924106"><ele>36.0</ele><time>2026-05-03T06:06:36Z</time></trkpt><trkpt lat="14.474688001386157" lon="121.0453486539606"><ele>36.0</ele><time>2026-05-03T06:06:37Z</time></trkpt><trkpt lat="14.474613093694218" lon="121.04534921362247"><ele>36.00000000000001</ele><time>2026-05-03T06:06:38Z</time></trkpt><trkpt lat="14.474547003278575" lon="121.04534763982801"><ele>36.0</ele><time>2026-05-03T06:06:39Z</time></trkpt><trkpt lat="14.474468887148182" lon="121.04534763982942"><ele>35.833333333333336</ele><time>2026-05-03T06:06:40Z</time></trkpt><trkpt lat="14.474388986071435" lon="121.04534763982906"><ele>35.666666666666664</ele><time>2026-05-03T06:06:41Z</time></trkpt><trkpt lat="14.474317653629132" lon="121.04534763982885"><ele>35.5</ele><time>2026-05-03T06:06:42Z</time></trkpt><trkpt lat="14.47424126147187" lon="121.0453476398288"><ele>35.33333333333333</ele><time>2026-05-03T06:06:43Z</time></trkpt><trkpt lat="14.47415966640753" lon="121.04534763982853"><ele>35.166666666666664</ele><time>2026-05-03T06:06:44Z</time></trkpt><trkpt lat="14.474055393699787" lon="121.04534763982764"><ele>35.0</ele><time>2026-05-03T06:06:45Z</time></trkpt><trkpt lat="14.473940619508856" lon="121.0453476398279"><ele>35.0</ele><time>2026-05-03T06:06:46Z</time></trkpt><trkpt lat="14.473831392918092" lon="121.04534810261814"><ele>35.0</ele><time>2026-05-03T06:06:47Z</time></trkpt><trkpt lat="14.473721212600777" lon="121.04534848693348"><ele>35.0</ele><time>2026-05-03T06:06:48Z</time></trkpt><trkpt lat="14.473604323535476" lon="121.045348894649"><ele>35.0</ele><time>2026-05-03T06:06:49Z</time></trkpt><trkpt lat="14.473470955123407" lon="121.04534893982472"><ele>34.25</ele><time>2026-05-03T06:06:50Z</time></trkpt><trkpt lat="14.473331396161548" lon="121.04534893982307"><ele>33.5</ele><time>2026-05-03T06:06:51Z</time></trkpt><trkpt lat="14.47318216291747" lon="121.04534893982228"><ele>32.75</ele><time>2026-05-03T06:06:52Z</time></trkpt><trkpt lat="14.473023291049026" lon="121.04534893982104"><ele>32.0</ele><time>2026-05-03T06:06:53.001Z</time></trkpt><trkpt lat="14.472863842230673" lon="121.04534893982023"><ele>31.0</ele><time>2026-05-03T06:06:54.001Z</time></trkpt><trkpt lat="14.47269087292899" lon="121.04534894020141"><ele>30.0</ele><time>2026-05-03T06:06:55.001Z</time></trkpt><trkpt lat="14.472521244994741" lon="121.04534749834707"><ele>29.0</ele><time>2026-05-03T06:06:56.001Z</time></trkpt><trkpt lat="14.472348719814404" lon="121.04534639132429"><ele>29.0</ele><time>2026-05-03T06:06:57.001Z</time></trkpt><trkpt lat="14.472173106787848" lon="121.04534785779566"><ele>29.0</ele><time>2026-05-03T06:06:58.001Z</time></trkpt><trkpt lat="14.471993801526104" lon="121.0454020601806"><ele>29.0</ele><time>2026-05-03T06:06:59.001Z</time></trkpt><trkpt lat="14.471827443017027" lon="121.04539929330979"><ele>29.333333333333332</ele><time>2026-05-03T06:07:00.001Z</time></trkpt><trkpt lat="14.471659725387562" lon="121.04539711049951"><ele>29.666666666666664</ele><time>2026-05-03T06:07:01.001Z</time></trkpt><trkpt lat="14.47149972597823" lon="121.045397578728"><ele>30.0</ele><time>2026-05-03T06:07:02.001Z</time></trkpt><trkpt lat="14.471343594563338" lon="121.04535468432897"><ele>30.333333333333336</ele><time>2026-05-03T06:07:03.001Z</time></trkpt><trkpt lat="14.471192600085011" lon="121.04535500262222"><ele>30.666666666666668</ele><time>2026-05-03T06:07:04.001Z</time></trkpt><trkpt lat="14.471044590606938" lon="121.04535592281948"><ele>31.0</ele><time>2026-05-03T06:07:05.001Z</time></trkpt><trkpt lat="14.470886415313101" lon="121.04535564019292"><ele>31.0</ele><time>2026-05-03T06:07:06.001Z</time></trkpt><trkpt lat="14.470724707493579" lon="121.04535564019375"><ele>31.0</ele><time>2026-05-03T06:07:07.001Z</time></trkpt><trkpt lat="14.470564027332136" lon="121.04535564019424"><ele>31.0</ele><time>2026-05-03T06:07:08.001Z</time></trkpt><trkpt lat="14.470397821823983" lon="121.04536017364771"><ele>31.0</ele><time>2026-05-03T06:07:09.001Z</time></trkpt><trkpt lat="14.470239897251913" lon="121.04536206018841"><ele>31.0</ele><time>2026-05-03T06:07:10.001Z</time></trkpt><trkpt lat="14.470075982862443" lon="121.04536133441026"><ele>31.0</ele><time>2026-05-03T06:07:11.001Z</time></trkpt><trkpt lat="14.469907644557022" lon="121.04536104019843"><ele>31.0</ele><time>2026-05-03T06:07:12.001Z</time></trkpt><trkpt lat="14.469751197619864" lon="121.04536104019962"><ele>31.0</ele><time>2026-05-03T06:07:13.001Z</time></trkpt><trkpt lat="14.46960091938499" lon="121.04536104020033"><ele>31.0</ele><time>2026-05-03T06:07:14.001Z</time></trkpt><trkpt lat="14.469450476419128" lon="121.04536104019988"><ele>31.333333333333336</ele><time>2026-05-03T06:07:15.001Z</time></trkpt><trkpt lat="14.469298475175487" lon="121.04536307809235"><ele>31.666666666666664</ele><time>2026-05-03T06:07:16.001Z</time></trkpt><trkpt lat="14.46914375568442" lon="121.04536495348087"><ele>32.0</ele><time>2026-05-03T06:07:17.001Z</time></trkpt><trkpt lat="14.468990234552676" lon="121.0453668143478"><ele>32.0</ele><time>2026-05-03T06:07:18.001Z</time></trkpt><trkpt lat="14.468837819624476" lon="121.04536740124469"><ele>32.0</ele><time>2026-05-03T06:07:19.001Z</time></trkpt><trkpt lat="14.468680871280263" lon="121.04536786976932"><ele>32.0</ele><time>2026-05-03T06:07:20.001Z</time></trkpt><trkpt lat="14.468522601569576" lon="121.04536809190229"><ele>32.33333333333333</ele><time>2026-05-03T06:07:21.001Z</time></trkpt><trkpt lat="14.46836577358459" lon="121.04536831201216"><ele>32.666666666666664</ele><time>2026-05-03T06:07:22.001Z</time></trkpt><trkpt lat="14.468215771705184" lon="121.04536852289903"><ele>33.0</ele><time>2026-05-03T06:07:23.001Z</time></trkpt><trkpt lat="14.468068762229725" lon="121.04536872922833"><ele>33.75</ele><time>2026-05-03T06:07:24.001Z</time></trkpt><trkpt lat="14.46793071973013" lon="121.04536892297263"><ele>34.5</ele><time>2026-05-03T06:07:25.001Z</time></trkpt><trkpt lat="14.467795621778322" lon="121.0453691125846"><ele>35.25</ele><time>2026-05-03T06:07:26.001Z</time></trkpt><trkpt lat="14.467668708871171" lon="121.04540307134859"><ele>36.0</ele><time>2026-05-03T06:07:27.001Z</time></trkpt><trkpt lat="14.467540718882429" lon="121.04540587935968"><ele>36.0</ele><time>2026-05-03T06:07:28.001Z</time></trkpt><trkpt lat="14.46741595734377" lon="121.04540555389912"><ele>36.0</ele><time>2026-05-03T06:07:29.001Z</time></trkpt><trkpt lat="14.467286549169597" lon="121.04540803378713"><ele>36.0</ele><time>2026-05-03T06:07:30.001Z</time></trkpt><trkpt lat="14.467164589884986" lon="121.04537095603864"><ele>36.0</ele><time>2026-05-03T06:07:31.001Z</time></trkpt><trkpt lat="14.467040200896204" lon="121.0453716013131"><ele>36.5</ele><time>2026-05-03T06:07:32.001Z</time></trkpt><trkpt lat="14.466910589089732" lon="121.04537174056384"><ele>37.0</ele><time>2026-05-03T06:07:33.001Z</time></trkpt><trkpt lat="14.466767634163295" lon="121.045371740565"><ele>37.5</ele><time>2026-05-03T06:07:34.001Z</time></trkpt><trkpt lat="14.46662696651045" lon="121.04537174056613"><ele>38.0</ele><time>2026-05-03T06:07:35.001Z</time></trkpt><trkpt lat="14.466506447612804" lon="121.04537233941382"><ele>38.0</ele><time>2026-05-03T06:07:36.001Z</time></trkpt><trkpt lat="14.466419532773372" lon="121.04537291774466"><ele>38.0</ele><time>2026-05-03T06:07:37.001Z</time></trkpt><trkpt lat="14.466344303581288" lon="121.0453731405668"><ele>38.0</ele><time>2026-05-03T06:07:38.001Z</time></trkpt><trkpt lat="14.466261655124253" lon="121.04537314056748"><ele>38.0</ele><time>2026-05-03T06:07:39.001Z</time></trkpt><trkpt lat="14.466175635815128" lon="121.04541736565044"><ele>38.0</ele><time>2026-05-03T06:07:40.001Z</time></trkpt><trkpt lat="14.466075921014703" lon="121.04541584603842"><ele>38.0</ele><time>2026-05-03T06:07:41.001Z</time></trkpt><trkpt lat="14.46596452604236" lon="121.04541745359343"><ele>38.0</ele><time>2026-05-03T06:07:42.001Z</time></trkpt><trkpt lat="14.465839979288694" lon="121.0454200769265"><ele>38.0</ele><time>2026-05-03T06:07:43.001Z</time></trkpt><trkpt lat="14.46571479371815" lon="121.04538075608234"><ele>38.0</ele><time>2026-05-03T06:07:44.001Z</time></trkpt><trkpt lat="14.465578564161484" lon="121.04538291372003"><ele>38.0</ele><time>2026-05-03T06:07:45.001Z</time></trkpt><trkpt lat="14.465442927285428" lon="121.0453850619707"><ele>38.0</ele><time>2026-05-03T06:07:46.001Z</time></trkpt><trkpt lat="14.465291134465073" lon="121.04538761784742"><ele>38.0</ele><time>2026-05-03T06:07:47.001Z</time></trkpt><trkpt lat="14.465144355540485" lon="121.04539032469742"><ele>38.0</ele><time>2026-05-03T06:07:48.001Z</time></trkpt><trkpt lat="14.464992459449869" lon="121.04539151376471"><ele>38.0</ele><time>2026-05-03T06:07:49.001Z</time></trkpt><trkpt lat="14.464835261833997" lon="121.04539260429327"><ele>38.0</ele><time>2026-05-03T06:07:50.001Z</time></trkpt><trkpt lat="14.464671855764603" lon="121.04539373789035"><ele>38.0</ele><time>2026-05-03T06:07:51.001Z</time></trkpt><trkpt lat="14.464507946272736" lon="121.04539487498066"><ele>38.0</ele><time>2026-05-03T06:07:52.001Z</time></trkpt><trkpt lat="14.464340744451805" lon="121.0453960349104"><ele>38.0</ele><time>2026-05-03T06:07:53.001Z</time></trkpt><trkpt lat="14.464171595762698" lon="121.04539720834737"><ele>38.0</ele><time>2026-05-03T06:07:54.001Z</time></trkpt><trkpt lat="14.464009449456386" lon="121.04539833320497"><ele>38.0</ele><time>2026-05-03T06:07:55.001Z</time></trkpt><trkpt lat="14.463839203860838" lon="121.04539950912078"><ele>38.0</ele><time>2026-05-03T06:07:56Z</time></trkpt><trkpt lat="14.46367373609853" lon="121.04540065027737"><ele>38.0</ele><time>2026-05-03T06:07:57Z</time></trkpt><trkpt lat="14.4635045169767" lon="121.04540181766605"><ele>37.33333333333333</ele><time>2026-05-03T06:07:58Z</time></trkpt><trkpt lat="14.463335519385442" lon="121.04540298294638"><ele>36.666666666666664</ele><time>2026-05-03T06:07:59Z</time></trkpt><trkpt lat="14.46316646202647" lon="121.04540414885932"><ele>36.0</ele><time>2026-05-03T06:08:00Z</time></trkpt><trkpt lat="14.462994387597867" lon="121.04540533557855"><ele>36.333333333333336</ele><time>2026-05-03T06:08:01Z</time></trkpt><trkpt lat="14.462822606350242" lon="121.04540463648058"><ele>36.66666666666667</ele><time>2026-05-03T06:08:02Z</time></trkpt><trkpt lat="14.462648376746136" lon="121.04540392531104"><ele>37.0</ele><time>2026-05-03T06:08:03Z</time></trkpt><trkpt lat="14.462468091543071" lon="121.04540338607418"><ele>37.0</ele><time>2026-05-03T06:08:04Z</time></trkpt><trkpt lat="14.46229820133049" lon="121.04540287792797"><ele>37.0</ele><time>2026-05-03T06:08:05Z</time></trkpt><trkpt lat="14.46212773890232" lon="121.04540236807065"><ele>37.0</ele><time>2026-05-03T06:08:06Z</time></trkpt><trkpt lat="14.461956904084888" lon="121.04540185709959"><ele>37.333333333333336</ele><time>2026-05-03T06:08:07Z</time></trkpt><trkpt lat="14.461785723021226" lon="121.0454013450928"><ele>37.666666666666664</ele><time>2026-05-03T06:08:08Z</time></trkpt><trkpt lat="14.461619370087618" lon="121.04540185387191"><ele>38.0</ele><time>2026-05-03T06:08:09Z</time></trkpt><trkpt lat="14.461468730858593" lon="121.0454025568553"><ele>38.0</ele><time>2026-05-03T06:08:10Z</time></trkpt><trkpt lat="14.46133039709404" lon="121.0454032148807"><ele>38.0</ele><time>2026-05-03T06:08:11Z</time></trkpt><trkpt lat="14.461193047116554" lon="121.04540386964851"><ele>38.0</ele><time>2026-05-03T06:08:12Z</time></trkpt><trkpt lat="14.461062147623299" lon="121.0454046243795"><ele>38.0</ele><time>2026-05-03T06:08:13Z</time></trkpt><trkpt lat="14.46092442225936" lon="121.04540543631066"><ele>38.5</ele><time>2026-05-03T06:08:14Z</time></trkpt><trkpt lat="14.460784831676852" lon="121.04540625923886"><ele>39.0</ele><time>2026-05-03T06:08:15Z</time></trkpt><trkpt lat="14.460635904481178" lon="121.04540713720917"><ele>39.5</ele><time>2026-05-03T06:08:16Z</time></trkpt><trkpt lat="14.460481727241723" lon="121.04540804612925"><ele>40.0</ele><time>2026-05-03T06:08:17Z</time></trkpt><trkpt lat="14.460317518180938" lon="121.04540901418991"><ele>40.66666666666667</ele><time>2026-05-03T06:08:18Z</time></trkpt><trkpt lat="14.460149354232747" lon="121.04541000556537"><ele>41.333333333333336</ele><time>2026-05-03T06:08:19Z</time></trkpt><trkpt lat="14.45998033831279" lon="121.04541255494982"><ele>42.0</ele><time>2026-05-03T06:08:20Z</time></trkpt><trkpt lat="14.459807855215914" lon="121.04541796600994"><ele>42.0</ele><time>2026-05-03T06:08:21Z</time></trkpt><trkpt lat="14.459634405571407" lon="121.04542337639904"><ele>42.0</ele><time>2026-05-03T06:08:22Z</time></trkpt><trkpt lat="14.459456586269868" lon="121.04542857127029"><ele>42.0</ele><time>2026-05-03T06:08:23Z</time></trkpt><trkpt lat="14.4592724262404" lon="121.04543376688001"><ele>42.0</ele><time>2026-05-03T06:08:24Z</time></trkpt><trkpt lat="14.459090314721175" lon="121.04545074929197"><ele>42.0</ele><time>2026-05-03T06:08:25Z</time></trkpt><trkpt lat="14.458909434313851" lon="121.04545389670595"><ele>42.0</ele><time>2026-05-03T06:08:26Z</time></trkpt><trkpt lat="14.458732602682158" lon="121.04545423141667"><ele>41.666666666666664</ele><time>2026-05-03T06:08:27Z</time></trkpt><trkpt lat="14.458564386470158" lon="121.04543689797467"><ele>41.33333333333333</ele><time>2026-05-03T06:08:28Z</time></trkpt><trkpt lat="14.458395879372786" lon="121.0454348410923"><ele>41.0</ele><time>2026-05-03T06:08:29Z</time></trkpt><trkpt lat="14.45823411282908" lon="121.04543321171478"><ele>41.0</ele><time>2026-05-03T06:08:30Z</time></trkpt><trkpt lat="14.45807562017939" lon="121.04543178254256"><ele>41.0</ele><time>2026-05-03T06:08:31Z</time></trkpt><trkpt lat="14.457923231719718" lon="121.04542941686587"><ele>41.0</ele><time>2026-05-03T06:08:32Z</time></trkpt><trkpt lat="14.457778470715855" lon="121.04542731723805"><ele>40.0</ele><time>2026-05-03T06:08:33Z</time></trkpt><trkpt lat="14.457637971147028" lon="121.04542674108525"><ele>39.0</ele><time>2026-05-03T06:08:34Z</time></trkpt><trkpt lat="14.45750348342903" lon="121.04542516457323"><ele>38.0</ele><time>2026-05-03T06:08:35Z</time></trkpt><trkpt lat="14.457375224479867" lon="121.04543658348199"><ele>37.0</ele><time>2026-05-03T06:08:36Z</time></trkpt><trkpt lat="14.45724420457203" lon="121.04543866338045"><ele>36.75</ele><time>2026-05-03T06:08:37Z</time></trkpt><trkpt lat="14.457115486168563" lon="121.04543104000469"><ele>36.5</ele><time>2026-05-03T06:08:38.001Z</time></trkpt><trkpt lat="14.456974064034382" lon="121.04542701431937"><ele>36.25</ele><time>2026-05-03T06:08:39.001Z</time></trkpt><trkpt lat="14.456836918797393" lon="121.04542743807347"><ele>36.0</ele><time>2026-05-03T06:08:40.001Z</time></trkpt><trkpt lat="14.456701141602382" lon="121.04542952328856"><ele>36.0</ele><time>2026-05-03T06:08:41.001Z</time></trkpt><trkpt lat="14.456573199312079" lon="121.04543180227266"><ele>36.0</ele><time>2026-05-03T06:08:42.001Z</time></trkpt><trkpt lat="14.456456391799438" lon="121.04543722592597"><ele>36.0</ele><time>2026-05-03T06:08:43.001Z</time></trkpt><trkpt lat="14.45635730260751" lon="121.04543599630625"><ele>36.0</ele><time>2026-05-03T06:08:44.001Z</time></trkpt><trkpt lat="14.45628715064059" lon="121.04544185040803"><ele>36.0</ele><time>2026-05-03T06:08:45.001Z</time></trkpt><trkpt lat="14.4562161388992" lon="121.04545614929172"><ele>36.333333333333336</ele><time>2026-05-03T06:08:48.001Z</time></trkpt><trkpt lat="14.456124160053077" lon="121.0454602217367"><ele>36.666666666666664</ele><time>2026-05-03T06:08:50.001Z</time></trkpt><trkpt lat="14.456060580122069" lon="121.04545317106246"><ele>37.0</ele><time>2026-05-03T06:08:51.001Z</time></trkpt><trkpt lat="14.455989880561788" lon="121.04545045055977"><ele>37.33333333333333</ele><time>2026-05-03T06:08:52.001Z</time></trkpt><trkpt lat="14.45591144325266" lon="121.04545049841514"><ele>37.666666666666664</ele><time>2026-05-03T06:08:53.001Z</time></trkpt><trkpt lat="14.4558416215446" lon="121.04545664210954"><ele>38.0</ele><time>2026-05-03T06:08:54.001Z</time></trkpt><trkpt lat="14.4557583523238" lon="121.04545168445537"><ele>38.0</ele><time>2026-05-03T06:08:55.001Z</time></trkpt><trkpt lat="14.455678730037999" lon="121.04545047138299"><ele>38.0</ele><time>2026-05-03T06:08:56.001Z</time></trkpt><trkpt lat="14.455597917871646" lon="121.04545297955409"><ele>38.0</ele><time>2026-05-03T06:08:57.001Z</time></trkpt><trkpt lat="14.455518920347027" lon="121.0454532900154"><ele>38.0</ele><time>2026-05-03T06:08:58.001Z</time></trkpt><trkpt lat="14.455444972468564" lon="121.04546789210924"><ele>38.0</ele><time>2026-05-03T06:08:59.001Z</time></trkpt><trkpt lat="14.455369101778137" lon="121.04547147382021"><ele>38.0</ele><time>2026-05-03T06:09:00.001Z</time></trkpt><trkpt lat="14.455275012798788" lon="121.04548443903205"><ele>36.5</ele><time>2026-05-03T06:09:01.001Z</time></trkpt><trkpt lat="14.455173128495396" lon="121.04549888442975"><ele>35.0</ele><time>2026-05-03T06:09:02.001Z</time></trkpt><trkpt lat="14.455064187222616" lon="121.04551552792941"><ele>33.5</ele><time>2026-05-03T06:09:03.001Z</time></trkpt><trkpt lat="14.454955522617631" lon="121.04554312369038"><ele>32.0</ele><time>2026-05-03T06:09:04.001Z</time></trkpt><trkpt lat="14.45482274062287" lon="121.0455770308618"><ele>32.0</ele><time>2026-05-03T06:09:05.001Z</time></trkpt><trkpt lat="14.454684901646567" lon="121.04561400455685"><ele>32.0</ele><time>2026-05-03T06:09:06.001Z</time></trkpt><trkpt lat="14.454545721811048" lon="121.04565344744101"><ele>32.0</ele><time>2026-05-03T06:09:07.001Z</time></trkpt><trkpt lat="14.454409114925433" lon="121.04569386471401"><ele>32.0</ele><time>2026-05-03T06:09:08.001Z</time></trkpt><trkpt lat="14.454275043579742" lon="121.04574100336636"><ele>30.5</ele><time>2026-05-03T06:09:09.001Z</time></trkpt><trkpt lat="14.454152189043938" lon="121.04579550279797"><ele>29.0</ele><time>2026-05-03T06:09:10.001Z</time></trkpt><trkpt lat="14.454037529348714" lon="121.04584484925391"><ele>27.5</ele><time>2026-05-03T06:09:11.001Z</time></trkpt><trkpt lat="14.453929829384853" lon="121.0458803186155"><ele>26.0</ele><time>2026-05-03T06:09:12.001Z</time></trkpt><trkpt lat="14.45383997240271" lon="121.0459020818434"><ele>25.666666666666664</ele><time>2026-05-03T06:09:13.001Z</time></trkpt><trkpt lat="14.453740510698754" lon="121.04591244116713"><ele>25.333333333333332</ele><time>2026-05-03T06:09:15.001Z</time></trkpt><trkpt lat="14.453673045527689" lon="121.04594571994552"><ele>25.0</ele><time>2026-05-03T06:09:18.001Z</time></trkpt><trkpt lat="14.453604250267695" lon="121.04598659942839"><ele>24.666666666666664</ele><time>2026-05-03T06:09:23.001Z</time></trkpt><trkpt lat="14.45352249552877" lon="121.04599765253073"><ele>24.333333333333332</ele><time>2026-05-03T06:09:25.001Z</time></trkpt><trkpt lat="14.453504382396856" lon="121.0460814460507"><ele>24.0</ele><time>2026-05-03T06:09:26.001Z</time></trkpt><trkpt lat="14.453491070259329" lon="121.04615686537218"><ele>24.0</ele><time>2026-05-03T06:09:27.001Z</time></trkpt><trkpt lat="14.453482390811645" lon="121.04625418252171"><ele>24.0</ele><time>2026-05-03T06:09:28.001Z</time></trkpt><trkpt lat="14.45346201576896" lon="121.04635828470622"><ele>24.0</ele><time>2026-05-03T06:09:29.001Z</time></trkpt><trkpt lat="14.453435752222529" lon="121.04646711990249"><ele>24.0</ele><time>2026-05-03T06:09:30.001Z</time></trkpt><trkpt lat="14.453408948314904" lon="121.04658528741267"><ele>24.0</ele><time>2026-05-03T06:09:31.001Z</time></trkpt><trkpt lat="14.453380866411871" lon="121.04670969024382"><ele>23.5</ele><time>2026-05-03T06:09:32.001Z</time></trkpt><trkpt lat="14.453348415128282" lon="121.04683808013293"><ele>23.0</ele><time>2026-05-03T06:09:33.001Z</time></trkpt><trkpt lat="14.453314155454716" lon="121.04696823601527"><ele>22.5</ele><time>2026-05-03T06:09:34.001Z</time></trkpt><trkpt lat="14.45328240642706" lon="121.04709727168242"><ele>22.0</ele><time>2026-05-03T06:09:35.001Z</time></trkpt><trkpt lat="14.453249462456657" lon="121.04721467934755"><ele>22.0</ele><time>2026-05-03T06:09:36.001Z</time></trkpt><trkpt lat="14.453217814846441" lon="121.04732983856331"><ele>22.0</ele><time>2026-05-03T06:09:37.001Z</time></trkpt><trkpt lat="14.453182088101665" lon="121.0474408627444"><ele>22.0</ele><time>2026-05-03T06:09:38.001Z</time></trkpt><trkpt lat="14.453156200464058" lon="121.04755465993924"><ele>22.0</ele><time>2026-05-03T06:09:39.001Z</time></trkpt><trkpt lat="14.453129378702563" lon="121.04765593014247"><ele>22.0</ele><time>2026-05-03T06:09:40.001Z</time></trkpt><trkpt lat="14.453108025281406" lon="121.04774692985477"><ele>21.0</ele><time>2026-05-03T06:09:41.001Z</time></trkpt><trkpt lat="14.453086834715673" lon="121.04782484261302"><ele>20.0</ele><time>2026-05-03T06:09:42.001Z</time></trkpt><trkpt lat="14.453073065071317" lon="121.0478943607037"><ele>19.0</ele><time>2026-05-03T06:09:43.001Z</time></trkpt><trkpt lat="14.453057083285639" lon="121.04795940885687"><ele>18.0</ele><time>2026-05-03T06:09:44.001Z</time></trkpt><trkpt lat="14.4530265852215" lon="121.04806557260524"><ele>17.0</ele><time>2026-05-03T06:09:46.001Z</time></trkpt><trkpt lat="14.45300429057774" lon="121.048140764202"><ele>16.0</ele><time>2026-05-03T06:09:48.001Z</time></trkpt><trkpt lat="14.452982183343925" lon="121.04821627829291"><ele>16.0</ele><time>2026-05-03T06:09:51.001Z</time></trkpt><trkpt lat="14.452944124637174" lon="121.04831878506839"><ele>16.0</ele><time>2026-05-03T06:09:53.001Z</time></trkpt><trkpt lat="14.452923477889371" lon="121.048397244075"><ele>16.0</ele><time>2026-05-03T06:09:55.001Z</time></trkpt><trkpt lat="14.452881679290016" lon="121.04849048554647"><ele>16.0</ele><time>2026-05-03T06:09:58.001Z</time></trkpt><trkpt lat="14.452835198315471" lon="121.04857211552115"><ele>16.0</ele><time>2026-05-03T06:10:00.001Z</time></trkpt><trkpt lat="14.452790520326943" lon="121.0486523029712"><ele>15.999999999999998</ele><time>2026-05-03T06:10:02.001Z</time></trkpt><trkpt lat="14.452753558556246" lon="121.04871833208861"><ele>16.0</ele><time>2026-05-03T06:10:03.001Z</time></trkpt><trkpt lat="14.452703302704386" lon="121.04877756977129"><ele>16.0</ele><time>2026-05-03T06:10:04.001Z</time></trkpt><trkpt lat="14.452641413385091" lon="121.04884614667552"><ele>16.0</ele><time>2026-05-03T06:10:05.001Z</time></trkpt><trkpt lat="14.45258914364147" lon="121.04892735394644"><ele>15.999999999999998</ele><time>2026-05-03T06:10:06.001Z</time></trkpt><trkpt lat="14.452559850736334" lon="121.04902110442565"><ele>16.0</ele><time>2026-05-03T06:10:07.001Z</time></trkpt><trkpt lat="14.452542737328235" lon="121.04911074406247"><ele>15.0</ele><time>2026-05-03T06:10:08.001Z</time></trkpt><trkpt lat="14.452534932893432" lon="121.04920739994813"><ele>14.000000000000002</ele><time>2026-05-03T06:10:09.001Z</time></trkpt><trkpt lat="14.452525173788887" lon="121.04931788198405"><ele>13.0</ele><time>2026-05-03T06:10:10.001Z</time></trkpt><trkpt lat="14.452521283617397" lon="121.04942689577027"><ele>12.0</ele><time>2026-05-03T06:10:11.001Z</time></trkpt><trkpt lat="14.45251466707577" lon="121.04954190246765"><ele>11.0</ele><time>2026-05-03T06:10:12.001Z</time></trkpt><trkpt lat="14.452507055955849" lon="121.04965756457568"><ele>11.0</ele><time>2026-05-03T06:10:13.001Z</time></trkpt><trkpt lat="14.452499753308775" lon="121.04978547363606"><ele>11.0</ele><time>2026-05-03T06:10:14.001Z</time></trkpt><trkpt lat="14.452491575110328" lon="121.04990810171573"><ele>11.0</ele><time>2026-05-03T06:10:15.001Z</time></trkpt><trkpt lat="14.452482464505273" lon="121.050032991332"><ele>11.0</ele><time>2026-05-03T06:10:16.001Z</time></trkpt><trkpt lat="14.452475619095129" lon="121.05015886598663"><ele>11.166666666666666</ele><time>2026-05-03T06:10:17.001Z</time></trkpt><trkpt lat="14.452469957749827" lon="121.05026231743274"><ele>11.333333333333332</ele><time>2026-05-03T06:10:18.001Z</time></trkpt><trkpt lat="14.452463559158419" lon="121.0503617960172"><ele>11.5</ele><time>2026-05-03T06:10:19.001Z</time></trkpt><trkpt lat="14.452457543115473" lon="121.05045710946153"><ele>11.666666666666666</ele><time>2026-05-03T06:10:20.001Z</time></trkpt><trkpt lat="14.452445272427793" lon="121.05054135775157"><ele>11.833333333333334</ele><time>2026-05-03T06:10:21.001Z</time></trkpt><trkpt lat="14.452419747615934" lon="121.0506143975536"><ele>12.0</ele><time>2026-05-03T06:10:22.001Z</time></trkpt><trkpt lat="14.452373175611838" lon="121.05067507905483"><ele>12.0</ele><time>2026-05-03T06:10:23.001Z</time></trkpt><trkpt lat="14.45230678414579" lon="121.05069009978459"><ele>12.0</ele><time>2026-05-03T06:10:24.001Z</time></trkpt><trkpt lat="14.45222616790183" lon="121.05068829325455"><ele>12.0</ele><time>2026-05-03T06:10:25.001Z</time></trkpt><trkpt lat="14.452141173706176" lon="121.05067250903429"><ele>12.0</ele><time>2026-05-03T06:10:26.001Z</time></trkpt><trkpt lat="14.452056451274965" lon="121.05065661832846"><ele>12.0</ele><time>2026-05-03T06:10:27.001Z</time></trkpt><trkpt lat="14.451959131020194" lon="121.05064297653927"><ele>12.0</ele><time>2026-05-03T06:10:28.001Z</time></trkpt><trkpt lat="14.451858036739475" lon="121.05063366946779"><ele>12.0</ele><time>2026-05-03T06:10:29.001Z</time></trkpt><trkpt lat="14.451747896989264" lon="121.05062259643285"><ele>12.0</ele><time>2026-05-03T06:10:30.001Z</time></trkpt><trkpt lat="14.451639985461275" lon="121.05061138010237"><ele>12.0</ele><time>2026-05-03T06:10:31.001Z</time></trkpt><trkpt lat="14.451526926942133" lon="121.05060077322015"><ele>12.0</ele><time>2026-05-03T06:10:32.001Z</time></trkpt><trkpt lat="14.451409005129538" lon="121.05058588955356"><ele>12.0</ele><time>2026-05-03T06:10:33.001Z</time></trkpt><trkpt lat="14.45129492366292" lon="121.05057222360345"><ele>12.0</ele><time>2026-05-03T06:10:34.001Z</time></trkpt><trkpt lat="14.45117438162948" lon="121.05055584545065"><ele>12.0</ele><time>2026-05-03T06:10:35.001Z</time></trkpt><trkpt lat="14.451047290165866" lon="121.05054166549354"><ele>12.0</ele><time>2026-05-03T06:10:36.001Z</time></trkpt><trkpt lat="14.450918469222817" lon="121.0505286855368"><ele>11.0</ele><time>2026-05-03T06:10:37.001Z</time></trkpt><trkpt lat="14.450795305301291" lon="121.0505110314486"><ele>10.0</ele><time>2026-05-03T06:10:38.001Z</time></trkpt><trkpt lat="14.450670965387593" lon="121.05049879313535"><ele>9.0</ele><time>2026-05-03T06:10:39.001Z</time></trkpt><trkpt lat="14.450554242263225" lon="121.05048118922845"><ele>8.0</ele><time>2026-05-03T06:10:40.001Z</time></trkpt><trkpt lat="14.4504538717828" lon="121.05046450653425"><ele>7.800000000000001</ele><time>2026-05-03T06:10:41.001Z</time></trkpt><trkpt lat="14.450366249246102" lon="121.05045652516291"><ele>7.6000000000000005</ele><time>2026-05-03T06:10:42.001Z</time></trkpt><trkpt lat="14.450298868150071" lon="121.05044986163979"><ele>7.3999999999999995</ele><time>2026-05-03T06:10:43.001Z</time></trkpt><trkpt lat="14.450191099578207" lon="121.05045640979117"><ele>7.199999999999999</ele><time>2026-05-03T06:10:45.001Z</time></trkpt><trkpt lat="14.450103631401722" lon="121.0505367772325"><ele>7.0</ele><time>2026-05-03T06:10:47.001Z</time></trkpt><trkpt lat="14.450081717463288" lon="121.05060978014578"><ele>7.000000000000001</ele><time>2026-05-03T06:10:48.001Z</time></trkpt><trkpt lat="14.450068290639335" lon="121.05069014063294"><ele>7.0</ele><time>2026-05-03T06:10:49.001Z</time></trkpt><trkpt lat="14.450053357655248" lon="121.05078841044052"><ele>7.0</ele><time>2026-05-03T06:10:50.001Z</time></trkpt><trkpt lat="14.450037884833344" lon="121.05086437659442"><ele>7.0</ele><time>2026-05-03T06:10:51.001Z</time></trkpt><trkpt lat="14.450019371413465" lon="121.05095420491287"><ele>7.000000000000001</ele><time>2026-05-03T06:10:52.001Z</time></trkpt><trkpt lat="14.449991402441016" lon="121.05104249468623"><ele>7.0</ele><time>2026-05-03T06:10:53.001Z</time></trkpt><trkpt lat="14.449959907163812" lon="121.0511296428867"><ele>7.3999999999999995</ele><time>2026-05-03T06:10:54.001Z</time></trkpt><trkpt lat="14.449929192272476" lon="121.05119975629292"><ele>7.799999999999999</ele><time>2026-05-03T06:10:55.001Z</time></trkpt><trkpt lat="14.449901017352484" lon="121.05126622895894"><ele>8.2</ele><time>2026-05-03T06:10:56.001Z</time></trkpt><trkpt lat="14.449861270177454" lon="121.05134691278592"><ele>8.6</ele><time>2026-05-03T06:10:58.001Z</time></trkpt><trkpt lat="14.449759063485356" lon="121.05132381667971"><ele>9.0</ele><time>2026-05-03T06:11:01.001Z</time></trkpt><trkpt lat="14.449628043580882" lon="121.05130593670665"><ele>8.833333333333334</ele><time>2026-05-03T06:11:03.001Z</time></trkpt><trkpt lat="14.44956085426404" lon="121.05129676754414"><ele>8.666666666666666</ele><time>2026-05-03T06:11:04.001Z</time></trkpt><trkpt lat="14.449479601192097" lon="121.05128567913142"><ele>8.5</ele><time>2026-05-03T06:11:05.001Z</time></trkpt><trkpt lat="14.44939878380015" lon="121.05127400636454"><ele>8.333333333333332</ele><time>2026-05-03T06:11:06.001Z</time></trkpt><trkpt lat="14.449307537658672" lon="121.05125876504847"><ele>8.166666666666666</ele><time>2026-05-03T06:11:07.001Z</time></trkpt><trkpt lat="14.449217479794006" lon="121.05124372221698"><ele>8.0</ele><time>2026-05-03T06:11:08.001Z</time></trkpt><trkpt lat="14.449123701232358" lon="121.05122805789819"><ele>8.0</ele><time>2026-05-03T06:11:09.001Z</time></trkpt><trkpt lat="14.449025857014808" lon="121.05121171447163"><ele>8.0</ele><time>2026-05-03T06:11:10.001Z</time></trkpt><trkpt lat="14.448925136405098" lon="121.05119489058806"><ele>8.0</ele><time>2026-05-03T06:11:11.001Z</time></trkpt><trkpt lat="14.448821209038272" lon="121.05117628140768"><ele>8.0</ele><time>2026-05-03T06:11:12.001Z</time></trkpt><trkpt lat="14.448730303831821" lon="121.05115997753614"><ele>8.0</ele><time>2026-05-03T06:11:13.001Z</time></trkpt><trkpt lat="14.448631678527837" lon="121.05114225116449"><ele>8.200000000000001</ele><time>2026-05-03T06:11:14.001Z</time></trkpt><trkpt lat="14.448532603270591" lon="121.05112442544392"><ele>8.4</ele><time>2026-05-03T06:11:15.001Z</time></trkpt><trkpt lat="14.448434546717776" lon="121.05110678301068"><ele>8.600000000000001</ele><time>2026-05-03T06:11:16.001Z</time></trkpt><trkpt lat="14.448336059065458" lon="121.05108906301562"><ele>8.8</ele><time>2026-05-03T06:11:17.001Z</time></trkpt><trkpt lat="14.448234288369749" lon="121.05107075233094"><ele>9.0</ele><time>2026-05-03T06:11:18.001Z</time></trkpt><trkpt lat="14.4481339815685" lon="121.05105270503138"><ele>9.0</ele><time>2026-05-03T06:11:19.001Z</time></trkpt><trkpt lat="14.448031954627927" lon="121.05103434824179"><ele>9.0</ele><time>2026-05-03T06:11:20.001Z</time></trkpt><trkpt lat="14.447931227923913" lon="121.05101622539266"><ele>9.0</ele><time>2026-05-03T06:11:21.001Z</time></trkpt><trkpt lat="14.447827906317967" lon="121.05099763566625"><ele>9.0</ele><time>2026-05-03T06:11:22.001Z</time></trkpt><trkpt lat="14.447739807350224" lon="121.05098178481309"><ele>9.0</ele><time>2026-05-03T06:11:23.001Z</time></trkpt><trkpt lat="14.44765397639821" lon="121.05096634202192"><ele>8.833333333333334</ele><time>2026-05-03T06:11:24.001Z</time></trkpt><trkpt lat="14.447575761723808" lon="121.05095226955676"><ele>8.666666666666666</ele><time>2026-05-03T06:11:25.001Z</time></trkpt><trkpt lat="14.44750169483397" lon="121.05093894336753"><ele>8.5</ele><time>2026-05-03T06:11:26.001Z</time></trkpt><trkpt lat="14.447426518194005" lon="121.05092541751804"><ele>8.333333333333332</ele><time>2026-05-03T06:11:27.001Z</time></trkpt><trkpt lat="14.44734417672805" lon="121.05091061308492"><ele>8.166666666666666</ele><time>2026-05-03T06:11:28.001Z</time></trkpt><trkpt lat="14.447273226530486" lon="121.050897908891"><ele>8.0</ele><time>2026-05-03T06:11:29.001Z</time></trkpt><trkpt lat="14.44719756739131" lon="121.05088436152353"><ele>8.166666666666666</ele><time>2026-05-03T06:11:30.001Z</time></trkpt><trkpt lat="14.447118093952472" lon="121.05087013153369"><ele>8.333333333333332</ele><time>2026-05-03T06:11:31.001Z</time></trkpt><trkpt lat="14.44703589399267" lon="121.05085541297706"><ele>8.5</ele><time>2026-05-03T06:11:32.001Z</time></trkpt><trkpt lat="14.446964492600943" lon="121.05084262798992"><ele>8.666666666666666</ele><time>2026-05-03T06:11:33.001Z</time></trkpt><trkpt lat="14.446893373793205" lon="121.05082989360143"><ele>8.833333333333334</ele><time>2026-05-03T06:11:34.001Z</time></trkpt><trkpt lat="14.44683009540813" lon="121.05081856310368"><ele>9.0</ele><time>2026-05-03T06:11:35.001Z</time></trkpt><trkpt lat="14.446752519055297" lon="121.0508046724403"><ele>9.0</ele><time>2026-05-03T06:11:36.001Z</time></trkpt><trkpt lat="14.446679973579322" lon="121.05079168259682"><ele>9.0</ele><time>2026-05-03T06:11:37.001Z</time></trkpt><trkpt lat="14.446612939102122" lon="121.05077967954107"><ele>9.0</ele><time>2026-05-03T06:11:38.001Z</time></trkpt><trkpt lat="14.44649874756586" lon="121.05075923263902"><ele>9.0</ele><time>2026-05-03T06:11:40.001Z</time></trkpt><trkpt lat="14.44637775530602" lon="121.05073756801468"><ele>9.0</ele><time>2026-05-03T06:11:42.001Z</time></trkpt><trkpt lat="14.446275999147547" lon="121.05071934776608"><ele>9.0</ele><time>2026-05-03T06:11:44.001Z</time></trkpt><trkpt lat="14.44620197572947" lon="121.05070609328493"><ele>9.0</ele><time>2026-05-03T06:11:46.001Z</time></trkpt><trkpt lat="14.44611649952828" lon="121.05069078809235"><ele>9.0</ele><time>2026-05-03T06:11:48.001Z</time></trkpt><trkpt lat="14.446026146501286" lon="121.05067460966426"><ele>9.0</ele><time>2026-05-03T06:11:50.001Z</time></trkpt><trkpt lat="14.445924051920448" lon="121.0506563288174"><ele>9.0</ele><time>2026-05-03T06:11:52.001Z</time></trkpt><trkpt lat="14.445813694329633" lon="121.05063577329992"><ele>9.0</ele><time>2026-05-03T06:11:54.001Z</time></trkpt><trkpt lat="14.44572881518059" lon="121.05061957178884"><ele>9.0</ele><time>2026-05-03T06:11:56.001Z</time></trkpt><trkpt lat="14.445666078473021" lon="121.0506075967706"><ele>9.0</ele><time>2026-05-03T06:11:58.001Z</time></trkpt><trkpt lat="14.44558541143603" lon="121.05059219925737"><ele>9.0</ele><time>2026-05-03T06:12:00.001Z</time></trkpt><trkpt lat="14.445483947595346" lon="121.05057659509642"><ele>9.0</ele><time>2026-05-03T06:12:02.001Z</time></trkpt><trkpt lat="14.44536774640736" lon="121.05056276807754"><ele>8.833333333333334</ele><time>2026-05-03T06:12:04.002Z</time></trkpt><trkpt lat="14.445288590893673" lon="121.05055316430644"><ele>8.666666666666666</ele><time>2026-05-03T06:12:05.002Z</time></trkpt><trkpt lat="14.445204746018186" lon="121.05054488046218"><ele>8.5</ele><time>2026-05-03T06:12:06.002Z</time></trkpt><trkpt lat="14.445118410646572" lon="121.05053775512353"><ele>8.333333333333332</ele><time>2026-05-03T06:12:07.002Z</time></trkpt><trkpt lat="14.445047353583739" lon="121.05053218807636"><ele>8.166666666666666</ele><time>2026-05-03T06:12:08.001Z</time></trkpt><trkpt lat="14.444949041842458" lon="121.05052440939845"><ele>8.0</ele><time>2026-05-03T06:12:10.001Z</time></trkpt><trkpt lat="14.444864123819356" lon="121.05051753223354"><ele>8.0</ele><time>2026-05-03T06:12:12.001Z</time></trkpt><trkpt lat="14.444771126885577" lon="121.050510000793"><ele>8.0</ele><time>2026-05-03T06:12:14.001Z</time></trkpt><trkpt lat="14.444698403283986" lon="121.05051187123468"><ele>8.0</ele><time>2026-05-03T06:12:16.001Z</time></trkpt><trkpt lat="14.44462716077282" lon="121.05051212871334"><ele>8.0</ele><time>2026-05-03T06:12:18Z</time></trkpt><trkpt lat="14.444520213669067" lon="121.05051251523288"><ele>8.0</ele><time>2026-05-03T06:12:20Z</time></trkpt><trkpt lat="14.444412076696294" lon="121.0505129060556"><ele>8.200000000000001</ele><time>2026-05-03T06:12:22Z</time></trkpt><trkpt lat="14.4443262810592" lon="121.05051599862152"><ele>8.4</ele><time>2026-05-03T06:12:24Z</time></trkpt><trkpt lat="14.444249872253156" lon="121.05051833411056"><ele>8.600000000000001</ele><time>2026-05-03T06:12:26Z</time></trkpt><trkpt lat="14.444156011937716" lon="121.05052120301562"><ele>8.8</ele><time>2026-05-03T06:12:28Z</time></trkpt><trkpt lat="14.444058770790999" lon="121.05052417525849"><ele>9.0</ele><time>2026-05-03T06:12:30Z</time></trkpt><trkpt lat="14.44396034038721" lon="121.05052718385177"><ele>9.0</ele><time>2026-05-03T06:12:32Z</time></trkpt><trkpt lat="14.443851754427936" lon="121.05053050285788"><ele>9.0</ele><time>2026-05-03T06:12:34Z</time></trkpt><trkpt lat="14.443753226603086" lon="121.05053351442903"><ele>9.0</ele><time>2026-05-03T06:12:36.001Z</time></trkpt><trkpt lat="14.443639405186536" lon="121.05053699346017"><ele>9.0</ele><time>2026-05-03T06:12:38.001Z</time></trkpt><trkpt lat="14.44356985268551" lon="121.05055549717544"><ele>9.0</ele><time>2026-05-03T06:12:39.001Z</time></trkpt><trkpt lat="14.443496253675407" lon="121.05053833354006"><ele>8.5</ele><time>2026-05-03T06:12:40.001Z</time></trkpt><trkpt lat="14.44342950966549" lon="121.05053679948833"><ele>8.0</ele><time>2026-05-03T06:12:41.001Z</time></trkpt><trkpt lat="14.443318200451658" lon="121.05053424114577"><ele>7.5</ele><time>2026-05-03T06:12:43.001Z</time></trkpt><trkpt lat="14.443207636749209" lon="121.0505316999382"><ele>7.0</ele><time>2026-05-03T06:12:45.001Z</time></trkpt><trkpt lat="14.443130767487673" lon="121.05052993316603"><ele>6.5</ele><time>2026-05-03T06:12:47.001Z</time></trkpt><trkpt lat="14.443049378126725" lon="121.05052806250033"><ele>6.0</ele><time>2026-05-03T06:12:50.001Z</time></trkpt><trkpt lat="14.442947978116951" lon="121.05052860829542"><ele>6.0</ele><time>2026-05-03T06:12:52.001Z</time></trkpt><trkpt lat="14.442872548479173" lon="121.05052948819717"><ele>6.0</ele><time>2026-05-03T06:12:54.001Z</time></trkpt><trkpt lat="14.442772604765885" lon="121.05053065406148"><ele>6.0</ele><time>2026-05-03T06:12:56.001Z</time></trkpt><trkpt lat="14.44265676715511" lon="121.05053200533158"><ele>6.0</ele><time>2026-05-03T06:12:58.001Z</time></trkpt><trkpt lat="14.44256244273175" lon="121.05053310564381"><ele>6.0</ele><time>2026-05-03T06:13:00.001Z</time></trkpt><trkpt lat="14.442471098502168" lon="121.0505435722749"><ele>6.0</ele><time>2026-05-03T06:13:02.001Z</time></trkpt><trkpt lat="14.442390594071144" lon="121.05052530331334"><ele>6.0</ele><time>2026-05-03T06:13:04.001Z</time></trkpt><trkpt lat="14.442275958001717" lon="121.05053421177487"><ele>6.0</ele><time>2026-05-03T06:13:06.001Z</time></trkpt><trkpt lat="14.442152562572774" lon="121.05054942378918"><ele>6.0</ele><time>2026-05-03T06:13:08.001Z</time></trkpt><trkpt lat="14.44208891900959" lon="121.0505575421403"><ele>6.0</ele><time>2026-05-03T06:13:09.001Z</time></trkpt><trkpt lat="14.442016887957392" lon="121.05055712334001"><ele>6.166666666666667</ele><time>2026-05-03T06:13:10.001Z</time></trkpt><trkpt lat="14.441951806922386" lon="121.05056081572053"><ele>6.333333333333334</ele><time>2026-05-03T06:13:11.001Z</time></trkpt><trkpt lat="14.441864733703492" lon="121.05056689537942"><ele>6.5</ele><time>2026-05-03T06:13:12.001Z</time></trkpt><trkpt lat="14.441785523938147" lon="121.05057895847621"><ele>6.666666666666667</ele><time>2026-05-03T06:13:13.001Z</time></trkpt><trkpt lat="14.4417115891331" lon="121.05058308103291"><ele>6.833333333333334</ele><time>2026-05-03T06:13:14.001Z</time></trkpt><trkpt lat="14.441646953662229" lon="121.05058575773629"><ele>7.0</ele><time>2026-05-03T06:13:15.001Z</time></trkpt><trkpt lat="14.441535137552883" lon="121.05059431230323"><ele>7.0</ele><time>2026-05-03T06:13:17.001Z</time></trkpt><trkpt lat="14.441473267706733" lon="121.05060823284224"><ele>7.0</ele><time>2026-05-03T06:13:18.001Z</time></trkpt><trkpt lat="14.441409874128583" lon="121.0505947871774"><ele>7.0</ele><time>2026-05-03T06:13:19.001Z</time></trkpt><trkpt lat="14.441332457922648" lon="121.05059808032495"><ele>7.0</ele><time>2026-05-03T06:13:20.001Z</time></trkpt><trkpt lat="14.441259971750652" lon="121.05060116375853"><ele>7.0</ele><time>2026-05-03T06:13:21.001Z</time></trkpt><trkpt lat="14.441180462671461" lon="121.05060454593509"><ele>7.0</ele><time>2026-05-03T06:13:22.001Z</time></trkpt><trkpt lat="14.44111353158035" lon="121.05060739306579"><ele>7.0</ele><time>2026-05-03T06:13:23.001Z</time></trkpt><trkpt lat="14.440993987123225" lon="121.05061195682104"><ele>7.285714285714286</ele><time>2026-05-03T06:13:25.001Z</time></trkpt><trkpt lat="14.44091710294549" lon="121.05061137121096"><ele>7.571428571428571</ele><time>2026-05-03T06:13:26.001Z</time></trkpt><trkpt lat="14.440843975896751" lon="121.050610587708"><ele>7.857142857142858</ele><time>2026-05-03T06:13:27.001Z</time></trkpt><trkpt lat="14.440773125937922" lon="121.05060982860047"><ele>8.142857142857142</ele><time>2026-05-03T06:13:28.001Z</time></trkpt><trkpt lat="14.44070564338826" lon="121.0506091055726"><ele>8.428571428571429</ele><time>2026-05-03T06:13:29.001Z</time></trkpt><trkpt lat="14.440642461055228" lon="121.05061326560228"><ele>8.714285714285715</ele><time>2026-05-03T06:13:30.001Z</time></trkpt><trkpt lat="14.440572495496806" lon="121.05060457733988"><ele>9.0</ele><time>2026-05-03T06:13:31.001Z</time></trkpt><trkpt lat="14.44050487388152" lon="121.05059057966993"><ele>8.857142857142858</ele><time>2026-05-03T06:13:32.001Z</time></trkpt><trkpt lat="14.440441794946672" lon="121.05058613144223"><ele>8.714285714285715</ele><time>2026-05-03T06:13:33.001Z</time></trkpt><trkpt lat="14.440378447458166" lon="121.05058333145296"><ele>8.571428571428571</ele><time>2026-05-03T06:13:34.001Z</time></trkpt><trkpt lat="14.440306581187762" lon="121.05058726809685"><ele>8.428571428571429</ele><time>2026-05-03T06:13:35.001Z</time></trkpt><trkpt lat="14.44023368725671" lon="121.05057905943937"><ele>8.285714285714285</ele><time>2026-05-03T06:13:36.001Z</time></trkpt><trkpt lat="14.440166791776518" lon="121.05056946595184"><ele>8.142857142857142</ele><time>2026-05-03T06:13:37.001Z</time></trkpt><trkpt lat="14.4400922483894" lon="121.05056427198167"><ele>8.0</ele><time>2026-05-03T06:13:38.001Z</time></trkpt><trkpt lat="14.43996866349033" lon="121.05055574584762"><ele>8.0</ele><time>2026-05-03T06:13:40.001Z</time></trkpt><trkpt lat="14.439850111675426" lon="121.0505469983057"><ele>8.0</ele><time>2026-05-03T06:13:42.001Z</time></trkpt><trkpt lat="14.439735530535698" lon="121.05053380844292"><ele>8.0</ele><time>2026-05-03T06:13:44.001Z</time></trkpt><trkpt lat="14.439618292946554" lon="121.05051222852363"><ele>8.0</ele><time>2026-05-03T06:13:46.001Z</time></trkpt><trkpt lat="14.439498144744325" lon="121.05050077195762"><ele>7.833333333333333</ele><time>2026-05-03T06:13:48.001Z</time></trkpt><trkpt lat="14.439373179055128" lon="121.05049307934419"><ele>7.666666666666666</ele><time>2026-05-03T06:13:50.001Z</time></trkpt><trkpt lat="14.439311688352378" lon="121.0504763209469"><ele>7.5</ele><time>2026-05-03T06:13:51.001Z</time></trkpt><trkpt lat="14.439243312755789" lon="121.0504737448377"><ele>7.333333333333334</ele><time>2026-05-03T06:13:52.001Z</time></trkpt><trkpt lat="14.439180381909328" lon="121.05046685468596"><ele>7.166666666666667</ele><time>2026-05-03T06:13:53.001Z</time></trkpt><trkpt lat="14.439063174097647" lon="121.0504535318631"><ele>7.0</ele><time>2026-05-03T06:13:55.001Z</time></trkpt><trkpt lat="14.438944310959055" lon="121.05044268261985"><ele>7.0</ele><time>2026-05-03T06:13:57.001Z</time></trkpt><trkpt lat="14.438827597972098" lon="121.05043480318268"><ele>6.999999999999999</ele><time>2026-05-03T06:13:59.001Z</time></trkpt><trkpt lat="14.438709286856213" lon="121.05041610162031"><ele>6.999999999999999</ele><time>2026-05-03T06:14:01.001Z</time></trkpt><trkpt lat="14.438636404415545" lon="121.05041115790291"><ele>7.0</ele><time>2026-05-03T06:14:02.001Z</time></trkpt><trkpt lat="14.43857286806017" lon="121.05040739415058"><ele>7.0</ele><time>2026-05-03T06:14:03.001Z</time></trkpt><trkpt lat="14.4384338743776" lon="121.05038207748913"><ele>7.0</ele><time>2026-05-03T06:14:05.001Z</time></trkpt><trkpt lat="14.438349198491947" lon="121.0503741703418"><ele>7.0</ele><time>2026-05-03T06:14:06.001Z</time></trkpt><trkpt lat="14.438265695508349" lon="121.050366372721"><ele>7.0</ele><time>2026-05-03T06:14:07.001Z</time></trkpt><trkpt lat="14.43818897015671" lon="121.05035920800267"><ele>7.0</ele><time>2026-05-03T06:14:08.001Z</time></trkpt><trkpt lat="14.438120261680623" lon="121.05035279191169"><ele>7.0</ele><time>2026-05-03T06:14:09.001Z</time></trkpt><trkpt lat="14.438054646834683" lon="121.05035519388002"><ele>7.0</ele><time>2026-05-03T06:14:10.001Z</time></trkpt><trkpt lat="14.437989636625947" lon="121.0503395843275"><ele>7.0</ele><time>2026-05-03T06:14:11.001Z</time></trkpt><trkpt lat="14.437864501339575" lon="121.05033360857878"><ele>7.166666666666667</ele><time>2026-05-03T06:14:13.001Z</time></trkpt><trkpt lat="14.437746044662603" lon="121.05030348441268"><ele>7.333333333333334</ele><time>2026-05-03T06:14:15Z</time></trkpt><trkpt lat="14.43767302936655" lon="121.05029912581224"><ele>7.5</ele><time>2026-05-03T06:14:16Z</time></trkpt><trkpt lat="14.437600186090465" lon="121.05029479603559"><ele>7.666666666666666</ele><time>2026-05-03T06:14:17Z</time></trkpt><trkpt lat="14.437500326234886" lon="121.05027649915107"><ele>7.833333333333333</ele><time>2026-05-03T06:14:19Z</time></trkpt><trkpt lat="14.437436403069357" lon="121.05026557044442"><ele>8.0</ele><time>2026-05-03T06:14:20Z</time></trkpt><trkpt lat="14.437333779204584" lon="121.05025794263506"><ele>7.999999999999999</ele><time>2026-05-03T06:14:22Z</time></trkpt><trkpt lat="14.437273480641482" lon="121.05023390116868"><ele>8.0</ele><time>2026-05-03T06:14:23Z</time></trkpt><trkpt lat="14.437159968076115" lon="121.05022876507705"><ele>8.0</ele><time>2026-05-03T06:14:25Z</time></trkpt><trkpt lat="14.437096248123089" lon="121.05021276224332"><ele>8.0</ele><time>2026-05-03T06:14:26Z</time></trkpt><trkpt lat="14.437025352615487" lon="121.05022756991309"><ele>7.999999999999999</ele><time>2026-05-03T06:14:27Z</time></trkpt><trkpt lat="14.436959518034806" lon="121.0502254110898"><ele>8.0</ele><time>2026-05-03T06:14:28Z</time></trkpt><trkpt lat="14.436844835729921" lon="121.0502145691279"><ele>8.0</ele><time>2026-05-03T06:14:30Z</time></trkpt><trkpt lat="14.436727585440135" lon="121.05020819488833"><ele>8.0</ele><time>2026-05-03T06:14:32Z</time></trkpt><trkpt lat="14.436624622425008" lon="121.05020796359203"><ele>8.0</ele><time>2026-05-03T06:14:34Z</time></trkpt><trkpt lat="14.436522413193327" lon="121.05020339571708"><ele>8.0</ele><time>2026-05-03T06:14:36Z</time></trkpt><trkpt lat="14.436404131456502" lon="121.05020213833913"><ele>8.0</ele><time>2026-05-03T06:14:38Z</time></trkpt><trkpt lat="14.436284716590922" lon="121.05019899224453"><ele>8.0</ele><time>2026-05-03T06:14:40Z</time></trkpt><trkpt lat="14.436219771047734" lon="121.0501986838108"><ele>8.0</ele><time>2026-05-03T06:14:41Z</time></trkpt><trkpt lat="14.43610690824272" lon="121.05019322457493"><ele>8.0</ele><time>2026-05-03T06:14:43Z</time></trkpt><trkpt lat="14.436003544196458" lon="121.0501945796107"><ele>8.0</ele><time>2026-05-03T06:14:45Z</time></trkpt><trkpt lat="14.435904794000482" lon="121.05018948601841"><ele>8.0</ele><time>2026-05-03T06:14:47Z</time></trkpt><trkpt lat="14.435805939214704" lon="121.05017878296479"><ele>8.0</ele><time>2026-05-03T06:14:49Z</time></trkpt><trkpt lat="14.435697293700526" lon="121.05017674492409"><ele>8.0</ele><time>2026-05-03T06:14:51Z</time></trkpt><trkpt lat="14.435587792278387" lon="121.05017040535081"><ele>8.0</ele><time>2026-05-03T06:14:53Z</time></trkpt><trkpt lat="14.435484182016339" lon="121.0501630257259"><ele>8.0</ele><time>2026-05-03T06:14:55Z</time></trkpt><trkpt lat="14.435384646101118" lon="121.05016990283292"><ele>8.0</ele><time>2026-05-03T06:14:57Z</time></trkpt><trkpt lat="14.43529586313799" lon="121.0501700835743"><ele>8.0</ele><time>2026-05-03T06:14:59Z</time></trkpt><trkpt lat="14.435229081536406" lon="121.05018908862566"><ele>7.999999999999999</ele><time>2026-05-03T06:15:02Z</time></trkpt><trkpt lat="14.43521108592124" lon="121.05025761026633"><ele>8.0</ele><time>2026-05-03T06:15:08.001Z</time></trkpt><trkpt lat="14.435198613681601" lon="121.05033032520221"><ele>8.0</ele><time>2026-05-03T06:15:14.001Z</time></trkpt><trkpt lat="14.435200174492238" lon="121.05040200483985"><ele>7.999999999999999</ele><time>2026-05-03T06:15:18.001Z</time></trkpt><trkpt lat="14.435187642744683" lon="121.05046783028334"><ele>8.0</ele><time>2026-05-03T06:15:22.001Z</time></trkpt><trkpt lat="14.43517182060629" lon="121.05053437871007"><ele>8.0</ele><time>2026-05-03T06:15:25.001Z</time></trkpt><trkpt lat="14.435160118590616" lon="121.05061571682594"><ele>8.0</ele><time>2026-05-03T06:15:29.001Z</time></trkpt><trkpt lat="14.43515198334456" lon="121.05068112101235"><ele>8.0</ele><time>2026-05-03T06:15:34.001Z</time></trkpt><trkpt lat="14.435116987226689" lon="121.05073528565269"><ele>8.0</ele><time>2026-05-03T06:15:40.001Z</time></trkpt><trkpt lat="14.435086342704883" lon="121.05066709393223"><ele>8.0</ele><time>2026-05-03T06:19:05Z</time></trkpt><trkpt lat="14.4351761532652" lon="121.05074070400698"><ele>8.0</ele><time>2026-05-03T06:19:41.001Z</time></trkpt><trkpt lat="14.435305895382042" lon="121.05088863089482"><ele>7.999999999999999</ele><time>2026-05-03T06:31:04.003Z</time></trkpt><trkpt lat="14.43526165515105" lon="121.05080912387719"><ele>8.0</ele><time>2026-05-03T06:31:06.003Z</time></trkpt><trkpt lat="14.435138941285487" lon="121.05075838502192"><ele>8.0</ele><time>2026-05-03T06:31:08.003Z</time></trkpt><trkpt lat="14.435077407585023" lon="121.05078560297518"><ele>8.0</ele><time>2026-05-03T06:31:13.001Z</time></trkpt><trkpt lat="14.435155220510143" lon="121.05076634747164"><ele>7.999999999999999</ele><time>2026-05-03T06:49:20.001Z</time></trkpt><trkpt lat="14.435217909532254" lon="121.05074427024374"><ele>8.0</ele><time>2026-05-03T06:49:48.001Z</time></trkpt><trkpt lat="14.435146736155282" lon="121.05079004980031"><ele>8.0</ele><time>2026-05-03T06:58:47.001Z</time></trkpt><trkpt lat="14.435244853625424" lon="121.050690796929"><ele>8.0</ele><time>2026-05-03T07:00:55.03Z</time></trkpt><trkpt lat="14.435108451227077" lon="121.05073477964504"><ele>8.0</ele><time>2026-05-03T07:01:03.002Z</time></trkpt><trkpt lat="14.435199901847295" lon="121.05079881023885"><ele>8.0</ele><time>2026-05-03T07:10:00Z</time></trkpt><trkpt lat="14.435126695373727" lon="121.050766448726"><ele>7.999999999999999</ele><time>2026-05-03T07:11:10Z</time></trkpt><trkpt lat="14.435065056993508" lon="121.05079679461664"><ele>8.0</ele><time>2026-05-03T07:11:19.001Z</time></trkpt><trkpt lat="14.435126771800798" lon="121.05072952989981"><ele>8.0</ele><time>2026-05-03T07:11:33.001Z</time></trkpt><trkpt lat="14.43506446391744" lon="121.05068461101683"><ele>8.0</ele><time>2026-05-03T07:12:13Z</time></trkpt><trkpt lat="14.435032972483704" lon="121.05078838466123"><ele>7.999999999999999</ele><time>2026-05-03T08:06:09.001Z</time></trkpt><trkpt lat="14.435086532246112" lon="121.05075160953454"><ele>8.0</ele><time>2026-05-03T08:53:50.001Z</time></trkpt><trkpt lat="14.435081760556669" lon="121.05067860153967"><ele>8.0</ele><time>2026-05-03T08:54:26.001Z</time></trkpt><trkpt lat="14.435162734581695" lon="121.0507024272762"><ele>8.0</ele><time>2026-05-03T08:56:31.001Z</time></trkpt><trkpt lat="14.435231438219626" lon="121.05076163394273"><ele>8.0</ele><time>2026-05-03T08:58:53Z</time></trkpt><trkpt lat="14.435129140429034" lon="121.05072298518827"><ele>8.0</ele><time>2026-05-03T08:59:13Z</time></trkpt><trkpt lat="14.435123983512819" lon="121.0508433667488"><ele>8.0</ele><time>2026-05-03T08:59:28Z</time></trkpt><trkpt lat="14.435179069856774" lon="121.05074382450489"><ele>8.0</ele><time>2026-05-03T08:59:48.001Z</time></trkpt><trkpt lat="14.435090336303295" lon="121.05060374917275"><ele>8.0</ele><time>2026-05-03T09:03:48Z</time></trkpt><trkpt lat="14.435115166334104" lon="121.05066661557866"><ele>8.0</ele><time>2026-05-03T09:04:00Z</time></trkpt><trkpt lat="14.435142285931933" lon="121.05072722852255"><ele>8.0</ele><time>2026-05-03T09:04:08Z</time></trkpt><trkpt lat="14.435062975427384" lon="121.05063708484786"><ele>8.0</ele><time>2026-05-03T09:05:21.999Z</time></trkpt><trkpt lat="14.43517005158346" lon="121.05073313181249"><ele>8.0</ele><time>2026-05-03T09:06:24Z</time></trkpt><trkpt lat="14.43520347473247" lon="121.05067001089635"><ele>8.0</ele><time>2026-05-03T09:08:58Z</time></trkpt><trkpt lat="14.43513108911672" lon="121.05067841756376"><ele>8.0</ele><time>2026-05-03T09:09:02Z</time></trkpt><trkpt lat="14.435028157544261" lon="121.0506941201347"><ele>8.0</ele><time>2026-05-03T09:19:26.002Z</time></trkpt><trkpt lat="14.435104386040674" lon="121.05068800718986"><ele>8.0</ele><time>2026-05-03T09:45:17Z</time></trkpt><trkpt lat="14.435286453406464" lon="121.05071355728356"><ele>8.0</ele><time>2026-05-03T10:20:49.999Z</time></trkpt><trkpt lat="14.4353131419283" lon="121.05077700345815"><ele>8.0</ele><time>2026-05-03T10:20:52.079Z</time></trkpt><trkpt lat="14.435337835906186" lon="121.0508524709557"><ele>8.0</ele><time>2026-05-03T10:20:53.083Z</time></trkpt><trkpt lat="14.435402866100494" lon="121.05095549908145"><ele>8.0</ele><time>2026-05-03T10:20:55.078Z</time></trkpt><trkpt lat="14.435288340359454" lon="121.05086771439728"><ele>8.0</ele><time>2026-05-03T10:20:56.999Z</time></trkpt><trkpt lat="14.435162836090017" lon="121.05080177925642"><ele>7.999999999999999</ele><time>2026-05-03T10:20:57.999Z</time></trkpt><trkpt lat="14.435088525223827" lon="121.05074597474407"><ele>8.0</ele><time>2026-05-03T10:20:59.999Z</time></trkpt><trkpt lat="14.435154520991247" lon="121.05078937064445"><ele>8.0</ele><time>2026-05-03T10:21:17.999Z</time></trkpt><trkpt lat="14.435165000620128" lon="121.05085716703933"><ele>8.0</ele><time>2026-05-03T10:21:23.999Z</time></trkpt><trkpt lat="14.43512064834482" lon="121.05079220978179"><ele>7.999999999999999</ele><time>2026-05-03T10:22:59.999Z</time></trkpt><trkpt lat="14.435193182376471" lon="121.05077616227275"><ele>8.0</ele><time>2026-05-03T10:25:27.999Z</time></trkpt><trkpt lat="14.435269911810442" lon="121.05077121319364"><ele>8.0</ele><time>2026-05-03T10:25:36.999Z</time></trkpt><trkpt lat="14.435197410867767" lon="121.05077229331552"><ele>8.0</ele><time>2026-05-03T10:26:25Z</time></trkpt><trkpt lat="14.435143193482713" lon="121.05073704874545"><ele>8.0</ele><time>2026-05-03T10:28:02Z</time></trkpt><trkpt lat="14.43508415725009" lon="121.05070874769721"><ele>8.0</ele><time>2026-05-03T10:28:07Z</time></trkpt><trkpt lat="14.435101044586025" lon="121.05078315882885"><ele>8.0</ele><time>2026-05-03T10:31:35Z</time></trkpt><trkpt lat="14.435336676905184" lon="121.05080145969747"><ele>8.0</ele><time>2026-05-03T10:36:13Z</time></trkpt><trkpt lat="14.43540276637857" lon="121.05082608455844"><ele>8.0</ele><time>2026-05-03T10:36:16Z</time></trkpt><trkpt lat="14.435388608124956" lon="121.05076191535385"><ele>8.0</ele><time>2026-05-03T10:36:51Z</time></trkpt><trkpt lat="14.435222443134212" lon="121.05075154263768"><ele>8.0</ele><time>2026-05-03T10:37:08.002Z</time></trkpt><trkpt lat="14.43517244027166" lon="121.05066273178078"><ele>8.0</ele><time>2026-05-03T11:14:47.086Z</time></trkpt><trkpt lat="14.435159186701846" lon="121.05077789221542"><ele>8.0</ele><time>2026-05-03T11:14:49.075Z</time></trkpt><trkpt lat="14.434941691590783" lon="121.0508313651399"><ele>8.0</ele><time>2026-05-03T11:14:52Z</time></trkpt><trkpt lat="14.43510477827245" lon="121.05082716775904"><ele>8.0</ele><time>2026-05-03T11:15:19Z</time></trkpt><trkpt lat="14.435171562280248" lon="121.05069259132874"><ele>8.0</ele><time>2026-05-03T11:19:36Z</time></trkpt><trkpt lat="14.43510857526925" lon="121.05077511758576"><ele>8.0</ele><time>2026-05-03T11:20:48.029Z</time></trkpt><trkpt lat="14.435053652781377" lon="121.05090634477294"><ele>8.0</ele><time>2026-05-03T11:27:20Z</time></trkpt><trkpt lat="14.43510833792441" lon="121.05073308847764"><ele>8.0</ele><time>2026-05-03T11:29:43Z</time></trkpt><trkpt lat="14.435060457062054" lon="121.05078085769465"><ele>8.0</ele><time>2026-05-03T11:37:02Z</time></trkpt><trkpt lat="14.434932365073854" lon="121.05080341203134"><ele>8.0</ele><time>2026-05-03T11:37:06Z</time></trkpt><trkpt lat="14.43500534996844" lon="121.05077746728362"><ele>8.0</ele><time>2026-05-03T11:37:07Z</time></trkpt><trkpt lat="14.43509747991827" lon="121.05076087201111"><ele>8.0</ele><time>2026-05-03T11:37:22Z</time></trkpt><trkpt lat="14.435044353514577" lon="121.05070952861657"><ele>8.0</ele><time>2026-05-03T11:37:30Z</time></trkpt><trkpt lat="14.435147665567339" lon="121.05064479711744"><ele>8.0</ele><time>2026-05-03T11:53:36.001Z</time></trkpt><trkpt lat="14.435186716879596" lon="121.05058518288176"><ele>7.999999999999999</ele><time>2026-05-03T11:53:40.001Z</time></trkpt><trkpt lat="14.435192576133277" lon="121.05050211685612"><ele>8.0</ele><time>2026-05-03T11:53:45Z</time></trkpt><trkpt lat="14.435200715789875" lon="121.05042224367045"><ele>8.0</ele><time>2026-05-03T11:53:49Z</time></trkpt><trkpt lat="14.435220654355536" lon="121.05034658695348"><ele>7.999999999999999</ele><time>2026-05-03T11:53:53Z</time></trkpt><trkpt lat="14.43523142775633" lon="121.05028059682601"><ele>8.0</ele><time>2026-05-03T11:53:59Z</time></trkpt><trkpt lat="14.435256339627177" lon="121.05021683086014"><ele>8.0</ele><time>2026-05-03T11:54:03Z</time></trkpt><trkpt lat="14.435328129648706" lon="121.05018036409868"><ele>7.999999999999999</ele><time>2026-05-03T11:54:11Z</time></trkpt><trkpt lat="14.435395366130122" lon="121.05018459183707"><ele>8.0</ele><time>2026-05-03T11:54:15Z</time></trkpt><trkpt lat="14.435475787963291" lon="121.05017058436543"><ele>8.0</ele><time>2026-05-03T11:55:15Z</time></trkpt><trkpt lat="14.435562164602189" lon="121.05016117061714"><ele>8.0</ele><time>2026-05-03T11:55:18.001Z</time></trkpt><trkpt lat="14.43564079288703" lon="121.05015477579461"><ele>7.999999999999999</ele><time>2026-05-03T11:55:20.001Z</time></trkpt><trkpt lat="14.435721758850491" lon="121.05015504581407"><ele>8.0</ele><time>2026-05-03T11:55:22.001Z</time></trkpt><trkpt lat="14.435791233014674" lon="121.0501613911346"><ele>7.999999999999999</ele><time>2026-05-03T11:55:24.001Z</time></trkpt><trkpt lat="14.43588139508961" lon="121.05015618454578"><ele>8.0</ele><time>2026-05-03T11:55:26.001Z</time></trkpt><trkpt lat="14.435998523388626" lon="121.05016605888379"><ele>8.0</ele><time>2026-05-03T11:55:28.001Z</time></trkpt><trkpt lat="14.436057786268726" lon="121.05020789563889"><ele>8.0</ele><time>2026-05-03T11:55:29.001Z</time></trkpt><trkpt lat="14.436124158596986" lon="121.05021037186542"><ele>7.999999999999999</ele><time>2026-05-03T11:55:30.001Z</time></trkpt><trkpt lat="14.436194017982121" lon="121.0502129797751"><ele>8.0</ele><time>2026-05-03T11:55:31.001Z</time></trkpt><trkpt lat="14.436259251661031" lon="121.05021541500373"><ele>8.0</ele><time>2026-05-03T11:55:32.001Z</time></trkpt><trkpt lat="14.43632411455856" lon="121.05021788682167"><ele>8.0</ele><time>2026-05-03T11:55:33.001Z</time></trkpt><trkpt lat="14.436437207157152" lon="121.05022221560746"><ele>8.0</ele><time>2026-05-03T11:55:35.001Z</time></trkpt><trkpt lat="14.436539365294387" lon="121.0502261258601"><ele>8.0</ele><time>2026-05-03T11:55:37.001Z</time></trkpt><trkpt lat="14.436646719200677" lon="121.0502302349877"><ele>8.0</ele><time>2026-05-03T11:55:39.001Z</time></trkpt><trkpt lat="14.436739544461108" lon="121.05023377727291"><ele>7.999999999999999</ele><time>2026-05-03T11:55:41.001Z</time></trkpt><trkpt lat="14.436805348327178" lon="121.05023623488697"><ele>8.0</ele><time>2026-05-03T11:55:43.001Z</time></trkpt><trkpt lat="14.436869129623" lon="121.0502386169591"><ele>8.0</ele><time>2026-05-03T11:55:57Z</time></trkpt><trkpt lat="14.436963942455936" lon="121.05022940368607"><ele>8.0</ele><time>2026-05-03T11:56:01Z</time></trkpt><trkpt lat="14.437048977109182" lon="121.05023115878662"><ele>7.999999999999999</ele><time>2026-05-03T11:56:03Z</time></trkpt><trkpt lat="14.437143188327774" lon="121.05024059673758"><ele>8.0</ele><time>2026-05-03T11:56:05Z</time></trkpt><trkpt lat="14.43723775593925" lon="121.05026371290802"><ele>8.0</ele><time>2026-05-03T11:56:07Z</time></trkpt><trkpt lat="14.437346186186216" lon="121.05027826611636"><ele>8.0</ele><time>2026-05-03T11:56:09Z</time></trkpt><trkpt lat="14.437448055032247" lon="121.0502919386752"><ele>8.0</ele><time>2026-05-03T11:56:11Z</time></trkpt><trkpt lat="14.437552845460482" lon="121.05030600335994"><ele>8.0</ele><time>2026-05-03T11:56:13Z</time></trkpt><trkpt lat="14.437652531828586" lon="121.05032085233812"><ele>8.0</ele><time>2026-05-03T11:56:15Z</time></trkpt><trkpt lat="14.437753074973235" lon="121.05033578526418"><ele>8.0</ele><time>2026-05-03T11:56:17Z</time></trkpt><trkpt lat="14.437865861706989" lon="121.05035253663821"><ele>8.0</ele><time>2026-05-03T11:56:19Z</time></trkpt><trkpt lat="14.437993192694671" lon="121.05037144816185"><ele>8.0</ele><time>2026-05-03T11:56:21Z</time></trkpt><trkpt lat="14.438058292758246" lon="121.05038111698946"><ele>8.0</ele><time>2026-05-03T11:56:22Z</time></trkpt><trkpt lat="14.438179021499137" lon="121.05037564734428"><ele>8.0</ele><time>2026-05-03T11:56:24Z</time></trkpt><trkpt lat="14.438244305441472" lon="121.05038450155008"><ele>7.833333333333333</ele><time>2026-05-03T11:56:25Z</time></trkpt><trkpt lat="14.438324105756719" lon="121.0503974431611"><ele>7.666666666666666</ele><time>2026-05-03T11:56:27Z</time></trkpt><trkpt lat="14.438393752066714" lon="121.05039797174838"><ele>7.5</ele><time>2026-05-03T11:56:29Z</time></trkpt><trkpt lat="14.438457055022754" lon="121.05040252474808"><ele>7.333333333333334</ele><time>2026-05-03T11:56:32Z</time></trkpt><trkpt lat="14.438539440601502" lon="121.0504263918879"><ele>7.166666666666667</ele><time>2026-05-03T11:56:35Z</time></trkpt><trkpt lat="14.438626017574165" lon="121.05043447656297"><ele>7.0</ele><time>2026-05-03T11:56:39Z</time></trkpt><trkpt lat="14.438717447196634" lon="121.05044301438554"><ele>7.000000000000001</ele><time>2026-05-03T11:56:41Z</time></trkpt><trkpt lat="14.438784092925173" lon="121.05044923785361"><ele>7.0</ele><time>2026-05-03T11:56:42Z</time></trkpt><trkpt lat="14.438849921200239" lon="121.05045538498612"><ele>7.0</ele><time>2026-05-03T11:56:43Z</time></trkpt><trkpt lat="14.438969011048462" lon="121.05046820658943"><ele>7.0</ele><time>2026-05-03T11:56:45Z</time></trkpt><trkpt lat="14.439055282450681" lon="121.05047774691397"><ele>7.000000000000001</ele><time>2026-05-03T11:56:47Z</time></trkpt><trkpt lat="14.439142495135291" lon="121.0504873913283"><ele>7.0</ele><time>2026-05-03T11:56:49Z</time></trkpt><trkpt lat="14.439238733165613" lon="121.05049803381081"><ele>7.0</ele><time>2026-05-03T11:56:51Z</time></trkpt><trkpt lat="14.439351573215655" lon="121.05051051222883"><ele>6.999999999999999</ele><time>2026-05-03T11:56:53Z</time></trkpt><trkpt lat="14.439461981801415" lon="121.05052272176194"><ele>6.999999999999999</ele><time>2026-05-03T11:56:55Z</time></trkpt><trkpt lat="14.439568395526294" lon="121.05053445218486"><ele>7.0</ele><time>2026-05-03T11:56:57Z</time></trkpt><trkpt lat="14.439661164894208" lon="121.0505446317888"><ele>7.0</ele><time>2026-05-03T11:56:59Z</time></trkpt><trkpt lat="14.439762113111223" lon="121.05055570885807"><ele>7.166666666666667</ele><time>2026-05-03T11:57:01Z</time></trkpt><trkpt lat="14.439862253502827" lon="121.05056654647765"><ele>7.333333333333334</ele><time>2026-05-03T11:57:03Z</time></trkpt><trkpt lat="14.439984482890216" lon="121.05057746696986"><ele>7.5</ele><time>2026-05-03T11:57:05Z</time></trkpt><trkpt lat="14.440050238496394" lon="121.05058319783213"><ele>7.666666666666666</ele><time>2026-05-03T11:57:06Z</time></trkpt><trkpt lat="14.440130891088106" lon="121.05059022702598"><ele>7.833333333333333</ele><time>2026-05-03T11:57:08Z</time></trkpt><trkpt lat="14.440201976812443" lon="121.05059642242996"><ele>8.0</ele><time>2026-05-03T11:57:13.001Z</time></trkpt><trkpt lat="14.44033343874617" lon="121.05060787986132"><ele>7.999999999999999</ele><time>2026-05-03T11:57:15.001Z</time></trkpt><trkpt lat="14.440402228148299" lon="121.05061387513196"><ele>8.0</ele><time>2026-05-03T11:57:16.001Z</time></trkpt><trkpt lat="14.440474461233485" lon="121.05062026708717"><ele>8.0</ele><time>2026-05-03T11:57:17.001Z</time></trkpt><trkpt lat="14.440547166229633" lon="121.05062679033405"><ele>8.0</ele><time>2026-05-03T11:57:18.001Z</time></trkpt><trkpt lat="14.44061670449374" lon="121.05063302945504"><ele>7.999999999999999</ele><time>2026-05-03T11:57:19.001Z</time></trkpt><trkpt lat="14.440730572464194" lon="121.05064324593178"><ele>8.0</ele><time>2026-05-03T11:57:21.001Z</time></trkpt><trkpt lat="14.440796091603923" lon="121.05064439122218"><ele>8.142857142857142</ele><time>2026-05-03T11:57:22.001Z</time></trkpt><trkpt lat="14.4408653415382" lon="121.05063349232309"><ele>8.285714285714285</ele><time>2026-05-03T11:57:23.001Z</time></trkpt><trkpt lat="14.440929484696456" lon="121.0506372227134"><ele>8.428571428571429</ele><time>2026-05-03T11:57:24.001Z</time></trkpt><trkpt lat="14.440992135432309" lon="121.05063012733183"><ele>8.571428571428571</ele><time>2026-05-03T11:57:25.001Z</time></trkpt><trkpt lat="14.441062872482902" lon="121.05062870697645"><ele>8.714285714285715</ele><time>2026-05-03T11:57:26.001Z</time></trkpt><trkpt lat="14.44112942394962" lon="121.05062686547026"><ele>8.857142857142858</ele><time>2026-05-03T11:57:27.001Z</time></trkpt><trkpt lat="14.441191479046356" lon="121.05063842148202"><ele>9.0</ele><time>2026-05-03T11:57:28.001Z</time></trkpt><trkpt lat="14.441256287936406" lon="121.05063566462657"><ele>8.6</ele><time>2026-05-03T11:57:29.001Z</time></trkpt><trkpt lat="14.441363138064292" lon="121.0506216770741"><ele>8.2</ele><time>2026-05-03T11:57:31.001Z</time></trkpt><trkpt lat="14.44148494854384" lon="121.0506095525633"><ele>7.799999999999999</ele><time>2026-05-03T11:57:33.001Z</time></trkpt><trkpt lat="14.441552410004427" lon="121.05060623832321"><ele>7.3999999999999995</ele><time>2026-05-03T11:57:34.001Z</time></trkpt><trkpt lat="14.441669714136891" lon="121.0506169645967"><ele>7.0</ele><time>2026-05-03T11:57:36.001Z</time></trkpt><trkpt lat="14.4417325519724" lon="121.05061224290696"><ele>7.000000000000001</ele><time>2026-05-03T11:57:37.001Z</time></trkpt><trkpt lat="14.441861425016626" lon="121.050602441864"><ele>7.0</ele><time>2026-05-03T11:57:39.001Z</time></trkpt><trkpt lat="14.44193284753945" lon="121.05059650625343"><ele>7.0</ele><time>2026-05-03T11:57:40.001Z</time></trkpt><trkpt lat="14.442007463167934" lon="121.05058985514603"><ele>7.0</ele><time>2026-05-03T11:57:41.001Z</time></trkpt><trkpt lat="14.442074025494327" lon="121.05058415071352"><ele>7.000000000000001</ele><time>2026-05-03T11:57:42.001Z</time></trkpt><trkpt lat="14.44215879927234" lon="121.0505761431237"><ele>7.0</ele><time>2026-05-03T11:57:45.001Z</time></trkpt><trkpt lat="14.442222836406001" lon="121.05057114309506"><ele>6.8</ele><time>2026-05-03T11:57:47.001Z</time></trkpt><trkpt lat="14.44230344270594" lon="121.05057073758766"><ele>6.6</ele><time>2026-05-03T11:57:49.001Z</time></trkpt><trkpt lat="14.442406478189573" lon="121.05056924264652"><ele>6.3999999999999995</ele><time>2026-05-03T11:57:51.001Z</time></trkpt><trkpt lat="14.442526560669808" lon="121.05056784185648"><ele>6.199999999999999</ele><time>2026-05-03T11:57:53.001Z</time></trkpt><trkpt lat="14.442601253287112" lon="121.05056697055224"><ele>6.0</ele><time>2026-05-03T11:57:54.001Z</time></trkpt><trkpt lat="14.442726045808275" lon="121.05056551482237"><ele>6.0</ele><time>2026-05-03T11:57:56Z</time></trkpt><trkpt lat="14.44282386738491" lon="121.05056437371415"><ele>6.0</ele><time>2026-05-03T11:57:58Z</time></trkpt><trkpt lat="14.442931517122474" lon="121.05055507720283"><ele>6.0</ele><time>2026-05-03T11:58:00Z</time></trkpt><trkpt lat="14.443014046778723" lon="121.05054927892454"><ele>6.0</ele><time>2026-05-03T11:58:03Z</time></trkpt><trkpt lat="14.443089940129019" lon="121.05056331881626"><ele>6.0</ele><time>2026-05-03T11:58:05Z</time></trkpt><trkpt lat="14.443155835005902" lon="121.05056483335115"><ele>6.0</ele><time>2026-05-03T11:58:07Z</time></trkpt><trkpt lat="14.443258553385455" lon="121.05056719424093"><ele>5.6</ele><time>2026-05-03T11:58:10Z</time></trkpt><trkpt lat="14.443358811083392" lon="121.0505694985749"><ele>5.199999999999999</ele><time>2026-05-03T11:58:12Z</time></trkpt><trkpt lat="14.443457666908555" lon="121.05057177068745"><ele>4.800000000000001</ele><time>2026-05-03T11:58:14Z</time></trkpt><trkpt lat="14.443523815878878" lon="121.05057329106222"><ele>4.4</ele><time>2026-05-03T11:58:16Z</time></trkpt><trkpt lat="14.44360960870312" lon="121.05057223485589"><ele>4.0</ele><time>2026-05-03T11:58:18Z</time></trkpt><trkpt lat="14.443717062908005" lon="121.05056895044375"><ele>5.0</ele><time>2026-05-03T11:58:20Z</time></trkpt><trkpt lat="14.443827857705225" lon="121.05056556392498"><ele>6.0</ele><time>2026-05-03T11:58:22Z</time></trkpt><trkpt lat="14.443950784629271" lon="121.05056180657822"><ele>7.0</ele><time>2026-05-03T11:58:24Z</time></trkpt><trkpt lat="14.444077946635215" lon="121.05055791978255"><ele>8.0</ele><time>2026-05-03T11:58:26Z</time></trkpt><trkpt lat="14.444140580261333" lon="121.05054267729177"><ele>9.0</ele><time>2026-05-03T11:58:27Z</time></trkpt><trkpt lat="14.444211173605392" lon="121.0505457485588"><ele>9.0</ele><time>2026-05-03T11:58:28Z</time></trkpt><trkpt lat="14.44428248837635" lon="121.05054532489692"><ele>9.0</ele><time>2026-05-03T11:58:29Z</time></trkpt><trkpt lat="14.444348953182207" lon="121.05054419505971"><ele>9.0</ele><time>2026-05-03T11:58:30Z</time></trkpt><trkpt lat="14.444414075335995" lon="121.05054089670396"><ele>9.0</ele><time>2026-05-03T11:58:31Z</time></trkpt><trkpt lat="14.444540848370012" lon="121.05053747597165"><ele>9.0</ele><time>2026-05-03T11:58:33Z</time></trkpt><trkpt lat="14.444662598015455" lon="121.05053391445873"><ele>8.833333333333334</ele><time>2026-05-03T11:58:35Z</time></trkpt><trkpt lat="14.444745980561231" lon="121.05052720548409"><ele>8.666666666666666</ele><time>2026-05-03T11:58:37Z</time></trkpt><trkpt lat="14.444788950757111" lon="121.05043283490085"><ele>8.5</ele><time>2026-05-03T11:58:41Z</time></trkpt><trkpt lat="14.444784147989639" lon="121.05035997652588"><ele>8.333333333333332</ele><time>2026-05-03T11:58:42Z</time></trkpt><trkpt lat="14.444778641692173" lon="121.05029268606766"><ele>8.166666666666666</ele><time>2026-05-03T11:58:43Z</time></trkpt><trkpt lat="14.444777422271372" lon="121.05019523876939"><ele>8.0</ele><time>2026-05-03T11:58:45Z</time></trkpt><trkpt lat="14.444789005976235" lon="121.05012429624624"><ele>7.999999999999999</ele><time>2026-05-03T11:58:47Z</time></trkpt><trkpt lat="14.444791348689085" lon="121.05003599098595"><ele>8.0</ele><time>2026-05-03T11:58:49Z</time></trkpt><trkpt lat="14.444787451204377" lon="121.04994010560321"><ele>8.0</ele><time>2026-05-03T11:58:51Z</time></trkpt><trkpt lat="14.44478770219719" lon="121.04982004870281"><ele>8.0</ele><time>2026-05-03T11:58:53Z</time></trkpt><trkpt lat="14.44478735338057" lon="121.04974902326933"><ele>7.999999999999999</ele><time>2026-05-03T11:58:54Z</time></trkpt><trkpt lat="14.444786840469556" lon="121.0496681713955"><ele>8.0</ele><time>2026-05-03T11:58:55Z</time></trkpt><trkpt lat="14.44478452779645" lon="121.04958597585386"><ele>8.200000000000001</ele><time>2026-05-03T11:58:56Z</time></trkpt><trkpt lat="14.444785181504908" lon="121.04949858050466"><ele>8.4</ele><time>2026-05-03T11:58:57Z</time></trkpt><trkpt lat="14.44478248907504" lon="121.0494073047192"><ele>8.600000000000001</ele><time>2026-05-03T11:58:58Z</time></trkpt><trkpt lat="14.444782081977564" lon="121.04931164121949"><ele>8.8</ele><time>2026-05-03T11:58:59Z</time></trkpt><trkpt lat="14.444781958522649" lon="121.04920942664401"><ele>9.0</ele><time>2026-05-03T11:59:00Z</time></trkpt><trkpt lat="14.44477604785548" lon="121.04910187337913"><ele>9.0</ele><time>2026-05-03T11:59:01Z</time></trkpt><trkpt lat="14.444772976913079" lon="121.04900058607134"><ele>9.0</ele><time>2026-05-03T11:59:02Z</time></trkpt><trkpt lat="14.444774797839354" lon="121.0488960159423"><ele>9.0</ele><time>2026-05-03T11:59:03Z</time></trkpt><trkpt lat="14.444773671930035" lon="121.04878682396166"><ele>9.0</ele><time>2026-05-03T11:59:04Z</time></trkpt><trkpt lat="14.44477595706807" lon="121.04867773851527"><ele>9.0</ele><time>2026-05-03T11:59:05Z</time></trkpt><trkpt lat="14.444771288249523" lon="121.04856611356848"><ele>9.0</ele><time>2026-05-03T11:59:06Z</time></trkpt><trkpt lat="14.444776145241839" lon="121.04844866372163"><ele>9.0</ele><time>2026-05-03T11:59:07Z</time></trkpt><trkpt lat="14.444774854013518" lon="121.0483324921472"><ele>9.0</ele><time>2026-05-03T11:59:08Z</time></trkpt><trkpt lat="14.444773665791784" lon="121.04821157450823"><ele>9.0</ele><time>2026-05-03T11:59:09Z</time></trkpt><trkpt lat="14.44477464835629" lon="121.04809830888503"><ele>9.25</ele><time>2026-05-03T11:59:10Z</time></trkpt><trkpt lat="14.444777651775198" lon="121.04797276378252"><ele>9.5</ele><time>2026-05-03T11:59:11Z</time></trkpt><trkpt lat="14.444782457347232" lon="121.04786277911714"><ele>9.75</ele><time>2026-05-03T11:59:12Z</time></trkpt><trkpt lat="14.444776692244552" lon="121.04773618821487"><ele>10.0</ele><time>2026-05-03T11:59:13Z</time></trkpt><trkpt lat="14.444775590317612" lon="121.04761592538448"><ele>10.0</ele><time>2026-05-03T11:59:14Z</time></trkpt><trkpt lat="14.444775458987179" lon="121.04748961725032"><ele>10.0</ele><time>2026-05-03T11:59:15Z</time></trkpt><trkpt lat="14.444775613002925" lon="121.0473822326309"><ele>10.0</ele><time>2026-05-03T11:59:16Z</time></trkpt><trkpt lat="14.444776287942819" lon="121.04727917454538"><ele>10.0</ele><time>2026-05-03T11:59:17Z</time></trkpt><trkpt lat="14.444780717460022" lon="121.04718501546962"><ele>10.0</ele><time>2026-05-03T11:59:18Z</time></trkpt><trkpt lat="14.444777746094006" lon="121.04709861258061"><ele>10.4</ele><time>2026-05-03T11:59:19.001Z</time></trkpt><trkpt lat="14.444775545954844" lon="121.04700491578483"><ele>10.8</ele><time>2026-05-03T11:59:20.001Z</time></trkpt><trkpt lat="14.444773469888279" lon="121.0469081306683"><ele>11.2</ele><time>2026-05-03T11:59:21.001Z</time></trkpt><trkpt lat="14.444771105146303" lon="121.046803349682"><ele>11.6</ele><time>2026-05-03T11:59:22.001Z</time></trkpt><trkpt lat="14.44476597123552" lon="121.04670045358229"><ele>12.0</ele><time>2026-05-03T11:59:23.001Z</time></trkpt><trkpt lat="14.444765124257588" lon="121.04658732806828"><ele>12.399999999999999</ele><time>2026-05-03T11:59:24.001Z</time></trkpt><trkpt lat="14.444771812228977" lon="121.04647788578411"><ele>12.799999999999999</ele><time>2026-05-03T11:59:25.001Z</time></trkpt><trkpt lat="14.44476716323741" lon="121.04636553222387"><ele>13.2</ele><time>2026-05-03T11:59:26.001Z</time></trkpt><trkpt lat="14.444764809413067" lon="121.04625582903265"><ele>13.6</ele><time>2026-05-03T11:59:27.001Z</time></trkpt><trkpt lat="14.444771469685941" lon="121.04615062873579"><ele>14.0</ele><time>2026-05-03T11:59:28.001Z</time></trkpt><trkpt lat="14.444768422230965" lon="121.04605134091545"><ele>14.000000000000002</ele><time>2026-05-03T11:59:29.001Z</time></trkpt><trkpt lat="14.444768883092458" lon="121.04595792527681"><ele>14.0</ele><time>2026-05-03T11:59:30.001Z</time></trkpt><trkpt lat="14.444764948918172" lon="121.04586891399114"><ele>14.0</ele><time>2026-05-03T11:59:31.001Z</time></trkpt><trkpt lat="14.444770036648633" lon="121.04577680253149"><ele>14.0</ele><time>2026-05-03T11:59:32.001Z</time></trkpt><trkpt lat="14.444774124881622" lon="121.04570743867464"><ele>14.000000000000002</ele><time>2026-05-03T11:59:33.001Z</time></trkpt><trkpt lat="14.444773693158107" lon="121.0456149621295"><ele>14.0</ele><time>2026-05-03T11:59:35.001Z</time></trkpt><trkpt lat="14.444804815900987" lon="121.04555540958332"><ele>14.399999999999999</ele><time>2026-05-03T11:59:39.001Z</time></trkpt><trkpt lat="14.444871257214585" lon="121.04553080521083"><ele>14.799999999999999</ele><time>2026-05-03T11:59:41.001Z</time></trkpt><trkpt lat="14.44499946365133" lon="121.04553301054894"><ele>15.200000000000001</ele><time>2026-05-03T11:59:43.001Z</time></trkpt><trkpt lat="14.445082620779036" lon="121.04552900673808"><ele>15.600000000000001</ele><time>2026-05-03T11:59:44.001Z</time></trkpt><trkpt lat="14.445162646539433" lon="121.04553328051726"><ele>16.0</ele><time>2026-05-03T11:59:45.001Z</time></trkpt><trkpt lat="14.445258354119483" lon="121.04553441891656"><ele>16.0</ele><time>2026-05-03T11:59:46.001Z</time></trkpt><trkpt lat="14.44534959297123" lon="121.0455198200883"><ele>16.0</ele><time>2026-05-03T11:59:47.001Z</time></trkpt><trkpt lat="14.445448319184878" lon="121.0455223922613"><ele>16.0</ele><time>2026-05-03T11:59:48.001Z</time></trkpt><trkpt lat="14.445548960883016" lon="121.0455220236372"><ele>16.0</ele><time>2026-05-03T11:59:49.001Z</time></trkpt><trkpt lat="14.445654715594914" lon="121.04552087004164"><ele>16.0</ele><time>2026-05-03T11:59:50.001Z</time></trkpt><trkpt lat="14.445763464180512" lon="121.04552049528577"><ele>16.2</ele><time>2026-05-03T11:59:51.001Z</time></trkpt><trkpt lat="14.445869490102671" lon="121.04551307555634"><ele>16.400000000000002</ele><time>2026-05-03T11:59:52.001Z</time></trkpt><trkpt lat="14.445979526098398" lon="121.04551382746429"><ele>16.6</ele><time>2026-05-03T11:59:53.001Z</time></trkpt><trkpt lat="14.446095807546856" lon="121.04551407279392"><ele>16.8</ele><time>2026-05-03T11:59:54.001Z</time></trkpt><trkpt lat="14.44621126130111" lon="121.04551206905609"><ele>17.0</ele><time>2026-05-03T11:59:55.001Z</time></trkpt><trkpt lat="14.446321945193532" lon="121.04550801144488"><ele>17.0</ele><time>2026-05-03T11:59:56.001Z</time></trkpt><trkpt lat="14.446427116506156" lon="121.04550994464965"><ele>17.0</ele><time>2026-05-03T11:59:57.001Z</time></trkpt><trkpt lat="14.44653383550421" lon="121.04550431846452"><ele>17.0</ele><time>2026-05-03T11:59:58.001Z</time></trkpt><trkpt lat="14.446642068562374" lon="121.04550418266214"><ele>17.0</ele><time>2026-05-03T11:59:59.001Z</time></trkpt><trkpt lat="14.446751041260297" lon="121.04550256910956"><ele>17.0</ele><time>2026-05-03T12:00:00.001Z</time></trkpt><trkpt lat="14.446860326296274" lon="121.04550132864863"><ele>17.0</ele><time>2026-05-03T12:00:01.001Z</time></trkpt><trkpt lat="14.446967966938367" lon="121.04549963640784"><ele>17.0</ele><time>2026-05-03T12:00:02.001Z</time></trkpt><trkpt lat="14.447079583116064" lon="121.04550003928773"><ele>17.0</ele><time>2026-05-03T12:00:03.001Z</time></trkpt><trkpt lat="14.447189054421097" lon="121.04549914244339"><ele>17.0</ele><time>2026-05-03T12:00:04.001Z</time></trkpt><trkpt lat="14.447299973135985" lon="121.04549865336546"><ele>17.0</ele><time>2026-05-03T12:00:05.001Z</time></trkpt><trkpt lat="14.447411350994027" lon="121.04549738144755"><ele>16.6</ele><time>2026-05-03T12:00:06.001Z</time></trkpt><trkpt lat="14.447522927098214" lon="121.04549650633967"><ele>16.2</ele><time>2026-05-03T12:00:07.001Z</time></trkpt><trkpt lat="14.447624179529516" lon="121.04549332121485"><ele>15.8</ele><time>2026-05-03T12:00:08.001Z</time></trkpt><trkpt lat="14.447728669445194" lon="121.04549253344972"><ele>15.4</ele><time>2026-05-03T12:00:09.001Z</time></trkpt><trkpt lat="14.447831137473637" lon="121.04549321117064"><ele>15.0</ele><time>2026-05-03T12:00:10.001Z</time></trkpt><trkpt lat="14.447933595478856" lon="121.04549244591269"><ele>14.8</ele><time>2026-05-03T12:00:11.001Z</time></trkpt><trkpt lat="14.448035698132438" lon="121.04549114654348"><ele>14.6</ele><time>2026-05-03T12:00:12.001Z</time></trkpt><trkpt lat="14.448144094617545" lon="121.04549096769071"><ele>14.399999999999999</ele><time>2026-05-03T12:00:13.001Z</time></trkpt><trkpt lat="14.4482531108692" lon="121.04549129727552"><ele>14.2</ele><time>2026-05-03T12:00:14.001Z</time></trkpt><trkpt lat="14.448358874756138" lon="121.04549021385829"><ele>14.0</ele><time>2026-05-03T12:00:15.001Z</time></trkpt><trkpt lat="14.448457975537725" lon="121.045489684989"><ele>14.0</ele><time>2026-05-03T12:00:16Z</time></trkpt><trkpt lat="14.448544461578312" lon="121.04549028130032"><ele>13.999999999999998</ele><time>2026-05-03T12:00:17Z</time></trkpt><trkpt lat="14.448634182603424" lon="121.04548806567863"><ele>13.999999999999998</ele><time>2026-05-03T12:00:18Z</time></trkpt><trkpt lat="14.448729584450094" lon="121.04548575823038"><ele>14.0</ele><time>2026-05-03T12:00:19Z</time></trkpt><trkpt lat="14.44882087167612" lon="121.04548544183992"><ele>14.0</ele><time>2026-05-03T12:00:20Z</time></trkpt><trkpt lat="14.4489194420719" lon="121.04548407385208"><ele>14.6</ele><time>2026-05-03T12:00:21Z</time></trkpt><trkpt lat="14.449019942653006" lon="121.04548182673943"><ele>15.2</ele><time>2026-05-03T12:00:22Z</time></trkpt><trkpt lat="14.449122864678419" lon="121.04548184901878"><ele>15.799999999999999</ele><time>2026-05-03T12:00:23Z</time></trkpt><trkpt lat="14.449229889992855" lon="121.04547881591625"><ele>16.4</ele><time>2026-05-03T12:00:24Z</time></trkpt><trkpt lat="14.449334011153297" lon="121.04547737017798"><ele>17.0</ele><time>2026-05-03T12:00:25Z</time></trkpt><trkpt lat="14.449433556387831" lon="121.0454794113739"><ele>17.0</ele><time>2026-05-03T12:00:26Z</time></trkpt><trkpt lat="14.449519209415094" lon="121.04547778637189"><ele>17.0</ele><time>2026-05-03T12:00:27Z</time></trkpt><trkpt lat="14.44960585321815" lon="121.04547828625122"><ele>17.0</ele><time>2026-05-03T12:00:28Z</time></trkpt><trkpt lat="14.449694509408957" lon="121.04547761126399"><ele>17.0</ele><time>2026-05-03T12:00:29Z</time></trkpt><trkpt lat="14.44977961135544" lon="121.04547821484263"><ele>17.0</ele><time>2026-05-03T12:00:30Z</time></trkpt><trkpt lat="14.449871996183402" lon="121.04547700765491"><ele>17.0</ele><time>2026-05-03T12:00:31Z</time></trkpt><trkpt lat="14.449968432128335" lon="121.04547771574414"><ele>17.4</ele><time>2026-05-03T12:00:32Z</time></trkpt><trkpt lat="14.450063768151061" lon="121.04547664350906"><ele>17.799999999999997</ele><time>2026-05-03T12:00:33Z</time></trkpt><trkpt lat="14.450159174666751" lon="121.04547182230962"><ele>18.2</ele><time>2026-05-03T12:00:34Z</time></trkpt><trkpt lat="14.450275110818414" lon="121.04547557035862"><ele>18.599999999999998</ele><time>2026-05-03T12:00:35Z</time></trkpt><trkpt lat="14.450382427836042" lon="121.04547736452692"><ele>19.0</ele><time>2026-05-03T12:00:36Z</time></trkpt><trkpt lat="14.45048870290838" lon="121.045473208759"><ele>19.2</ele><time>2026-05-03T12:00:37Z</time></trkpt><trkpt lat="14.45059212692126" lon="121.0454775000602"><ele>19.4</ele><time>2026-05-03T12:00:38Z</time></trkpt><trkpt lat="14.450684244343346" lon="121.04547965614287"><ele>19.6</ele><time>2026-05-03T12:00:39Z</time></trkpt><trkpt lat="14.450770963100448" lon="121.04547420452192"><ele>19.8</ele><time>2026-05-03T12:00:40Z</time></trkpt><trkpt lat="14.450855812324882" lon="121.04547513319041"><ele>20.0</ele><time>2026-05-03T12:00:41Z</time></trkpt><trkpt lat="14.450945376629871" lon="121.0454721007266"><ele>20.0</ele><time>2026-05-03T12:00:42Z</time></trkpt><trkpt lat="14.451036457448465" lon="121.04547028370466"><ele>20.0</ele><time>2026-05-03T12:00:43Z</time></trkpt><trkpt lat="14.451113529284317" lon="121.04546821962546"><ele>20.0</ele><time>2026-05-03T12:00:44Z</time></trkpt><trkpt lat="14.451180778675157" lon="121.04546804601796"><ele>20.0</ele><time>2026-05-03T12:00:45Z</time></trkpt><trkpt lat="14.45124511229796" lon="121.04546797743618"><ele>20.0</ele><time>2026-05-03T12:00:46Z</time></trkpt><trkpt lat="14.451315437649802" lon="121.04546602986501"><ele>20.0</ele><time>2026-05-03T12:00:47Z</time></trkpt><trkpt lat="14.451394063450147" lon="121.04546537656651"><ele>20.0</ele><time>2026-05-03T12:00:48Z</time></trkpt><trkpt lat="14.451463020512154" lon="121.0454650867127"><ele>18.833333333333336</ele><time>2026-05-03T12:00:49Z</time></trkpt><trkpt lat="14.451541434351311" lon="121.04546475929237"><ele>17.666666666666668</ele><time>2026-05-03T12:00:50Z</time></trkpt><trkpt lat="14.451621933250975" lon="121.0454656013255"><ele>16.5</ele><time>2026-05-03T12:00:51Z</time></trkpt><trkpt lat="14.45170456573796" lon="121.04546749095219"><ele>15.333333333333332</ele><time>2026-05-03T12:00:52.001Z</time></trkpt><trkpt lat="14.451790138441268" lon="121.04546802822749"><ele>14.166666666666666</ele><time>2026-05-03T12:00:53.001Z</time></trkpt><trkpt lat="14.451881581930056" lon="121.04546699383613"><ele>13.0</ele><time>2026-05-03T12:00:54.001Z</time></trkpt><trkpt lat="14.451966424892928" lon="121.0454749899579"><ele>13.0</ele><time>2026-05-03T12:00:55.001Z</time></trkpt><trkpt lat="14.452057966617073" lon="121.04548538672671"><ele>13.0</ele><time>2026-05-03T12:00:56.001Z</time></trkpt><trkpt lat="14.45214558903715" lon="121.0454971382575"><ele>13.0</ele><time>2026-05-03T12:00:57.001Z</time></trkpt><trkpt lat="14.452236284891125" lon="121.04551012655112"><ele>13.0</ele><time>2026-05-03T12:00:58.001Z</time></trkpt><trkpt lat="14.452324763610918" lon="121.0455267749743"><ele>13.0</ele><time>2026-05-03T12:00:59.001Z</time></trkpt><trkpt lat="14.452412111442491" lon="121.04554813201818"><ele>13.999999999999998</ele><time>2026-05-03T12:01:00.001Z</time></trkpt><trkpt lat="14.45249258673999" lon="121.04556698554313"><ele>15.0</ele><time>2026-05-03T12:01:01.001Z</time></trkpt><trkpt lat="14.452560506172425" lon="121.04558567318206"><ele>16.0</ele><time>2026-05-03T12:01:02.001Z</time></trkpt><trkpt lat="14.45264131914718" lon="121.04561331629468"><ele>17.0</ele><time>2026-05-03T12:01:04.001Z</time></trkpt><trkpt lat="14.452725055974273" lon="121.04563817767819"><ele>18.0</ele><time>2026-05-03T12:01:06.001Z</time></trkpt><trkpt lat="14.452826890129655" lon="121.0456690364944"><ele>19.0</ele><time>2026-05-03T12:01:08.001Z</time></trkpt><trkpt lat="14.452935011574672" lon="121.04571384142217"><ele>19.666666666666664</ele><time>2026-05-03T12:01:10.001Z</time></trkpt><trkpt lat="14.452993668083424" lon="121.04574427352816"><ele>20.333333333333332</ele><time>2026-05-03T12:01:11.001Z</time></trkpt><trkpt lat="14.453052663627686" lon="121.04577549753421"><ele>21.0</ele><time>2026-05-03T12:01:12.001Z</time></trkpt><trkpt lat="14.453108074365746" lon="121.04580825557728"><ele>21.666666666666668</ele><time>2026-05-03T12:01:13.001Z</time></trkpt><trkpt lat="14.45321242672698" lon="121.04586211844747"><ele>22.333333333333336</ele><time>2026-05-03T12:01:15.001Z</time></trkpt><trkpt lat="14.45329842046818" lon="121.04590484550539"><ele>23.0</ele><time>2026-05-03T12:01:17.001Z</time></trkpt><trkpt lat="14.453368052406189" lon="121.04593500676232"><ele>23.0</ele><time>2026-05-03T12:01:19.001Z</time></trkpt><trkpt lat="14.453443935051693" lon="121.04595388793273"><ele>23.0</ele><time>2026-05-03T12:01:24.001Z</time></trkpt><trkpt lat="14.453522651668429" lon="121.04594055687704"><ele>23.0</ele><time>2026-05-03T12:01:29.001Z</time></trkpt><trkpt lat="14.453584251760232" lon="121.045894099372"><ele>23.0</ele><time>2026-05-03T12:01:32.001Z</time></trkpt><trkpt lat="14.453625953568011" lon="121.04582920312271"><ele>23.0</ele><time>2026-05-03T12:01:36.001Z</time></trkpt><trkpt lat="14.45366684774097" lon="121.04577962572706"><ele>23.0</ele><time>2026-05-03T12:01:38.001Z</time></trkpt><trkpt lat="14.453692361520273" lon="121.0456873447438"><ele>23.0</ele><time>2026-05-03T12:01:40.001Z</time></trkpt><trkpt lat="14.453713455404866" lon="121.04556628931995"><ele>23.0</ele><time>2026-05-03T12:01:42.001Z</time></trkpt><trkpt lat="14.453739861713544" lon="121.04545827913951"><ele>23.0</ele><time>2026-05-03T12:01:44.001Z</time></trkpt><trkpt lat="14.453753209129724" lon="121.04539330659084"><ele>23.0</ele><time>2026-05-03T12:01:45.001Z</time></trkpt><trkpt lat="14.453761151778906" lon="121.0453275796481"><ele>23.0</ele><time>2026-05-03T12:01:46.001Z</time></trkpt><trkpt lat="14.453788846359975" lon="121.04518632302096"><ele>23.666666666666668</ele><time>2026-05-03T12:01:48.001Z</time></trkpt><trkpt lat="14.453807221647926" lon="121.04510615376923"><ele>24.333333333333336</ele><time>2026-05-03T12:01:49.001Z</time></trkpt><trkpt lat="14.453838364101486" lon="121.04503483190011"><ele>25.0</ele><time>2026-05-03T12:01:50.001Z</time></trkpt><trkpt lat="14.45386058357944" lon="121.04497028165882"><ele>25.666666666666668</ele><time>2026-05-03T12:01:51.001Z</time></trkpt><trkpt lat="14.453885541163674" lon="121.04486067988023"><ele>26.333333333333332</ele><time>2026-05-03T12:01:53.001Z</time></trkpt><trkpt lat="14.453912424781448" lon="121.04476095258653"><ele>27.0</ele><time>2026-05-03T12:01:55.001Z</time></trkpt><trkpt lat="14.45394541155596" lon="121.04466552240807"><ele>27.8</ele><time>2026-05-03T12:01:57.001Z</time></trkpt><trkpt lat="14.45397971403064" lon="121.04455969120238"><ele>28.6</ele><time>2026-05-03T12:01:59.001Z</time></trkpt><trkpt lat="14.454024099506837" lon="121.0444304158143"><ele>29.400000000000002</ele><time>2026-05-03T12:02:01.001Z</time></trkpt><trkpt lat="14.454048191843018" lon="121.04435360281812"><ele>30.200000000000003</ele><time>2026-05-03T12:02:02.001Z</time></trkpt><trkpt lat="14.454077716026777" lon="121.04426568035662"><ele>31.0</ele><time>2026-05-03T12:02:03.001Z</time></trkpt><trkpt lat="14.454107987573481" lon="121.04417718269491"><ele>31.6</ele><time>2026-05-03T12:02:04.001Z</time></trkpt><trkpt lat="14.454142275784362" lon="121.04408319837218"><ele>32.2</ele><time>2026-05-03T12:02:05.001Z</time></trkpt><trkpt lat="14.454176435000969" lon="121.04396745093283"><ele>32.8</ele><time>2026-05-03T12:02:06.001Z</time></trkpt><trkpt lat="14.454213192584147" lon="121.04387446568539"><ele>33.4</ele><time>2026-05-03T12:02:07.001Z</time></trkpt><trkpt lat="14.454247547534264" lon="121.04377322810397"><ele>34.0</ele><time>2026-05-03T12:02:08.001Z</time></trkpt><trkpt lat="14.454285487953335" lon="121.04366714967678"><ele>34.0</ele><time>2026-05-03T12:02:09.001Z</time></trkpt><trkpt lat="14.454326184896065" lon="121.04356144717684"><ele>34.0</ele><time>2026-05-03T12:02:10.001Z</time></trkpt><trkpt lat="14.454363760141064" lon="121.04345161598656"><ele>34.0</ele><time>2026-05-03T12:02:11.001Z</time></trkpt><trkpt lat="14.45440140954304" lon="121.04334196048363"><ele>34.0</ele><time>2026-05-03T12:02:12.001Z</time></trkpt><trkpt lat="14.45443359248338" lon="121.04323237261384"><ele>34.0</ele><time>2026-05-03T12:02:13.001Z</time></trkpt><trkpt lat="14.454467094344539" lon="121.04311879647541"><ele>34.4</ele><time>2026-05-03T12:02:14.001Z</time></trkpt><trkpt lat="14.4545012504445" lon="121.04301213778024"><ele>34.8</ele><time>2026-05-03T12:02:15.001Z</time></trkpt><trkpt lat="14.454532745132449" lon="121.04290263357986"><ele>35.2</ele><time>2026-05-03T12:02:16.001Z</time></trkpt><trkpt lat="14.454577944102587" lon="121.04279455422963"><ele>35.6</ele><time>2026-05-03T12:02:17.001Z</time></trkpt><trkpt lat="14.454617268181414" lon="121.0426909235985"><ele>36.0</ele><time>2026-05-03T12:02:18.001Z</time></trkpt><trkpt lat="14.454651761683692" lon="121.04258323055501"><ele>36.0</ele><time>2026-05-03T12:02:19.001Z</time></trkpt><trkpt lat="14.454685165617082" lon="121.04247955167982"><ele>36.0</ele><time>2026-05-03T12:02:20.001Z</time></trkpt><trkpt lat="14.454719264664295" lon="121.04238293642103"><ele>36.0</ele><time>2026-05-03T12:02:21.001Z</time></trkpt><trkpt lat="14.454749976522168" lon="121.04228277820783"><ele>36.0</ele><time>2026-05-03T12:02:22.001Z</time></trkpt><trkpt lat="14.454779226655011" lon="121.04218463194091"><ele>36.0</ele><time>2026-05-03T12:02:23.001Z</time></trkpt><trkpt lat="14.454808438605015" lon="121.04209227760026"><ele>36.166666666666664</ele><time>2026-05-03T12:02:24.001Z</time></trkpt><trkpt lat="14.454833569924935" lon="121.04199961493019"><ele>36.333333333333336</ele><time>2026-05-03T12:02:25.001Z</time></trkpt><trkpt lat="14.454862806867391" lon="121.04191944387321"><ele>36.5</ele><time>2026-05-03T12:02:26.001Z</time></trkpt><trkpt lat="14.454886189077587" lon="121.04184653751592"><ele>36.66666666666667</ele><time>2026-05-03T12:02:27.001Z</time></trkpt><trkpt lat="14.454905492901288" lon="121.04178205904066"><ele>36.833333333333336</ele><time>2026-05-03T12:02:28.001Z</time></trkpt><trkpt lat="14.454937311002025" lon="121.04166882878917"><ele>37.0</ele><time>2026-05-03T12:02:30.001Z</time></trkpt><trkpt lat="14.454975618117718" lon="121.04155321072025"><ele>37.16666666666667</ele><time>2026-05-03T12:02:32.001Z</time></trkpt><trkpt lat="14.454994238233358" lon="121.04148688261058"><ele>37.333333333333336</ele><time>2026-05-03T12:02:33.001Z</time></trkpt><trkpt lat="14.45501006172921" lon="121.04142254404768"><ele>37.5</ele><time>2026-05-03T12:02:34.001Z</time></trkpt><trkpt lat="14.45502472221687" lon="121.04135013495757"><ele>37.666666666666664</ele><time>2026-05-03T12:02:35.001Z</time></trkpt><trkpt lat="14.455041022417104" lon="121.04127148436422"><ele>37.83333333333333</ele><time>2026-05-03T12:02:36.001Z</time></trkpt><trkpt lat="14.455058742732279" lon="121.04118904720923"><ele>38.0</ele><time>2026-05-03T12:02:37.001Z</time></trkpt><trkpt lat="14.455078863168138" lon="121.0410997800283"><ele>38.0</ele><time>2026-05-03T12:02:38.001Z</time></trkpt><trkpt lat="14.455096474526933" lon="121.04099782215947"><ele>38.0</ele><time>2026-05-03T12:02:39.001Z</time></trkpt><trkpt lat="14.45511965723269" lon="121.04089441864036"><ele>38.0</ele><time>2026-05-03T12:02:40.001Z</time></trkpt><trkpt lat="14.455141017604694" lon="121.04077948741843"><ele>38.0</ele><time>2026-05-03T12:02:41Z</time></trkpt><trkpt lat="14.45516562267379" lon="121.04065933175217"><ele>38.0</ele><time>2026-05-03T12:02:42Z</time></trkpt><trkpt lat="14.455197465508572" lon="121.04054003688145"><ele>38.0</ele><time>2026-05-03T12:02:43Z</time></trkpt><trkpt lat="14.455230403308333" lon="121.04042122864278"><ele>38.0</ele><time>2026-05-03T12:02:44Z</time></trkpt><trkpt lat="14.455265504051354" lon="121.0402988533996"><ele>38.0</ele><time>2026-05-03T12:02:45Z</time></trkpt><trkpt lat="14.45530457535426" lon="121.04017578356245"><ele>38.0</ele><time>2026-05-03T12:02:46Z</time></trkpt><trkpt lat="14.455344819024331" lon="121.04004821892647"><ele>38.0</ele><time>2026-05-03T12:02:47Z</time></trkpt><trkpt lat="14.455380039132772" lon="121.0399186301117"><ele>38.0</ele><time>2026-05-03T12:02:48Z</time></trkpt><trkpt lat="14.455410870768915" lon="121.03978248201902"><ele>38.0</ele><time>2026-05-03T12:02:49Z</time></trkpt><trkpt lat="14.455442841730438" lon="121.03965050414048"><ele>38.0</ele><time>2026-05-03T12:02:50Z</time></trkpt><trkpt lat="14.455476607328716" lon="121.03952804136183"><ele>38.0</ele><time>2026-05-03T12:02:51Z</time></trkpt><trkpt lat="14.455506653268714" lon="121.03941891743709"><ele>38.0</ele><time>2026-05-03T12:02:52Z</time></trkpt><trkpt lat="14.45553167417813" lon="121.03931656508787"><ele>38.0</ele><time>2026-05-03T12:02:53Z</time></trkpt><trkpt lat="14.4555511545476" lon="121.03921466135853"><ele>38.0</ele><time>2026-05-03T12:02:54Z</time></trkpt><trkpt lat="14.455572436736242" lon="121.03912219916778"><ele>38.0</ele><time>2026-05-03T12:02:55Z</time></trkpt><trkpt lat="14.455596451313719" lon="121.03902247659673"><ele>37.6</ele><time>2026-05-03T12:02:56Z</time></trkpt><trkpt lat="14.455618177592187" lon="121.03892684170309"><ele>37.199999999999996</ele><time>2026-05-03T12:02:57Z</time></trkpt><trkpt lat="14.45564348759156" lon="121.03883732422392"><ele>36.8</ele><time>2026-05-03T12:02:58Z</time></trkpt><trkpt lat="14.45567912831726" lon="121.03872764377026"><ele>36.4</ele><time>2026-05-03T12:03:00.001Z</time></trkpt><trkpt lat="14.455705509277434" lon="121.03864516228565"><ele>36.0</ele><time>2026-05-03T12:03:02.001Z</time></trkpt><trkpt lat="14.455728114807654" lon="121.03851822090637"><ele>36.0</ele><time>2026-05-03T12:03:04.001Z</time></trkpt><trkpt lat="14.455745547117463" lon="121.03843920209711"><ele>36.0</ele><time>2026-05-03T12:03:05.001Z</time></trkpt><trkpt lat="14.455770137171081" lon="121.03834598050867"><ele>36.0</ele><time>2026-05-03T12:03:06.001Z</time></trkpt><trkpt lat="14.455793059902755" lon="121.03824261391527"><ele>36.0</ele><time>2026-05-03T12:03:07.001Z</time></trkpt><trkpt lat="14.455821630680282" lon="121.03813582465672"><ele>36.0</ele><time>2026-05-03T12:03:08.001Z</time></trkpt><trkpt lat="14.455854425327722" lon="121.03802712330001"><ele>36.0</ele><time>2026-05-03T12:03:09.001Z</time></trkpt><trkpt lat="14.455881774154387" lon="121.03791001892981"><ele>36.0</ele><time>2026-05-03T12:03:10.001Z</time></trkpt><trkpt lat="14.455912357920077" lon="121.03779979305007"><ele>36.0</ele><time>2026-05-03T12:03:11.001Z</time></trkpt><trkpt lat="14.455944236853293" lon="121.03769190712481"><ele>36.0</ele><time>2026-05-03T12:03:12.001Z</time></trkpt><trkpt lat="14.455973121555136" lon="121.0375793025817"><ele>36.0</ele><time>2026-05-03T12:03:13.001Z</time></trkpt><trkpt lat="14.4559992106991" lon="121.03747976634301"><ele>36.0</ele><time>2026-05-03T12:03:14.001Z</time></trkpt><trkpt lat="14.45602694448518" lon="121.03738058646032"><ele>36.0</ele><time>2026-05-03T12:03:15.001Z</time></trkpt><trkpt lat="14.456054798561185" lon="121.03728197572575"><ele>36.0</ele><time>2026-05-03T12:03:16.001Z</time></trkpt><trkpt lat="14.456083419607184" lon="121.03718366601554"><ele>36.0</ele><time>2026-05-03T12:03:17.001Z</time></trkpt><trkpt lat="14.456114596378583" lon="121.03708332699647"><ele>36.2</ele><time>2026-05-03T12:03:18.001Z</time></trkpt><trkpt lat="14.456142475757039" lon="121.03697847597758"><ele>36.400000000000006</ele><time>2026-05-03T12:03:19.001Z</time></trkpt><trkpt lat="14.45616598358114" lon="121.03688589441386"><ele>36.6</ele><time>2026-05-03T12:03:20.001Z</time></trkpt><trkpt lat="14.456194924630632" lon="121.03677999609874"><ele>36.800000000000004</ele><time>2026-05-03T12:03:21.001Z</time></trkpt><trkpt lat="14.456219072499945" lon="121.03669465107004"><ele>37.0</ele><time>2026-05-03T12:03:22.001Z</time></trkpt><trkpt lat="14.456243210618801" lon="121.03660821626896"><ele>36.833333333333336</ele><time>2026-05-03T12:03:23.001Z</time></trkpt><trkpt lat="14.456268799801098" lon="121.03652213136486"><ele>36.66666666666667</ele><time>2026-05-03T12:03:24.001Z</time></trkpt><trkpt lat="14.456290300743284" lon="121.03644029711316"><ele>36.5</ele><time>2026-05-03T12:03:25.001Z</time></trkpt><trkpt lat="14.456312107075817" lon="121.03636324345436"><ele>36.333333333333336</ele><time>2026-05-03T12:03:26.001Z</time></trkpt><trkpt lat="14.45633824969905" lon="121.03627925612055"><ele>36.166666666666664</ele><time>2026-05-03T12:03:27.001Z</time></trkpt><trkpt lat="14.45636600530501" lon="121.036196851952"><ele>36.0</ele><time>2026-05-03T12:03:28.001Z</time></trkpt><trkpt lat="14.456394894479512" lon="121.0361128576245"><ele>36.0</ele><time>2026-05-03T12:03:29.001Z</time></trkpt><trkpt lat="14.456425592460993" lon="121.03603431912497"><ele>36.0</ele><time>2026-05-03T12:03:30.001Z</time></trkpt><trkpt lat="14.456457181603199" lon="121.03595298434526"><ele>36.0</ele><time>2026-05-03T12:03:31.001Z</time></trkpt><trkpt lat="14.456496184383978" lon="121.03587011008817"><ele>36.0</ele><time>2026-05-03T12:03:32.001Z</time></trkpt><trkpt lat="14.456538561172133" lon="121.03578057417754"><ele>36.0</ele><time>2026-05-03T12:03:33.001Z</time></trkpt><trkpt lat="14.456579292824514" lon="121.0356911450288"><ele>36.0</ele><time>2026-05-03T12:03:34.001Z</time></trkpt><trkpt lat="14.456621699392294" lon="121.03559940893814"><ele>36.0</ele><time>2026-05-03T12:03:35.001Z</time></trkpt><trkpt lat="14.456665344323692" lon="121.03551495754797"><ele>36.0</ele><time>2026-05-03T12:03:36.001Z</time></trkpt><trkpt lat="14.456706581663152" lon="121.0354296004732"><ele>36.0</ele><time>2026-05-03T12:03:37.001Z</time></trkpt><trkpt lat="14.456748632462212" lon="121.03534287024827"><ele>36.0</ele><time>2026-05-03T12:03:38.001Z</time></trkpt><trkpt lat="14.456805619956517" lon="121.03525795245766"><ele>36.0</ele><time>2026-05-03T12:03:39.001Z</time></trkpt><trkpt lat="14.456853205620865" lon="121.03514425876303"><ele>36.0</ele><time>2026-05-03T12:03:41.001Z</time></trkpt><trkpt lat="14.456891175423118" lon="121.03507051975075"><ele>36.0</ele><time>2026-05-03T12:03:42.001Z</time></trkpt><trkpt lat="14.456924323405639" lon="121.03500024394246"><ele>36.0</ele><time>2026-05-03T12:03:43.001Z</time></trkpt><trkpt lat="14.45695236614825" lon="121.03493813630269"><ele>36.0</ele><time>2026-05-03T12:03:44.001Z</time></trkpt><trkpt lat="14.457016661646032" lon="121.034830360373"><ele>36.0</ele><time>2026-05-03T12:03:46.001Z</time></trkpt><trkpt lat="14.45705379708376" lon="121.0347747330005"><ele>36.0</ele><time>2026-05-03T12:03:47.001Z</time></trkpt><trkpt lat="14.45709571769557" lon="121.03471159705282"><ele>35.333333333333336</ele><time>2026-05-03T12:03:48.001Z</time></trkpt><trkpt lat="14.457131760450798" lon="121.0346403648493"><ele>34.666666666666664</ele><time>2026-05-03T12:03:49.001Z</time></trkpt><trkpt lat="14.45717155751403" lon="121.03456707079171"><ele>34.0</ele><time>2026-05-03T12:03:50.001Z</time></trkpt><trkpt lat="14.45720354944785" lon="121.03450665349192"><ele>33.33333333333333</ele><time>2026-05-03T12:03:51.001Z</time></trkpt><trkpt lat="14.457244972427244" lon="121.03442612465027"><ele>32.666666666666664</ele><time>2026-05-03T12:03:52.001Z</time></trkpt><trkpt lat="14.45730499703723" lon="121.03432127562091"><ele>32.0</ele><time>2026-05-03T12:03:54.001Z</time></trkpt><trkpt lat="14.45734699020796" lon="121.03425977681403"><ele>31.999999999999996</ele><time>2026-05-03T12:03:55.001Z</time></trkpt><trkpt lat="14.45738008789928" lon="121.0342000787354"><ele>32.0</ele><time>2026-05-03T12:03:56.001Z</time></trkpt><trkpt lat="14.457436415346011" lon="121.03409999351572"><ele>32.0</ele><time>2026-05-03T12:03:58.001Z</time></trkpt><trkpt lat="14.457488573165358" lon="121.03400080646465"><ele>32.0</ele><time>2026-05-03T12:04:00.001Z</time></trkpt><trkpt lat="14.457530427396849" lon="121.03392869605331"><ele>31.999999999999996</ele><time>2026-05-03T12:04:02.001Z</time></trkpt><trkpt lat="14.45756504364262" lon="121.03386074314359"><ele>32.0</ele><time>2026-05-03T12:04:04.001Z</time></trkpt><trkpt lat="14.457620029226227" lon="121.03376493823833"><ele>32.166666666666664</ele><time>2026-05-03T12:04:06.001Z</time></trkpt><trkpt lat="14.457657499778866" lon="121.03370306833357"><ele>32.33333333333333</ele><time>2026-05-03T12:04:07.001Z</time></trkpt><trkpt lat="14.457719414377541" lon="121.03360183797203"><ele>32.5</ele><time>2026-05-03T12:04:09.001Z</time></trkpt><trkpt lat="14.457761179248918" lon="121.033524775313"><ele>32.666666666666664</ele><time>2026-05-03T12:04:11.001Z</time></trkpt><trkpt lat="14.457801883527743" lon="121.03344617434955"><ele>32.833333333333336</ele><time>2026-05-03T12:04:14.001Z</time></trkpt><trkpt lat="14.457846114031687" lon="121.03336912897821"><ele>33.0</ele><time>2026-05-03T12:04:16.001Z</time></trkpt><trkpt lat="14.45788416867808" lon="121.03331253363604"><ele>33.0</ele><time>2026-05-03T12:04:17.001Z</time></trkpt><trkpt lat="14.457925611330934" lon="121.03325242515567"><ele>33.0</ele><time>2026-05-03T12:04:18.001Z</time></trkpt><trkpt lat="14.45796341252408" lon="121.03318623941621"><ele>33.0</ele><time>2026-05-03T12:04:19.001Z</time></trkpt><trkpt lat="14.458005019062126" lon="121.03311234335848"><ele>33.0</ele><time>2026-05-03T12:04:20.001Z</time></trkpt><trkpt lat="14.458049119515824" lon="121.03303468019357"><ele>33.0</ele><time>2026-05-03T12:04:21.001Z</time></trkpt><trkpt lat="14.458098465722097" lon="121.03294882370372"><ele>33.0</ele><time>2026-05-03T12:04:22.001Z</time></trkpt><trkpt lat="14.45814564167189" lon="121.032867149533"><ele>33.199999999999996</ele><time>2026-05-03T12:04:23.001Z</time></trkpt><trkpt lat="14.458198666607668" lon="121.0327817881433"><ele>33.4</ele><time>2026-05-03T12:04:24.001Z</time></trkpt><trkpt lat="14.458258623377972" lon="121.03270631626982"><ele>33.599999999999994</ele><time>2026-05-03T12:04:25.001Z</time></trkpt><trkpt lat="14.45830019278213" lon="121.03262056653496"><ele>33.8</ele><time>2026-05-03T12:04:26.001Z</time></trkpt><trkpt lat="14.458351419972534" lon="121.0325314432713"><ele>34.0</ele><time>2026-05-03T12:04:27.001Z</time></trkpt><trkpt lat="14.458397381312128" lon="121.03243979933495"><ele>34.0</ele><time>2026-05-03T12:04:28.001Z</time></trkpt><trkpt lat="14.458445478751967" lon="121.03235142301317"><ele>34.0</ele><time>2026-05-03T12:04:29.001Z</time></trkpt><trkpt lat="14.45849182245446" lon="121.03225966777178"><ele>34.0</ele><time>2026-05-03T12:04:30.001Z</time></trkpt><trkpt lat="14.458536413039274" lon="121.03217117548076"><ele>34.0</ele><time>2026-05-03T12:04:31.001Z</time></trkpt><trkpt lat="14.458586549310839" lon="121.0320772784987"><ele>34.0</ele><time>2026-05-03T12:04:32.001Z</time></trkpt><trkpt lat="14.458644600682774" lon="121.03199047516976"><ele>34.0</ele><time>2026-05-03T12:04:33.001Z</time></trkpt><trkpt lat="14.458696217538957" lon="121.0318986982627"><ele>34.0</ele><time>2026-05-03T12:04:34.001Z</time></trkpt><trkpt lat="14.458745277845182" lon="121.03180363731788"><ele>34.0</ele><time>2026-05-03T12:04:35.001Z</time></trkpt><trkpt lat="14.458797444929546" lon="121.03170563284469"><ele>34.0</ele><time>2026-05-03T12:04:36Z</time></trkpt><trkpt lat="14.45885221597292" lon="121.03161041763659"><ele>34.0</ele><time>2026-05-03T12:04:37Z</time></trkpt><trkpt lat="14.458909251402826" lon="121.03151032114076"><ele>33.6</ele><time>2026-05-03T12:04:38Z</time></trkpt><trkpt lat="14.458961551519389" lon="121.03141195655277"><ele>33.2</ele><time>2026-05-03T12:04:39Z</time></trkpt><trkpt lat="14.459015305013109" lon="121.03131374078038"><ele>32.800000000000004</ele><time>2026-05-03T12:04:40Z</time></trkpt><trkpt lat="14.45906965106045" lon="121.03121834893713"><ele>32.4</ele><time>2026-05-03T12:04:41Z</time></trkpt><trkpt lat="14.45912506863292" lon="121.03111395234757"><ele>32.0</ele><time>2026-05-03T12:04:42Z</time></trkpt><trkpt lat="14.459176237871516" lon="121.0310208276879"><ele>32.0</ele><time>2026-05-03T12:04:43Z</time></trkpt><trkpt lat="14.459230097236281" lon="121.03093729217672"><ele>32.0</ele><time>2026-05-03T12:04:44Z</time></trkpt><trkpt lat="14.459280063226332" lon="121.0308579904773"><ele>32.0</ele><time>2026-05-03T12:04:45Z</time></trkpt><trkpt lat="14.459328001255756" lon="121.03077635002485"><ele>32.0</ele><time>2026-05-03T12:04:46Z</time></trkpt><trkpt lat="14.459388719066661" lon="121.03069702661021"><ele>32.0</ele><time>2026-05-03T12:04:47Z</time></trkpt><trkpt lat="14.459435946112794" lon="121.03061237056929"><ele>32.0</ele><time>2026-05-03T12:04:48Z</time></trkpt><trkpt lat="14.459486695780734" lon="121.03051962378628"><ele>32.0</ele><time>2026-05-03T12:04:49Z</time></trkpt><trkpt lat="14.45953577857084" lon="121.03043260174024"><ele>32.0</ele><time>2026-05-03T12:04:50Z</time></trkpt><trkpt lat="14.459585426671739" lon="121.03033921615285"><ele>32.0</ele><time>2026-05-03T12:04:51Z</time></trkpt><trkpt lat="14.459639599788416" lon="121.03024484801232"><ele>32.0</ele><time>2026-05-03T12:04:52Z</time></trkpt><trkpt lat="14.459692765024544" lon="121.03014529084854"><ele>32.0</ele><time>2026-05-03T12:04:53Z</time></trkpt><trkpt lat="14.459746194712764" lon="121.0300425750172"><ele>32.0</ele><time>2026-05-03T12:04:54Z</time></trkpt><trkpt lat="14.459800515934141" lon="121.02993895847062"><ele>32.0</ele><time>2026-05-03T12:04:55Z</time></trkpt><trkpt lat="14.459855603514693" lon="121.02983444758637"><ele>32.0</ele><time>2026-05-03T12:04:56Z</time></trkpt><trkpt lat="14.4599068690783" lon="121.02972614298753"><ele>31.25</ele><time>2026-05-03T12:04:57Z</time></trkpt><trkpt lat="14.459958068906094" lon="121.02961568848903"><ele>30.5</ele><time>2026-05-03T12:04:58Z</time></trkpt><trkpt lat="14.46001568050252" lon="121.02951317816229"><ele>29.75</ele><time>2026-05-03T12:04:59Z</time></trkpt><trkpt lat="14.460066726117985" lon="121.02941416329614"><ele>29.0</ele><time>2026-05-03T12:05:00Z</time></trkpt><trkpt lat="14.460120543306578" lon="121.02931495341272"><ele>29.0</ele><time>2026-05-03T12:05:01Z</time></trkpt><trkpt lat="14.460172508770915" lon="121.02921090767862"><ele>29.0</ele><time>2026-05-03T12:05:02Z</time></trkpt><trkpt lat="14.460222484209522" lon="121.02910900765396"><ele>29.0</ele><time>2026-05-03T12:05:03Z</time></trkpt><trkpt lat="14.460268785572985" lon="121.02901154328289"><ele>29.0</ele><time>2026-05-03T12:05:04Z</time></trkpt><trkpt lat="14.460317756799391" lon="121.02891507240527"><ele>29.0</ele><time>2026-05-03T12:05:05Z</time></trkpt><trkpt lat="14.460359677345417" lon="121.02882213803638"><ele>28.666666666666664</ele><time>2026-05-03T12:05:06Z</time></trkpt><trkpt lat="14.460402326561496" lon="121.02873544701909"><ele>28.333333333333332</ele><time>2026-05-03T12:05:07Z</time></trkpt><trkpt lat="14.460439696134681" lon="121.02865924682386"><ele>28.0</ele><time>2026-05-03T12:05:08Z</time></trkpt><trkpt lat="14.460477683924273" lon="121.02858589955288"><ele>27.666666666666664</ele><time>2026-05-03T12:05:09Z</time></trkpt><trkpt lat="14.460511626394766" lon="121.02851447646012"><ele>27.333333333333332</ele><time>2026-05-03T12:05:10Z</time></trkpt><trkpt lat="14.46053930369537" lon="121.02845559809526"><ele>27.0</ele><time>2026-05-03T12:05:11Z</time></trkpt><trkpt lat="14.460594052158058" lon="121.0283505231736"><ele>27.200000000000003</ele><time>2026-05-03T12:05:13Z</time></trkpt><trkpt lat="14.460649684381385" lon="121.02825027817079"><ele>27.400000000000002</ele><time>2026-05-03T12:05:15Z</time></trkpt><trkpt lat="14.460704452974786" lon="121.02813669675005"><ele>27.599999999999998</ele><time>2026-05-03T12:05:17Z</time></trkpt><trkpt lat="14.460746917176865" lon="121.02804268390533"><ele>27.799999999999997</ele><time>2026-05-03T12:05:19Z</time></trkpt><trkpt lat="14.460773115825612" lon="121.02798154335714"><ele>28.0</ele><time>2026-05-03T12:05:21Z</time></trkpt><trkpt lat="14.460813453424125" lon="121.02789948052"><ele>28.000000000000004</ele><time>2026-05-03T12:05:23Z</time></trkpt><trkpt lat="14.460850049373247" lon="121.02784104143613"><ele>28.0</ele><time>2026-05-03T12:05:25Z</time></trkpt><trkpt lat="14.46087533914668" lon="121.02777694391213"><ele>28.0</ele><time>2026-05-03T12:05:28Z</time></trkpt><trkpt lat="14.46090331830052" lon="121.02771679494283"><ele>28.0</ele><time>2026-05-03T12:05:30Z</time></trkpt><trkpt lat="14.460957394645028" lon="121.02760334630784"><ele>28.000000000000004</ele><time>2026-05-03T12:05:32Z</time></trkpt><trkpt lat="14.460996631421569" lon="121.02752827253526"><ele>28.0</ele><time>2026-05-03T12:05:33Z</time></trkpt><trkpt lat="14.461035840153764" lon="121.02744895606763"><ele>27.2</ele><time>2026-05-03T12:05:34Z</time></trkpt><trkpt lat="14.461077791593087" lon="121.02737145090609"><ele>26.4</ele><time>2026-05-03T12:05:35Z</time></trkpt><trkpt lat="14.46111284441083" lon="121.02729402979003"><ele>25.599999999999998</ele><time>2026-05-03T12:05:36Z</time></trkpt><trkpt lat="14.46117764507458" lon="121.0271890988963"><ele>24.799999999999997</ele><time>2026-05-03T12:05:37Z</time></trkpt><trkpt lat="14.461224309812609" lon="121.02707951335395"><ele>24.0</ele><time>2026-05-03T12:05:38Z</time></trkpt><trkpt lat="14.461285832246551" lon="121.02695635799846"><ele>23.666666666666668</ele><time>2026-05-03T12:05:39Z</time></trkpt><trkpt lat="14.46134683807122" lon="121.02681492146596"><ele>23.333333333333336</ele><time>2026-05-03T12:05:40Z</time></trkpt><trkpt lat="14.46141517388937" lon="121.02667585724112"><ele>23.0</ele><time>2026-05-03T12:05:41Z</time></trkpt><trkpt lat="14.461484406910975" lon="121.026530913444"><ele>24.333333333333336</ele><time>2026-05-03T12:05:42Z</time></trkpt><trkpt lat="14.461553119457022" lon="121.02637697004228"><ele>25.666666666666668</ele><time>2026-05-03T12:05:43Z</time></trkpt><trkpt lat="14.461621632331951" lon="121.02621981923222"><ele>27.0</ele><time>2026-05-03T12:05:44Z</time></trkpt><trkpt lat="14.461688777957985" lon="121.02607558674153"><ele>27.0</ele><time>2026-05-03T12:05:45Z</time></trkpt><trkpt lat="14.461755844876505" lon="121.02594235627144"><ele>27.0</ele><time>2026-05-03T12:05:46Z</time></trkpt><trkpt lat="14.461820443975872" lon="121.02581912583453"><ele>27.0</ele><time>2026-05-03T12:05:47Z</time></trkpt><trkpt lat="14.46187942780046" lon="121.02570513044324"><ele>27.0</ele><time>2026-05-03T12:05:48Z</time></trkpt><trkpt lat="14.461924974896208" lon="121.02561096435316"><ele>26.833333333333332</ele><time>2026-05-03T12:05:49Z</time></trkpt><trkpt lat="14.461961267108144" lon="121.02553982745503"><ele>26.666666666666664</ele><time>2026-05-03T12:05:50Z</time></trkpt><trkpt lat="14.461989175099179" lon="121.0254588341554"><ele>26.5</ele><time>2026-05-03T12:05:52Z</time></trkpt><trkpt lat="14.462018210629116" lon="121.02537370993441"><ele>26.333333333333332</ele><time>2026-05-03T12:05:54.001Z</time></trkpt><trkpt lat="14.462058765909369" lon="121.02531892714178"><ele>26.166666666666664</ele><time>2026-05-03T12:05:55.001Z</time></trkpt><trkpt lat="14.462099238016574" lon="121.0252456886489"><ele>26.0</ele><time>2026-05-03T12:05:56.001Z</time></trkpt><trkpt lat="14.462141795346811" lon="121.025159383686"><ele>26.0</ele><time>2026-05-03T12:05:57.001Z</time></trkpt><trkpt lat="14.462187739997786" lon="121.025065009189"><ele>26.0</ele><time>2026-05-03T12:05:58.001Z</time></trkpt><trkpt lat="14.462236307403526" lon="121.02495925169278"><ele>26.0</ele><time>2026-05-03T12:05:59.001Z</time></trkpt><trkpt lat="14.46229324775827" lon="121.02485003256515"><ele>26.0</ele><time>2026-05-03T12:06:00.001Z</time></trkpt><trkpt lat="14.462352178418591" lon="121.02473253168357"><ele>26.5</ele><time>2026-05-03T12:06:01.001Z</time></trkpt><trkpt lat="14.46241325170044" lon="121.02461297047567"><ele>27.0</ele><time>2026-05-03T12:06:02.001Z</time></trkpt><trkpt lat="14.46247492086809" lon="121.0244863282546"><ele>27.5</ele><time>2026-05-03T12:06:03.001Z</time></trkpt><trkpt lat="14.462538527953345" lon="121.02435383219746"><ele>28.0</ele><time>2026-05-03T12:06:04.001Z</time></trkpt><trkpt lat="14.462603050561606" lon="121.02422004399394"><ele>27.75</ele><time>2026-05-03T12:06:05.001Z</time></trkpt><trkpt lat="14.462671661646942" lon="121.0240831952936"><ele>27.5</ele><time>2026-05-03T12:06:06.001Z</time></trkpt><trkpt lat="14.462738597327247" lon="121.02395209341455"><ele>27.25</ele><time>2026-05-03T12:06:07.001Z</time></trkpt><trkpt lat="14.46279880223788" lon="121.0238203270843"><ele>27.0</ele><time>2026-05-03T12:06:08.001Z</time></trkpt><trkpt lat="14.462857032535704" lon="121.02369990569979"><ele>27.0</ele><time>2026-05-03T12:06:09.001Z</time></trkpt><trkpt lat="14.462913617323602" lon="121.02358925059559"><ele>27.000000000000004</ele><time>2026-05-03T12:06:10.001Z</time></trkpt><trkpt lat="14.462966751387565" lon="121.02348585340513"><ele>27.000000000000004</ele><time>2026-05-03T12:06:11.001Z</time></trkpt><trkpt lat="14.463014988054805" lon="121.02339278136772"><ele>27.0</ele><time>2026-05-03T12:06:12.001Z</time></trkpt><trkpt lat="14.463054406192658" lon="121.02330901017964"><ele>27.0</ele><time>2026-05-03T12:06:13.001Z</time></trkpt><trkpt lat="14.463090335359704" lon="121.02323332957847"><ele>26.833333333333332</ele><time>2026-05-03T12:06:14.001Z</time></trkpt><trkpt lat="14.463126456102493" lon="121.0231593839785"><ele>26.666666666666664</ele><time>2026-05-03T12:06:15.001Z</time></trkpt><trkpt lat="14.463159585626766" lon="121.02309012755546"><ele>26.5</ele><time>2026-05-03T12:06:16.001Z</time></trkpt><trkpt lat="14.463201390066276" lon="121.02300808101543"><ele>26.333333333333332</ele><time>2026-05-03T12:06:17.001Z</time></trkpt><trkpt lat="14.463243404184704" lon="121.02293829999797"><ele>26.166666666666664</ele><time>2026-05-03T12:06:18.001Z</time></trkpt><trkpt lat="14.463283662549498" lon="121.02285632631195"><ele>26.0</ele><time>2026-05-03T12:06:19.001Z</time></trkpt><trkpt lat="14.463327590224424" lon="121.0227675206051"><ele>26.0</ele><time>2026-05-03T12:06:20.001Z</time></trkpt><trkpt lat="14.463371349333316" lon="121.02267021176087"><ele>26.0</ele><time>2026-05-03T12:06:21.001Z</time></trkpt><trkpt lat="14.463419822937242" lon="121.022556608486"><ele>26.0</ele><time>2026-05-03T12:06:22.001Z</time></trkpt><trkpt lat="14.46347231381031" lon="121.02243364995887"><ele>26.0</ele><time>2026-05-03T12:06:23.001Z</time></trkpt><trkpt lat="14.463532154953205" lon="121.02230981126421"><ele>25.75</ele><time>2026-05-03T12:06:24.001Z</time></trkpt><trkpt lat="14.463592139529975" lon="121.02218374116146"><ele>25.5</ele><time>2026-05-03T12:06:25.001Z</time></trkpt><trkpt lat="14.463651416810054" lon="121.02205171785066"><ele>25.25</ele><time>2026-05-03T12:06:26.001Z</time></trkpt><trkpt lat="14.463717960187704" lon="121.02191900389815"><ele>25.0</ele><time>2026-05-03T12:06:27.001Z</time></trkpt><trkpt lat="14.463784326391178" lon="121.02178381885982"><ele>25.0</ele><time>2026-05-03T12:06:28.001Z</time></trkpt><trkpt lat="14.463851553531446" lon="121.02164919302253"><ele>25.0</ele><time>2026-05-03T12:06:29.001Z</time></trkpt><trkpt lat="14.463923403529206" lon="121.02151713733599"><ele>25.0</ele><time>2026-05-03T12:06:30.001Z</time></trkpt><trkpt lat="14.463992930506086" lon="121.02138964847167"><ele>25.0</ele><time>2026-05-03T12:06:31.001Z</time></trkpt><trkpt lat="14.464052369078711" lon="121.02127249038382"><ele>25.0</ele><time>2026-05-03T12:06:32Z</time></trkpt><trkpt lat="14.464110006191795" lon="121.02116276866047"><ele>25.0</ele><time>2026-05-03T12:06:33Z</time></trkpt><trkpt lat="14.464168259988996" lon="121.02105375649768"><ele>25.0</ele><time>2026-05-03T12:06:34Z</time></trkpt><trkpt lat="14.464221721965362" lon="121.02095361761401"><ele>25.0</ele><time>2026-05-03T12:06:35Z</time></trkpt><trkpt lat="14.464268955019422" lon="121.02086027341798"><ele>24.666666666666668</ele><time>2026-05-03T12:06:36Z</time></trkpt><trkpt lat="14.464310311478" lon="121.02077545491164"><ele>24.333333333333336</ele><time>2026-05-03T12:06:37Z</time></trkpt><trkpt lat="14.464349416146293" lon="121.0206957898889"><ele>24.0</ele><time>2026-05-03T12:06:38Z</time></trkpt><trkpt lat="14.464389034230816" lon="121.02062120450029"><ele>23.666666666666668</ele><time>2026-05-03T12:06:39Z</time></trkpt><trkpt lat="14.464423018145615" lon="121.02053966583357"><ele>23.333333333333336</ele><time>2026-05-03T12:06:40Z</time></trkpt><trkpt lat="14.46446095678003" lon="121.02045903666608"><ele>23.0</ele><time>2026-05-03T12:06:41Z</time></trkpt><trkpt lat="14.464494802556406" lon="121.02038360150678"><ele>23.0</ele><time>2026-05-03T12:06:42Z</time></trkpt><trkpt lat="14.464528869116664" lon="121.02031112150209"><ele>23.0</ele><time>2026-05-03T12:06:43Z</time></trkpt><trkpt lat="14.46456532578393" lon="121.02023694626168"><ele>23.0</ele><time>2026-05-03T12:06:44Z</time></trkpt><trkpt lat="14.46460241290034" lon="121.02016896969025"><ele>23.0</ele><time>2026-05-03T12:06:45Z</time></trkpt><trkpt lat="14.46463837868707" lon="121.02009889102192"><ele>23.0</ele><time>2026-05-03T12:06:46Z</time></trkpt><trkpt lat="14.464669419564707" lon="121.02003144485815"><ele>23.0</ele><time>2026-05-03T12:06:47Z</time></trkpt><trkpt lat="14.464700490363198" lon="121.01996826400419"><ele>23.0</ele><time>2026-05-03T12:06:48Z</time></trkpt><trkpt lat="14.464732033435288" lon="121.01990880975967"><ele>23.0</ele><time>2026-05-03T12:06:49Z</time></trkpt><trkpt lat="14.464764592604986" lon="121.01984625110396"><ele>23.0</ele><time>2026-05-03T12:06:50Z</time></trkpt><trkpt lat="14.464821913105563" lon="121.01973605065169"><ele>23.0</ele><time>2026-05-03T12:06:52Z</time></trkpt><trkpt lat="14.464880614376447" lon="121.01961472063283"><ele>23.0</ele><time>2026-05-03T12:06:54Z</time></trkpt><trkpt lat="14.464911607573818" lon="121.01954686555517"><ele>23.0</ele><time>2026-05-03T12:06:55Z</time></trkpt><trkpt lat="14.46494816984925" lon="121.01947326988781"><ele>23.0</ele><time>2026-05-03T12:06:56Z</time></trkpt><trkpt lat="14.464990620574012" lon="121.01937300501433"><ele>23.0</ele><time>2026-05-03T12:06:57Z</time></trkpt><trkpt lat="14.465045642278948" lon="121.01927420957314"><ele>23.0</ele><time>2026-05-03T12:06:58Z</time></trkpt><trkpt lat="14.465092667052952" lon="121.01917147913869"><ele>23.0</ele><time>2026-05-03T12:06:59Z</time></trkpt><trkpt lat="14.465141687780676" lon="121.01906909657234"><ele>22.799999999999997</ele><time>2026-05-03T12:07:00Z</time></trkpt><trkpt lat="14.465184841003083" lon="121.01897185618814"><ele>22.6</ele><time>2026-05-03T12:07:01Z</time></trkpt><trkpt lat="14.465231061740743" lon="121.01887662873312"><ele>22.4</ele><time>2026-05-03T12:07:02Z</time></trkpt><trkpt lat="14.465272757558251" lon="121.01879389928946"><ele>22.200000000000003</ele><time>2026-05-03T12:07:03Z</time></trkpt><trkpt lat="14.465309906555003" lon="121.01870779320045"><ele>22.0</ele><time>2026-05-03T12:07:04Z</time></trkpt><trkpt lat="14.465343221579685" lon="121.01863558578869"><ele>22.0</ele><time>2026-05-03T12:07:05Z</time></trkpt><trkpt lat="14.465379086260251" lon="121.01855174848362"><ele>22.0</ele><time>2026-05-03T12:07:06Z</time></trkpt><trkpt lat="14.46542077633821" lon="121.01845526706029"><ele>22.0</ele><time>2026-05-03T12:07:07Z</time></trkpt><trkpt lat="14.465470756954723" lon="121.01834955876431"><ele>22.0</ele><time>2026-05-03T12:07:08Z</time></trkpt><trkpt lat="14.465522429153735" lon="121.01826304380108"><ele>22.0</ele><time>2026-05-03T12:07:09Z</time></trkpt><trkpt lat="14.465563819095554" lon="121.01819795097903"><ele>21.666666666666664</ele><time>2026-05-03T12:07:10Z</time></trkpt><trkpt lat="14.46560346410399" lon="121.01813240335385"><ele>21.333333333333332</ele><time>2026-05-03T12:07:11Z</time></trkpt><trkpt lat="14.465635967028716" lon="121.01807030303381"><ele>21.0</ele><time>2026-05-03T12:07:12Z</time></trkpt><trkpt lat="14.465668366872391" lon="121.0180011954268"><ele>20.666666666666668</ele><time>2026-05-03T12:07:13Z</time></trkpt><trkpt lat="14.465695572723172" lon="121.01793923402022"><ele>20.333333333333336</ele><time>2026-05-03T12:07:14Z</time></trkpt><trkpt lat="14.4657276938151" lon="121.01786719064435"><ele>20.0</ele><time>2026-05-03T12:07:16Z</time></trkpt><trkpt lat="14.465762742954084" lon="121.01777659579162"><ele>20.0</ele><time>2026-05-03T12:07:19Z</time></trkpt><trkpt lat="14.465789485543388" lon="121.0177101921574"><ele>20.0</ele><time>2026-05-03T12:07:21Z</time></trkpt><trkpt lat="14.46582468100653" lon="121.01762609167884"><ele>20.0</ele><time>2026-05-03T12:07:27Z</time></trkpt><trkpt lat="14.465861033913106" lon="121.01752548888572"><ele>20.0</ele><time>2026-05-03T12:07:29Z</time></trkpt><trkpt lat="14.465886584836726" lon="121.01745834463657"><ele>20.0</ele><time>2026-05-03T12:07:30Z</time></trkpt><trkpt lat="14.465917759556488" lon="121.01738960726584"><ele>20.0</ele><time>2026-05-03T12:07:31Z</time></trkpt><trkpt lat="14.465953266991777" lon="121.01731348962753"><ele>20.4</ele><time>2026-05-03T12:07:32Z</time></trkpt><trkpt lat="14.465994854593738" lon="121.01722771035071"><ele>20.8</ele><time>2026-05-03T12:07:33Z</time></trkpt><trkpt lat="14.466043548350756" lon="121.01713400452967"><ele>21.200000000000003</ele><time>2026-05-03T12:07:34Z</time></trkpt><trkpt lat="14.466096378293939" lon="121.01703012032371"><ele>21.6</ele><time>2026-05-03T12:07:35Z</time></trkpt><trkpt lat="14.46614966701669" lon="121.01691752979744"><ele>22.0</ele><time>2026-05-03T12:07:36Z</time></trkpt><trkpt lat="14.466207386827481" lon="121.01680280363436"><ele>22.0</ele><time>2026-05-03T12:07:37Z</time></trkpt><trkpt lat="14.46626186680051" lon="121.01668232795194"><ele>22.0</ele><time>2026-05-03T12:07:38Z</time></trkpt><trkpt lat="14.466314829684263" lon="121.01656242560834"><ele>22.0</ele><time>2026-05-03T12:07:39Z</time></trkpt><trkpt lat="14.466368073931935" lon="121.01644667758929"><ele>22.0</ele><time>2026-05-03T12:07:40Z</time></trkpt><trkpt lat="14.466417030299171" lon="121.01633647736372"><ele>21.5</ele><time>2026-05-03T12:07:41Z</time></trkpt><trkpt lat="14.466464050908245" lon="121.01623143068876"><ele>21.0</ele><time>2026-05-03T12:07:42Z</time></trkpt><trkpt lat="14.46650924672555" lon="121.01612554283842"><ele>20.5</ele><time>2026-05-03T12:07:43Z</time></trkpt><trkpt lat="14.466557306622194" lon="121.01600988465849"><ele>20.0</ele><time>2026-05-03T12:07:44Z</time></trkpt><trkpt lat="14.466608871700029" lon="121.01590017673591"><ele>20.0</ele><time>2026-05-03T12:07:45Z</time></trkpt><trkpt lat="14.466665928869784" lon="121.0157941717016"><ele>20.0</ele><time>2026-05-03T12:07:46Z</time></trkpt><trkpt lat="14.466719539103163" lon="121.01568312870067"><ele>20.0</ele><time>2026-05-03T12:07:47Z</time></trkpt><trkpt lat="14.466773941689166" lon="121.01557078593524"><ele>20.0</ele><time>2026-05-03T12:07:48Z</time></trkpt><trkpt lat="14.466825912775665" lon="121.01546033265494"><ele>20.0</ele><time>2026-05-03T12:07:49Z</time></trkpt><trkpt lat="14.466881659117343" lon="121.0153490635049"><ele>20.0</ele><time>2026-05-03T12:07:50Z</time></trkpt><trkpt lat="14.466932495708848" lon="121.01523523157918"><ele>20.0</ele><time>2026-05-03T12:07:51Z</time></trkpt><trkpt lat="14.466986769552669" lon="121.01512281403765"><ele>20.0</ele><time>2026-05-03T12:07:52Z</time></trkpt><trkpt lat="14.467045455389693" lon="121.01501260998315"><ele>20.0</ele><time>2026-05-03T12:07:53Z</time></trkpt><trkpt lat="14.467098419952974" lon="121.0149097580034"><ele>20.0</ele><time>2026-05-03T12:07:54Z</time></trkpt><trkpt lat="14.467149309574703" lon="121.0148069071776"><ele>20.0</ele><time>2026-05-03T12:07:55Z</time></trkpt><trkpt lat="14.467197738788084" lon="121.01470894640289"><ele>20.0</ele><time>2026-05-03T12:07:56Z</time></trkpt><trkpt lat="14.467245827608012" lon="121.01461598454229"><ele>20.0</ele><time>2026-05-03T12:07:57Z</time></trkpt><trkpt lat="14.467286489389188" lon="121.01453086079283"><ele>20.0</ele><time>2026-05-03T12:07:58Z</time></trkpt><trkpt lat="14.467323714959257" lon="121.01446278980686"><ele>20.0</ele><time>2026-05-03T12:07:59Z</time></trkpt><trkpt lat="14.467355931148074" lon="121.01438864615523"><ele>20.0</ele><time>2026-05-03T12:08:00Z</time></trkpt><trkpt lat="14.467380740242364" lon="121.0143270479565"><ele>20.0</ele><time>2026-05-03T12:08:01Z</time></trkpt><trkpt lat="14.467421922027796" lon="121.01423143731598"><ele>20.0</ele><time>2026-05-03T12:08:03Z</time></trkpt><trkpt lat="14.467473489730132" lon="121.01414342576355"><ele>20.0</ele><time>2026-05-03T12:08:05Z</time></trkpt><trkpt lat="14.467528135846095" lon="121.01402828251372"><ele>19.6</ele><time>2026-05-03T12:08:07Z</time></trkpt><trkpt lat="14.467570570049725" lon="121.0139545467047"><ele>19.2</ele><time>2026-05-03T12:08:08Z</time></trkpt><trkpt lat="14.467606510686439" lon="121.0138742282263"><ele>18.8</ele><time>2026-05-03T12:08:09Z</time></trkpt><trkpt lat="14.467646509038794" lon="121.01377183959175"><ele>18.4</ele><time>2026-05-03T12:08:10Z</time></trkpt><trkpt lat="14.467696350249135" lon="121.01366999918059"><ele>18.0</ele><time>2026-05-03T12:08:11Z</time></trkpt><trkpt lat="14.467758456839713" lon="121.01355847104898"><ele>18.0</ele><time>2026-05-03T12:08:12Z</time></trkpt><trkpt lat="14.46782048989828" lon="121.0134437667551"><ele>18.0</ele><time>2026-05-03T12:08:13Z</time></trkpt><trkpt lat="14.467880536288963" lon="121.01333214512228"><ele>18.0</ele><time>2026-05-03T12:08:14Z</time></trkpt><trkpt lat="14.467931912880447" lon="121.01322049197681"><ele>18.0</ele><time>2026-05-03T12:08:15Z</time></trkpt><trkpt lat="14.467986503084132" lon="121.01311257630594"><ele>18.0</ele><time>2026-05-03T12:08:16Z</time></trkpt><trkpt lat="14.468044107315228" lon="121.01300831113032"><ele>18.0</ele><time>2026-05-03T12:08:17Z</time></trkpt><trkpt lat="14.468104097170201" lon="121.0128996913675"><ele>18.0</ele><time>2026-05-03T12:08:18Z</time></trkpt><trkpt lat="14.46815998769552" lon="121.01280602700702"><ele>18.0</ele><time>2026-05-03T12:08:19Z</time></trkpt><trkpt lat="14.468220794507662" lon="121.01269846367893"><ele>18.0</ele><time>2026-05-03T12:08:20Z</time></trkpt><trkpt lat="14.468276170777841" lon="121.01259775747046"><ele>18.0</ele><time>2026-05-03T12:08:21Z</time></trkpt><trkpt lat="14.468337116082516" lon="121.01248904552602"><ele>18.0</ele><time>2026-05-03T12:08:22Z</time></trkpt><trkpt lat="14.468397193688624" lon="121.01238731700899"><ele>18.0</ele><time>2026-05-03T12:08:23Z</time></trkpt><trkpt lat="14.468449890985967" lon="121.01229271737694"><ele>17.6</ele><time>2026-05-03T12:08:24Z</time></trkpt><trkpt lat="14.468500217748586" lon="121.01220236246228"><ele>17.200000000000003</ele><time>2026-05-03T12:08:25Z</time></trkpt><trkpt lat="14.468543435381036" lon="121.01211357458709"><ele>16.8</ele><time>2026-05-03T12:08:26Z</time></trkpt><trkpt lat="14.468588114304064" lon="121.0120381577625"><ele>16.400000000000002</ele><time>2026-05-03T12:08:27Z</time></trkpt><trkpt lat="14.468626581527866" lon="121.01196511187248"><ele>16.0</ele><time>2026-05-03T12:08:28Z</time></trkpt><trkpt lat="14.468669118685888" lon="121.0118758534869"><ele>16.0</ele><time>2026-05-03T12:08:29Z</time></trkpt><trkpt lat="14.468714881648744" lon="121.01178620559112"><ele>16.0</ele><time>2026-05-03T12:08:30Z</time></trkpt><trkpt lat="14.46876363015164" lon="121.01168586729925"><ele>16.0</ele><time>2026-05-03T12:08:31Z</time></trkpt><trkpt lat="14.468820088696708" lon="121.01158495514592"><ele>16.0</ele><time>2026-05-03T12:08:32Z</time></trkpt><trkpt lat="14.468871303077274" lon="121.01148907216457"><ele>16.0</ele><time>2026-05-03T12:08:33Z</time></trkpt><trkpt lat="14.468918769464088" lon="121.01140590937156"><ele>15.666666666666666</ele><time>2026-05-03T12:08:34Z</time></trkpt><trkpt lat="14.468965497204346" lon="121.01131963133416"><ele>15.333333333333332</ele><time>2026-05-03T12:08:35Z</time></trkpt><trkpt lat="14.469008254027067" lon="121.01124154199483"><ele>15.0</ele><time>2026-05-03T12:08:36Z</time></trkpt><trkpt lat="14.469078078893693" lon="121.01118637949183"><ele>14.666666666666668</ele><time>2026-05-03T12:08:37Z</time></trkpt><trkpt lat="14.469118654165174" lon="121.01112058663499"><ele>14.333333333333334</ele><time>2026-05-03T12:08:38Z</time></trkpt><trkpt lat="14.46915692267453" lon="121.01105876167942"><ele>14.0</ele><time>2026-05-03T12:08:39Z</time></trkpt><trkpt lat="14.469200938879448" lon="121.01098777068006"><ele>14.0</ele><time>2026-05-03T12:08:40Z</time></trkpt><trkpt lat="14.469249228214593" lon="121.01090988781229"><ele>13.999999999999998</ele><time>2026-05-03T12:08:41Z</time></trkpt><trkpt lat="14.469301995473936" lon="121.01082478276443"><ele>13.999999999999998</ele><time>2026-05-03T12:08:42Z</time></trkpt><trkpt lat="14.469352743119885" lon="121.0107346203237"><ele>14.0</ele><time>2026-05-03T12:08:43Z</time></trkpt><trkpt lat="14.469404703963228" lon="121.01064500305499"><ele>14.0</ele><time>2026-05-03T12:08:44Z</time></trkpt><trkpt lat="14.46945224951521" lon="121.01056300087073"><ele>14.000000000000002</ele><time>2026-05-03T12:08:45Z</time></trkpt><trkpt lat="14.469495380366274" lon="121.01048861275892"><ele>14.0</ele><time>2026-05-03T12:08:46Z</time></trkpt><trkpt lat="14.469535451054893" lon="121.01041951115546"><ele>14.0</ele><time>2026-05-03T12:08:47Z</time></trkpt><trkpt lat="14.469577243911665" lon="121.01034746993216"><ele>14.0</ele><time>2026-05-03T12:08:48Z</time></trkpt><trkpt lat="14.46963269091539" lon="121.01027564463378"><ele>14.000000000000002</ele><time>2026-05-03T12:08:49Z</time></trkpt><trkpt lat="14.469680773034021" lon="121.01018681737665"><ele>14.0</ele><time>2026-05-03T12:08:50Z</time></trkpt><trkpt lat="14.469727915668882" lon="121.01010299171219"><ele>14.0</ele><time>2026-05-03T12:08:51Z</time></trkpt><trkpt lat="14.469778663623686" lon="121.0100142382892"><ele>13.999999999999998</ele><time>2026-05-03T12:08:52Z</time></trkpt><trkpt lat="14.469833531725008" lon="121.00992261159796"><ele>13.999999999999998</ele><time>2026-05-03T12:08:53Z</time></trkpt><trkpt lat="14.469894679026597" lon="121.00982677472807"><ele>14.0</ele><time>2026-05-03T12:08:54Z</time></trkpt><trkpt lat="14.469959443299864" lon="121.00972526893686"><ele>14.0</ele><time>2026-05-03T12:08:55Z</time></trkpt><trkpt lat="14.470024551574266" lon="121.00962322399238"><ele>13.799999999999999</ele><time>2026-05-03T12:08:56Z</time></trkpt><trkpt lat="14.470085331116692" lon="121.00952796349806"><ele>13.599999999999998</ele><time>2026-05-03T12:08:57Z</time></trkpt><trkpt lat="14.47014239794827" lon="121.00942733744057"><ele>13.4</ele><time>2026-05-03T12:08:58Z</time></trkpt><trkpt lat="14.47019913848647" lon="121.00933463958289"><ele>13.2</ele><time>2026-05-03T12:08:59Z</time></trkpt><trkpt lat="14.470257344319672" lon="121.00923531808469"><ele>13.0</ele><time>2026-05-03T12:09:00Z</time></trkpt><trkpt lat="14.470313902136" lon="121.00913365924013"><ele>12.8</ele><time>2026-05-03T12:09:01Z</time></trkpt><trkpt lat="14.470373748429417" lon="121.00903580280405"><ele>12.600000000000001</ele><time>2026-05-03T12:09:02Z</time></trkpt><trkpt lat="14.470433852767778" lon="121.00893585463734"><ele>12.399999999999999</ele><time>2026-05-03T12:09:03Z</time></trkpt><trkpt lat="14.470491587943357" lon="121.00884002440091"><ele>12.2</ele><time>2026-05-03T12:09:04Z</time></trkpt><trkpt lat="14.470546784221535" lon="121.00875008352752"><ele>12.0</ele><time>2026-05-03T12:09:05Z</time></trkpt><trkpt lat="14.470586861785694" lon="121.00865485677944"><ele>12.166666666666666</ele><time>2026-05-03T12:09:06Z</time></trkpt><trkpt lat="14.470638286691434" lon="121.00857563090652"><ele>12.333333333333332</ele><time>2026-05-03T12:09:07Z</time></trkpt><trkpt lat="14.470692713385496" lon="121.00849552740641"><ele>12.5</ele><time>2026-05-03T12:09:08Z</time></trkpt><trkpt lat="14.47074148151848" lon="121.00842141507795"><ele>12.666666666666666</ele><time>2026-05-03T12:09:09Z</time></trkpt><trkpt lat="14.470795194143689" lon="121.00834369399254"><ele>12.833333333333332</ele><time>2026-05-03T12:09:10Z</time></trkpt><trkpt lat="14.470843315560693" lon="121.00827465539832"><ele>13.0</ele><time>2026-05-03T12:09:11Z</time></trkpt><trkpt lat="14.470888695317118" lon="121.00820794573728"><ele>13.0</ele><time>2026-05-03T12:09:12Z</time></trkpt><trkpt lat="14.470926845003273" lon="121.00814991774993"><ele>13.0</ele><time>2026-05-03T12:09:13Z</time></trkpt><trkpt lat="14.47098931084618" lon="121.00803689923248"><ele>13.0</ele><time>2026-05-03T12:09:15Z</time></trkpt><trkpt lat="14.471056336384237" lon="121.007928804565"><ele>13.0</ele><time>2026-05-03T12:09:17Z</time></trkpt><trkpt lat="14.471094499981179" lon="121.00786604126102"><ele>13.0</ele><time>2026-05-03T12:09:18Z</time></trkpt><trkpt lat="14.471133325969937" lon="121.00780263941428"><ele>12.999999999999998</ele><time>2026-05-03T12:09:19Z</time></trkpt><trkpt lat="14.471168979500757" lon="121.00773934360144"><ele>13.0</ele><time>2026-05-03T12:09:20Z</time></trkpt><trkpt lat="14.471211638614808" lon="121.00766762078241"><ele>13.0</ele><time>2026-05-03T12:09:21Z</time></trkpt><trkpt lat="14.471257144857889" lon="121.00759616302224"><ele>13.0</ele><time>2026-05-03T12:09:22Z</time></trkpt><trkpt lat="14.471305223526201" lon="121.00751921118918"><ele>12.999999999999998</ele><time>2026-05-03T12:09:23Z</time></trkpt><trkpt lat="14.471355191609462" lon="121.00743289170146"><ele>13.0</ele><time>2026-05-03T12:09:24Z</time></trkpt><trkpt lat="14.47141046243683" lon="121.00734091063478"><ele>12.8</ele><time>2026-05-03T12:09:25Z</time></trkpt><trkpt lat="14.471467860274311" lon="121.00724920402537"><ele>12.600000000000001</ele><time>2026-05-03T12:09:26Z</time></trkpt><trkpt lat="14.471522840808825" lon="121.00716046953505"><ele>12.399999999999999</ele><time>2026-05-03T12:09:27Z</time></trkpt><trkpt lat="14.471578317129637" lon="121.00706466733459"><ele>12.2</ele><time>2026-05-03T12:09:28Z</time></trkpt><trkpt lat="14.471637192987648" lon="121.00696772379351"><ele>12.0</ele><time>2026-05-03T12:09:29Z</time></trkpt><trkpt lat="14.471696485817064" lon="121.00686660980551"><ele>12.0</ele><time>2026-05-03T12:09:30Z</time></trkpt><trkpt lat="14.471753004323382" lon="121.00677589185855"><ele>12.0</ele><time>2026-05-03T12:09:31Z</time></trkpt><trkpt lat="14.471808924271727" lon="121.00668600281054"><ele>12.0</ele><time>2026-05-03T12:09:32Z</time></trkpt><trkpt lat="14.471863911966254" lon="121.00660082905203"><ele>12.0</ele><time>2026-05-03T12:09:33Z</time></trkpt><trkpt lat="14.471915708582326" lon="121.00652228841409"><ele>12.0</ele><time>2026-05-03T12:09:34Z</time></trkpt><trkpt lat="14.471966013753253" lon="121.00644284573283"><ele>12.0</ele><time>2026-05-03T12:09:35Z</time></trkpt><trkpt lat="14.472013949842566" lon="121.0063652144442"><ele>12.0</ele><time>2026-05-03T12:09:36Z</time></trkpt><trkpt lat="14.472063400165542" lon="121.00628407770563"><ele>12.0</ele><time>2026-05-03T12:09:37Z</time></trkpt><trkpt lat="14.472111584873792" lon="121.0062000686587"><ele>12.0</ele><time>2026-05-03T12:09:38Z</time></trkpt><trkpt lat="14.47216057128275" lon="121.00611627634292"><ele>12.0</ele><time>2026-05-03T12:09:39Z</time></trkpt><trkpt lat="14.472214065996832" lon="121.00603204208936"><ele>12.166666666666666</ele><time>2026-05-03T12:09:40Z</time></trkpt><trkpt lat="14.472261345651175" lon="121.00595511381228"><ele>12.333333333333332</ele><time>2026-05-03T12:09:41Z</time></trkpt><trkpt lat="14.472303100929258" lon="121.00587776944685"><ele>12.5</ele><time>2026-05-03T12:09:42Z</time></trkpt><trkpt lat="14.472348473755675" lon="121.00580670909218"><ele>12.666666666666666</ele><time>2026-05-03T12:09:43Z</time></trkpt><trkpt lat="14.47238955711532" lon="121.00573108557244"><ele>12.833333333333332</ele><time>2026-05-03T12:09:44Z</time></trkpt><trkpt lat="14.472435459846436" lon="121.00564707099885"><ele>13.0</ele><time>2026-05-03T12:09:45Z</time></trkpt><trkpt lat="14.472483539283074" lon="121.00555396645353"><ele>13.0</ele><time>2026-05-03T12:09:46Z</time></trkpt><trkpt lat="14.472535664170968" lon="121.00545353533421"><ele>13.0</ele><time>2026-05-03T12:09:47Z</time></trkpt><trkpt lat="14.47259341945506" lon="121.0053510252342"><ele>13.0</ele><time>2026-05-03T12:09:48Z</time></trkpt><trkpt lat="14.472661650560232" lon="121.00524360306433"><ele>13.0</ele><time>2026-05-03T12:09:49Z</time></trkpt><trkpt lat="14.472731262276415" lon="121.00514121985907"><ele>13.0</ele><time>2026-05-03T12:09:50Z</time></trkpt><trkpt lat="14.47280334489823" lon="121.0050315478683"><ele>13.0</ele><time>2026-05-03T12:09:51Z</time></trkpt><trkpt lat="14.4728734132707" lon="121.00491745542114"><ele>13.0</ele><time>2026-05-03T12:09:52Z</time></trkpt><trkpt lat="14.472938711523387" lon="121.00480606705439"><ele>13.0</ele><time>2026-05-03T12:09:53Z</time></trkpt><trkpt lat="14.473003086897354" lon="121.00469610267095"><ele>12.8</ele><time>2026-05-03T12:09:54Z</time></trkpt><trkpt lat="14.47305997289642" lon="121.00459194739581"><ele>12.600000000000001</ele><time>2026-05-03T12:09:55Z</time></trkpt><trkpt lat="14.47311688001451" lon="121.00450160269432"><ele>12.399999999999999</ele><time>2026-05-03T12:09:56Z</time></trkpt><trkpt lat="14.473173174934367" lon="121.00441273667536"><ele>12.2</ele><time>2026-05-03T12:09:57Z</time></trkpt><trkpt lat="14.473230481017273" lon="121.00432706390069"><ele>12.0</ele><time>2026-05-03T12:09:58Z</time></trkpt><trkpt lat="14.473289173601016" lon="121.00423277042759"><ele>12.0</ele><time>2026-05-03T12:09:59Z</time></trkpt><trkpt lat="14.473348582713728" lon="121.00413334783977"><ele>12.0</ele><time>2026-05-03T12:10:00Z</time></trkpt><trkpt lat="14.473409635020406" lon="121.00403401826817"><ele>12.0</ele><time>2026-05-03T12:10:01Z</time></trkpt><trkpt lat="14.473473871439753" lon="121.0039329057523"><ele>12.0</ele><time>2026-05-03T12:10:02Z</time></trkpt><trkpt lat="14.473532308086913" lon="121.00383364941933"><ele>12.0</ele><time>2026-05-03T12:10:03Z</time></trkpt><trkpt lat="14.473598464047422" lon="121.00372151682704"><ele>12.0</ele><time>2026-05-03T12:10:04Z</time></trkpt><trkpt lat="14.473663558297476" lon="121.00360676848798"><ele>12.0</ele><time>2026-05-03T12:10:05Z</time></trkpt><trkpt lat="14.473733114774845" lon="121.00348487046094"><ele>12.0</ele><time>2026-05-03T12:10:06Z</time></trkpt><trkpt lat="14.473799891946681" lon="121.00336202994397"><ele>11.5</ele><time>2026-05-03T12:10:07Z</time></trkpt><trkpt lat="14.473870837350134" lon="121.0032376460317"><ele>11.0</ele><time>2026-05-03T12:10:08Z</time></trkpt><trkpt lat="14.473947053900169" lon="121.00311166246645"><ele>10.5</ele><time>2026-05-03T12:10:09Z</time></trkpt><trkpt lat="14.474012869111537" lon="121.00298733187007"><ele>10.0</ele><time>2026-05-03T12:10:10Z</time></trkpt><trkpt lat="14.474083422216022" lon="121.0028625258122"><ele>10.0</ele><time>2026-05-03T12:10:11Z</time></trkpt><trkpt lat="14.474151950193223" lon="121.00274270345028"><ele>10.0</ele><time>2026-05-03T12:10:12Z</time></trkpt><trkpt lat="14.474223209023467" lon="121.00261763658428"><ele>10.0</ele><time>2026-05-03T12:10:13Z</time></trkpt><trkpt lat="14.474298169905836" lon="121.0024918657362"><ele>10.0</ele><time>2026-05-03T12:10:14Z</time></trkpt><trkpt lat="14.47437136765098" lon="121.00236835788813"><ele>10.0</ele><time>2026-05-03T12:10:15Z</time></trkpt><trkpt lat="14.47444522520488" lon="121.00225285018077"><ele>10.0</ele><time>2026-05-03T12:10:16Z</time></trkpt><trkpt lat="14.474522916242119" lon="121.00214635560812"><ele>10.0</ele><time>2026-05-03T12:10:17Z</time></trkpt><trkpt lat="14.474587469834713" lon="121.00203819867286"><ele>10.0</ele><time>2026-05-03T12:10:18Z</time></trkpt><trkpt lat="14.474667438088709" lon="121.0019283086486"><ele>10.0</ele><time>2026-05-03T12:10:19Z</time></trkpt><trkpt lat="14.474746110111354" lon="121.00182137516373"><ele>10.0</ele><time>2026-05-03T12:10:20Z</time></trkpt><trkpt lat="14.474821267934425" lon="121.00171233966492"><ele>10.0</ele><time>2026-05-03T12:10:21Z</time></trkpt><trkpt lat="14.474897535359268" lon="121.00160912234709"><ele>10.0</ele><time>2026-05-03T12:10:22Z</time></trkpt><trkpt lat="14.474970654968578" lon="121.001515241383"><ele>10.25</ele><time>2026-05-03T12:10:23Z</time></trkpt><trkpt lat="14.475040514378227" lon="121.00142802230991"><ele>10.5</ele><time>2026-05-03T12:10:24Z</time></trkpt><trkpt lat="14.475114661551135" lon="121.00133563508997"><ele>10.75</ele><time>2026-05-03T12:10:25Z</time></trkpt><trkpt lat="14.475181504594966" lon="121.00123915945294"><ele>11.0</ele><time>2026-05-03T12:10:26Z</time></trkpt><trkpt lat="14.475251753817998" lon="121.00114802757633"><ele>11.0</ele><time>2026-05-03T12:10:27Z</time></trkpt><trkpt lat="14.475328011386859" lon="121.00105594996128"><ele>11.0</ele><time>2026-05-03T12:10:28Z</time></trkpt><trkpt lat="14.475399104145396" lon="121.00096860678117"><ele>11.0</ele><time>2026-05-03T12:10:29Z</time></trkpt><trkpt lat="14.475467669109978" lon="121.0008886745124"><ele>11.0</ele><time>2026-05-03T12:10:30Z</time></trkpt><trkpt lat="14.475533242494079" lon="121.00081282176043"><ele>11.0</ele><time>2026-05-03T12:10:31Z</time></trkpt><trkpt lat="14.47559523458973" lon="121.0007366334569"><ele>10.600000000000001</ele><time>2026-05-03T12:10:32Z</time></trkpt><trkpt lat="14.475656355599908" lon="121.00066461289784"><ele>10.200000000000001</ele><time>2026-05-03T12:10:33Z</time></trkpt><trkpt lat="14.47572137360161" lon="121.00058776509213"><ele>9.8</ele><time>2026-05-03T12:10:34Z</time></trkpt><trkpt lat="14.475795148284298" lon="121.00050712708051"><ele>9.4</ele><time>2026-05-03T12:10:35Z</time></trkpt><trkpt lat="14.475871884132358" lon="121.00042461459631"><ele>9.0</ele><time>2026-05-03T12:10:36Z</time></trkpt><trkpt lat="14.475947327125501" lon="121.00034024515341"><ele>9.0</ele><time>2026-05-03T12:10:37Z</time></trkpt><trkpt lat="14.47603039027114" lon="121.00025521104563"><ele>9.0</ele><time>2026-05-03T12:10:38Z</time></trkpt><trkpt lat="14.47612991115706" lon="121.00018717215326"><ele>9.0</ele><time>2026-05-03T12:10:39Z</time></trkpt><trkpt lat="14.476222234984041" lon="121.00010403516949"><ele>9.0</ele><time>2026-05-03T12:10:40Z</time></trkpt><trkpt lat="14.476315099278612" lon="121.00002041150006"><ele>9.0</ele><time>2026-05-03T12:10:41Z</time></trkpt><trkpt lat="14.476399079092197" lon="120.99992679807673"><ele>9.0</ele><time>2026-05-03T12:10:42Z</time></trkpt><trkpt lat="14.476496989631189" lon="120.9998471624904"><ele>9.0</ele><time>2026-05-03T12:10:43Z</time></trkpt><trkpt lat="14.47659844363568" lon="120.99976532928743"><ele>9.0</ele><time>2026-05-03T12:10:44Z</time></trkpt><trkpt lat="14.476704326777456" lon="120.99968621748351"><ele>9.0</ele><time>2026-05-03T12:10:45Z</time></trkpt><trkpt lat="14.476803651902436" lon="120.99960663566449"><ele>9.0</ele><time>2026-05-03T12:10:46Z</time></trkpt><trkpt lat="14.476907829728319" lon="120.99952678144719"><ele>9.0</ele><time>2026-05-03T12:10:47Z</time></trkpt><trkpt lat="14.477002587028009" lon="120.9994478063341"><ele>9.0</ele><time>2026-05-03T12:10:48Z</time></trkpt><trkpt lat="14.477100379963952" lon="120.99936560503689"><ele>9.0</ele><time>2026-05-03T12:10:49Z</time></trkpt><trkpt lat="14.477204465332452" lon="120.99928586146332"><ele>9.0</ele><time>2026-05-03T12:10:50Z</time></trkpt><trkpt lat="14.47730283987885" lon="120.99921104784312"><ele>9.0</ele><time>2026-05-03T12:10:51Z</time></trkpt><trkpt lat="14.477409820901853" lon="120.99913906264445"><ele>9.0</ele><time>2026-05-03T12:10:52Z</time></trkpt><trkpt lat="14.477517950371087" lon="120.99907186093498"><ele>9.0</ele><time>2026-05-03T12:10:53Z</time></trkpt><trkpt lat="14.477623171312826" lon="120.99900419529307"><ele>9.0</ele><time>2026-05-03T12:10:54Z</time></trkpt><trkpt lat="14.477734696947255" lon="120.99893280033984"><ele>9.0</ele><time>2026-05-03T12:10:55Z</time></trkpt><trkpt lat="14.477839878657207" lon="120.99886553542147"><ele>9.0</ele><time>2026-05-03T12:10:56Z</time></trkpt><trkpt lat="14.47795160014726" lon="120.99879605957307"><ele>9.0</ele><time>2026-05-03T12:10:57Z</time></trkpt><trkpt lat="14.478060312205105" lon="120.99872651522172"><ele>9.0</ele><time>2026-05-03T12:10:58Z</time></trkpt><trkpt lat="14.47816539937939" lon="120.99865667481295"><ele>9.0</ele><time>2026-05-03T12:10:59Z</time></trkpt><trkpt lat="14.478273094900535" lon="120.99858642328283"><ele>9.0</ele><time>2026-05-03T12:11:00Z</time></trkpt><trkpt lat="14.478382664189997" lon="120.99851437391065"><ele>9.0</ele><time>2026-05-03T12:11:01Z</time></trkpt><trkpt lat="14.478485361092051" lon="120.99844185807223"><ele>9.0</ele><time>2026-05-03T12:11:02Z</time></trkpt><trkpt lat="14.478593704010555" lon="120.99837159298605"><ele>9.0</ele><time>2026-05-03T12:11:03Z</time></trkpt><trkpt lat="14.478701464181638" lon="120.99829929746552"><ele>9.0</ele><time>2026-05-03T12:11:04Z</time></trkpt><trkpt lat="14.47881071833895" lon="120.99822688771499"><ele>8.5</ele><time>2026-05-03T12:11:05Z</time></trkpt><trkpt lat="14.478921283339512" lon="120.99815356445708"><ele>8.0</ele><time>2026-05-03T12:11:06Z</time></trkpt><trkpt lat="14.479034618121595" lon="120.99808422918875"><ele>7.5</ele><time>2026-05-03T12:11:07Z</time></trkpt><trkpt lat="14.479145167452774" lon="120.99801022122863"><ele>7.0</ele><time>2026-05-03T12:11:08Z</time></trkpt><trkpt lat="14.479252521765565" lon="120.99793787203704"><ele>7.0</ele><time>2026-05-03T12:11:09Z</time></trkpt><trkpt lat="14.479353738822537" lon="120.99787742060877"><ele>6.999999999999999</ele><time>2026-05-03T12:11:10Z</time></trkpt><trkpt lat="14.479448020885975" lon="120.99781817717377"><ele>6.999999999999999</ele><time>2026-05-03T12:11:11Z</time></trkpt><trkpt lat="14.479543194427514" lon="120.99775858709886"><ele>7.0</ele><time>2026-05-03T12:11:12Z</time></trkpt><trkpt lat="14.479636874850884" lon="120.99769944391782"><ele>7.0</ele><time>2026-05-03T12:11:13Z</time></trkpt><trkpt lat="14.479729915745414" lon="120.99763321863159"><ele>7.5</ele><time>2026-05-03T12:11:14Z</time></trkpt><trkpt lat="14.47982486132978" lon="120.99757213472017"><ele>8.0</ele><time>2026-05-03T12:11:15Z</time></trkpt><trkpt lat="14.479929719394523" lon="120.99750991681277"><ele>8.5</ele><time>2026-05-03T12:11:16Z</time></trkpt><trkpt lat="14.480020387915559" lon="120.99744908957233"><ele>9.0</ele><time>2026-05-03T12:11:17Z</time></trkpt><trkpt lat="14.480122041545537" lon="120.99738284718798"><ele>9.0</ele><time>2026-05-03T12:11:18Z</time></trkpt><trkpt lat="14.480212558854088" lon="120.9973268698576"><ele>9.0</ele><time>2026-05-03T12:11:19Z</time></trkpt><trkpt lat="14.480300706074097" lon="120.99726582763545"><ele>9.0</ele><time>2026-05-03T12:11:20Z</time></trkpt><trkpt lat="14.48038826720947" lon="120.9972077858197"><ele>9.0</ele><time>2026-05-03T12:11:21Z</time></trkpt><trkpt lat="14.480474572312808" lon="120.99715142349461"><ele>9.0</ele><time>2026-05-03T12:11:22Z</time></trkpt><trkpt lat="14.480556347553984" lon="120.99710179092018"><ele>8.8</ele><time>2026-05-03T12:11:23Z</time></trkpt><trkpt lat="14.480622075142863" lon="120.99706450633077"><ele>8.600000000000001</ele><time>2026-05-03T12:11:24Z</time></trkpt><trkpt lat="14.480714699997009" lon="120.99700917981865"><ele>8.4</ele><time>2026-05-03T12:11:26Z</time></trkpt><trkpt lat="14.480823318875416" lon="120.99693778176928"><ele>8.200000000000001</ele><time>2026-05-03T12:11:28Z</time></trkpt><trkpt lat="14.480885162391369" lon="120.99689774088321"><ele>8.0</ele><time>2026-05-03T12:11:29Z</time></trkpt><trkpt lat="14.480960341223252" lon="120.99684841185828"><ele>8.0</ele><time>2026-05-03T12:11:30Z</time></trkpt><trkpt lat="14.48103660349421" lon="120.99679896685844"><ele>8.0</ele><time>2026-05-03T12:11:31Z</time></trkpt><trkpt lat="14.481113341393764" lon="120.99674718992087"><ele>8.0</ele><time>2026-05-03T12:11:32Z</time></trkpt><trkpt lat="14.481194893537165" lon="120.99668861735812"><ele>8.0</ele><time>2026-05-03T12:11:33Z</time></trkpt><trkpt lat="14.481275598813154" lon="120.996634078336"><ele>8.0</ele><time>2026-05-03T12:11:34Z</time></trkpt><trkpt lat="14.481353102874325" lon="120.99657825504039"><ele>7.999999999999999</ele><time>2026-05-03T12:11:35Z</time></trkpt><trkpt lat="14.481425540350438" lon="120.99652559073847"><ele>8.0</ele><time>2026-05-03T12:11:36Z</time></trkpt><trkpt lat="14.48150043796857" lon="120.99646900321522"><ele>8.0</ele><time>2026-05-03T12:11:37Z</time></trkpt><trkpt lat="14.481571853391321" lon="120.99642115749371"><ele>8.0</ele><time>2026-05-03T12:11:38Z</time></trkpt><trkpt lat="14.481644722078869" lon="120.99637001206568"><ele>7.999999999999999</ele><time>2026-05-03T12:11:39Z</time></trkpt><trkpt lat="14.481721216577567" lon="120.9963130812186"><ele>8.0</ele><time>2026-05-03T12:11:40Z</time></trkpt><trkpt lat="14.481796874384152" lon="120.9962531520285"><ele>8.0</ele><time>2026-05-03T12:11:41Z</time></trkpt><trkpt lat="14.481874964057232" lon="120.99619596462766"><ele>8.0</ele><time>2026-05-03T12:11:42Z</time></trkpt><trkpt lat="14.481950169507856" lon="120.99614270717743"><ele>8.0</ele><time>2026-05-03T12:11:43Z</time></trkpt><trkpt lat="14.48202562481685" lon="120.99609191429634"><ele>8.0</ele><time>2026-05-03T12:11:44Z</time></trkpt><trkpt lat="14.482102458977746" lon="120.9960368249925"><ele>8.0</ele><time>2026-05-03T12:11:45Z</time></trkpt><trkpt lat="14.48218276866222" lon="120.995982093231"><ele>8.0</ele><time>2026-05-03T12:11:46Z</time></trkpt><trkpt lat="14.482261419082292" lon="120.99592936265887"><ele>8.0</ele><time>2026-05-03T12:11:47Z</time></trkpt><trkpt lat="14.482343834689843" lon="120.99586884487579"><ele>8.0</ele><time>2026-05-03T12:11:48Z</time></trkpt><trkpt lat="14.48242928171548" lon="120.99581080399703"><ele>8.0</ele><time>2026-05-03T12:11:49Z</time></trkpt><trkpt lat="14.482516939543421" lon="120.99575585272243"><ele>8.0</ele><time>2026-05-03T12:11:50Z</time></trkpt><trkpt lat="14.482609060012757" lon="120.9956997713793"><ele>8.166666666666666</ele><time>2026-05-03T12:11:51Z</time></trkpt><trkpt lat="14.482702948715945" lon="120.99563721639561"><ele>8.333333333333332</ele><time>2026-05-03T12:11:52Z</time></trkpt><trkpt lat="14.482785023978435" lon="120.99557899087795"><ele>8.5</ele><time>2026-05-03T12:11:53Z</time></trkpt><trkpt lat="14.48285290311778" lon="120.9955324330933"><ele>8.666666666666666</ele><time>2026-05-03T12:11:54Z</time></trkpt><trkpt lat="14.482909686577651" lon="120.99549007768259"><ele>8.833333333333334</ele><time>2026-05-03T12:11:55Z</time></trkpt><trkpt lat="14.482970383074278" lon="120.99545095471703"><ele>9.0</ele><time>2026-05-03T12:11:56Z</time></trkpt><trkpt lat="14.483028308132024" lon="120.99541419826599"><ele>9.2</ele><time>2026-05-03T12:11:57Z</time></trkpt><trkpt lat="14.483105242590456" lon="120.99535627516866"><ele>9.4</ele><time>2026-05-03T12:11:58Z</time></trkpt><trkpt lat="14.483175226229546" lon="120.9952987513201"><ele>9.6</ele><time>2026-05-03T12:11:59Z</time></trkpt><trkpt lat="14.483256837888351" lon="120.99523882549845"><ele>9.8</ele><time>2026-05-03T12:12:00Z</time></trkpt><trkpt lat="14.48334364438379" lon="120.9951798677226"><ele>10.0</ele><time>2026-05-03T12:12:01Z</time></trkpt><trkpt lat="14.4834331735021" lon="120.9951147450484"><ele>10.0</ele><time>2026-05-03T12:12:02Z</time></trkpt><trkpt lat="14.483525713432657" lon="120.99504573991273"><ele>10.0</ele><time>2026-05-03T12:12:03Z</time></trkpt><trkpt lat="14.483618487543572" lon="120.99498038023506"><ele>10.0</ele><time>2026-05-03T12:12:04Z</time></trkpt><trkpt lat="14.483710338279703" lon="120.99491621812415"><ele>10.0</ele><time>2026-05-03T12:12:05Z</time></trkpt><trkpt lat="14.483796181009279" lon="120.99485709835488"><ele>10.0</ele><time>2026-05-03T12:12:06Z</time></trkpt><trkpt lat="14.483891179223697" lon="120.99478748219435"><ele>9.8</ele><time>2026-05-03T12:12:07Z</time></trkpt><trkpt lat="14.483995692957105" lon="120.99471178264223"><ele>9.6</ele><time>2026-05-03T12:12:08Z</time></trkpt><trkpt lat="14.484061525153802" lon="120.99466779465921"><ele>9.4</ele><time>2026-05-03T12:12:09Z</time></trkpt><trkpt lat="14.48413530781449" lon="120.99461440425392"><ele>9.2</ele><time>2026-05-03T12:12:10Z</time></trkpt><trkpt lat="14.484218397334258" lon="120.9945527760111"><ele>9.0</ele><time>2026-05-03T12:12:11Z</time></trkpt><trkpt lat="14.484291204630182" lon="120.994499800046"><ele>9.0</ele><time>2026-05-03T12:12:12Z</time></trkpt><trkpt lat="14.484362706090115" lon="120.99444506216076"><ele>9.0</ele><time>2026-05-03T12:12:13Z</time></trkpt><trkpt lat="14.484442492747485" lon="120.99438981860445"><ele>9.0</ele><time>2026-05-03T12:12:14Z</time></trkpt><trkpt lat="14.484512322501976" lon="120.99433534127743"><ele>9.0</ele><time>2026-05-03T12:12:15Z</time></trkpt><trkpt lat="14.484570633460933" lon="120.99428042006352"><ele>9.0</ele><time>2026-05-03T12:12:16Z</time></trkpt><trkpt lat="14.484615570257361" lon="120.99422462590938"><ele>9.0</ele><time>2026-05-03T12:12:17Z</time></trkpt><trkpt lat="14.484658922581923" lon="120.99416266080837"><ele>8.0</ele><time>2026-05-03T12:12:18Z</time></trkpt><trkpt lat="14.484710781431263" lon="120.99408829501516"><ele>7.0</ele><time>2026-05-03T12:12:19Z</time></trkpt><trkpt lat="14.484753687392008" lon="120.99401296640565"><ele>6.0</ele><time>2026-05-03T12:12:20Z</time></trkpt><trkpt lat="14.48479491554309" lon="120.99393111227862"><ele>5.0</ele><time>2026-05-03T12:12:21Z</time></trkpt><trkpt lat="14.484833450016342" lon="120.99384237287968"><ele>4.0</ele><time>2026-05-03T12:12:22Z</time></trkpt><trkpt lat="14.484863026663657" lon="120.99375445002242"><ele>3.0</ele><time>2026-05-03T12:12:23Z</time></trkpt><trkpt lat="14.484886640790098" lon="120.9936590607103"><ele>3.0</ele><time>2026-05-03T12:12:24Z</time></trkpt><trkpt lat="14.484904781288403" lon="120.9935608061287"><ele>3.0</ele><time>2026-05-03T12:12:25Z</time></trkpt><trkpt lat="14.484917044664394" lon="120.99345427338116"><ele>3.0</ele><time>2026-05-03T12:12:26Z</time></trkpt><trkpt lat="14.484926955087186" lon="120.9933483250193"><ele>3.0</ele><time>2026-05-03T12:12:27Z</time></trkpt><trkpt lat="14.484932586233917" lon="120.99324952890747"><ele>3.0</ele><time>2026-05-03T12:12:28Z</time></trkpt><trkpt lat="14.48494759282754" lon="120.9931480882931"><ele>3.8</ele><time>2026-05-03T12:12:29Z</time></trkpt><trkpt lat="14.484972653067748" lon="120.99305628881979"><ele>4.6</ele><time>2026-05-03T12:12:30Z</time></trkpt><trkpt lat="14.484970062981079" lon="120.9929447789773"><ele>5.3999999999999995</ele><time>2026-05-03T12:12:31Z</time></trkpt><trkpt lat="14.484978702171832" lon="120.99284579395267"><ele>6.199999999999999</ele><time>2026-05-03T12:12:32Z</time></trkpt><trkpt lat="14.48499466023572" lon="120.99274801197933"><ele>7.0</ele><time>2026-05-03T12:12:33Z</time></trkpt><trkpt lat="14.485019556082037" lon="120.992652518353"><ele>7.0</ele><time>2026-05-03T12:12:34Z</time></trkpt><trkpt lat="14.485048890652038" lon="120.99255145711692"><ele>6.999999999999999</ele><time>2026-05-03T12:12:35Z</time></trkpt><trkpt lat="14.485081258302118" lon="120.99245697874217"><ele>6.999999999999999</ele><time>2026-05-03T12:12:36Z</time></trkpt><trkpt lat="14.485117141170784" lon="120.99235402879229"><ele>7.0</ele><time>2026-05-03T12:12:37Z</time></trkpt><trkpt lat="14.485158813497215" lon="120.99225622510873"><ele>7.0</ele><time>2026-05-03T12:12:38Z</time></trkpt><trkpt lat="14.485205482075088" lon="120.99216755121657"><ele>7.0</ele><time>2026-05-03T12:12:39Z</time></trkpt><trkpt lat="14.485257531958448" lon="120.99208762870903"><ele>6.999999999999999</ele><time>2026-05-03T12:12:40Z</time></trkpt><trkpt lat="14.485315061630487" lon="120.99200794425165"><ele>6.999999999999999</ele><time>2026-05-03T12:12:41Z</time></trkpt><trkpt lat="14.485371358062686" lon="120.99193431815645"><ele>7.0</ele><time>2026-05-03T12:12:42Z</time></trkpt><trkpt lat="14.485431436881584" lon="120.99186621931607"><ele>7.0</ele><time>2026-05-03T12:12:43Z</time></trkpt><trkpt lat="14.485488856645944" lon="120.99180445949966"><ele>7.000000000000001</ele><time>2026-05-03T12:12:44Z</time></trkpt><trkpt lat="14.485549969627657" lon="120.9917439651852"><ele>7.0</ele><time>2026-05-03T12:12:45Z</time></trkpt><trkpt lat="14.4856065507027" lon="120.99168750865134"><ele>7.0</ele><time>2026-05-03T12:12:46Z</time></trkpt><trkpt lat="14.485664989555117" lon="120.991632779813"><ele>7.0</ele><time>2026-05-03T12:12:47Z</time></trkpt><trkpt lat="14.485730803854857" lon="120.991574312606"><ele>7.000000000000001</ele><time>2026-05-03T12:12:48Z</time></trkpt><trkpt lat="14.485794859317496" lon="120.99153258583831"><ele>7.0</ele><time>2026-05-03T12:12:49Z</time></trkpt><trkpt lat="14.48586778919052" lon="120.99149579498332"><ele>7.166666666666667</ele><time>2026-05-03T12:12:50Z</time></trkpt><trkpt lat="14.485942330457755" lon="120.99144981095245"><ele>7.333333333333334</ele><time>2026-05-03T12:12:51Z</time></trkpt><trkpt lat="14.486019007090341" lon="120.99141284888879"><ele>7.5</ele><time>2026-05-03T12:12:52Z</time></trkpt><trkpt lat="14.48609838982702" lon="120.99138166563363"><ele>7.666666666666666</ele><time>2026-05-03T12:12:53Z</time></trkpt><trkpt lat="14.486176485217342" lon="120.99135937357575"><ele>7.833333333333333</ele><time>2026-05-03T12:12:54Z</time></trkpt><trkpt lat="14.486263046339024" lon="120.99133883593127"><ele>8.0</ele><time>2026-05-03T12:12:55Z</time></trkpt><trkpt lat="14.486347471723715" lon="120.99132028833414"><ele>8.0</ele><time>2026-05-03T12:12:56Z</time></trkpt><trkpt lat="14.486435668448529" lon="120.99130412023061"><ele>8.0</ele><time>2026-05-03T12:12:57Z</time></trkpt><trkpt lat="14.486527189456861" lon="120.99128709426188"><ele>8.0</ele><time>2026-05-03T12:12:58Z</time></trkpt><trkpt lat="14.48662222407014" lon="120.99127338574746"><ele>8.0</ele><time>2026-05-03T12:12:59Z</time></trkpt><trkpt lat="14.48672202992635" lon="120.99126892394904"><ele>8.0</ele><time>2026-05-03T12:13:00Z</time></trkpt><trkpt lat="14.486825842959771" lon="120.99127247870071"><ele>8.0</ele><time>2026-05-03T12:13:01Z</time></trkpt><trkpt lat="14.486921247120447" lon="120.99127521289921"><ele>8.0</ele><time>2026-05-03T12:13:02Z</time></trkpt><trkpt lat="14.487026182720857" lon="120.99128369363892"><ele>8.0</ele><time>2026-05-03T12:13:03Z</time></trkpt><trkpt lat="14.48712715562178" lon="120.99129044066991"><ele>8.0</ele><time>2026-05-03T12:13:04Z</time></trkpt><trkpt lat="14.487221476770674" lon="120.99130093126934"><ele>8.0</ele><time>2026-05-03T12:13:05Z</time></trkpt><trkpt lat="14.487316907423555" lon="120.99131184684352"><ele>8.0</ele><time>2026-05-03T12:13:06Z</time></trkpt><trkpt lat="14.487414454032695" lon="120.99132525091927"><ele>8.0</ele><time>2026-05-03T12:13:07Z</time></trkpt><trkpt lat="14.487515717629496" lon="120.99133723800507"><ele>8.0</ele><time>2026-05-03T12:13:08Z</time></trkpt><trkpt lat="14.487618116232834" lon="120.99135029770943"><ele>8.0</ele><time>2026-05-03T12:13:09Z</time></trkpt><trkpt lat="14.48772339497062" lon="120.99136262827909"><ele>8.0</ele><time>2026-05-03T12:13:10Z</time></trkpt><trkpt lat="14.487829450007846" lon="120.99137390781192"><ele>8.0</ele><time>2026-05-03T12:13:11Z</time></trkpt><trkpt lat="14.487926644339973" lon="120.9913850024481"><ele>8.0</ele><time>2026-05-03T12:13:12Z</time></trkpt><trkpt lat="14.48804349252385" lon="120.99140019815891"><ele>8.0</ele><time>2026-05-03T12:13:13Z</time></trkpt><trkpt lat="14.488149522049266" lon="120.99141237408612"><ele>8.0</ele><time>2026-05-03T12:13:14Z</time></trkpt><trkpt lat="14.488260890498008" lon="120.99142587287055"><ele>8.0</ele><time>2026-05-03T12:13:15Z</time></trkpt><trkpt lat="14.488376050364382" lon="120.99143961833153"><ele>7.75</ele><time>2026-05-03T12:13:16Z</time></trkpt><trkpt lat="14.488488289961378" lon="120.99145439851438"><ele>7.5</ele><time>2026-05-03T12:13:17Z</time></trkpt><trkpt lat="14.488607651372853" lon="120.99147676050232"><ele>7.25</ele><time>2026-05-03T12:13:18Z</time></trkpt><trkpt lat="14.48872419607606" lon="120.99149742021432"><ele>7.0</ele><time>2026-05-03T12:13:19Z</time></trkpt><trkpt lat="14.488848330443943" lon="120.99151543285691"><ele>6.75</ele><time>2026-05-03T12:13:20Z</time></trkpt><trkpt lat="14.488971854730488" lon="120.99153978164962"><ele>6.5</ele><time>2026-05-03T12:13:21Z</time></trkpt><trkpt lat="14.489091320998705" lon="120.99156570750503"><ele>6.25</ele><time>2026-05-03T12:13:22Z</time></trkpt><trkpt lat="14.489211374783956" lon="120.99159118708617"><ele>6.0</ele><time>2026-05-03T12:13:23Z</time></trkpt><trkpt lat="14.489336469351318" lon="120.99161417813849"><ele>6.0</ele><time>2026-05-03T12:13:24Z</time></trkpt><trkpt lat="14.48946386225687" lon="120.99163570535501"><ele>6.0</ele><time>2026-05-03T12:13:25Z</time></trkpt><trkpt lat="14.489594926662434" lon="120.99165981131983"><ele>6.0</ele><time>2026-05-03T12:13:26Z</time></trkpt><trkpt lat="14.489721502898492" lon="120.99168405458204"><ele>6.0</ele><time>2026-05-03T12:13:27Z</time></trkpt><trkpt lat="14.489845784568857" lon="120.99170212856275"><ele>5.75</ele><time>2026-05-03T12:13:28Z</time></trkpt><trkpt lat="14.489975276015668" lon="120.9917246565455"><ele>5.5</ele><time>2026-05-03T12:13:29Z</time></trkpt><trkpt lat="14.490102656551851" lon="120.9917496897328"><ele>5.25</ele><time>2026-05-03T12:13:30Z</time></trkpt><trkpt lat="14.490225750524353" lon="120.99177714354299"><ele>5.0</ele><time>2026-05-03T12:13:31Z</time></trkpt><trkpt lat="14.490346419782417" lon="120.99179368476874"><ele>5.0</ele><time>2026-05-03T12:13:32Z</time></trkpt><trkpt lat="14.490463109565985" lon="120.99181724045204"><ele>5.0</ele><time>2026-05-03T12:13:33Z</time></trkpt><trkpt lat="14.490586478333018" lon="120.99183661406389"><ele>5.0</ele><time>2026-05-03T12:13:34Z</time></trkpt><trkpt lat="14.490709231337645" lon="120.99185442522557"><ele>5.0</ele><time>2026-05-03T12:13:35Z</time></trkpt><trkpt lat="14.490827695019792" lon="120.99187688659231"><ele>5.0</ele><time>2026-05-03T12:13:36Z</time></trkpt><trkpt lat="14.490947393902006" lon="120.99189755051076"><ele>5.0</ele><time>2026-05-03T12:13:37Z</time></trkpt><trkpt lat="14.491067330429843" lon="120.99191832041316"><ele>5.0</ele><time>2026-05-03T12:13:38Z</time></trkpt><trkpt lat="14.491186235065268" lon="120.9919369265935"><ele>5.0</ele><time>2026-05-03T12:13:39Z</time></trkpt><trkpt lat="14.491299842535637" lon="120.99195119279898"><ele>5.6</ele><time>2026-05-03T12:13:40Z</time></trkpt><trkpt lat="14.491411446953709" lon="120.99196853787704"><ele>6.2</ele><time>2026-05-03T12:13:41Z</time></trkpt><trkpt lat="14.491520719988973" lon="120.99198755286844"><ele>6.800000000000001</ele><time>2026-05-03T12:13:42Z</time></trkpt><trkpt lat="14.49162158222801" lon="120.99200509641034"><ele>7.4</ele><time>2026-05-03T12:13:43Z</time></trkpt><trkpt lat="14.491717560669544" lon="120.99201482719185"><ele>8.0</ele><time>2026-05-03T12:13:44Z</time></trkpt><trkpt lat="14.491820840357756" lon="120.992029832499"><ele>8.0</ele><time>2026-05-03T12:13:45Z</time></trkpt><trkpt lat="14.491924854132787" lon="120.99204736906852"><ele>8.0</ele><time>2026-05-03T12:13:46Z</time></trkpt><trkpt lat="14.492024280806296" lon="120.99206289822617"><ele>8.0</ele><time>2026-05-03T12:13:47Z</time></trkpt><trkpt lat="14.49211454635498" lon="120.9920786996037"><ele>8.0</ele><time>2026-05-03T12:13:48Z</time></trkpt><trkpt lat="14.49219855040411" lon="120.99209007586359"><ele>8.0</ele><time>2026-05-03T12:13:49Z</time></trkpt><trkpt lat="14.492292177666526" lon="120.99210778595861"><ele>7.800000000000001</ele><time>2026-05-03T12:13:50Z</time></trkpt><trkpt lat="14.492384057790613" lon="120.99212490428623"><ele>7.6000000000000005</ele><time>2026-05-03T12:13:51Z</time></trkpt><trkpt lat="14.492478532588729" lon="120.99214248245119"><ele>7.3999999999999995</ele><time>2026-05-03T12:13:52Z</time></trkpt><trkpt lat="14.492578109725262" lon="120.99215945793323"><ele>7.199999999999999</ele><time>2026-05-03T12:13:53Z</time></trkpt><trkpt lat="14.49267765185247" lon="120.9921752478856"><ele>7.0</ele><time>2026-05-03T12:13:54Z</time></trkpt><trkpt lat="14.492784397973963" lon="120.99219391923738"><ele>7.0</ele><time>2026-05-03T12:13:55Z</time></trkpt><trkpt lat="14.492895066119777" lon="120.9922104604364"><ele>7.0</ele><time>2026-05-03T12:13:56Z</time></trkpt><trkpt lat="14.493010218826267" lon="120.99222984106574"><ele>7.0</ele><time>2026-05-03T12:13:57Z</time></trkpt><trkpt lat="14.49313149810906" lon="120.99224611168358"><ele>7.0</ele><time>2026-05-03T12:13:58Z</time></trkpt><trkpt lat="14.49325926376503" lon="120.99226287353919"><ele>7.0</ele><time>2026-05-03T12:13:59Z</time></trkpt><trkpt lat="14.493390176562293" lon="120.9922829246023"><ele>7.0</ele><time>2026-05-03T12:14:00Z</time></trkpt><trkpt lat="14.493521122164822" lon="120.99230042810899"><ele>7.0</ele><time>2026-05-03T12:14:01Z</time></trkpt><trkpt lat="14.49365030480674" lon="120.99232249492701"><ele>7.0</ele><time>2026-05-03T12:14:02Z</time></trkpt><trkpt lat="14.4937877356875" lon="120.99234576122237"><ele>7.0</ele><time>2026-05-03T12:14:03Z</time></trkpt><trkpt lat="14.493918467069145" lon="120.99237118793414"><ele>7.0</ele><time>2026-05-03T12:14:04Z</time></trkpt><trkpt lat="14.494049549801534" lon="120.99239471565315"><ele>7.0</ele><time>2026-05-03T12:14:05Z</time></trkpt><trkpt lat="14.494173619289851" lon="120.99241964556492"><ele>7.0</ele><time>2026-05-03T12:14:06Z</time></trkpt><trkpt lat="14.494293820698834" lon="120.9924429126294"><ele>7.0</ele><time>2026-05-03T12:14:07Z</time></trkpt><trkpt lat="14.49442170318766" lon="120.99246383884835"><ele>7.0</ele><time>2026-05-03T12:14:08Z</time></trkpt><trkpt lat="14.49454983000562" lon="120.99248176861605"><ele>7.0</ele><time>2026-05-03T12:14:09Z</time></trkpt><trkpt lat="14.494676217004795" lon="120.9925024606429"><ele>7.0</ele><time>2026-05-03T12:14:10Z</time></trkpt><trkpt lat="14.494807678450352" lon="120.99252406810696"><ele>6.25</ele><time>2026-05-03T12:14:11Z</time></trkpt><trkpt lat="14.494942032630393" lon="120.99254677578327"><ele>5.5</ele><time>2026-05-03T12:14:12Z</time></trkpt><trkpt lat="14.495076047887535" lon="120.99256905779319"><ele>4.75</ele><time>2026-05-03T12:14:13Z</time></trkpt><trkpt lat="14.495203190135543" lon="120.9925879634173"><ele>4.0</ele><time>2026-05-03T12:14:14Z</time></trkpt><trkpt lat="14.495322979002331" lon="120.99260792898576"><ele>4.6</ele><time>2026-05-03T12:14:15Z</time></trkpt><trkpt lat="14.495442197666426" lon="120.99262429667962"><ele>5.2</ele><time>2026-05-03T12:14:16Z</time></trkpt><trkpt lat="14.49555726145371" lon="120.99264095291753"><ele>5.799999999999999</ele><time>2026-05-03T12:14:17Z</time></trkpt><trkpt lat="14.495659617951638" lon="120.99265708041959"><ele>6.3999999999999995</ele><time>2026-05-03T12:14:18Z</time></trkpt><trkpt lat="14.495735430972758" lon="120.99267029297812"><ele>7.0</ele><time>2026-05-03T12:14:19Z</time></trkpt><trkpt lat="14.495799792662885" lon="120.99268262357953"><ele>7.0</ele><time>2026-05-03T12:14:20Z</time></trkpt><trkpt lat="14.495912237544784" lon="120.99269936312025"><ele>6.999999999999999</ele><time>2026-05-03T12:14:22Z</time></trkpt><trkpt lat="14.496046777338954" lon="120.99272008975966"><ele>6.999999999999999</ele><time>2026-05-03T12:14:24Z</time></trkpt><trkpt lat="14.49612921792073" lon="120.9927285760251"><ele>7.0</ele><time>2026-05-03T12:14:25Z</time></trkpt><trkpt lat="14.49622515778834" lon="120.99273731860401"><ele>7.0</ele><time>2026-05-03T12:14:26Z</time></trkpt><trkpt lat="14.496327650835996" lon="120.99274388138326"><ele>6.75</ele><time>2026-05-03T12:14:27Z</time></trkpt><trkpt lat="14.496436373212907" lon="120.9927471901985"><ele>6.5</ele><time>2026-05-03T12:14:28Z</time></trkpt><trkpt lat="14.496552799802814" lon="120.9927469747422"><ele>6.25</ele><time>2026-05-03T12:14:29Z</time></trkpt><trkpt lat="14.49666963074386" lon="120.9927440296747"><ele>6.0</ele><time>2026-05-03T12:14:30Z</time></trkpt><trkpt lat="14.49679222346688" lon="120.99273706544875"><ele>6.0</ele><time>2026-05-03T12:14:31Z</time></trkpt><trkpt lat="14.496917267517949" lon="120.99272729687895"><ele>6.0</ele><time>2026-05-03T12:14:32Z</time></trkpt><trkpt lat="14.497040423234779" lon="120.99271341691731"><ele>6.0</ele><time>2026-05-03T12:14:33Z</time></trkpt><trkpt lat="14.497166174257236" lon="120.99269098887379"><ele>6.0</ele><time>2026-05-03T12:14:34Z</time></trkpt><trkpt lat="14.497289109015945" lon="120.99266995040085"><ele>6.199999999999999</ele><time>2026-05-03T12:14:35Z</time></trkpt><trkpt lat="14.497397494905044" lon="120.99265250645777"><ele>6.3999999999999995</ele><time>2026-05-03T12:14:36Z</time></trkpt><trkpt lat="14.497496464147181" lon="120.99263321798767"><ele>6.6</ele><time>2026-05-03T12:14:37Z</time></trkpt><trkpt lat="14.497609418782382" lon="120.99261686938713"><ele>6.8</ele><time>2026-05-03T12:14:38Z</time></trkpt><trkpt lat="14.497711786174547" lon="120.99260562882986"><ele>7.0</ele><time>2026-05-03T12:14:39Z</time></trkpt><trkpt lat="14.497816496801796" lon="120.9925922400017"><ele>7.0</ele><time>2026-05-03T12:14:40Z</time></trkpt><trkpt lat="14.497928662291528" lon="120.99258793086683"><ele>7.0</ele><time>2026-05-03T12:14:41Z</time></trkpt><trkpt lat="14.498043384683784" lon="120.99259434690735"><ele>7.0</ele><time>2026-05-03T12:14:42Z</time></trkpt><trkpt lat="14.498154508710341" lon="120.99260969597209"><ele>7.0</ele><time>2026-05-03T12:14:43Z</time></trkpt><trkpt lat="14.498263559550837" lon="120.99264195765264"><ele>7.0</ele><time>2026-05-03T12:14:44Z</time></trkpt><trkpt lat="14.498361144083146" lon="120.99269302272099"><ele>6.999999999999999</ele><time>2026-05-03T12:14:45Z</time></trkpt><trkpt lat="14.498443467064057" lon="120.99276285720023"><ele>6.999999999999999</ele><time>2026-05-03T12:14:46Z</time></trkpt><trkpt lat="14.498502671445381" lon="120.99284043497542"><ele>7.0</ele><time>2026-05-03T12:14:47Z</time></trkpt><trkpt lat="14.498553145725944" lon="120.99293307091494"><ele>7.0</ele><time>2026-05-03T12:14:48Z</time></trkpt><trkpt lat="14.49859211616678" lon="120.99302849740549"><ele>7.0</ele><time>2026-05-03T12:14:49Z</time></trkpt><trkpt lat="14.498625159580394" lon="120.99313440709783"><ele>6.999999999999999</ele><time>2026-05-03T12:14:50Z</time></trkpt><trkpt lat="14.49864926214638" lon="120.99324115827504"><ele>6.999999999999999</ele><time>2026-05-03T12:14:51Z</time></trkpt><trkpt lat="14.498672949144895" lon="120.99335004546188"><ele>7.0</ele><time>2026-05-03T12:14:52Z</time></trkpt><trkpt lat="14.498697045700517" lon="120.99346213106215"><ele>7.0</ele><time>2026-05-03T12:14:53Z</time></trkpt><trkpt lat="14.49872014369893" lon="120.99357005335986"><ele>6.75</ele><time>2026-05-03T12:14:54Z</time></trkpt><trkpt lat="14.498748569637684" lon="120.99368947026583"><ele>6.5</ele><time>2026-05-03T12:14:55Z</time></trkpt><trkpt lat="14.498776374933152" lon="120.9938010937956"><ele>6.25</ele><time>2026-05-03T12:14:56Z</time></trkpt><trkpt lat="14.498807903414228" lon="120.99392384359864"><ele>6.0</ele><time>2026-05-03T12:14:57Z</time></trkpt><trkpt lat="14.498838435491253" lon="120.99404954652225"><ele>5.5</ele><time>2026-05-03T12:14:58Z</time></trkpt><trkpt lat="14.498861632394448" lon="120.99417648975474"><ele>5.0</ele><time>2026-05-03T12:14:59Z</time></trkpt><trkpt lat="14.498888451669728" lon="120.99430768947323"><ele>4.5</ele><time>2026-05-03T12:15:00Z</time></trkpt><trkpt lat="14.498907548742064" lon="120.99442779406994"><ele>4.0</ele><time>2026-05-03T12:15:01Z</time></trkpt><trkpt lat="14.49892894302806" lon="120.99456482766843"><ele>4.0</ele><time>2026-05-03T12:15:02Z</time></trkpt><trkpt lat="14.498956341987826" lon="120.99469749774686"><ele>4.0</ele><time>2026-05-03T12:15:03Z</time></trkpt><trkpt lat="14.498982228038413" lon="120.9948259716887"><ele>4.0</ele><time>2026-05-03T12:15:04Z</time></trkpt><trkpt lat="14.49900911692811" lon="120.99494650127015"><ele>4.0</ele><time>2026-05-03T12:15:05Z</time></trkpt><trkpt lat="14.499034362635205" lon="120.99506751184852"><ele>4.0</ele><time>2026-05-03T12:15:06Z</time></trkpt><trkpt lat="14.49906053398453" lon="120.9951887667629"><ele>4.0</ele><time>2026-05-03T12:15:07Z</time></trkpt><trkpt lat="14.499093739467815" lon="120.99531201315762"><ele>4.0</ele><time>2026-05-03T12:15:08Z</time></trkpt><trkpt lat="14.49912943899733" lon="120.99543676935122"><ele>4.0</ele><time>2026-05-03T12:15:09Z</time></trkpt><trkpt lat="14.499164066500091" lon="120.99555837761339"><ele>4.0</ele><time>2026-05-03T12:15:10Z</time></trkpt><trkpt lat="14.499200266691513" lon="120.9956835416988"><ele>4.0</ele><time>2026-05-03T12:15:11Z</time></trkpt><trkpt lat="14.499240672630528" lon="120.9958035460256"><ele>4.0</ele><time>2026-05-03T12:15:12Z</time></trkpt><trkpt lat="14.499289526581443" lon="120.99591841110089"><ele>4.0</ele><time>2026-05-03T12:15:13Z</time></trkpt><trkpt lat="14.499339033645796" lon="120.9960337121815"><ele>5.0</ele><time>2026-05-03T12:15:14Z</time></trkpt><trkpt lat="14.499390541303427" lon="120.99615294383365"><ele>6.0</ele><time>2026-05-03T12:15:15Z</time></trkpt><trkpt lat="14.499450236744183" lon="120.99626982109022"><ele>7.0</ele><time>2026-05-03T12:15:16Z</time></trkpt><trkpt lat="14.499513527875038" lon="120.99638473683777"><ele>8.0</ele><time>2026-05-03T12:15:17Z</time></trkpt><trkpt lat="14.499580291087577" lon="120.99649769253325"><ele>8.200000000000001</ele><time>2026-05-03T12:15:18Z</time></trkpt><trkpt lat="14.499646209674449" lon="120.99660893990925"><ele>8.4</ele><time>2026-05-03T12:15:19Z</time></trkpt><trkpt lat="14.499712089960735" lon="120.99670500063176"><ele>8.600000000000001</ele><time>2026-05-03T12:15:20Z</time></trkpt><trkpt lat="14.499774468483926" lon="120.99679712106327"><ele>8.8</ele><time>2026-05-03T12:15:21Z</time></trkpt><trkpt lat="14.499837746887716" lon="120.99687736179871"><ele>9.0</ele><time>2026-05-03T12:15:22Z</time></trkpt><trkpt lat="14.499897602235038" lon="120.99695754244233"><ele>8.5</ele><time>2026-05-03T12:15:23Z</time></trkpt><trkpt lat="14.499960182137608" lon="120.99703512388976"><ele>8.0</ele><time>2026-05-03T12:15:24Z</time></trkpt><trkpt lat="14.50001285410244" lon="120.99709418254204"><ele>7.5</ele><time>2026-05-03T12:15:25Z</time></trkpt><trkpt lat="14.50007676680696" lon="120.9971544012996"><ele>7.0</ele><time>2026-05-03T12:15:26Z</time></trkpt><trkpt lat="14.500126369369255" lon="120.99720715880792"><ele>6.5</ele><time>2026-05-03T12:15:27Z</time></trkpt><trkpt lat="14.500178029169868" lon="120.99726255358759"><ele>6.0</ele><time>2026-05-03T12:15:28Z</time></trkpt><trkpt lat="14.500225223195736" lon="120.99732419534617"><ele>6.0</ele><time>2026-05-03T12:15:30Z</time></trkpt><trkpt lat="14.500175612095095" lon="120.99741053039183"><ele>6.0</ele><time>2026-05-03T12:15:33Z</time></trkpt><trkpt lat="14.500081430391417" lon="120.9974932785267"><ele>6.0</ele><time>2026-05-03T12:15:35Z</time></trkpt><trkpt lat="14.500016943865932" lon="120.99752060959861"><ele>6.0</ele><time>2026-05-03T12:15:36Z</time></trkpt><trkpt lat="14.49994860746859" lon="120.99753812740055"><ele>6.0</ele><time>2026-05-03T12:15:37Z</time></trkpt><trkpt lat="14.499874718969064" lon="120.99755228424024"><ele>6.0</ele><time>2026-05-03T12:15:38Z</time></trkpt><trkpt lat="14.499807821530577" lon="120.99757740897385"><ele>5.7142857142857135</ele><time>2026-05-03T12:15:39Z</time></trkpt><trkpt lat="14.499737056162767" lon="120.9975967624562"><ele>5.428571428571429</ele><time>2026-05-03T12:15:40Z</time></trkpt><trkpt lat="14.499674752104218" lon="120.99761330710439"><ele>5.142857142857142</ele><time>2026-05-03T12:15:41Z</time></trkpt><trkpt lat="14.499601962371184" lon="120.99761243225969"><ele>4.857142857142857</ele><time>2026-05-03T12:15:42Z</time></trkpt><trkpt lat="14.49953267204705" lon="120.99763857953732"><ele>4.571428571428571</ele><time>2026-05-03T12:15:43Z</time></trkpt><trkpt lat="14.49945956818019" lon="120.99765256041952"><ele>4.285714285714286</ele><time>2026-05-03T12:15:44Z</time></trkpt><trkpt lat="14.499390885862292" lon="120.99767040055588"><ele>4.0</ele><time>2026-05-03T12:15:45Z</time></trkpt><trkpt lat="14.499283586082402" lon="120.99769368016871"><ele>3.8000000000000003</ele><time>2026-05-03T12:15:47Z</time></trkpt><trkpt lat="14.499171677339785" lon="120.99771576312679"><ele>3.6000000000000005</ele><time>2026-05-03T12:15:49Z</time></trkpt><trkpt lat="14.49907415126408" lon="120.99773625887171"><ele>3.4</ele><time>2026-05-03T12:15:51Z</time></trkpt><trkpt lat="14.498969656214276" lon="120.99775815192262"><ele>3.2</ele><time>2026-05-03T12:15:53Z</time></trkpt><trkpt lat="14.498850065474803" lon="120.99777132458154"><ele>3.0</ele><time>2026-05-03T12:15:55Z</time></trkpt><trkpt lat="14.498740801427932" lon="120.99778769267003"><ele>3.3333333333333335</ele><time>2026-05-03T12:15:57Z</time></trkpt><trkpt lat="14.498651201419975" lon="120.99780344765574"><ele>3.666666666666667</ele><time>2026-05-03T12:15:59Z</time></trkpt><trkpt lat="14.498584150147975" lon="120.99780318542257"><ele>4.0</ele><time>2026-05-03T12:16:02Z</time></trkpt><trkpt lat="14.498536833821735" lon="120.99774404065279"><ele>4.333333333333334</ele><time>2026-05-03T12:16:06Z</time></trkpt><trkpt lat="14.498519945151724" lon="120.99780887034616"><ele>4.666666666666667</ele><time>2026-05-03T12:39:11.001Z</time></trkpt><trkpt lat="14.498574790193127" lon="120.99785731000343"><ele>5.0</ele><time>2026-05-03T12:39:16.001Z</time></trkpt><trkpt lat="14.498659268159827" lon="120.99785562061572"><ele>4.666666666666667</ele><time>2026-05-03T12:39:18.001Z</time></trkpt><trkpt lat="14.498779726697384" lon="120.99782332912777"><ele>4.333333333333334</ele><time>2026-05-03T12:39:20.001Z</time></trkpt><trkpt lat="14.498848468746282" lon="120.9978047832657"><ele>4.0</ele><time>2026-05-03T12:39:21.001Z</time></trkpt><trkpt lat="14.498925593844335" lon="120.99779039698998"><ele>3.666666666666667</ele><time>2026-05-03T12:39:22.001Z</time></trkpt><trkpt lat="14.49900145834099" lon="120.99777166707403"><ele>3.3333333333333335</ele><time>2026-05-03T12:39:23.001Z</time></trkpt><trkpt lat="14.499089010161452" lon="120.99775270172178"><ele>3.0</ele><time>2026-05-03T12:39:24.001Z</time></trkpt><trkpt lat="14.499169359280483" lon="120.99773614705"><ele>3.0</ele><time>2026-05-03T12:39:25.001Z</time></trkpt><trkpt lat="14.499254011787995" lon="120.99771938269222"><ele>3.0</ele><time>2026-05-03T12:39:26.001Z</time></trkpt><trkpt lat="14.499339389265948" lon="120.99770225828718"><ele>3.0</ele><time>2026-05-03T12:39:27.001Z</time></trkpt><trkpt lat="14.499421243138373" lon="120.99768266745154"><ele>3.0</ele><time>2026-05-03T12:39:28.001Z</time></trkpt><trkpt lat="14.499510351111448" lon="120.99766297203492"><ele>3.0</ele><time>2026-05-03T12:39:29.001Z</time></trkpt><trkpt lat="14.49959872338781" lon="120.99764299224184"><ele>3.0</ele><time>2026-05-03T12:39:30.001Z</time></trkpt><trkpt lat="14.49968693011351" lon="120.99762429530261"><ele>3.1666666666666665</ele><time>2026-05-03T12:39:31.001Z</time></trkpt><trkpt lat="14.499775263458101" lon="120.99760236831446"><ele>3.333333333333333</ele><time>2026-05-03T12:39:32.001Z</time></trkpt><trkpt lat="14.499861177724313" lon="120.99757884988949"><ele>3.5</ele><time>2026-05-03T12:39:33.001Z</time></trkpt><trkpt lat="14.499942957392356" lon="120.99755715471626"><ele>3.6666666666666665</ele><time>2026-05-03T12:39:34.001Z</time></trkpt><trkpt lat="14.500009278470204" lon="120.99754033422968"><ele>3.833333333333333</ele><time>2026-05-03T12:39:35.001Z</time></trkpt><trkpt lat="14.500077017182871" lon="120.99752147422564"><ele>4.0</ele><time>2026-05-03T12:39:36.001Z</time></trkpt><trkpt lat="14.500140483509304" lon="120.99749702099172"><ele>4.2</ele><time>2026-05-03T12:39:37.001Z</time></trkpt><trkpt lat="14.500197406143634" lon="120.99746769760071"><ele>4.4</ele><time>2026-05-03T12:39:38.001Z</time></trkpt><trkpt lat="14.500274392785256" lon="120.99742307111119"><ele>4.6</ele><time>2026-05-03T12:39:40.001Z</time></trkpt><trkpt lat="14.5003504479009" lon="120.99741743337131"><ele>4.8</ele><time>2026-05-03T12:39:42.001Z</time></trkpt><trkpt lat="14.500508165707604" lon="120.99751556944499"><ele>5.0</ele><time>2026-05-03T12:39:45.001Z</time></trkpt><trkpt lat="14.500568653109184" lon="120.99756642458242"><ele>5.0</ele><time>2026-05-03T12:39:46.001Z</time></trkpt><trkpt lat="14.500637995662613" lon="120.99761749411573"><ele>5.0</ele><time>2026-05-03T12:39:47.001Z</time></trkpt><trkpt lat="14.50071564369766" lon="120.9976775401701"><ele>5.0</ele><time>2026-05-03T12:39:48.001Z</time></trkpt><trkpt lat="14.500795212001515" lon="120.99773636090804"><ele>5.0</ele><time>2026-05-03T12:39:49.001Z</time></trkpt><trkpt lat="14.500884247569196" lon="120.99779466648789"><ele>5.0</ele><time>2026-05-03T12:39:50.001Z</time></trkpt><trkpt lat="14.500977619470351" lon="120.99785248753992"><ele>5.0</ele><time>2026-05-03T12:39:51.001Z</time></trkpt><trkpt lat="14.501080414034735" lon="120.99791491194294"><ele>5.0</ele><time>2026-05-03T12:39:52.001Z</time></trkpt><trkpt lat="14.50117758650254" lon="120.99797059949628"><ele>5.0</ele><time>2026-05-03T12:39:53.001Z</time></trkpt><trkpt lat="14.501276829568676" lon="120.99803632347508"><ele>5.0</ele><time>2026-05-03T12:39:54.001Z</time></trkpt><trkpt lat="14.50137395190326" lon="120.99809285838072"><ele>5.25</ele><time>2026-05-03T12:39:55.001Z</time></trkpt><trkpt lat="14.501467140353629" lon="120.99814975536898"><ele>5.5</ele><time>2026-05-03T12:39:56.001Z</time></trkpt><trkpt lat="14.501566076628748" lon="120.99821391051358"><ele>5.75</ele><time>2026-05-03T12:39:57.001Z</time></trkpt><trkpt lat="14.501667895722964" lon="120.99826667862284"><ele>6.0</ele><time>2026-05-03T12:39:58.001Z</time></trkpt><trkpt lat="14.501777301026433" lon="120.99832554687309"><ele>6.6</ele><time>2026-05-03T12:39:59.001Z</time></trkpt><trkpt lat="14.501885914334315" lon="120.99838947833288"><ele>7.199999999999999</ele><time>2026-05-03T12:40:00.001Z</time></trkpt><trkpt lat="14.501986761066387" lon="120.99845294367628"><ele>7.800000000000001</ele><time>2026-05-03T12:40:01.001Z</time></trkpt><trkpt lat="14.502071239110743" lon="120.99850732676607"><ele>8.4</ele><time>2026-05-03T12:40:02.001Z</time></trkpt><trkpt lat="14.502148367256288" lon="120.99855914055661"><ele>9.0</ele><time>2026-05-03T12:40:03Z</time></trkpt><trkpt lat="14.502219709281363" lon="120.99860487888769"><ele>9.0</ele><time>2026-05-03T12:40:04Z</time></trkpt><trkpt lat="14.502301570272751" lon="120.99865412141116"><ele>9.0</ele><time>2026-05-03T12:40:05Z</time></trkpt><trkpt lat="14.502386757790125" lon="120.9987030171561"><ele>9.0</ele><time>2026-05-03T12:40:06Z</time></trkpt><trkpt lat="14.502476759893407" lon="120.99875648906003"><ele>9.0</ele><time>2026-05-03T12:40:07Z</time></trkpt><trkpt lat="14.502571191678195" lon="120.9988128753022"><ele>9.0</ele><time>2026-05-03T12:40:08Z</time></trkpt><trkpt lat="14.502662674851058" lon="120.9988710591638"><ele>9.0</ele><time>2026-05-03T12:40:09Z</time></trkpt><trkpt lat="14.502764633586889" lon="120.99893502861201"><ele>9.0</ele><time>2026-05-03T12:40:10Z</time></trkpt><trkpt lat="14.502866015577432" lon="120.99899573692109"><ele>9.0</ele><time>2026-05-03T12:40:11Z</time></trkpt><trkpt lat="14.502969778306008" lon="120.99906141819737"><ele>9.0</ele><time>2026-05-03T12:40:12Z</time></trkpt><trkpt lat="14.503075991444916" lon="120.99912894067135"><ele>9.0</ele><time>2026-05-03T12:40:13Z</time></trkpt><trkpt lat="14.503184754311183" lon="120.99919449712011"><ele>9.0</ele><time>2026-05-03T12:40:14Z</time></trkpt><trkpt lat="14.50329731042439" lon="120.99926544016813"><ele>9.0</ele><time>2026-05-03T12:40:15Z</time></trkpt><trkpt lat="14.503407515478477" lon="120.99933716610167"><ele>9.0</ele><time>2026-05-03T12:40:16Z</time></trkpt><trkpt lat="14.503517305434228" lon="120.99940775507457"><ele>9.0</ele><time>2026-05-03T12:40:17Z</time></trkpt><trkpt lat="14.503626883059253" lon="120.99947903638912"><ele>9.0</ele><time>2026-05-03T12:40:18Z</time></trkpt><trkpt lat="14.503731912953192" lon="120.99954888001729"><ele>9.0</ele><time>2026-05-03T12:40:19Z</time></trkpt><trkpt lat="14.503842517592211" lon="120.99962374119028"><ele>9.0</ele><time>2026-05-03T12:40:20Z</time></trkpt><trkpt lat="14.503956266015912" lon="120.99969936778434"><ele>9.25</ele><time>2026-05-03T12:40:21Z</time></trkpt><trkpt lat="14.504078131715904" lon="120.99977833928834"><ele>9.5</ele><time>2026-05-03T12:40:22Z</time></trkpt><trkpt lat="14.504201366228607" lon="120.99986557729804"><ele>9.75</ele><time>2026-05-03T12:40:23Z</time></trkpt><trkpt lat="14.504319664543377" lon="120.9999534903838"><ele>10.0</ele><time>2026-05-03T12:40:24Z</time></trkpt><trkpt lat="14.504440154551629" lon="121.00004868412906"><ele>10.0</ele><time>2026-05-03T12:40:25Z</time></trkpt><trkpt lat="14.50455737844342" lon="121.00014033067362"><ele>10.0</ele><time>2026-05-03T12:40:26Z</time></trkpt><trkpt lat="14.504679898100942" lon="121.00022219887265"><ele>10.0</ele><time>2026-05-03T12:40:27Z</time></trkpt><trkpt lat="14.504794830924972" lon="121.00029087443298"><ele>10.0</ele><time>2026-05-03T12:40:28Z</time></trkpt><trkpt lat="14.50491495169063" lon="121.00035574092348"><ele>9.25</ele><time>2026-05-03T12:40:29Z</time></trkpt><trkpt lat="14.505036197429192" lon="121.00042251708769"><ele>8.5</ele><time>2026-05-03T12:40:30Z</time></trkpt><trkpt lat="14.505152124850579" lon="121.0004901827032"><ele>7.75</ele><time>2026-05-03T12:40:31Z</time></trkpt><trkpt lat="14.505274202635606" lon="121.00056111207228"><ele>7.0</ele><time>2026-05-03T12:40:32Z</time></trkpt><trkpt lat="14.505391505697238" lon="121.00063283176648"><ele>7.75</ele><time>2026-05-03T12:40:33Z</time></trkpt><trkpt lat="14.505514603553605" lon="121.00070091329167"><ele>8.5</ele><time>2026-05-03T12:40:34Z</time></trkpt><trkpt lat="14.505640984607977" lon="121.00076255419745"><ele>9.25</ele><time>2026-05-03T12:40:35Z</time></trkpt><trkpt lat="14.505771323837115" lon="121.00081915718243"><ele>10.0</ele><time>2026-05-03T12:40:36Z</time></trkpt><trkpt lat="14.50589758672345" lon="121.00087751458297"><ele>10.0</ele><time>2026-05-03T12:40:37Z</time></trkpt><trkpt lat="14.506026186446602" lon="121.00093514285386"><ele>10.0</ele><time>2026-05-03T12:40:38Z</time></trkpt><trkpt lat="14.506146320285302" lon="121.000986505838"><ele>10.0</ele><time>2026-05-03T12:40:39Z</time></trkpt><trkpt lat="14.506258567090054" lon="121.00103032443333"><ele>10.0</ele><time>2026-05-03T12:40:40Z</time></trkpt><trkpt lat="14.5063634115404" lon="121.00106709630478"><ele>10.0</ele><time>2026-05-03T12:40:41Z</time></trkpt><trkpt lat="14.506470340626826" lon="121.00110249651996"><ele>10.0</ele><time>2026-05-03T12:40:42Z</time></trkpt><trkpt lat="14.506573707694029" lon="121.00113467049384"><ele>10.0</ele><time>2026-05-03T12:40:43Z</time></trkpt><trkpt lat="14.506673703777473" lon="121.0011705173274"><ele>10.0</ele><time>2026-05-03T12:40:44Z</time></trkpt><trkpt lat="14.506771951644664" lon="121.00120800107587"><ele>10.0</ele><time>2026-05-03T12:40:45Z</time></trkpt><trkpt lat="14.50686936508871" lon="121.0012462333703"><ele>10.0</ele><time>2026-05-03T12:40:46.001Z</time></trkpt><trkpt lat="14.50696893486885" lon="121.00128550382423"><ele>10.0</ele><time>2026-05-03T12:40:47.001Z</time></trkpt><trkpt lat="14.507071260172932" lon="121.00132551641379"><ele>10.0</ele><time>2026-05-03T12:40:48.001Z</time></trkpt><trkpt lat="14.507176040259555" lon="121.00136730405639"><ele>10.0</ele><time>2026-05-03T12:40:49.001Z</time></trkpt><trkpt lat="14.507281365228259" lon="121.00140377260017"><ele>10.0</ele><time>2026-05-03T12:40:50.001Z</time></trkpt><trkpt lat="14.50738595094715" lon="121.00143385376845"><ele>9.6</ele><time>2026-05-03T12:40:51.001Z</time></trkpt><trkpt lat="14.507490768613888" lon="121.00147926558897"><ele>9.2</ele><time>2026-05-03T12:40:52.001Z</time></trkpt><trkpt lat="14.5075799178272" lon="121.00151247995191"><ele>8.8</ele><time>2026-05-03T12:40:53.001Z</time></trkpt><trkpt lat="14.50767228009566" lon="121.00155943389471"><ele>8.4</ele><time>2026-05-03T12:40:54.001Z</time></trkpt><trkpt lat="14.507766765027469" lon="121.00161786950855"><ele>8.0</ele><time>2026-05-03T12:40:55.001Z</time></trkpt><trkpt lat="14.507862630044619" lon="121.00167623055225"><ele>8.200000000000001</ele><time>2026-05-03T12:40:56.001Z</time></trkpt><trkpt lat="14.507955171511675" lon="121.001728838485"><ele>8.4</ele><time>2026-05-03T12:40:57.001Z</time></trkpt><trkpt lat="14.508051952327053" lon="121.00177476702686"><ele>8.600000000000001</ele><time>2026-05-03T12:40:58.001Z</time></trkpt><trkpt lat="14.508137700148476" lon="121.00180891767235"><ele>8.8</ele><time>2026-05-03T12:40:59.001Z</time></trkpt><trkpt lat="14.508223897031993" lon="121.00184152692411"><ele>9.0</ele><time>2026-05-03T12:41:00.001Z</time></trkpt><trkpt lat="14.508317954108056" lon="121.00187157544192"><ele>9.0</ele><time>2026-05-03T12:41:01.001Z</time></trkpt><trkpt lat="14.508417017792272" lon="121.0019082852563"><ele>9.0</ele><time>2026-05-03T12:41:02.001Z</time></trkpt><trkpt lat="14.508507623333982" lon="121.00194058137343"><ele>9.0</ele><time>2026-05-03T12:41:03.001Z</time></trkpt><trkpt lat="14.508588040329725" lon="121.00197035900125"><ele>9.0</ele><time>2026-05-03T12:41:04.001Z</time></trkpt><trkpt lat="14.50865845244369" lon="121.00199248103105"><ele>9.0</ele><time>2026-05-03T12:41:05.001Z</time></trkpt><trkpt lat="14.508723071661246" lon="121.0020113373545"><ele>9.0</ele><time>2026-05-03T12:41:06.001Z</time></trkpt><trkpt lat="14.508785364244844" lon="121.00203041858829"><ele>8.666666666666666</ele><time>2026-05-03T12:41:07.001Z</time></trkpt><trkpt lat="14.508853042471204" lon="121.00204718427698"><ele>8.333333333333334</ele><time>2026-05-03T12:41:08.001Z</time></trkpt><trkpt lat="14.50892688280156" lon="121.00206411204822"><ele>8.0</ele><time>2026-05-03T12:41:09.001Z</time></trkpt><trkpt lat="14.50900745122499" lon="121.00207815683144"><ele>7.666666666666667</ele><time>2026-05-03T12:41:10.001Z</time></trkpt><trkpt lat="14.50909769325783" lon="121.00210293970223"><ele>7.333333333333334</ele><time>2026-05-03T12:41:11.001Z</time></trkpt><trkpt lat="14.50919961644789" lon="121.00213358336944"><ele>7.0</ele><time>2026-05-03T12:41:12.001Z</time></trkpt><trkpt lat="14.509306059659984" lon="121.00216328648692"><ele>7.0</ele><time>2026-05-03T12:41:13.001Z</time></trkpt><trkpt lat="14.509407770923806" lon="121.00219989094796"><ele>6.999999999999999</ele><time>2026-05-03T12:41:14.001Z</time></trkpt><trkpt lat="14.509503309259571" lon="121.00222993406223"><ele>6.999999999999999</ele><time>2026-05-03T12:41:15.001Z</time></trkpt><trkpt lat="14.50961268563972" lon="121.002260950484"><ele>7.0</ele><time>2026-05-03T12:41:16.001Z</time></trkpt><trkpt lat="14.509719873089812" lon="121.00230039632082"><ele>7.0</ele><time>2026-05-03T12:41:17.001Z</time></trkpt><trkpt lat="14.509829395877851" lon="121.00233899296626"><ele>6.5</ele><time>2026-05-03T12:41:18.001Z</time></trkpt><trkpt lat="14.509932578427097" lon="121.00237274160428"><ele>6.0</ele><time>2026-05-03T12:41:19.001Z</time></trkpt><trkpt lat="14.510052338567574" lon="121.00242003195768"><ele>5.5</ele><time>2026-05-03T12:41:20.001Z</time></trkpt><trkpt lat="14.510178980014837" lon="121.0024701380157"><ele>5.0</ele><time>2026-05-03T12:41:21.001Z</time></trkpt><trkpt lat="14.510313422159028" lon="121.00252119483959"><ele>5.333333333333334</ele><time>2026-05-03T12:41:22.001Z</time></trkpt><trkpt lat="14.510451633956308" lon="121.0025753270982"><ele>5.666666666666667</ele><time>2026-05-03T12:41:23.001Z</time></trkpt><trkpt lat="14.510594953543206" lon="121.00263148929344"><ele>6.0</ele><time>2026-05-03T12:41:24.001Z</time></trkpt><trkpt lat="14.510741036781576" lon="121.00268011666658"><ele>6.0</ele><time>2026-05-03T12:41:25.001Z</time></trkpt><trkpt lat="14.510888348781494" lon="121.00272763541831"><ele>6.0</ele><time>2026-05-03T12:41:26.001Z</time></trkpt><trkpt lat="14.511032552234235" lon="121.00277905719217"><ele>6.0</ele><time>2026-05-03T12:41:27.001Z</time></trkpt><trkpt lat="14.511177187320977" lon="121.00283170585574"><ele>6.0</ele><time>2026-05-03T12:41:28.001Z</time></trkpt><trkpt lat="14.511319154278294" lon="121.00288274658898"><ele>6.0</ele><time>2026-05-03T12:41:29.001Z</time></trkpt><trkpt lat="14.51146249584712" lon="121.00293095492331"><ele>6.0</ele><time>2026-05-03T12:41:30.001Z</time></trkpt><trkpt lat="14.51160600920029" lon="121.00298263695517"><ele>6.0</ele><time>2026-05-03T12:41:31.001Z</time></trkpt><trkpt lat="14.511747479186383" lon="121.0030377324584"><ele>6.0</ele><time>2026-05-03T12:41:32.001Z</time></trkpt><trkpt lat="14.511887992843123" lon="121.00308997849076"><ele>6.0</ele><time>2026-05-03T12:41:33.001Z</time></trkpt><trkpt lat="14.512031138206522" lon="121.00314155692348"><ele>6.666666666666666</ele><time>2026-05-03T12:41:34.001Z</time></trkpt><trkpt lat="14.512175353604173" lon="121.00319350117924"><ele>7.333333333333333</ele><time>2026-05-03T12:41:35.001Z</time></trkpt><trkpt lat="14.512321267414064" lon="121.00324812958623"><ele>8.0</ele><time>2026-05-03T12:41:36.001Z</time></trkpt><trkpt lat="14.51247011555881" lon="121.00330273375896"><ele>8.0</ele><time>2026-05-03T12:41:37.001Z</time></trkpt><trkpt lat="14.512619357663457" lon="121.00335055759842"><ele>8.0</ele><time>2026-05-03T12:41:38.001Z</time></trkpt><trkpt lat="14.51277169882422" lon="121.00340166254182"><ele>8.0</ele><time>2026-05-03T12:41:39.001Z</time></trkpt><trkpt lat="14.512922358807845" lon="121.00345185917834"><ele>8.0</ele><time>2026-05-03T12:41:40.001Z</time></trkpt><trkpt lat="14.51307530604401" lon="121.00350093197372"><ele>8.0</ele><time>2026-05-03T12:41:41.001Z</time></trkpt><trkpt lat="14.513226768512297" lon="121.00354281788186"><ele>8.0</ele><time>2026-05-03T12:41:42.001Z</time></trkpt><trkpt lat="14.51337685842301" lon="121.0035942483676"><ele>8.0</ele><time>2026-05-03T12:41:43.001Z</time></trkpt><trkpt lat="14.513525646361455" lon="121.00364563540502"><ele>8.0</ele><time>2026-05-03T12:41:44.001Z</time></trkpt><trkpt lat="14.513659348818452" lon="121.00369752737076"><ele>8.0</ele><time>2026-05-03T12:41:45.001Z</time></trkpt><trkpt lat="14.513794576547511" lon="121.00375043457765"><ele>8.0</ele><time>2026-05-03T12:41:46.001Z</time></trkpt><trkpt lat="14.513930137056008" lon="121.00380433322451"><ele>9.0</ele><time>2026-05-03T12:41:47.001Z</time></trkpt><trkpt lat="14.51406355065794" lon="121.00385408759028"><ele>10.0</ele><time>2026-05-03T12:41:48.001Z</time></trkpt><trkpt lat="14.514192962603168" lon="121.00390097986852"><ele>11.0</ele><time>2026-05-03T12:41:49.001Z</time></trkpt><trkpt lat="14.514310456239855" lon="121.00394270307366"><ele>12.0</ele><time>2026-05-03T12:41:50.001Z</time></trkpt><trkpt lat="14.514418376250413" lon="121.00398345352784"><ele>12.0</ele><time>2026-05-03T12:41:51.001Z</time></trkpt><trkpt lat="14.514519659546174" lon="121.00402116255862"><ele>12.0</ele><time>2026-05-03T12:41:52.001Z</time></trkpt><trkpt lat="14.514602512931232" lon="121.00405111438964"><ele>12.0</ele><time>2026-05-03T12:41:53.001Z</time></trkpt><trkpt lat="14.5146779011614" lon="121.00407167180579"><ele>12.0</ele><time>2026-05-03T12:41:54.001Z</time></trkpt><trkpt lat="14.514743975284446" lon="121.00408565781633"><ele>12.0</ele><time>2026-05-03T12:41:55.001Z</time></trkpt><trkpt lat="14.514830454996934" lon="121.00411657884909"><ele>12.0</ele><time>2026-05-03T12:41:57.001Z</time></trkpt><trkpt lat="14.514906988703908" lon="121.0041473628585"><ele>11.5</ele><time>2026-05-03T12:42:00.001Z</time></trkpt><trkpt lat="14.514959049819783" lon="121.00418547574624"><ele>11.0</ele><time>2026-05-03T12:42:07Z</time></trkpt><trkpt lat="14.515023346263327" lon="121.00421851835293"><ele>10.5</ele><time>2026-05-03T12:42:12Z</time></trkpt><trkpt lat="14.515084026652836" lon="121.00423892201835"><ele>10.0</ele><time>2026-05-03T12:42:18Z</time></trkpt><trkpt lat="14.515161038958047" lon="121.00424315483751"><ele>9.5</ele><time>2026-05-03T12:42:44Z</time></trkpt><trkpt lat="14.515225762858629" lon="121.00423688039838"><ele>9.0</ele><time>2026-05-03T12:42:45Z</time></trkpt><trkpt lat="14.515335484988372" lon="121.00421823016126"><ele>9.0</ele><time>2026-05-03T12:42:47Z</time></trkpt><trkpt lat="14.515334467748863" lon="121.00429381464724"><ele>9.0</ele><time>2026-05-03T12:42:48Z</time></trkpt><trkpt lat="14.515426662118754" lon="121.00414411556493"><ele>9.0</ele><time>2026-05-03T12:42:49Z</time></trkpt><trkpt lat="14.51548577929267" lon="121.00401306722779"><ele>9.0</ele><time>2026-05-03T12:42:51Z</time></trkpt><trkpt lat="14.51551723743981" lon="121.0039334594005"><ele>8.8</ele><time>2026-05-03T12:42:52Z</time></trkpt><trkpt lat="14.515552584229" lon="121.00384523178248"><ele>8.600000000000001</ele><time>2026-05-03T12:42:53Z</time></trkpt><trkpt lat="14.515610965242809" lon="121.00375552687727"><ele>8.4</ele><time>2026-05-03T12:42:54Z</time></trkpt><trkpt lat="14.515659848564264" lon="121.00365377197286"><ele>8.200000000000001</ele><time>2026-05-03T12:42:55Z</time></trkpt><trkpt lat="14.51571109136038" lon="121.003543367833"><ele>8.0</ele><time>2026-05-03T12:42:56Z</time></trkpt><trkpt lat="14.515762108844942" lon="121.0034286841955"><ele>7.5</ele><time>2026-05-03T12:42:57Z</time></trkpt><trkpt lat="14.51582293859358" lon="121.00331031098177"><ele>7.0</ele><time>2026-05-03T12:42:58Z</time></trkpt><trkpt lat="14.515886339229597" lon="121.00318669071662"><ele>6.5</ele><time>2026-05-03T12:42:59Z</time></trkpt><trkpt lat="14.515952848879737" lon="121.0030557327875"><ele>6.0</ele><time>2026-05-03T12:43:00Z</time></trkpt><trkpt lat="14.516017167968984" lon="121.00292898483508"><ele>6.0</ele><time>2026-05-03T12:43:01Z</time></trkpt><trkpt lat="14.51608711550601" lon="121.00279768991905"><ele>6.0</ele><time>2026-05-03T12:43:02Z</time></trkpt><trkpt lat="14.516154689582917" lon="121.002663965922"><ele>6.0</ele><time>2026-05-03T12:43:03Z</time></trkpt><trkpt lat="14.516224211008275" lon="121.00252737727568"><ele>6.0</ele><time>2026-05-03T12:43:04Z</time></trkpt><trkpt lat="14.51629330137591" lon="121.00239228122265"><ele>6.333333333333334</ele><time>2026-05-03T12:43:05Z</time></trkpt><trkpt lat="14.516303297843463" lon="121.00222353636929"><ele>6.666666666666667</ele><time>2026-05-03T12:43:06.001Z</time></trkpt><trkpt lat="14.516369690054079" lon="121.00208612428807"><ele>7.0</ele><time>2026-05-03T12:43:07.001Z</time></trkpt><trkpt lat="14.516433982169298" lon="121.00195214591466"><ele>7.0</ele><time>2026-05-03T12:43:08.001Z</time></trkpt><trkpt lat="14.516494156289182" lon="121.00183741096801"><ele>6.999999999999999</ele><time>2026-05-03T12:43:09.001Z</time></trkpt><trkpt lat="14.516549008526757" lon="121.0017368625319"><ele>6.999999999999999</ele><time>2026-05-03T12:43:10.001Z</time></trkpt><trkpt lat="14.516594397770202" lon="121.0016517363809"><ele>7.0</ele><time>2026-05-03T12:43:11.001Z</time></trkpt><trkpt lat="14.51663275666557" lon="121.00157500832876"><ele>7.0</ele><time>2026-05-03T12:43:12.001Z</time></trkpt><trkpt lat="14.516668582550817" lon="121.00150709667007"><ele>6.833333333333334</ele><time>2026-05-03T12:43:13.001Z</time></trkpt><trkpt lat="14.516700865214961" lon="121.00143088247945"><ele>6.666666666666667</ele><time>2026-05-03T12:43:15.001Z</time></trkpt><trkpt lat="14.516727539977559" lon="121.00136717505734"><ele>6.5</ele><time>2026-05-03T12:43:30.001Z</time></trkpt><trkpt lat="14.516753061347739" lon="121.00130506599498"><ele>6.333333333333334</ele><time>2026-05-03T12:43:32.001Z</time></trkpt><trkpt lat="14.516780302757432" lon="121.00123179427105"><ele>6.166666666666667</ele><time>2026-05-03T12:43:34.001Z</time></trkpt><trkpt lat="14.516812033733133" lon="121.00113898468143"><ele>6.0</ele><time>2026-05-03T12:43:36.001Z</time></trkpt><trkpt lat="14.516848749319744" lon="121.0010215159063"><ele>6.0</ele><time>2026-05-03T12:43:38.001Z</time></trkpt><trkpt lat="14.516929654976229" lon="121.00090828786378"><ele>6.0</ele><time>2026-05-03T12:43:40.001Z</time></trkpt><trkpt lat="14.51693374407082" lon="121.00082318292762"><ele>6.0</ele><time>2026-05-03T12:43:41.001Z</time></trkpt><trkpt lat="14.516945157949312" lon="121.00075410100317"><ele>6.0</ele><time>2026-05-03T12:43:42.001Z</time></trkpt><trkpt lat="14.516948924277317" lon="121.00061975388198"><ele>6.0</ele><time>2026-05-03T12:43:44.001Z</time></trkpt><trkpt lat="14.516967426678237" lon="121.00048711811989"><ele>5.833333333333333</ele><time>2026-05-03T12:43:46.001Z</time></trkpt><trkpt lat="14.516977743782272" lon="121.00035956883006"><ele>5.666666666666667</ele><time>2026-05-03T12:43:48.001Z</time></trkpt><trkpt lat="14.516985762884929" lon="121.00028362910192"><ele>5.5</ele><time>2026-05-03T12:43:49.001Z</time></trkpt><trkpt lat="14.516993151007993" lon="121.00021193033791"><ele>5.333333333333334</ele><time>2026-05-03T12:43:50.001Z</time></trkpt><trkpt lat="14.517004312998983" lon="121.00013996228391"><ele>5.166666666666667</ele><time>2026-05-03T12:43:51.001Z</time></trkpt><trkpt lat="14.517018716869764" lon="121.00005513394407"><ele>5.0</ele><time>2026-05-03T12:43:52.001Z</time></trkpt><trkpt lat="14.517027761565702" lon="120.99997053225546"><ele>5.0</ele><time>2026-05-03T12:43:53.001Z</time></trkpt><trkpt lat="14.51702140758781" lon="120.99987417969369"><ele>5.0</ele><time>2026-05-03T12:43:54.001Z</time></trkpt><trkpt lat="14.517025212783938" lon="120.9997837405394"><ele>5.0</ele><time>2026-05-03T12:43:55.001Z</time></trkpt><trkpt lat="14.517028840109068" lon="120.99968189193963"><ele>5.0</ele><time>2026-05-03T12:43:56.001Z</time></trkpt><trkpt lat="14.517027628641175" lon="120.99958682732193"><ele>5.0</ele><time>2026-05-03T12:43:57.001Z</time></trkpt><trkpt lat="14.517027740575266" lon="120.9994815834731"><ele>5.0</ele><time>2026-05-03T12:43:58.001Z</time></trkpt><trkpt lat="14.517029738801039" lon="120.9993783347581"><ele>5.0</ele><time>2026-05-03T12:43:59.001Z</time></trkpt><trkpt lat="14.51702867013036" lon="120.99925653035024"><ele>5.0</ele><time>2026-05-03T12:44:00.001Z</time></trkpt><trkpt lat="14.51702886516" lon="120.99913282252518"><ele>5.0</ele><time>2026-05-03T12:44:01.001Z</time></trkpt><trkpt lat="14.517022951667608" lon="120.99904455988745"><ele>5.0</ele><time>2026-05-03T12:44:02.001Z</time></trkpt><trkpt lat="14.5170261216086" lon="120.99895879134232"><ele>5.2</ele><time>2026-05-03T12:44:03.001Z</time></trkpt><trkpt lat="14.517028143862637" lon="120.99887030560916"><ele>5.4</ele><time>2026-05-03T12:44:04.001Z</time></trkpt><trkpt lat="14.517029287804883" lon="120.99878194032352"><ele>5.6</ele><time>2026-05-03T12:44:05.001Z</time></trkpt><trkpt lat="14.51703122163462" lon="120.99866580033823"><ele>5.8</ele><time>2026-05-03T12:44:06.001Z</time></trkpt><trkpt lat="14.517037309689167" lon="120.99856630777678"><ele>6.0</ele><time>2026-05-03T12:44:07.001Z</time></trkpt><trkpt lat="14.517037010324277" lon="120.99846330418974"><ele>6.0</ele><time>2026-05-03T12:44:08.001Z</time></trkpt><trkpt lat="14.517042086555747" lon="120.9983708303439"><ele>6.0</ele><time>2026-05-03T12:44:09.001Z</time></trkpt><trkpt lat="14.517048362643557" lon="120.99826280255544"><ele>6.0</ele><time>2026-05-03T12:44:10.001Z</time></trkpt><trkpt lat="14.517051868565073" lon="120.99814616313066"><ele>6.0</ele><time>2026-05-03T12:44:11.001Z</time></trkpt><trkpt lat="14.517050492840863" lon="120.99802502173948"><ele>6.0</ele><time>2026-05-03T12:44:12.001Z</time></trkpt><trkpt lat="14.517048119607447" lon="120.99789986908127"><ele>5.75</ele><time>2026-05-03T12:44:13.001Z</time></trkpt><trkpt lat="14.5170341180075" lon="120.99777564320573"><ele>5.5</ele><time>2026-05-03T12:44:14.001Z</time></trkpt><trkpt lat="14.517038386151286" lon="120.99763827967915"><ele>5.25</ele><time>2026-05-03T12:44:15.001Z</time></trkpt><trkpt lat="14.517050378721695" lon="120.99750584829303"><ele>5.0</ele><time>2026-05-03T12:44:16.001Z</time></trkpt><trkpt lat="14.517058419546954" lon="120.99738413020243"><ele>4.75</ele><time>2026-05-03T12:44:17.001Z</time></trkpt><trkpt lat="14.517065809018746" lon="120.99726755251315"><ele>4.5</ele><time>2026-05-03T12:44:18.001Z</time></trkpt><trkpt lat="14.517070753236572" lon="120.99714978499756"><ele>4.25</ele><time>2026-05-03T12:44:19.001Z</time></trkpt><trkpt lat="14.517082252044199" lon="120.99703018738631"><ele>4.0</ele><time>2026-05-03T12:44:20.001Z</time></trkpt><trkpt lat="14.517106879647427" lon="120.99691124818973"><ele>4.0</ele><time>2026-05-03T12:44:21.001Z</time></trkpt><trkpt lat="14.517114135294172" lon="120.99679195205029"><ele>4.0</ele><time>2026-05-03T12:44:22.001Z</time></trkpt><trkpt lat="14.517137443142218" lon="120.9966732724877"><ele>4.0</ele><time>2026-05-03T12:44:23.001Z</time></trkpt><trkpt lat="14.517165337266482" lon="120.99654355197809"><ele>4.0</ele><time>2026-05-03T12:44:24.001Z</time></trkpt><trkpt lat="14.517183991722238" lon="120.99643992345617"><ele>4.6</ele><time>2026-05-03T12:44:25Z</time></trkpt><trkpt lat="14.517194268468641" lon="120.99633594377657"><ele>5.2</ele><time>2026-05-03T12:44:26Z</time></trkpt><trkpt lat="14.517212170132295" lon="120.99622539837151"><ele>5.799999999999999</ele><time>2026-05-03T12:44:27Z</time></trkpt><trkpt lat="14.517220771365567" lon="120.99611247014725"><ele>6.3999999999999995</ele><time>2026-05-03T12:44:28Z</time></trkpt><trkpt lat="14.51723219101995" lon="120.99600557464024"><ele>7.0</ele><time>2026-05-03T12:44:29Z</time></trkpt><trkpt lat="14.517241113070444" lon="120.9958892363008"><ele>7.0</ele><time>2026-05-03T12:44:30Z</time></trkpt><trkpt lat="14.517256113028303" lon="120.9957776518805"><ele>6.999999999999999</ele><time>2026-05-03T12:44:31Z</time></trkpt><trkpt lat="14.517270379029208" lon="120.99565938215608"><ele>6.999999999999999</ele><time>2026-05-03T12:44:32Z</time></trkpt><trkpt lat="14.517279008512682" lon="120.99554002158409"><ele>7.0</ele><time>2026-05-03T12:44:33Z</time></trkpt><trkpt lat="14.517291952209982" lon="120.99543722080543"><ele>7.0</ele><time>2026-05-03T12:44:34Z</time></trkpt><trkpt lat="14.517308257718012" lon="120.995342904557"><ele>7.000000000000001</ele><time>2026-05-03T12:44:35Z</time></trkpt><trkpt lat="14.517321278996537" lon="120.99525463581064"><ele>7.0</ele><time>2026-05-03T12:44:36Z</time></trkpt><trkpt lat="14.517325737492781" lon="120.99517166998508"><ele>7.0</ele><time>2026-05-03T12:44:37Z</time></trkpt><trkpt lat="14.51732063859212" lon="120.99510166692025"><ele>7.0</ele><time>2026-05-03T12:44:38Z</time></trkpt><trkpt lat="14.517326914091603" lon="120.99502240391486"><ele>7.000000000000001</ele><time>2026-05-03T12:44:39Z</time></trkpt><trkpt lat="14.517342484079636" lon="120.99491970459674"><ele>7.0</ele><time>2026-05-03T12:44:40Z</time></trkpt><trkpt lat="14.517351306441213" lon="120.99483865873715"><ele>7.166666666666667</ele><time>2026-05-03T12:44:41Z</time></trkpt><trkpt lat="14.51736248393567" lon="120.99475627210806"><ele>7.333333333333334</ele><time>2026-05-03T12:44:42Z</time></trkpt><trkpt lat="14.517380266695584" lon="120.99467313345426"><ele>7.5</ele><time>2026-05-03T12:44:43Z</time></trkpt><trkpt lat="14.517405632210284" lon="120.99460105750217"><ele>7.666666666666666</ele><time>2026-05-03T12:44:44Z</time></trkpt><trkpt lat="14.517415495936584" lon="120.99452792558615"><ele>7.833333333333333</ele><time>2026-05-03T12:44:46Z</time></trkpt><trkpt lat="14.517431127531545" lon="120.99440082882252"><ele>8.0</ele><time>2026-05-03T12:44:48Z</time></trkpt><trkpt lat="14.517445922105114" lon="120.99432904793683"><ele>7.999999999999999</ele><time>2026-05-03T12:44:49Z</time></trkpt><trkpt lat="14.517463866264986" lon="120.99421223161028"><ele>8.0</ele><time>2026-05-03T12:44:51Z</time></trkpt><trkpt lat="14.517464544121014" lon="120.99409970210063"><ele>8.0</ele><time>2026-05-03T12:44:53Z</time></trkpt><trkpt lat="14.517473270661812" lon="120.99403458091041"><ele>8.0</ele><time>2026-05-03T12:44:57Z</time></trkpt><trkpt lat="14.517474216799059" lon="120.99396721815282"><ele>7.999999999999999</ele><time>2026-05-03T12:45:02Z</time></trkpt><trkpt lat="14.517479883139469" lon="120.99388960819797"><ele>8.0</ele><time>2026-05-03T12:45:08.001Z</time></trkpt><trkpt lat="14.517493387011893" lon="120.99379043795183"><ele>8.200000000000001</ele><time>2026-05-03T12:45:11.001Z</time></trkpt><trkpt lat="14.517518273894089" lon="120.99367340860405"><ele>8.4</ele><time>2026-05-03T12:45:13.001Z</time></trkpt><trkpt lat="14.51757535705761" lon="120.99356394399702"><ele>8.600000000000001</ele><time>2026-05-03T12:45:15.001Z</time></trkpt><trkpt lat="14.517684344822339" lon="120.99351448326792"><ele>8.8</ele><time>2026-05-03T12:45:17.001Z</time></trkpt><trkpt lat="14.517759730072257" lon="120.99350697185346"><ele>9.0</ele><time>2026-05-03T12:45:18.001Z</time></trkpt><trkpt lat="14.517845375575062" lon="120.9935105746592"><ele>11.0</ele><time>2026-05-03T12:45:19.001Z</time></trkpt><trkpt lat="14.517934010794956" lon="120.99350504083257"><ele>13.0</ele><time>2026-05-03T12:45:21.001Z</time></trkpt><trkpt lat="14.518000255656197" lon="120.99350617157074"><ele>15.0</ele><time>2026-05-03T12:45:22.001Z</time></trkpt><trkpt lat="14.51808592814673" lon="120.99351983326716"><ele>17.0</ele><time>2026-05-03T12:45:23.001Z</time></trkpt><trkpt lat="14.518184150153228" lon="120.99352940892375"><ele>19.0</ele><time>2026-05-03T12:45:24.001Z</time></trkpt><trkpt lat="14.51829061896081" lon="120.9935399224844"><ele>21.0</ele><time>2026-05-03T12:45:25.001Z</time></trkpt><trkpt lat="14.518407531831581" lon="120.99354948770171"><ele>21.0</ele><time>2026-05-03T12:45:26.001Z</time></trkpt><trkpt lat="14.518529579118784" lon="120.99356297214055"><ele>21.0</ele><time>2026-05-03T12:45:27.001Z</time></trkpt><trkpt lat="14.518659691311539" lon="120.99357660564819"><ele>21.0</ele><time>2026-05-03T12:45:28.001Z</time></trkpt><trkpt lat="14.518794173419918" lon="120.9935901808096"><ele>21.0</ele><time>2026-05-03T12:45:29.001Z</time></trkpt><trkpt lat="14.518935956022831" lon="120.99360567183975"><ele>23.0</ele><time>2026-05-03T12:45:30.001Z</time></trkpt><trkpt lat="14.51909140130478" lon="120.99362343318481"><ele>25.0</ele><time>2026-05-03T12:45:31.001Z</time></trkpt><trkpt lat="14.519253338592792" lon="120.99364173491135"><ele>27.0</ele><time>2026-05-03T12:45:32.001Z</time></trkpt><trkpt lat="14.519422477081678" lon="120.9936522926114"><ele>20.666666666666668</ele><time>2026-05-03T12:45:33.001Z</time></trkpt><trkpt lat="14.519603558333234" lon="120.9936598346394"><ele>14.333333333333332</ele><time>2026-05-03T12:45:34.001Z</time></trkpt><trkpt lat="14.519782132689338" lon="120.99366551699643"><ele>8.0</ele><time>2026-05-03T12:45:35.001Z</time></trkpt><trkpt lat="14.519966023112929" lon="120.99368014802054"><ele>8.0</ele><time>2026-05-03T12:45:36.001Z</time></trkpt><trkpt lat="14.520149625183874" lon="120.99369361056732"><ele>8.0</ele><time>2026-05-03T12:45:37.001Z</time></trkpt><trkpt lat="14.520344566166921" lon="120.99370607943617"><ele>8.0</ele><time>2026-05-03T12:45:38.001Z</time></trkpt><trkpt lat="14.520528469230484" lon="120.9937162065645"><ele>7.0</ele><time>2026-05-03T12:45:39.001Z</time></trkpt><trkpt lat="14.520730626219168" lon="120.9937232038136"><ele>6.0</ele><time>2026-05-03T12:45:40.001Z</time></trkpt><trkpt lat="14.520931552089776" lon="120.99372987872916"><ele>5.0</ele><time>2026-05-03T12:45:41.001Z</time></trkpt><trkpt lat="14.521132285024745" lon="120.99373471990324"><ele>5.0</ele><time>2026-05-03T12:45:42.001Z</time></trkpt><trkpt lat="14.521338907571417" lon="120.99374100040549"><ele>5.0</ele><time>2026-05-03T12:45:43.001Z</time></trkpt><trkpt lat="14.521538298940774" lon="120.99374744757225"><ele>5.0</ele><time>2026-05-03T12:45:44.001Z</time></trkpt><trkpt lat="14.521745447884706" lon="120.99375124850313"><ele>5.0</ele><time>2026-05-03T12:45:45.001Z</time></trkpt><trkpt lat="14.521947350503966" lon="120.99375894949232"><ele>5.0</ele><time>2026-05-03T12:45:46.001Z</time></trkpt><trkpt lat="14.522139565876195" lon="120.99375691682577"><ele>5.0</ele><time>2026-05-03T12:45:47.001Z</time></trkpt><trkpt lat="14.522334090292162" lon="120.9937522249796"><ele>5.0</ele><time>2026-05-03T12:45:48.001Z</time></trkpt><trkpt lat="14.522526512451076" lon="120.99374791516259"><ele>5.0</ele><time>2026-05-03T12:45:49.001Z</time></trkpt><trkpt lat="14.522710092873726" lon="120.99374082480244"><ele>5.0</ele><time>2026-05-03T12:45:50.001Z</time></trkpt><trkpt lat="14.522896942066495" lon="120.99375392384678"><ele>6.0</ele><time>2026-05-03T12:45:51.001Z</time></trkpt><trkpt lat="14.523092014912674" lon="120.99375730194991"><ele>7.0</ele><time>2026-05-03T12:45:52.001Z</time></trkpt><trkpt lat="14.523293616420851" lon="120.99376079311244"><ele>8.0</ele><time>2026-05-03T12:45:53.001Z</time></trkpt><trkpt lat="14.523480453509114" lon="120.99376466999702"><ele>8.0</ele><time>2026-05-03T12:45:54.001Z</time></trkpt><trkpt lat="14.523661481298742" lon="120.99376738391375"><ele>8.0</ele><time>2026-05-03T12:45:55.001Z</time></trkpt><trkpt lat="14.523833982524621" lon="120.99376700886016"><ele>8.0</ele><time>2026-05-03T12:45:56.001Z</time></trkpt><trkpt lat="14.52399322237012" lon="120.99376700885728"><ele>8.0</ele><time>2026-05-03T12:45:57.001Z</time></trkpt><trkpt lat="14.52415717132899" lon="120.99376700886285"><ele>8.0</ele><time>2026-05-03T12:45:58.001Z</time></trkpt><trkpt lat="14.524314765453937" lon="120.99376700885807"><ele>8.0</ele><time>2026-05-03T12:45:59.001Z</time></trkpt><trkpt lat="14.52447010716321" lon="120.99376700885902"><ele>8.333333333333332</ele><time>2026-05-03T12:46:00.001Z</time></trkpt><trkpt lat="14.524618517501377" lon="120.99376700886276"><ele>8.666666666666666</ele><time>2026-05-03T12:46:01.001Z</time></trkpt><trkpt lat="14.524765896124611" lon="120.99376700885979"><ele>9.0</ele><time>2026-05-03T12:46:02.001Z</time></trkpt><trkpt lat="14.52492361088496" lon="120.99376836344143"><ele>9.0</ele><time>2026-05-03T12:46:03.001Z</time></trkpt><trkpt lat="14.525079062875577" lon="120.99376999762481"><ele>9.0</ele><time>2026-05-03T12:46:04.001Z</time></trkpt><trkpt lat="14.525248030718128" lon="120.99375506040906"><ele>9.0</ele><time>2026-05-03T12:46:05.001Z</time></trkpt><trkpt lat="14.525419621234912" lon="120.99377274390521"><ele>11.0</ele><time>2026-05-03T12:46:06.001Z</time></trkpt><trkpt lat="14.525594364779034" lon="120.9937742051022"><ele>13.0</ele><time>2026-05-03T12:46:07.001Z</time></trkpt><trkpt lat="14.525772889182505" lon="120.99377640886588"><ele>15.0</ele><time>2026-05-03T12:46:08.001Z</time></trkpt><trkpt lat="14.525951641174803" lon="120.99376275870902"><ele>15.0</ele><time>2026-05-03T12:46:09.001Z</time></trkpt><trkpt lat="14.526135742397415" lon="120.99377156941495"><ele>15.0</ele><time>2026-05-03T12:46:10.001Z</time></trkpt><trkpt lat="14.526301904047358" lon="120.9937674275827"><ele>15.0</ele><time>2026-05-03T12:46:11.001Z</time></trkpt><trkpt lat="14.526473562239573" lon="120.99376254828549"><ele>12.333333333333334</ele><time>2026-05-03T12:46:12.001Z</time></trkpt><trkpt lat="14.526638747619913" lon="120.99375698320746"><ele>9.666666666666668</ele><time>2026-05-03T12:46:13.001Z</time></trkpt><trkpt lat="14.52680551185162" lon="120.99374821086512"><ele>7.0</ele><time>2026-05-03T12:46:14.001Z</time></trkpt><trkpt lat="14.526964513292597" lon="120.99373017798737"><ele>8.0</ele><time>2026-05-03T12:46:15.001Z</time></trkpt><trkpt lat="14.527138178168792" lon="120.9937106545913"><ele>9.0</ele><time>2026-05-03T12:46:16.001Z</time></trkpt><trkpt lat="14.527303929637885" lon="120.99370337301713"><ele>10.0</ele><time>2026-05-03T12:46:17.001Z</time></trkpt><trkpt lat="14.527466002241004" lon="120.99367830116702"><ele>10.0</ele><time>2026-05-03T12:46:18.001Z</time></trkpt><trkpt lat="14.527639776686014" lon="120.99365728544164"><ele>10.0</ele><time>2026-05-03T12:46:19.001Z</time></trkpt><trkpt lat="14.527811982842666" lon="120.99363681464514"><ele>10.0</ele><time>2026-05-03T12:46:20.001Z</time></trkpt><trkpt lat="14.527987865559988" lon="120.99361587019477"><ele>9.666666666666668</ele><time>2026-05-03T12:46:21.001Z</time></trkpt><trkpt lat="14.528162649517483" lon="120.9935973258212"><ele>9.333333333333334</ele><time>2026-05-03T12:46:22.001Z</time></trkpt><trkpt lat="14.528335262370073" lon="120.99357139931269"><ele>9.0</ele><time>2026-05-03T12:46:23.001Z</time></trkpt><trkpt lat="14.528510801859913" lon="120.99355090953304"><ele>9.0</ele><time>2026-05-03T12:46:24.001Z</time></trkpt><trkpt lat="14.528685659795556" lon="120.99353720541785"><ele>9.0</ele><time>2026-05-03T12:46:25.001Z</time></trkpt><trkpt lat="14.528854950163515" lon="120.99351801985951"><ele>9.0</ele><time>2026-05-03T12:46:26.001Z</time></trkpt><trkpt lat="14.529022629898277" lon="120.99349791139238"><ele>8.333333333333334</ele><time>2026-05-03T12:46:27.001Z</time></trkpt><trkpt lat="14.529189336741808" lon="120.9934747100786"><ele>7.666666666666667</ele><time>2026-05-03T12:46:28.001Z</time></trkpt><trkpt lat="14.529352955486294" lon="120.99346061300706"><ele>7.0</ele><time>2026-05-03T12:46:29.001Z</time></trkpt><trkpt lat="14.52951440430345" lon="120.9934408247841"><ele>8.0</ele><time>2026-05-03T12:46:30.001Z</time></trkpt><trkpt lat="14.529682686506266" lon="120.99342623059007"><ele>9.0</ele><time>2026-05-03T12:46:31.001Z</time></trkpt><trkpt lat="14.529850626611067" lon="120.99340958761339"><ele>10.0</ele><time>2026-05-03T12:46:32.001Z</time></trkpt><trkpt lat="14.530018830618646" lon="120.99339510499482"><ele>10.0</ele><time>2026-05-03T12:46:33.001Z</time></trkpt><trkpt lat="14.530182343938995" lon="120.99338126480887"><ele>10.0</ele><time>2026-05-03T12:46:34.001Z</time></trkpt><trkpt lat="14.53034980579994" lon="120.99336400958373"><ele>10.0</ele><time>2026-05-03T12:46:35.001Z</time></trkpt><trkpt lat="14.53050794553774" lon="120.99334272857826"><ele>8.25</ele><time>2026-05-03T12:46:36Z</time></trkpt><trkpt lat="14.530663878964896" lon="120.99331699707811"><ele>6.5</ele><time>2026-05-03T12:46:37Z</time></trkpt><trkpt lat="14.530805345652245" lon="120.99329806765266"><ele>4.75</ele><time>2026-05-03T12:46:38Z</time></trkpt><trkpt lat="14.5309417583811" lon="120.9932861269827"><ele>3.0</ele><time>2026-05-03T12:46:39Z</time></trkpt><trkpt lat="14.53108599969806" lon="120.99327205051873"><ele>3.75</ele><time>2026-05-03T12:46:40Z</time></trkpt><trkpt lat="14.53122695508479" lon="120.99325674965318"><ele>4.5</ele><time>2026-05-03T12:46:41Z</time></trkpt><trkpt lat="14.531372103468554" lon="120.993246309974"><ele>5.25</ele><time>2026-05-03T12:46:42Z</time></trkpt><trkpt lat="14.531519029159766" lon="120.99322970899487"><ele>6.0</ele><time>2026-05-03T12:46:43Z</time></trkpt><trkpt lat="14.531671000824643" lon="120.99321271947886"><ele>6.0</ele><time>2026-05-03T12:46:44Z</time></trkpt><trkpt lat="14.531826202869714" lon="120.9931975280634"><ele>6.0</ele><time>2026-05-03T12:46:45Z</time></trkpt><trkpt lat="14.531978158521344" lon="120.99316678577301"><ele>6.0</ele><time>2026-05-03T12:46:46Z</time></trkpt><trkpt lat="14.532130527725977" lon="120.99314141277934"><ele>6.5</ele><time>2026-05-03T12:46:47Z</time></trkpt><trkpt lat="14.532278444135574" lon="120.99311675044807"><ele>7.0</ele><time>2026-05-03T12:46:48Z</time></trkpt><trkpt lat="14.532418641584062" lon="120.99310013993133"><ele>7.5</ele><time>2026-05-03T12:46:49Z</time></trkpt><trkpt lat="14.53256078952149" lon="120.99307824855049"><ele>8.0</ele><time>2026-05-03T12:46:50Z</time></trkpt><trkpt lat="14.532693354774965" lon="120.9930523719959"><ele>8.0</ele><time>2026-05-03T12:46:51Z</time></trkpt><trkpt lat="14.532823659503824" lon="120.9930266696739"><ele>8.0</ele><time>2026-05-03T12:46:52Z</time></trkpt><trkpt lat="14.532948029863451" lon="120.9930019479388"><ele>8.0</ele><time>2026-05-03T12:46:53Z</time></trkpt><trkpt lat="14.533078812777847" lon="120.99298295887795"><ele>8.0</ele><time>2026-05-03T12:46:54Z</time></trkpt><trkpt lat="14.533200592177824" lon="120.99297073088405"><ele>9.25</ele><time>2026-05-03T12:46:55Z</time></trkpt><trkpt lat="14.533324840162358" lon="120.99295662511508"><ele>10.5</ele><time>2026-05-03T12:46:56Z</time></trkpt><trkpt lat="14.533437246731184" lon="120.9929397831563"><ele>11.75</ele><time>2026-05-03T12:46:57Z</time></trkpt><trkpt lat="14.533543640405997" lon="120.99292750068805"><ele>13.0</ele><time>2026-05-03T12:46:58Z</time></trkpt><trkpt lat="14.533660838253258" lon="120.99291443068084"><ele>11.5</ele><time>2026-05-03T12:46:59Z</time></trkpt><trkpt lat="14.533776951888214" lon="120.99289684316327"><ele>10.0</ele><time>2026-05-03T12:47:00Z</time></trkpt><trkpt lat="14.533897423247927" lon="120.99288052609472"><ele>8.5</ele><time>2026-05-03T12:47:01Z</time></trkpt><trkpt lat="14.53402031913314" lon="120.9928658280099"><ele>7.0</ele><time>2026-05-03T12:47:02Z</time></trkpt><trkpt lat="14.534136860481661" lon="120.99285134985753"><ele>7.0</ele><time>2026-05-03T12:47:03Z</time></trkpt><trkpt lat="14.534248699768908" lon="120.99283876310999"><ele>6.999999999999999</ele><time>2026-05-03T12:47:04Z</time></trkpt><trkpt lat="14.534359105302611" lon="120.99282291950054"><ele>6.999999999999999</ele><time>2026-05-03T12:47:05Z</time></trkpt><trkpt lat="14.534467124176345" lon="120.9928119640102"><ele>7.0</ele><time>2026-05-03T12:47:06Z</time></trkpt><trkpt lat="14.5345728885359" lon="120.99279661819446"><ele>7.0</ele><time>2026-05-03T12:47:07Z</time></trkpt><trkpt lat="14.534675459193497" lon="120.99278433342585"><ele>7.3999999999999995</ele><time>2026-05-03T12:47:08Z</time></trkpt><trkpt lat="14.534774914154637" lon="120.99277069231479"><ele>7.799999999999999</ele><time>2026-05-03T12:47:09Z</time></trkpt><trkpt lat="14.53487411181511" lon="120.99275887218188"><ele>8.2</ele><time>2026-05-03T12:47:10Z</time></trkpt><trkpt lat="14.534974262871959" lon="120.99274560487765"><ele>8.6</ele><time>2026-05-03T12:47:11Z</time></trkpt><trkpt lat="14.535074629893893" lon="120.99273167364878"><ele>9.0</ele><time>2026-05-03T12:47:12Z</time></trkpt><trkpt lat="14.535167597387487" lon="120.99272189123803"><ele>9.0</ele><time>2026-05-03T12:47:13Z</time></trkpt><trkpt lat="14.535280837119855" lon="120.99270538768012"><ele>9.0</ele><time>2026-05-03T12:47:14Z</time></trkpt><trkpt lat="14.53538915311877" lon="120.99269194351237"><ele>9.0</ele><time>2026-05-03T12:47:15Z</time></trkpt><trkpt lat="14.53550702233836" lon="120.99268131839983"><ele>9.0</ele><time>2026-05-03T12:47:16Z</time></trkpt><trkpt lat="14.535627159020654" lon="120.99266876395971"><ele>9.0</ele><time>2026-05-03T12:47:17Z</time></trkpt><trkpt lat="14.535742041278528" lon="120.9926535341958"><ele>9.0</ele><time>2026-05-03T12:47:18.001Z</time></trkpt><trkpt lat="14.535864481639127" lon="120.99264113442642"><ele>9.0</ele><time>2026-05-03T12:47:19.001Z</time></trkpt><trkpt lat="14.535973646318514" lon="120.99263012093151"><ele>9.0</ele><time>2026-05-03T12:47:20.001Z</time></trkpt><trkpt lat="14.536078809509128" lon="120.99261736745376"><ele>9.0</ele><time>2026-05-03T12:47:21.001Z</time></trkpt><trkpt lat="14.536186330416045" lon="120.99260605440163"><ele>9.0</ele><time>2026-05-03T12:47:22.001Z</time></trkpt><trkpt lat="14.536296265296548" lon="120.99259399963198"><ele>9.0</ele><time>2026-05-03T12:47:23.001Z</time></trkpt><trkpt lat="14.53641206280982" lon="120.99258054379419"><ele>9.0</ele><time>2026-05-03T12:47:24.001Z</time></trkpt><trkpt lat="14.536526636030464" lon="120.99256816365835"><ele>10.25</ele><time>2026-05-03T12:47:25.001Z</time></trkpt><trkpt lat="14.536620079623898" lon="120.99255965598859"><ele>11.5</ele><time>2026-05-03T12:47:26.001Z</time></trkpt><trkpt lat="14.536756696508705" lon="120.99254957759263"><ele>12.75</ele><time>2026-05-03T12:47:27.001Z</time></trkpt><trkpt lat="14.536871825302379" lon="120.9925388939133"><ele>14.0</ele><time>2026-05-03T12:47:28.001Z</time></trkpt><trkpt lat="14.536991106900201" lon="120.9925299265624"><ele>12.0</ele><time>2026-05-03T12:47:29.001Z</time></trkpt><trkpt lat="14.537116325226691" lon="120.99251659463877"><ele>10.0</ele><time>2026-05-03T12:47:30.001Z</time></trkpt><trkpt lat="14.537239465359468" lon="120.99250525512643"><ele>8.0</ele><time>2026-05-03T12:47:31.001Z</time></trkpt><trkpt lat="14.53736305492611" lon="120.99248527724428"><ele>6.0</ele><time>2026-05-03T12:47:32.001Z</time></trkpt><trkpt lat="14.537478475300412" lon="120.99246614936835"><ele>5.75</ele><time>2026-05-03T12:47:33.001Z</time></trkpt><trkpt lat="14.537592560510822" lon="120.9924463323507"><ele>5.5</ele><time>2026-05-03T12:47:34.001Z</time></trkpt><trkpt lat="14.537708528204348" lon="120.99243055252596"><ele>5.25</ele><time>2026-05-03T12:47:35.001Z</time></trkpt><trkpt lat="14.537828268440142" lon="120.99241833534342"><ele>5.0</ele><time>2026-05-03T12:47:36.001Z</time></trkpt><trkpt lat="14.5379507061018" lon="120.99240624262332"><ele>6.0</ele><time>2026-05-03T12:47:37.001Z</time></trkpt><trkpt lat="14.538076890750103" lon="120.99239653987591"><ele>7.0</ele><time>2026-05-03T12:47:38.001Z</time></trkpt><trkpt lat="14.53820353418034" lon="120.99238496641583"><ele>8.0</ele><time>2026-05-03T12:47:39.001Z</time></trkpt><trkpt lat="14.538334466038801" lon="120.99237235554237"><ele>9.0</ele><time>2026-05-03T12:47:40.001Z</time></trkpt><trkpt lat="14.538458619105715" lon="120.99235921113836"><ele>9.0</ele><time>2026-05-03T12:47:41.001Z</time></trkpt><trkpt lat="14.538581965810083" lon="120.99234619619558"><ele>9.0</ele><time>2026-05-03T12:47:42.001Z</time></trkpt><trkpt lat="14.538711265145595" lon="120.99233278580098"><ele>9.0</ele><time>2026-05-03T12:47:43.001Z</time></trkpt><trkpt lat="14.538840414018575" lon="120.99231981715283"><ele>9.0</ele><time>2026-05-03T12:47:44.001Z</time></trkpt><trkpt lat="14.538971712752284" lon="120.99230605669956"><ele>8.25</ele><time>2026-05-03T12:47:45.001Z</time></trkpt><trkpt lat="14.53910535367663" lon="120.99229244912412"><ele>7.5</ele><time>2026-05-03T12:47:46.001Z</time></trkpt><trkpt lat="14.539245483155225" lon="120.9922781613856"><ele>6.75</ele><time>2026-05-03T12:47:47.001Z</time></trkpt><trkpt lat="14.539391662940787" lon="120.99226244032708"><ele>6.0</ele><time>2026-05-03T12:47:48.001Z</time></trkpt><trkpt lat="14.539544578643229" lon="120.99224409324839"><ele>7.0</ele><time>2026-05-03T12:47:49.001Z</time></trkpt><trkpt lat="14.539705587857638" lon="120.99224117365308"><ele>8.0</ele><time>2026-05-03T12:47:50.001Z</time></trkpt><trkpt lat="14.539860480855088" lon="120.99221872066565"><ele>9.0</ele><time>2026-05-03T12:47:51.001Z</time></trkpt><trkpt lat="14.540038924090576" lon="120.99220021940701"><ele>9.0</ele><time>2026-05-03T12:47:52.001Z</time></trkpt><trkpt lat="14.540213440966648" lon="120.99217557700787"><ele>9.0</ele><time>2026-05-03T12:47:53.001Z</time></trkpt><trkpt lat="14.540384316572784" lon="120.99215831060096"><ele>9.0</ele><time>2026-05-03T12:47:54.001Z</time></trkpt><trkpt lat="14.54055237785144" lon="120.99213742709611"><ele>12.666666666666668</ele><time>2026-05-03T12:47:55.001Z</time></trkpt><trkpt lat="14.540713493680386" lon="120.99211006515338"><ele>16.333333333333336</ele><time>2026-05-03T12:47:56.001Z</time></trkpt><trkpt lat="14.540868624532024" lon="120.99208643376261"><ele>20.0</ele><time>2026-05-03T12:47:57.001Z</time></trkpt><trkpt lat="14.541025059553132" lon="120.99206334059295"><ele>20.0</ele><time>2026-05-03T12:47:58.001Z</time></trkpt><trkpt lat="14.541196835208263" lon="120.99202686579754"><ele>20.0</ele><time>2026-05-03T12:47:59.001Z</time></trkpt><trkpt lat="14.541376303079277" lon="120.99199956908726"><ele>20.0</ele><time>2026-05-03T12:48:00.001Z</time></trkpt><trkpt lat="14.541544919551779" lon="120.99196200410086"><ele>16.0</ele><time>2026-05-03T12:48:01.001Z</time></trkpt><trkpt lat="14.541731524872969" lon="120.99192932273114"><ele>12.0</ele><time>2026-05-03T12:48:02.001Z</time></trkpt><trkpt lat="14.541919337024678" lon="120.99189778948345"><ele>8.0</ele><time>2026-05-03T12:48:03.001Z</time></trkpt><trkpt lat="14.542106688564672" lon="120.99187014618394"><ele>8.0</ele><time>2026-05-03T12:48:04.001Z</time></trkpt><trkpt lat="14.542305751039978" lon="120.99183600512823"><ele>8.0</ele><time>2026-05-03T12:48:05.001Z</time></trkpt><trkpt lat="14.542495624605268" lon="120.99181343268319"><ele>8.0</ele><time>2026-05-03T12:48:06.001Z</time></trkpt><trkpt lat="14.542681155485003" lon="120.99177795456644"><ele>8.0</ele><time>2026-05-03T12:48:07.001Z</time></trkpt><trkpt lat="14.542855919567822" lon="120.99174612656962"><ele>8.0</ele><time>2026-05-03T12:48:08.001Z</time></trkpt><trkpt lat="14.543013569782097" lon="120.99171529270295"><ele>8.0</ele><time>2026-05-03T12:48:09.001Z</time></trkpt><trkpt lat="14.543170851339235" lon="120.99167706454999"><ele>7.5</ele><time>2026-05-03T12:48:10.001Z</time></trkpt><trkpt lat="14.543302734723868" lon="120.99165710200091"><ele>7.0</ele><time>2026-05-03T12:48:11.001Z</time></trkpt><trkpt lat="14.543436340144373" lon="120.99163070875944"><ele>6.5</ele><time>2026-05-03T12:48:12.001Z</time></trkpt><trkpt lat="14.543571625957474" lon="120.99160988277558"><ele>6.0</ele><time>2026-05-03T12:48:13.001Z</time></trkpt><trkpt lat="14.543710247579115" lon="120.99158562481901"><ele>6.666666666666666</ele><time>2026-05-03T12:48:14.001Z</time></trkpt><trkpt lat="14.543861392121167" lon="120.99156151054184"><ele>7.333333333333333</ele><time>2026-05-03T12:48:15.001Z</time></trkpt><trkpt lat="14.54401351436093" lon="120.99153404870064"><ele>8.0</ele><time>2026-05-03T12:48:16.001Z</time></trkpt><trkpt lat="14.544171608053482" lon="120.99151013528864"><ele>8.0</ele><time>2026-05-03T12:48:17.001Z</time></trkpt><trkpt lat="14.544331930860466" lon="120.99147966037633"><ele>8.0</ele><time>2026-05-03T12:48:18.001Z</time></trkpt><trkpt lat="14.544483542051148" lon="120.9914506457753"><ele>8.0</ele><time>2026-05-03T12:48:19.001Z</time></trkpt><trkpt lat="14.544652958987829" lon="120.99141640982059"><ele>9.0</ele><time>2026-05-03T12:48:20.001Z</time></trkpt><trkpt lat="14.544822868644228" lon="120.99139418704269"><ele>10.0</ele><time>2026-05-03T12:48:21.001Z</time></trkpt><trkpt lat="14.544979446362964" lon="120.9913621269286"><ele>11.0</ele><time>2026-05-03T12:48:22.001Z</time></trkpt><trkpt lat="14.545142663595467" lon="120.99132004085637"><ele>11.0</ele><time>2026-05-03T12:48:23.001Z</time></trkpt><trkpt lat="14.54531098294273" lon="120.99128101486833"><ele>11.0</ele><time>2026-05-03T12:48:24.001Z</time></trkpt><trkpt lat="14.545485078495092" lon="120.99124300058017"><ele>11.0</ele><time>2026-05-03T12:48:25.001Z</time></trkpt><trkpt lat="14.545654567679211" lon="120.99119947460161"><ele>9.666666666666666</ele><time>2026-05-03T12:48:26.001Z</time></trkpt><trkpt lat="14.545828671680548" lon="120.99115235693291"><ele>8.333333333333334</ele><time>2026-05-03T12:48:27.001Z</time></trkpt><trkpt lat="14.546006067618883" lon="120.9911122243893"><ele>7.0</ele><time>2026-05-03T12:48:28.001Z</time></trkpt><trkpt lat="14.546179704813053" lon="120.99106851318886"><ele>8.666666666666668</ele><time>2026-05-03T12:48:29.001Z</time></trkpt><trkpt lat="14.546358886351532" lon="120.9910228927318"><ele>10.333333333333334</ele><time>2026-05-03T12:48:30.001Z</time></trkpt><trkpt lat="14.546536433925642" lon="120.99097864726674"><ele>12.0</ele><time>2026-05-03T12:48:31.001Z</time></trkpt><trkpt lat="14.546718942641354" lon="120.99093159821889"><ele>12.0</ele><time>2026-05-03T12:48:32.001Z</time></trkpt><trkpt lat="14.546896437219287" lon="120.99087970953096"><ele>12.0</ele><time>2026-05-03T12:48:33.001Z</time></trkpt><trkpt lat="14.547069220849993" lon="120.99083641852013"><ele>12.0</ele><time>2026-05-03T12:48:34.001Z</time></trkpt><trkpt lat="14.547256718729775" lon="120.9908036838174"><ele>10.666666666666666</ele><time>2026-05-03T12:48:35.001Z</time></trkpt><trkpt lat="14.547440415979151" lon="120.99076689653657"><ele>9.333333333333332</ele><time>2026-05-03T12:48:36.001Z</time></trkpt><trkpt lat="14.547615162832605" lon="120.99072676774067"><ele>8.0</ele><time>2026-05-03T12:48:37Z</time></trkpt><trkpt lat="14.54780291605855" lon="120.99068059877833"><ele>10.333333333333332</ele><time>2026-05-03T12:48:38Z</time></trkpt><trkpt lat="14.547983893852988" lon="120.99063754862506"><ele>12.666666666666666</ele><time>2026-05-03T12:48:39Z</time></trkpt><trkpt lat="14.548173346476368" lon="120.99060016777933"><ele>15.0</ele><time>2026-05-03T12:48:40Z</time></trkpt><trkpt lat="14.548361199402903" lon="120.99055816879171"><ele>15.0</ele><time>2026-05-03T12:48:41Z</time></trkpt><trkpt lat="14.548547266169798" lon="120.9905128227691"><ele>15.0</ele><time>2026-05-03T12:48:42Z</time></trkpt><trkpt lat="14.548739835667565" lon="120.99046814797734"><ele>15.0</ele><time>2026-05-03T12:48:43Z</time></trkpt><trkpt lat="14.548929532579953" lon="120.99042192481451"><ele>12.666666666666666</ele><time>2026-05-03T12:48:44Z</time></trkpt><trkpt lat="14.549113014981588" lon="120.99037913770444"><ele>10.333333333333332</ele><time>2026-05-03T12:48:45Z</time></trkpt><trkpt lat="14.549289546330263" lon="120.99034072514759"><ele>8.0</ele><time>2026-05-03T12:48:46Z</time></trkpt><trkpt lat="14.549449670160579" lon="120.99029651599139"><ele>8.333333333333332</ele><time>2026-05-03T12:48:47Z</time></trkpt><trkpt lat="14.549616197180594" lon="120.99025933254609"><ele>8.666666666666666</ele><time>2026-05-03T12:48:48Z</time></trkpt><trkpt lat="14.549775209381954" lon="120.99021793719633"><ele>9.0</ele><time>2026-05-03T12:48:49Z</time></trkpt><trkpt lat="14.549931096811418" lon="120.99017822795135"><ele>9.0</ele><time>2026-05-03T12:48:50Z</time></trkpt><trkpt lat="14.55008190881746" lon="120.99014219989245"><ele>9.0</ele><time>2026-05-03T12:48:51Z</time></trkpt><trkpt lat="14.550242497367128" lon="120.99011055531432"><ele>9.0</ele><time>2026-05-03T12:48:52Z</time></trkpt><trkpt lat="14.550393913148728" lon="120.99007455036977"><ele>9.0</ele><time>2026-05-03T12:48:53Z</time></trkpt><trkpt lat="14.550549579660633" lon="120.99004300400053"><ele>9.0</ele><time>2026-05-03T12:48:54Z</time></trkpt><trkpt lat="14.55069994593333" lon="120.99000826520107"><ele>9.0</ele><time>2026-05-03T12:48:55Z</time></trkpt><trkpt lat="14.550857646765696" lon="120.98997225108334"><ele>9.0</ele><time>2026-05-03T12:48:56Z</time></trkpt><trkpt lat="14.551014140325949" lon="120.98993971497497"><ele>9.0</ele><time>2026-05-03T12:48:57Z</time></trkpt><trkpt lat="14.551153541172917" lon="120.98990161198927"><ele>9.0</ele><time>2026-05-03T12:48:58Z</time></trkpt><trkpt lat="14.551288712511898" lon="120.98986984150471"><ele>9.0</ele><time>2026-05-03T12:48:59Z</time></trkpt><trkpt lat="14.55141025066081" lon="120.98984210948365"><ele>9.0</ele><time>2026-05-03T12:49:00Z</time></trkpt><trkpt lat="14.551530141122688" lon="120.9898105741125"><ele>9.0</ele><time>2026-05-03T12:49:01Z</time></trkpt><trkpt lat="14.551639956813519" lon="120.98978864251511"><ele>9.0</ele><time>2026-05-03T12:49:02Z</time></trkpt><trkpt lat="14.551745160288508" lon="120.98976541321485"><ele>9.0</ele><time>2026-05-03T12:49:03Z</time></trkpt><trkpt lat="14.551847053130322" lon="120.98974389889295"><ele>9.0</ele><time>2026-05-03T12:49:04Z</time></trkpt><trkpt lat="14.551938978239994" lon="120.98972387594746"><ele>9.0</ele><time>2026-05-03T12:49:05Z</time></trkpt><trkpt lat="14.552010058537709" lon="120.98970658304543"><ele>9.0</ele><time>2026-05-03T12:49:06Z</time></trkpt><trkpt lat="14.552097971354323" lon="120.98969242423479"><ele>9.0</ele><time>2026-05-03T12:49:08Z</time></trkpt><trkpt lat="14.552179544043911" lon="120.98971769347537"><ele>9.0</ele><time>2026-05-03T12:49:11Z</time></trkpt><trkpt lat="14.552224712027009" lon="120.98980132287701"><ele>9.0</ele><time>2026-05-03T12:49:13Z</time></trkpt><trkpt lat="14.5522465975396" lon="120.98989591345304"><ele>9.0</ele><time>2026-05-03T12:49:15Z</time></trkpt><trkpt lat="14.552274417827565" lon="120.99000670991548"><ele>9.166666666666666</ele><time>2026-05-03T12:49:17Z</time></trkpt><trkpt lat="14.552291850016074" lon="120.99008101135136"><ele>9.333333333333334</ele><time>2026-05-03T12:49:18Z</time></trkpt><trkpt lat="14.552313157234753" lon="120.99016051850262"><ele>9.5</ele><time>2026-05-03T12:49:19Z</time></trkpt><trkpt lat="14.552335356068921" lon="120.99024123435281"><ele>9.666666666666668</ele><time>2026-05-03T12:49:20Z</time></trkpt><trkpt lat="14.552358026295003" lon="120.99032699018667"><ele>9.833333333333334</ele><time>2026-05-03T12:49:21Z</time></trkpt><trkpt lat="14.552389051301013" lon="120.99042189293193"><ele>10.0</ele><time>2026-05-03T12:49:22Z</time></trkpt><trkpt lat="14.552429870979331" lon="120.99052961948288"><ele>10.0</ele><time>2026-05-03T12:49:23Z</time></trkpt><trkpt lat="14.55247085107021" lon="120.9906427177206"><ele>10.0</ele><time>2026-05-03T12:49:24Z</time></trkpt><trkpt lat="14.552519106266832" lon="120.99076298534158"><ele>10.0</ele><time>2026-05-03T12:49:25Z</time></trkpt><trkpt lat="14.552572956947312" lon="120.99088574327776"><ele>10.0</ele><time>2026-05-03T12:49:26Z</time></trkpt><trkpt lat="14.552626747466523" lon="120.99101212082407"><ele>10.0</ele><time>2026-05-03T12:49:27Z</time></trkpt><trkpt lat="14.552679014354915" lon="120.99115101353337"><ele>10.0</ele><time>2026-05-03T12:49:28Z</time></trkpt><trkpt lat="14.552732140092505" lon="120.99129357642745"><ele>10.0</ele><time>2026-05-03T12:49:29Z</time></trkpt><trkpt lat="14.552781080044372" lon="120.99143533438675"><ele>10.0</ele><time>2026-05-03T12:49:30Z</time></trkpt><trkpt lat="14.552834158507398" lon="120.99159001517135"><ele>10.0</ele><time>2026-05-03T12:49:31Z</time></trkpt><trkpt lat="14.552880379198218" lon="120.99173947656534"><ele>10.0</ele><time>2026-05-03T12:49:32Z</time></trkpt><trkpt lat="14.552919125517052" lon="120.99188095724152"><ele>10.0</ele><time>2026-05-03T12:49:33Z</time></trkpt><trkpt lat="14.55296637283817" lon="120.99202733646271"><ele>10.0</ele><time>2026-05-03T12:49:34Z</time></trkpt><trkpt lat="14.55300910961645" lon="120.9921756135834"><ele>10.0</ele><time>2026-05-03T12:49:35Z</time></trkpt><trkpt lat="14.553055684443425" lon="120.99233067350808"><ele>10.0</ele><time>2026-05-03T12:49:36Z</time></trkpt><trkpt lat="14.553097308008116" lon="120.99248804208027"><ele>10.0</ele><time>2026-05-03T12:49:37Z</time></trkpt><trkpt lat="14.553137609949129" lon="120.99264638423377"><ele>9.666666666666668</ele><time>2026-05-03T12:49:38Z</time></trkpt><trkpt lat="14.553179483468078" lon="120.9928071677286"><ele>9.333333333333334</ele><time>2026-05-03T12:49:39Z</time></trkpt><trkpt lat="14.553212661076305" lon="120.99296856358056"><ele>9.0</ele><time>2026-05-03T12:49:40Z</time></trkpt><trkpt lat="14.55323972106872" lon="120.99313429224868"><ele>9.0</ele><time>2026-05-03T12:49:41Z</time></trkpt><trkpt lat="14.553262527389338" lon="120.99328485121023"><ele>9.0</ele><time>2026-05-03T12:49:42Z</time></trkpt><trkpt lat="14.553284540571836" lon="120.99342568671867"><ele>9.0</ele><time>2026-05-03T12:49:43Z</time></trkpt><trkpt lat="14.553291550102617" lon="120.99355620290531"><ele>9.0</ele><time>2026-05-03T12:49:44Z</time></trkpt><trkpt lat="14.553299629969116" lon="120.99367656346936"><ele>9.25</ele><time>2026-05-03T12:49:45Z</time></trkpt><trkpt lat="14.553300841808094" lon="120.9938001139744"><ele>9.5</ele><time>2026-05-03T12:49:46Z</time></trkpt><trkpt lat="14.553305164207993" lon="120.99391609143323"><ele>9.75</ele><time>2026-05-03T12:49:47Z</time></trkpt><trkpt lat="14.553315737540728" lon="120.9940409975809"><ele>10.0</ele><time>2026-05-03T12:49:48Z</time></trkpt><trkpt lat="14.553329934528668" lon="120.99415527410913"><ele>9.25</ele><time>2026-05-03T12:49:49Z</time></trkpt><trkpt lat="14.553344798045826" lon="120.99426783286505"><ele>8.5</ele><time>2026-05-03T12:49:50Z</time></trkpt><trkpt lat="14.553351470358919" lon="120.99438745265297"><ele>7.75</ele><time>2026-05-03T12:49:51Z</time></trkpt><trkpt lat="14.55337770611856" lon="120.9945063823007"><ele>7.0</ele><time>2026-05-03T12:49:52Z</time></trkpt><trkpt lat="14.553408105610389" lon="120.99463114713836"><ele>7.0</ele><time>2026-05-03T12:49:53Z</time></trkpt><trkpt lat="14.553434586118117" lon="120.9947692753667"><ele>7.0</ele><time>2026-05-03T12:49:54Z</time></trkpt><trkpt lat="14.553454622510698" lon="120.99490829209387"><ele>7.0</ele><time>2026-05-03T12:49:55Z</time></trkpt><trkpt lat="14.553482406560363" lon="120.99504835591314"><ele>7.0</ele><time>2026-05-03T12:49:56Z</time></trkpt><trkpt lat="14.55349987036266" lon="120.99518173201274"><ele>8.5</ele><time>2026-05-03T12:49:57Z</time></trkpt><trkpt lat="14.553517877732205" lon="120.99530130232584"><ele>10.0</ele><time>2026-05-03T12:49:58Z</time></trkpt><trkpt lat="14.55354061741843" lon="120.99542497255082"><ele>11.5</ele><time>2026-05-03T12:49:59Z</time></trkpt><trkpt lat="14.553568532826825" lon="120.995547741955"><ele>13.0</ele><time>2026-05-03T12:50:00Z</time></trkpt><trkpt lat="14.553598273099025" lon="120.99567085157439"><ele>13.0</ele><time>2026-05-03T12:50:01Z</time></trkpt><trkpt lat="14.553622363924799" lon="120.99577930048345"><ele>13.0</ele><time>2026-05-03T12:50:02Z</time></trkpt><trkpt lat="14.553645319489036" lon="120.99587490368856"><ele>13.0</ele><time>2026-05-03T12:50:03Z</time></trkpt><trkpt lat="14.5536671510164" lon="120.99597701457255"><ele>13.0</ele><time>2026-05-03T12:50:04Z</time></trkpt><trkpt lat="14.553690065480216" lon="120.9960856562023"><ele>13.0</ele><time>2026-05-03T12:50:05Z</time></trkpt><trkpt lat="14.5537158608375" lon="120.99619463301946"><ele>12.200000000000001</ele><time>2026-05-03T12:50:06Z</time></trkpt><trkpt lat="14.553741311579678" lon="120.9963029904699"><ele>11.4</ele><time>2026-05-03T12:50:07Z</time></trkpt><trkpt lat="14.55376598206497" lon="120.99640510663806"><ele>10.600000000000001</ele><time>2026-05-03T12:50:08Z</time></trkpt><trkpt lat="14.55378967664032" lon="120.99650731624155"><ele>9.8</ele><time>2026-05-03T12:50:09Z</time></trkpt><trkpt lat="14.553811803861997" lon="120.99659124404538"><ele>9.0</ele><time>2026-05-03T12:50:10Z</time></trkpt><trkpt lat="14.553830542107235" lon="120.99668849966032"><ele>8.571428571428573</ele><time>2026-05-03T12:50:11Z</time></trkpt><trkpt lat="14.553848357660614" lon="120.99676441616324"><ele>8.142857142857142</ele><time>2026-05-03T12:50:12Z</time></trkpt><trkpt lat="14.553864356915454" lon="120.99682816561277"><ele>7.714285714285714</ele><time>2026-05-03T12:50:13Z</time></trkpt><trkpt lat="14.55387507201739" lon="120.99689327717907"><ele>7.2857142857142865</ele><time>2026-05-03T12:50:14Z</time></trkpt><trkpt lat="14.553893149042276" lon="120.9969662727508"><ele>6.857142857142858</ele><time>2026-05-03T12:50:16Z</time></trkpt><trkpt lat="14.553923723099901" lon="120.99704486136449"><ele>6.428571428571428</ele><time>2026-05-03T12:50:20Z</time></trkpt><trkpt lat="14.553964925838569" lon="120.99712887494194"><ele>6.0</ele><time>2026-05-03T12:50:23Z</time></trkpt><trkpt lat="14.554043303454645" lon="120.997172917941"><ele>6.0</ele><time>2026-05-03T12:50:25.001Z</time></trkpt><trkpt lat="14.554106212536094" lon="120.99718333034613"><ele>6.0</ele><time>2026-05-03T12:50:27Z</time></trkpt><trkpt lat="14.554207225829794" lon="120.99714843107076"><ele>6.0</ele><time>2026-05-03T12:50:30Z</time></trkpt><trkpt lat="14.55429927798572" lon="120.99713520403854"><ele>6.0</ele><time>2026-05-03T12:50:32Z</time></trkpt><trkpt lat="14.554382831741886" lon="120.99711842971452"><ele>6.0</ele><time>2026-05-03T12:50:35Z</time></trkpt><trkpt lat="14.554528493652567" lon="120.99711649900432"><ele>6.5</ele><time>2026-05-03T12:50:45Z</time></trkpt><trkpt lat="14.554608781265443" lon="120.99709279056728"><ele>7.0</ele><time>2026-05-03T12:50:47Z</time></trkpt><trkpt lat="14.554725048709411" lon="120.99706165636343"><ele>7.5</ele><time>2026-05-03T12:50:49Z</time></trkpt><trkpt lat="14.554800465935552" lon="120.99704607847599"><ele>8.0</ele><time>2026-05-03T12:50:50Z</time></trkpt><trkpt lat="14.55487230141252" lon="120.99702957420277"><ele>8.5</ele><time>2026-05-03T12:50:51Z</time></trkpt><trkpt lat="14.554949615980725" lon="120.99700554833429"><ele>9.0</ele><time>2026-05-03T12:50:52Z</time></trkpt><trkpt lat="14.555027474379402" lon="120.99698542394157"><ele>9.0</ele><time>2026-05-03T12:50:53Z</time></trkpt><trkpt lat="14.555110186269395" lon="120.99696241092113"><ele>9.0</ele><time>2026-05-03T12:50:54Z</time></trkpt><trkpt lat="14.555198625719308" lon="120.99693903995613"><ele>9.0</ele><time>2026-05-03T12:50:55Z</time></trkpt><trkpt lat="14.555292488149908" lon="120.99691954715551"><ele>9.0</ele><time>2026-05-03T12:50:56Z</time></trkpt><trkpt lat="14.555367230975543" lon="120.99690025994094"><ele>9.0</ele><time>2026-05-03T12:50:57Z</time></trkpt><trkpt lat="14.555438424441352" lon="120.99688353427099"><ele>9.0</ele><time>2026-05-03T12:50:58Z</time></trkpt><trkpt lat="14.555572706065755" lon="120.99686303837463"><ele>9.0</ele><time>2026-05-03T12:51:00Z</time></trkpt><trkpt lat="14.555638657423206" lon="120.99684629795577"><ele>9.0</ele><time>2026-05-03T12:51:01Z</time></trkpt><trkpt lat="14.555764128384881" lon="120.99681832562261"><ele>9.0</ele><time>2026-05-03T12:51:03Z</time></trkpt><trkpt lat="14.555837665561324" lon="120.99679747840752"><ele>9.0</ele><time>2026-05-03T12:51:04Z</time></trkpt><trkpt lat="14.5559156199305" lon="120.99677416050079"><ele>9.0</ele><time>2026-05-03T12:51:05Z</time></trkpt><trkpt lat="14.555989581862699" lon="120.99675941301433"><ele>9.0</ele><time>2026-05-03T12:51:06Z</time></trkpt><trkpt lat="14.556067374045933" lon="120.99673618947567"><ele>9.0</ele><time>2026-05-03T12:51:07Z</time></trkpt><trkpt lat="14.556142767544824" lon="120.996719517189"><ele>9.0</ele><time>2026-05-03T12:51:08Z</time></trkpt><trkpt lat="14.556217527361694" lon="120.99669465909055"><ele>9.0</ele><time>2026-05-03T12:51:09Z</time></trkpt><trkpt lat="14.55629545755906" lon="120.9966864122438"><ele>9.0</ele><time>2026-05-03T12:51:10Z</time></trkpt><trkpt lat="14.556374229111539" lon="120.99666560329997"><ele>9.0</ele><time>2026-05-03T12:51:11Z</time></trkpt><trkpt lat="14.55645542931311" lon="120.99664656466108"><ele>9.0</ele><time>2026-05-03T12:51:12Z</time></trkpt><trkpt lat="14.556539060984864" lon="120.99662772837934"><ele>8.833333333333334</ele><time>2026-05-03T12:51:13Z</time></trkpt><trkpt lat="14.55662307466675" lon="120.99660756444223"><ele>8.666666666666666</ele><time>2026-05-03T12:51:14Z</time></trkpt><trkpt lat="14.556704528451068" lon="120.99660272872137"><ele>8.5</ele><time>2026-05-03T12:51:15Z</time></trkpt><trkpt lat="14.556786016365525" lon="120.99658032399368"><ele>8.333333333333332</ele><time>2026-05-03T12:51:16Z</time></trkpt><trkpt lat="14.556862695090917" lon="120.99655175593203"><ele>8.166666666666666</ele><time>2026-05-03T12:51:17Z</time></trkpt><trkpt lat="14.556943427389404" lon="120.996534465048"><ele>8.0</ele><time>2026-05-03T12:51:18Z</time></trkpt><trkpt lat="14.557032063477191" lon="120.99651279338924"><ele>8.600000000000001</ele><time>2026-05-03T12:51:19Z</time></trkpt><trkpt lat="14.557127335831584" lon="120.99650996292583"><ele>9.200000000000001</ele><time>2026-05-03T12:51:20Z</time></trkpt><trkpt lat="14.557220848870374" lon="120.99650812987085"><ele>9.8</ele><time>2026-05-03T12:51:21Z</time></trkpt><trkpt lat="14.557304452227536" lon="120.99649240947655"><ele>10.4</ele><time>2026-05-03T12:51:22Z</time></trkpt><trkpt lat="14.557390315412384" lon="120.9964713799116"><ele>11.0</ele><time>2026-05-03T12:51:23Z</time></trkpt><trkpt lat="14.557483682471144" lon="120.99645171123532"><ele>11.0</ele><time>2026-05-03T12:51:24Z</time></trkpt><trkpt lat="14.557574413347943" lon="120.99643342179407"><ele>11.0</ele><time>2026-05-03T12:51:25Z</time></trkpt><trkpt lat="14.557660113799468" lon="120.9964096083049"><ele>11.0</ele><time>2026-05-03T12:51:26Z</time></trkpt><trkpt lat="14.55773596871439" lon="120.99638606522973"><ele>11.0</ele><time>2026-05-03T12:51:27Z</time></trkpt><trkpt lat="14.557800625354451" lon="120.9963635446471"><ele>11.0</ele><time>2026-05-03T12:51:28Z</time></trkpt><trkpt lat="14.55786603885045" lon="120.99634610128449"><ele>11.0</ele><time>2026-05-03T12:51:29Z</time></trkpt><trkpt lat="14.557977255690396" lon="120.99631796464519"><ele>10.5</ele><time>2026-05-03T12:51:31Z</time></trkpt><trkpt lat="14.558054154144486" lon="120.99629578262414"><ele>10.0</ele><time>2026-05-03T12:51:33Z</time></trkpt><trkpt lat="14.558112363221024" lon="120.99625518862649"><ele>9.5</ele><time>2026-05-03T12:51:36Z</time></trkpt><trkpt lat="14.558178834791027" lon="120.99625281339259"><ele>9.0</ele><time>2026-05-03T12:51:50Z</time></trkpt><trkpt lat="14.558125696768256" lon="120.99598171853579"><ele>9.0</ele><time>2026-05-03T12:52:14Z</time></trkpt><trkpt lat="14.558072763068617" lon="120.99590077780577"><ele>9.0</ele><time>2026-05-03T12:52:17Z</time></trkpt><trkpt lat="14.558041526131305" lon="120.99583817365067"><ele>9.0</ele><time>2026-05-03T12:52:20Z</time></trkpt><trkpt lat="14.558020114444302" lon="120.9957558905781"><ele>9.0</ele><time>2026-05-03T12:52:23Z</time></trkpt><trkpt lat="14.55797267940773" lon="120.99568400685529"><ele>9.0</ele><time>2026-05-03T12:52:25Z</time></trkpt><trkpt lat="14.55793155641443" lon="120.99561206403862"><ele>9.0</ele><time>2026-05-03T12:52:27Z</time></trkpt><trkpt lat="14.55787784897943" lon="120.99555175428759"><ele>9.0</ele><time>2026-05-03T12:52:29.06Z</time></trkpt><trkpt lat="14.557814461758989" lon="120.99552493261567"><ele>9.0</ele><time>2026-05-03T12:52:32.046Z</time></trkpt><trkpt lat="14.55775498008559" lon="120.99557916954284"><ele>9.0</ele><time>2026-05-03T12:52:35.029Z</time></trkpt><trkpt lat="14.558236695798302" lon="120.99535592307616"><ele>9.0</ele><time>2026-05-03T12:53:59Z</time></trkpt><trkpt lat="14.558353434657048" lon="120.99534558312973"><ele>9.0</ele><time>2026-05-03T12:56:35Z</time></trkpt></trkseg></trk></gpx>